<?xml version="1.0" encoding="UTF-8" standalone="no" ?>
<gpx xmlns="http://www.topografix.com/GPX/1/1" xmlns:xsi="http://www.w3.org/2001/XMLSchema-instance" xsi:schemaLocation="http://www.topografix.com/GPX/1/1 http://www.topografix.com/GPX/1/1/gpx.xsd" version="1.1" creator="VisuGPX - https://www.visugpx.com">
  <metadata>
    <name>180mn - Nantes - Château Thébaud</name>
  </metadata>
  <trk>
    <name><![CDATA[180mn - Nantes - Château Thébaud_1]]></name>
    <trkseg>
      <trkpt lat="47.2126" lon="-1.57165">
        <ele>67.306347</ele>
        <time>2021-10-30T12:45:10.473Z</time>
      </trkpt>
      <trkpt lat="47.21252" lon="-1.57153">
        <ele>67.305303</ele>
        <time>2021-10-30T12:45:12.465Z</time>
      </trkpt>
      <trkpt lat="47.21256" lon="-1.57138">
        <ele>67.30432</ele>
        <time>2021-10-30T12:45:14.464Z</time>
      </trkpt>
      <trkpt lat="47.21261" lon="-1.57123">
        <ele>67.303256</ele>
        <time>2021-10-30T12:45:16.451Z</time>
      </trkpt>
      <trkpt lat="47.21263" lon="-1.57106">
        <ele>67.28926</ele>
        <time>2021-10-30T12:45:18.461Z</time>
      </trkpt>
      <trkpt lat="47.21264" lon="-1.57091">
        <ele>67.270212</ele>
        <time>2021-10-30T12:45:20.467Z</time>
      </trkpt>
      <trkpt lat="47.21266" lon="-1.57074">
        <ele>67.247215</ele>
        <time>2021-10-30T12:45:23.464Z</time>
      </trkpt>
      <trkpt lat="47.21268" lon="-1.57058">
        <ele>67.227241</ele>
        <time>2021-10-30T12:45:26.455Z</time>
      </trkpt>
      <trkpt lat="47.21269" lon="-1.5704">
        <ele>67.203994</ele>
        <time>2021-10-30T12:45:29.094Z</time>
      </trkpt>
      <trkpt lat="47.21271" lon="-1.57027">
        <ele>67.186757</ele>
        <time>2021-10-30T12:45:31.694Z</time>
      </trkpt>
      <trkpt lat="47.21273" lon="-1.57013">
        <ele>67.16871</ele>
        <time>2021-10-30T12:45:34.282Z</time>
      </trkpt>
      <trkpt lat="47.21274" lon="-1.56999">
        <ele>67.150146</ele>
        <time>2021-10-30T12:45:36.939Z</time>
      </trkpt>
      <trkpt lat="47.21275" lon="-1.56985">
        <ele>67.132771</ele>
        <time>2021-10-30T12:45:39.161Z</time>
      </trkpt>
      <trkpt lat="47.21272" lon="-1.5697">
        <ele>67.112342</ele>
        <time>2021-10-30T12:45:43.098Z</time>
      </trkpt>
      <trkpt lat="47.2126" lon="-1.56964">
        <ele>67.08905</ele>
        <time>2021-10-30T12:45:46.475Z</time>
      </trkpt>
      <trkpt lat="47.21248" lon="-1.56962">
        <ele>67.066161</ele>
        <time>2021-10-30T12:45:48.839Z</time>
      </trkpt>
      <trkpt lat="47.21239" lon="-1.56959">
        <ele>67.048614</ele>
        <time>2021-10-30T12:45:50.714Z</time>
      </trkpt>
      <trkpt lat="47.2123" lon="-1.56956">
        <ele>67.031158</ele>
        <time>2021-10-30T12:45:52.795Z</time>
      </trkpt>
      <trkpt lat="47.2122" lon="-1.56951">
        <ele>67.011934</ele>
        <time>2021-10-30T12:45:55.154Z</time>
      </trkpt>
      <trkpt lat="47.21211" lon="-1.56945">
        <ele>66.993304</ele>
        <time>2021-10-30T12:45:57.174Z</time>
      </trkpt>
      <trkpt lat="47.21199" lon="-1.56941">
        <ele>66.970951</ele>
        <time>2021-10-30T12:45:59.483Z</time>
      </trkpt>
      <trkpt lat="47.2119" lon="-1.56937">
        <ele>66.899659</ele>
        <time>2021-10-30T12:46:01.492Z</time>
      </trkpt>
      <trkpt lat="47.21181" lon="-1.56932">
        <ele>66.808832</ele>
        <time>2021-10-30T12:46:03.467Z</time>
      </trkpt>
      <trkpt lat="47.21171" lon="-1.56928">
        <ele>66.716601</ele>
        <time>2021-10-30T12:46:05.489Z</time>
      </trkpt>
      <trkpt lat="47.21162" lon="-1.56922">
        <ele>66.621795</ele>
        <time>2021-10-30T12:46:07.290Z</time>
      </trkpt>
      <trkpt lat="47.21153" lon="-1.56918">
        <ele>66.528457</ele>
        <time>2021-10-30T12:46:09.462Z</time>
      </trkpt>
      <trkpt lat="47.21142" lon="-1.56912">
        <ele>66.418395</ele>
        <time>2021-10-30T12:46:11.473Z</time>
      </trkpt>
      <trkpt lat="47.21132" lon="-1.56907">
        <ele>66.315399</ele>
        <time>2021-10-30T12:46:13.469Z</time>
      </trkpt>
      <trkpt lat="47.21122" lon="-1.56903">
        <ele>66.219724</ele>
        <time>2021-10-30T12:46:15.467Z</time>
      </trkpt>
      <trkpt lat="47.21111" lon="-1.56898">
        <ele>66.112528</ele>
        <time>2021-10-30T12:46:17.468Z</time>
      </trkpt>
      <trkpt lat="47.21101" lon="-1.56895">
        <ele>66.006426</ele>
        <time>2021-10-30T12:46:19.458Z</time>
      </trkpt>
      <trkpt lat="47.21091" lon="-1.56893">
        <ele>65.911908</ele>
        <time>2021-10-30T12:46:21.477Z</time>
      </trkpt>
      <trkpt lat="47.21081" lon="-1.56887">
        <ele>65.811201</ele>
        <time>2021-10-30T12:46:27.407Z</time>
      </trkpt>
      <trkpt lat="47.21067" lon="-1.56877">
        <ele>65.660806</ele>
        <time>2021-10-30T12:46:30.487Z</time>
      </trkpt>
      <trkpt lat="47.21056" lon="-1.56871">
        <ele>65.546907</ele>
        <time>2021-10-30T12:46:32.460Z</time>
      </trkpt>
      <trkpt lat="47.21044" lon="-1.56863">
        <ele>65.425314</ele>
        <time>2021-10-30T12:46:34.486Z</time>
      </trkpt>
      <trkpt lat="47.21031" lon="-1.56854">
        <ele>65.292924</ele>
        <time>2021-10-30T12:46:36.455Z</time>
      </trkpt>
      <trkpt lat="47.2102" lon="-1.56847">
        <ele>64.955131</ele>
        <time>2021-10-30T12:46:38.755Z</time>
      </trkpt>
      <trkpt lat="47.21008" lon="-1.56848">
        <ele>64.520816</ele>
        <time>2021-10-30T12:46:43.243Z</time>
      </trkpt>
      <trkpt lat="47.20995" lon="-1.56844">
        <ele>64.017313</ele>
        <time>2021-10-30T12:46:46.526Z</time>
      </trkpt>
      <trkpt lat="47.20985" lon="-1.56848">
        <ele>63.620882</ele>
        <time>2021-10-30T12:46:48.469Z</time>
      </trkpt>
      <trkpt lat="47.20976" lon="-1.56853">
        <ele>63.237578</ele>
        <time>2021-10-30T12:46:50.469Z</time>
      </trkpt>
      <trkpt lat="47.20964" lon="-1.56849">
        <ele>62.806791</ele>
        <time>2021-10-30T12:46:52.460Z</time>
      </trkpt>
      <trkpt lat="47.20952" lon="-1.56842">
        <ele>62.328112</ele>
        <time>2021-10-30T12:46:54.467Z</time>
      </trkpt>
      <trkpt lat="47.2094" lon="-1.56834">
        <ele>61.83645</ele>
        <time>2021-10-30T12:46:56.485Z</time>
      </trkpt>
      <trkpt lat="47.20928" lon="-1.56827">
        <ele>61.337403</ele>
        <time>2021-10-30T12:46:58.480Z</time>
      </trkpt>
      <trkpt lat="47.20918" lon="-1.56821">
        <ele>60.928747</ele>
        <time>2021-10-30T12:47:00.517Z</time>
      </trkpt>
      <trkpt lat="47.20909" lon="-1.56816">
        <ele>60.574595</ele>
        <time>2021-10-30T12:47:03.491Z</time>
      </trkpt>
      <trkpt lat="47.20898" lon="-1.5682">
        <ele>60.151377</ele>
        <time>2021-10-30T12:47:11.208Z</time>
      </trkpt>
      <trkpt lat="47.20887" lon="-1.56823">
        <ele>59.738368</ele>
        <time>2021-10-30T12:47:15.388Z</time>
      </trkpt>
      <trkpt lat="47.20886" lon="-1.5681">
        <ele>59.384212</ele>
        <time>2021-10-30T12:47:26.106Z</time>
      </trkpt>
      <trkpt lat="47.20895" lon="-1.56806">
        <ele>59.044879</ele>
        <time>2021-10-30T12:47:27.921Z</time>
      </trkpt>
      <trkpt lat="47.20913" lon="-1.56813">
        <ele>58.492403</ele>
        <time>2021-10-30T12:47:30.470Z</time>
      </trkpt>
      <trkpt lat="47.20921" lon="-1.56819">
        <ele>58.392141</ele>
        <time>2021-10-30T12:47:32.743Z</time>
      </trkpt>
      <trkpt lat="47.20929" lon="-1.56809">
        <ele>58.286313</ele>
        <time>2021-10-30T12:47:35.218Z</time>
      </trkpt>
      <trkpt lat="47.20931" lon="-1.56792">
        <ele>58.165293</ele>
        <time>2021-10-30T12:47:37.465Z</time>
      </trkpt>
      <trkpt lat="47.20934" lon="-1.56778">
        <ele>58.061058</ele>
        <time>2021-10-30T12:47:39.412Z</time>
      </trkpt>
      <trkpt lat="47.20937" lon="-1.56766">
        <ele>57.963233</ele>
        <time>2021-10-30T12:47:41.480Z</time>
      </trkpt>
      <trkpt lat="47.20941" lon="-1.56753">
        <ele>57.866473</ele>
        <time>2021-10-30T12:47:43.468Z</time>
      </trkpt>
      <trkpt lat="47.20944" lon="-1.56741">
        <ele>57.769547</ele>
        <time>2021-10-30T12:47:45.464Z</time>
      </trkpt>
      <trkpt lat="47.20943" lon="-1.56728">
        <ele>57.675177</ele>
        <time>2021-10-30T12:47:48.144Z</time>
      </trkpt>
      <trkpt lat="47.20936" lon="-1.56716">
        <ele>57.56697</ele>
        <time>2021-10-30T12:47:51.301Z</time>
      </trkpt>
      <trkpt lat="47.20925" lon="-1.56717">
        <ele>57.449952</ele>
        <time>2021-10-30T12:47:53.423Z</time>
      </trkpt>
      <trkpt lat="47.20916" lon="-1.56711">
        <ele>57.344339</ele>
        <time>2021-10-30T12:47:56.476Z</time>
      </trkpt>
      <trkpt lat="47.20907" lon="-1.56701">
        <ele>57.232337</ele>
        <time>2021-10-30T12:48:36.640Z</time>
      </trkpt>
      <trkpt lat="47.20898" lon="-1.56693">
        <ele>57.115201</ele>
        <time>2021-10-30T12:48:39.244Z</time>
      </trkpt>
      <trkpt lat="47.2089" lon="-1.56685">
        <ele>57.017596</ele>
        <time>2021-10-30T12:48:40.892Z</time>
      </trkpt>
      <trkpt lat="47.20882" lon="-1.56672">
        <ele>56.88869</ele>
        <time>2021-10-30T12:48:44.294Z</time>
      </trkpt>
      <trkpt lat="47.2088" lon="-1.56658">
        <ele>56.784606</ele>
        <time>2021-10-30T12:48:48.190Z</time>
      </trkpt>
      <trkpt lat="47.20889" lon="-1.5665">
        <ele>56.67854</ele>
        <time>2021-10-30T12:48:59.065Z</time>
      </trkpt>
      <trkpt lat="47.20898" lon="-1.56639">
        <ele>56.678355</ele>
        <time>2021-10-30T12:49:02.501Z</time>
      </trkpt>
      <trkpt lat="47.20912" lon="-1.56624">
        <ele>56.737099</ele>
        <time>2021-10-30T12:49:05.502Z</time>
      </trkpt>
      <trkpt lat="47.20918" lon="-1.56611">
        <ele>56.776114</ele>
        <time>2021-10-30T12:49:07.469Z</time>
      </trkpt>
      <trkpt lat="47.20924" lon="-1.56596">
        <ele>56.817505</ele>
        <time>2021-10-30T12:49:09.486Z</time>
      </trkpt>
      <trkpt lat="47.2093" lon="-1.5658">
        <ele>56.860872</ele>
        <time>2021-10-30T12:49:11.488Z</time>
      </trkpt>
      <trkpt lat="47.20934" lon="-1.56564">
        <ele>56.9024</ele>
        <time>2021-10-30T12:49:13.467Z</time>
      </trkpt>
      <trkpt lat="47.2094" lon="-1.56549">
        <ele>56.943845</ele>
        <time>2021-10-30T12:49:15.470Z</time>
      </trkpt>
      <trkpt lat="47.20945" lon="-1.56533">
        <ele>56.984656</ele>
        <time>2021-10-30T12:49:17.475Z</time>
      </trkpt>
      <trkpt lat="47.20948" lon="-1.56516">
        <ele>57.026244</ele>
        <time>2021-10-30T12:49:19.471Z</time>
      </trkpt>
      <trkpt lat="47.20952" lon="-1.56499">
        <ele>57.070797</ele>
        <time>2021-10-30T12:49:21.470Z</time>
      </trkpt>
      <trkpt lat="47.20958" lon="-1.56482">
        <ele>57.114419</ele>
        <time>2021-10-30T12:49:23.481Z</time>
      </trkpt>
      <trkpt lat="47.20962" lon="-1.56465">
        <ele>57.159092</ele>
        <time>2021-10-30T12:49:25.500Z</time>
      </trkpt>
      <trkpt lat="47.20967" lon="-1.56448">
        <ele>57.201932</ele>
        <time>2021-10-30T12:49:27.471Z</time>
      </trkpt>
      <trkpt lat="47.20972" lon="-1.56432">
        <ele>57.244251</ele>
        <time>2021-10-30T12:49:29.472Z</time>
      </trkpt>
      <trkpt lat="47.20977" lon="-1.56415">
        <ele>57.242806</ele>
        <time>2021-10-30T12:49:31.467Z</time>
      </trkpt>
      <trkpt lat="47.20982" lon="-1.564">
        <ele>57.093845</ele>
        <time>2021-10-30T12:49:33.459Z</time>
      </trkpt>
      <trkpt lat="47.20987" lon="-1.56385">
        <ele>56.946008</ele>
        <time>2021-10-30T12:49:35.494Z</time>
      </trkpt>
      <trkpt lat="47.20993" lon="-1.56369">
        <ele>56.796069</ele>
        <time>2021-10-30T12:49:37.471Z</time>
      </trkpt>
      <trkpt lat="47.20997" lon="-1.56353">
        <ele>56.646972</ele>
        <time>2021-10-30T12:49:39.475Z</time>
      </trkpt>
      <trkpt lat="47.21002" lon="-1.56337">
        <ele>56.495347</ele>
        <time>2021-10-30T12:49:41.472Z</time>
      </trkpt>
      <trkpt lat="47.21004" lon="-1.56319">
        <ele>56.342933</ele>
        <time>2021-10-30T12:49:43.467Z</time>
      </trkpt>
      <trkpt lat="47.21006" lon="-1.56302">
        <ele>56.193906</ele>
        <time>2021-10-30T12:49:45.488Z</time>
      </trkpt>
      <trkpt lat="47.21006" lon="-1.56286">
        <ele>56.052983</ele>
        <time>2021-10-30T12:49:47.468Z</time>
      </trkpt>
      <trkpt lat="47.21006" lon="-1.5627">
        <ele>55.916488</ele>
        <time>2021-10-30T12:49:49.470Z</time>
      </trkpt>
      <trkpt lat="47.21006" lon="-1.56254">
        <ele>55.779087</ele>
        <time>2021-10-30T12:49:51.484Z</time>
      </trkpt>
      <trkpt lat="47.21004" lon="-1.56238">
        <ele>55.640042</ele>
        <time>2021-10-30T12:49:53.477Z</time>
      </trkpt>
      <trkpt lat="47.21001" lon="-1.56222">
        <ele>55.499692</ele>
        <time>2021-10-30T12:49:55.469Z</time>
      </trkpt>
      <trkpt lat="47.20997" lon="-1.56207">
        <ele>55.363089</ele>
        <time>2021-10-30T12:49:57.464Z</time>
      </trkpt>
      <trkpt lat="47.20994" lon="-1.56192">
        <ele>55.22895</ele>
        <time>2021-10-30T12:49:59.480Z</time>
      </trkpt>
      <trkpt lat="47.2099" lon="-1.56178">
        <ele>55.097663</ele>
        <time>2021-10-30T12:50:01.486Z</time>
      </trkpt>
      <trkpt lat="47.20981" lon="-1.56167">
        <ele>54.984914</ele>
        <time>2021-10-30T12:50:05.485Z</time>
      </trkpt>
      <trkpt lat="47.20972" lon="-1.56164">
        <ele>54.943996</ele>
        <time>2021-10-30T12:50:07.492Z</time>
      </trkpt>
      <trkpt lat="47.20963" lon="-1.56163">
        <ele>54.903914</ele>
        <time>2021-10-30T12:50:09.463Z</time>
      </trkpt>
      <trkpt lat="47.20948" lon="-1.56161">
        <ele>54.842195</ele>
        <time>2021-10-30T12:50:12.473Z</time>
      </trkpt>
      <trkpt lat="47.20938" lon="-1.56159">
        <ele>54.795718</ele>
        <time>2021-10-30T12:50:14.489Z</time>
      </trkpt>
      <trkpt lat="47.20926" lon="-1.56157">
        <ele>54.743382</ele>
        <time>2021-10-30T12:50:17.276Z</time>
      </trkpt>
      <trkpt lat="47.20917" lon="-1.56154">
        <ele>54.704542</ele>
        <time>2021-10-30T12:50:19.467Z</time>
      </trkpt>
      <trkpt lat="47.20908" lon="-1.56152">
        <ele>54.663518</ele>
        <time>2021-10-30T12:50:21.468Z</time>
      </trkpt>
      <trkpt lat="47.20898" lon="-1.5615">
        <ele>54.62227</ele>
        <time>2021-10-30T12:50:23.483Z</time>
      </trkpt>
      <trkpt lat="47.20889" lon="-1.56147">
        <ele>54.579914</ele>
        <time>2021-10-30T12:50:25.467Z</time>
      </trkpt>
      <trkpt lat="47.20879" lon="-1.56143">
        <ele>54.537895</ele>
        <time>2021-10-30T12:50:27.477Z</time>
      </trkpt>
      <trkpt lat="47.20869" lon="-1.56141">
        <ele>54.492129</ele>
        <time>2021-10-30T12:50:29.476Z</time>
      </trkpt>
      <trkpt lat="47.20857" lon="-1.56138">
        <ele>54.440935</ele>
        <time>2021-10-30T12:50:31.493Z</time>
      </trkpt>
      <trkpt lat="47.20845" lon="-1.56136">
        <ele>54.389389</ele>
        <time>2021-10-30T12:50:33.491Z</time>
      </trkpt>
      <trkpt lat="47.20834" lon="-1.56134">
        <ele>54.339271</ele>
        <time>2021-10-30T12:50:36.487Z</time>
      </trkpt>
      <trkpt lat="47.20826" lon="-1.56126">
        <ele>54.297379</ele>
        <time>2021-10-30T12:50:38.470Z</time>
      </trkpt>
      <trkpt lat="47.20825" lon="-1.56109">
        <ele>54.247015</ele>
        <time>2021-10-30T12:50:40.488Z</time>
      </trkpt>
      <trkpt lat="47.20821" lon="-1.56092">
        <ele>54.285348</ele>
        <time>2021-10-30T12:50:42.472Z</time>
      </trkpt>
      <trkpt lat="47.20818" lon="-1.56076">
        <ele>54.39101</ele>
        <time>2021-10-30T12:50:44.489Z</time>
      </trkpt>
      <trkpt lat="47.20814" lon="-1.5606">
        <ele>54.496809</ele>
        <time>2021-10-30T12:50:46.470Z</time>
      </trkpt>
      <trkpt lat="47.20811" lon="-1.56043">
        <ele>54.601623</ele>
        <time>2021-10-30T12:50:48.473Z</time>
      </trkpt>
      <trkpt lat="47.20808" lon="-1.56028">
        <ele>54.700692</ele>
        <time>2021-10-30T12:50:50.486Z</time>
      </trkpt>
      <trkpt lat="47.20805" lon="-1.56012">
        <ele>54.796971</ele>
        <time>2021-10-30T12:50:52.468Z</time>
      </trkpt>
      <trkpt lat="47.20803" lon="-1.55996">
        <ele>54.901821</ele>
        <time>2021-10-30T12:50:54.476Z</time>
      </trkpt>
      <trkpt lat="47.208" lon="-1.55979">
        <ele>55.008478</ele>
        <time>2021-10-30T12:50:56.465Z</time>
      </trkpt>
      <trkpt lat="47.20798" lon="-1.55962">
        <ele>55.115725</ele>
        <time>2021-10-30T12:50:58.468Z</time>
      </trkpt>
      <trkpt lat="47.20795" lon="-1.55945">
        <ele>55.2226</ele>
        <time>2021-10-30T12:51:00.509Z</time>
      </trkpt>
      <trkpt lat="47.20792" lon="-1.55929">
        <ele>55.324865</ele>
        <time>2021-10-30T12:51:02.474Z</time>
      </trkpt>
      <trkpt lat="47.20788" lon="-1.55913">
        <ele>55.429373</ele>
        <time>2021-10-30T12:51:04.469Z</time>
      </trkpt>
      <trkpt lat="47.20785" lon="-1.55897">
        <ele>55.531897</ele>
        <time>2021-10-30T12:51:06.472Z</time>
      </trkpt>
      <trkpt lat="47.20781" lon="-1.55881">
        <ele>55.632662</ele>
        <time>2021-10-30T12:51:08.457Z</time>
      </trkpt>
      <trkpt lat="47.20778" lon="-1.55866">
        <ele>55.728285</ele>
        <time>2021-10-30T12:51:10.468Z</time>
      </trkpt>
      <trkpt lat="47.20775" lon="-1.55852">
        <ele>55.821181</ele>
        <time>2021-10-30T12:51:12.474Z</time>
      </trkpt>
      <trkpt lat="47.20773" lon="-1.55836">
        <ele>55.861813</ele>
        <time>2021-10-30T12:51:14.487Z</time>
      </trkpt>
      <trkpt lat="47.20771" lon="-1.5582">
        <ele>55.879594</ele>
        <time>2021-10-30T12:51:16.468Z</time>
      </trkpt>
      <trkpt lat="47.20769" lon="-1.55804">
        <ele>55.897799</ele>
        <time>2021-10-30T12:51:18.470Z</time>
      </trkpt>
      <trkpt lat="47.20768" lon="-1.55788">
        <ele>55.916187</ele>
        <time>2021-10-30T12:51:20.472Z</time>
      </trkpt>
      <trkpt lat="47.20766" lon="-1.55772">
        <ele>55.934392</ele>
        <time>2021-10-30T12:51:22.494Z</time>
      </trkpt>
      <trkpt lat="47.20764" lon="-1.55757">
        <ele>55.95231</ele>
        <time>2021-10-30T12:51:24.486Z</time>
      </trkpt>
      <trkpt lat="47.20762" lon="-1.55741">
        <ele>55.970903</ele>
        <time>2021-10-30T12:51:26.480Z</time>
      </trkpt>
      <trkpt lat="47.2076" lon="-1.55724">
        <ele>55.990191</ele>
        <time>2021-10-30T12:51:28.480Z</time>
      </trkpt>
      <trkpt lat="47.20758" lon="-1.55708">
        <ele>56.009006</ele>
        <time>2021-10-30T12:51:30.475Z</time>
      </trkpt>
      <trkpt lat="47.20755" lon="-1.55692">
        <ele>56.027524</ele>
        <time>2021-10-30T12:51:32.471Z</time>
      </trkpt>
      <trkpt lat="47.20751" lon="-1.55677">
        <ele>56.045675</ele>
        <time>2021-10-30T12:51:34.466Z</time>
      </trkpt>
      <trkpt lat="47.20746" lon="-1.55662">
        <ele>56.064272</ele>
        <time>2021-10-30T12:51:36.482Z</time>
      </trkpt>
      <trkpt lat="47.20745" lon="-1.55645">
        <ele>56.084232</ele>
        <time>2021-10-30T12:51:38.474Z</time>
      </trkpt>
      <trkpt lat="47.20743" lon="-1.55628">
        <ele>56.104081</ele>
        <time>2021-10-30T12:51:40.465Z</time>
      </trkpt>
      <trkpt lat="47.20741" lon="-1.55612">
        <ele>56.122489</ele>
        <time>2021-10-30T12:51:42.481Z</time>
      </trkpt>
      <trkpt lat="47.20741" lon="-1.55595">
        <ele>56.141341</ele>
        <time>2021-10-30T12:51:44.498Z</time>
      </trkpt>
      <trkpt lat="47.20738" lon="-1.55579">
        <ele>56.014166</ele>
        <time>2021-10-30T12:51:46.474Z</time>
      </trkpt>
      <trkpt lat="47.20736" lon="-1.55563">
        <ele>55.79511</ele>
        <time>2021-10-30T12:51:48.476Z</time>
      </trkpt>
      <trkpt lat="47.20734" lon="-1.55547">
        <ele>55.584961</ele>
        <time>2021-10-30T12:51:50.471Z</time>
      </trkpt>
      <trkpt lat="47.20733" lon="-1.55531">
        <ele>55.377628</ele>
        <time>2021-10-30T12:51:52.496Z</time>
      </trkpt>
      <trkpt lat="47.20732" lon="-1.55518">
        <ele>55.192484</ele>
        <time>2021-10-30T12:51:54.483Z</time>
      </trkpt>
      <trkpt lat="47.20732" lon="-1.55502">
        <ele>54.985624</ele>
        <time>2021-10-30T12:51:57.470Z</time>
      </trkpt>
      <trkpt lat="47.2073" lon="-1.55482">
        <ele>54.716183</ele>
        <time>2021-10-30T12:52:00.482Z</time>
      </trkpt>
      <trkpt lat="47.20727" lon="-1.55463">
        <ele>54.465622</ele>
        <time>2021-10-30T12:52:02.470Z</time>
      </trkpt>
      <trkpt lat="47.20724" lon="-1.55445">
        <ele>54.217746</ele>
        <time>2021-10-30T12:52:04.459Z</time>
      </trkpt>
      <trkpt lat="47.20722" lon="-1.55429">
        <ele>53.991861</ele>
        <time>2021-10-30T12:52:06.479Z</time>
      </trkpt>
      <trkpt lat="47.20719" lon="-1.55412">
        <ele>53.764589</ele>
        <time>2021-10-30T12:52:08.472Z</time>
      </trkpt>
      <trkpt lat="47.20717" lon="-1.55396">
        <ele>53.55305</ele>
        <time>2021-10-30T12:52:10.471Z</time>
      </trkpt>
      <trkpt lat="47.20715" lon="-1.5538">
        <ele>53.329837</ele>
        <time>2021-10-30T12:52:12.458Z</time>
      </trkpt>
      <trkpt lat="47.20713" lon="-1.55362">
        <ele>53.098454</ele>
        <time>2021-10-30T12:52:14.457Z</time>
      </trkpt>
      <trkpt lat="47.20712" lon="-1.55346">
        <ele>52.884012</ele>
        <time>2021-10-30T12:52:16.486Z</time>
      </trkpt>
      <trkpt lat="47.20709" lon="-1.55329">
        <ele>52.65208</ele>
        <time>2021-10-30T12:52:18.474Z</time>
      </trkpt>
      <trkpt lat="47.20708" lon="-1.55315">
        <ele>52.687184</ele>
        <time>2021-10-30T12:52:20.472Z</time>
      </trkpt>
      <trkpt lat="47.20707" lon="-1.55298">
        <ele>52.745776</ele>
        <time>2021-10-30T12:52:22.507Z</time>
      </trkpt>
      <trkpt lat="47.20705" lon="-1.55281">
        <ele>52.806189</ele>
        <time>2021-10-30T12:52:24.457Z</time>
      </trkpt>
      <trkpt lat="47.20704" lon="-1.55266">
        <ele>52.858738</ele>
        <time>2021-10-30T12:52:26.462Z</time>
      </trkpt>
      <trkpt lat="47.20702" lon="-1.55249">
        <ele>52.917839</ele>
        <time>2021-10-30T12:52:28.461Z</time>
      </trkpt>
      <trkpt lat="47.207" lon="-1.55234">
        <ele>52.974599</ele>
        <time>2021-10-30T12:52:30.472Z</time>
      </trkpt>
      <trkpt lat="47.20699" lon="-1.55218">
        <ele>53.027992</ele>
        <time>2021-10-30T12:52:32.477Z</time>
      </trkpt>
      <trkpt lat="47.20698" lon="-1.55203">
        <ele>53.083134</ele>
        <time>2021-10-30T12:52:34.479Z</time>
      </trkpt>
      <trkpt lat="47.20698" lon="-1.55187">
        <ele>53.138744</ele>
        <time>2021-10-30T12:52:36.476Z</time>
      </trkpt>
      <trkpt lat="47.20696" lon="-1.55173">
        <ele>53.189731</ele>
        <time>2021-10-30T12:52:38.468Z</time>
      </trkpt>
      <trkpt lat="47.20692" lon="-1.55158">
        <ele>53.246527</ele>
        <time>2021-10-30T12:52:40.480Z</time>
      </trkpt>
      <trkpt lat="47.20688" lon="-1.55143">
        <ele>53.299625</ele>
        <time>2021-10-30T12:52:42.462Z</time>
      </trkpt>
      <trkpt lat="47.20685" lon="-1.55128">
        <ele>53.354748</ele>
        <time>2021-10-30T12:52:44.485Z</time>
      </trkpt>
      <trkpt lat="47.20685" lon="-1.55113">
        <ele>53.409715</ele>
        <time>2021-10-30T12:52:46.475Z</time>
      </trkpt>
      <trkpt lat="47.20685" lon="-1.55096">
        <ele>53.467433</ele>
        <time>2021-10-30T12:52:48.464Z</time>
      </trkpt>
      <trkpt lat="47.20686" lon="-1.5508">
        <ele>53.526229</ele>
        <time>2021-10-30T12:52:50.470Z</time>
      </trkpt>
      <trkpt lat="47.20686" lon="-1.55063">
        <ele>53.632326</ele>
        <time>2021-10-30T12:52:52.469Z</time>
      </trkpt>
      <trkpt lat="47.20687" lon="-1.55046">
        <ele>53.856012</ele>
        <time>2021-10-30T12:52:54.491Z</time>
      </trkpt>
      <trkpt lat="47.20687" lon="-1.5503">
        <ele>54.074219</ele>
        <time>2021-10-30T12:52:56.475Z</time>
      </trkpt>
      <trkpt lat="47.20687" lon="-1.55014">
        <ele>54.296443</ele>
        <time>2021-10-30T12:52:58.480Z</time>
      </trkpt>
      <trkpt lat="47.20688" lon="-1.54998">
        <ele>54.51231</ele>
        <time>2021-10-30T12:53:00.481Z</time>
      </trkpt>
      <trkpt lat="47.20688" lon="-1.54981">
        <ele>54.738598</ele>
        <time>2021-10-30T12:53:02.480Z</time>
      </trkpt>
      <trkpt lat="47.20688" lon="-1.54965">
        <ele>54.966241</ele>
        <time>2021-10-30T12:53:04.477Z</time>
      </trkpt>
      <trkpt lat="47.20689" lon="-1.54949">
        <ele>55.183341</ele>
        <time>2021-10-30T12:53:06.487Z</time>
      </trkpt>
      <trkpt lat="47.20689" lon="-1.54933">
        <ele>55.39755</ele>
        <time>2021-10-30T12:53:08.472Z</time>
      </trkpt>
      <trkpt lat="47.20691" lon="-1.54917">
        <ele>55.61168</ele>
        <time>2021-10-30T12:53:10.465Z</time>
      </trkpt>
      <trkpt lat="47.20695" lon="-1.54904">
        <ele>55.810788</ele>
        <time>2021-10-30T12:53:12.461Z</time>
      </trkpt>
      <trkpt lat="47.207" lon="-1.5489">
        <ele>56.014193</ele>
        <time>2021-10-30T12:53:15.485Z</time>
      </trkpt>
      <trkpt lat="47.20697" lon="-1.54877">
        <ele>56.200958</ele>
        <time>2021-10-30T12:53:18.487Z</time>
      </trkpt>
      <trkpt lat="47.20688" lon="-1.54871">
        <ele>56.407116</ele>
        <time>2021-10-30T12:53:19.826Z</time>
      </trkpt>
      <trkpt lat="47.20676" lon="-1.54861">
        <ele>56.673873</ele>
        <time>2021-10-30T12:53:22.482Z</time>
      </trkpt>
      <trkpt lat="47.20667" lon="-1.54854">
        <ele>56.885824</ele>
        <time>2021-10-30T12:53:24.476Z</time>
      </trkpt>
      <trkpt lat="47.20658" lon="-1.54846">
        <ele>57.104767</ele>
        <time>2021-10-30T12:53:26.488Z</time>
      </trkpt>
      <trkpt lat="47.20648" lon="-1.54838">
        <ele>57.177777</ele>
        <time>2021-10-30T12:53:28.481Z</time>
      </trkpt>
      <trkpt lat="47.20639" lon="-1.54831">
        <ele>57.206664</ele>
        <time>2021-10-30T12:53:30.507Z</time>
      </trkpt>
      <trkpt lat="47.2063" lon="-1.54824">
        <ele>57.234314</ele>
        <time>2021-10-30T12:53:32.469Z</time>
      </trkpt>
      <trkpt lat="47.20622" lon="-1.54817">
        <ele>57.261059</ele>
        <time>2021-10-30T12:53:34.491Z</time>
      </trkpt>
      <trkpt lat="47.20614" lon="-1.54809">
        <ele>57.286759</ele>
        <time>2021-10-30T12:53:36.484Z</time>
      </trkpt>
      <trkpt lat="47.20604" lon="-1.54801">
        <ele>57.318154</ele>
        <time>2021-10-30T12:53:39.492Z</time>
      </trkpt>
      <trkpt lat="47.20562" lon="-1.54768">
        <ele>57.450517</ele>
        <time>2021-10-30T12:54:31.393Z</time>
      </trkpt>
      <trkpt lat="47.20553" lon="-1.54763">
        <ele>57.476352</ele>
        <time>2021-10-30T12:54:33.605Z</time>
      </trkpt>
      <trkpt lat="47.20544" lon="-1.54757">
        <ele>57.503498</ele>
        <time>2021-10-30T12:54:36.107Z</time>
      </trkpt>
      <trkpt lat="47.20536" lon="-1.5475">
        <ele>57.529339</ele>
        <time>2021-10-30T12:54:39.007Z</time>
      </trkpt>
      <trkpt lat="47.20528" lon="-1.54742">
        <ele>57.556653</ele>
        <time>2021-10-30T12:54:41.385Z</time>
      </trkpt>
      <trkpt lat="47.20514" lon="-1.54736">
        <ele>57.594609</ele>
        <time>2021-10-30T12:54:43.471Z</time>
      </trkpt>
      <trkpt lat="47.20502" lon="-1.5473">
        <ele>57.631192</ele>
        <time>2021-10-30T12:54:46.472Z</time>
      </trkpt>
      <trkpt lat="47.20493" lon="-1.54725">
        <ele>57.59213</ele>
        <time>2021-10-30T12:54:48.458Z</time>
      </trkpt>
      <trkpt lat="47.20485" lon="-1.54719">
        <ele>57.302382</ele>
        <time>2021-10-30T12:54:50.483Z</time>
      </trkpt>
      <trkpt lat="47.20476" lon="-1.54712">
        <ele>57.001842</ele>
        <time>2021-10-30T12:54:52.469Z</time>
      </trkpt>
      <trkpt lat="47.20467" lon="-1.54705">
        <ele>56.703793</ele>
        <time>2021-10-30T12:54:54.473Z</time>
      </trkpt>
      <trkpt lat="47.20458" lon="-1.54699">
        <ele>56.399241</ele>
        <time>2021-10-30T12:54:56.459Z</time>
      </trkpt>
      <trkpt lat="47.20449" lon="-1.54693">
        <ele>56.083016</ele>
        <time>2021-10-30T12:54:58.489Z</time>
      </trkpt>
      <trkpt lat="47.20439" lon="-1.54687">
        <ele>55.764227</ele>
        <time>2021-10-30T12:55:00.465Z</time>
      </trkpt>
      <trkpt lat="47.2043" lon="-1.5468">
        <ele>55.456385</ele>
        <time>2021-10-30T12:55:02.476Z</time>
      </trkpt>
      <trkpt lat="47.20421" lon="-1.54673">
        <ele>55.142088</ele>
        <time>2021-10-30T12:55:04.458Z</time>
      </trkpt>
      <trkpt lat="47.2041" lon="-1.54668">
        <ele>54.801537</ele>
        <time>2021-10-30T12:55:06.486Z</time>
      </trkpt>
      <trkpt lat="47.20399" lon="-1.54662">
        <ele>54.452369</ele>
        <time>2021-10-30T12:55:08.480Z</time>
      </trkpt>
      <trkpt lat="47.20389" lon="-1.54655">
        <ele>54.10373</ele>
        <time>2021-10-30T12:55:10.466Z</time>
      </trkpt>
      <trkpt lat="47.20378" lon="-1.54648">
        <ele>53.750403</ele>
        <time>2021-10-30T12:55:12.480Z</time>
      </trkpt>
      <trkpt lat="47.20369" lon="-1.54641">
        <ele>53.416191</ele>
        <time>2021-10-30T12:55:14.479Z</time>
      </trkpt>
      <trkpt lat="47.20359" lon="-1.54634">
        <ele>53.094392</ele>
        <time>2021-10-30T12:55:16.488Z</time>
      </trkpt>
      <trkpt lat="47.20348" lon="-1.54628">
        <ele>52.74777</ele>
        <time>2021-10-30T12:55:18.487Z</time>
      </trkpt>
      <trkpt lat="47.20338" lon="-1.54621">
        <ele>52.39591</ele>
        <time>2021-10-30T12:55:20.473Z</time>
      </trkpt>
      <trkpt lat="47.20327" lon="-1.54615">
        <ele>52.221601</ele>
        <time>2021-10-30T12:55:22.485Z</time>
      </trkpt>
      <trkpt lat="47.20317" lon="-1.54608">
        <ele>52.334407</ele>
        <time>2021-10-30T12:55:24.467Z</time>
      </trkpt>
      <trkpt lat="47.20307" lon="-1.54601">
        <ele>52.448663</ele>
        <time>2021-10-30T12:55:26.484Z</time>
      </trkpt>
      <trkpt lat="47.20296" lon="-1.54594">
        <ele>52.570061</ele>
        <time>2021-10-30T12:55:28.469Z</time>
      </trkpt>
      <trkpt lat="47.20285" lon="-1.54587">
        <ele>52.693235</ele>
        <time>2021-10-30T12:55:30.510Z</time>
      </trkpt>
      <trkpt lat="47.20275" lon="-1.5458">
        <ele>52.81119</ele>
        <time>2021-10-30T12:55:32.481Z</time>
      </trkpt>
      <trkpt lat="47.20264" lon="-1.54572">
        <ele>52.931249</ele>
        <time>2021-10-30T12:55:34.465Z</time>
      </trkpt>
      <trkpt lat="47.20253" lon="-1.54564">
        <ele>53.056192</ele>
        <time>2021-10-30T12:55:36.470Z</time>
      </trkpt>
      <trkpt lat="47.20244" lon="-1.54557">
        <ele>53.165671</ele>
        <time>2021-10-30T12:55:38.472Z</time>
      </trkpt>
      <trkpt lat="47.20234" lon="-1.54551">
        <ele>53.275603</ele>
        <time>2021-10-30T12:55:40.466Z</time>
      </trkpt>
      <trkpt lat="47.20223" lon="-1.54546">
        <ele>53.386759</ele>
        <time>2021-10-30T12:55:42.483Z</time>
      </trkpt>
      <trkpt lat="47.20213" lon="-1.5454">
        <ele>53.501492</ele>
        <time>2021-10-30T12:55:44.487Z</time>
      </trkpt>
      <trkpt lat="47.20202" lon="-1.54534">
        <ele>53.61468</ele>
        <time>2021-10-30T12:55:46.472Z</time>
      </trkpt>
      <trkpt lat="47.20193" lon="-1.54528">
        <ele>53.724781</ele>
        <time>2021-10-30T12:55:48.471Z</time>
      </trkpt>
      <trkpt lat="47.20183" lon="-1.54522">
        <ele>53.83313</ele>
        <time>2021-10-30T12:55:50.465Z</time>
      </trkpt>
      <trkpt lat="47.20174" lon="-1.54516">
        <ele>53.93221</ele>
        <time>2021-10-30T12:55:52.469Z</time>
      </trkpt>
      <trkpt lat="47.20163" lon="-1.5451">
        <ele>54.086329</ele>
        <time>2021-10-30T12:55:55.504Z</time>
      </trkpt>
      <trkpt lat="47.20153" lon="-1.54504">
        <ele>54.316686</ele>
        <time>2021-10-30T12:55:57.505Z</time>
      </trkpt>
      <trkpt lat="47.20142" lon="-1.54494">
        <ele>54.574417</ele>
        <time>2021-10-30T12:55:59.998Z</time>
      </trkpt>
      <trkpt lat="47.20148" lon="-1.54478">
        <ele>54.84165</ele>
        <time>2021-10-30T12:56:03.274Z</time>
      </trkpt>
      <trkpt lat="47.20142" lon="-1.54464">
        <ele>55.082101</ele>
        <time>2021-10-30T12:56:06.480Z</time>
      </trkpt>
      <trkpt lat="47.20129" lon="-1.54458">
        <ele>55.371822</ele>
        <time>2021-10-30T12:56:09.479Z</time>
      </trkpt>
      <trkpt lat="47.20118" lon="-1.5445">
        <ele>55.62474</ele>
        <time>2021-10-30T12:56:11.472Z</time>
      </trkpt>
      <trkpt lat="47.2011" lon="-1.54439">
        <ele>55.851434</ele>
        <time>2021-10-30T12:56:13.497Z</time>
      </trkpt>
      <trkpt lat="47.20107" lon="-1.54425">
        <ele>56.057422</ele>
        <time>2021-10-30T12:56:15.486Z</time>
      </trkpt>
      <trkpt lat="47.20102" lon="-1.54413">
        <ele>56.260429</ele>
        <time>2021-10-30T12:56:19.213Z</time>
      </trkpt>
      <trkpt lat="47.20093" lon="-1.54415">
        <ele>56.454879</ele>
        <time>2021-10-30T12:56:21.231Z</time>
      </trkpt>
      <trkpt lat="47.20083" lon="-1.54413">
        <ele>56.674168</ele>
        <time>2021-10-30T12:56:23.481Z</time>
      </trkpt>
      <trkpt lat="47.20073" lon="-1.54407">
        <ele>56.889466</ele>
        <time>2021-10-30T12:56:25.476Z</time>
      </trkpt>
      <trkpt lat="47.20064" lon="-1.54401">
        <ele>57.112057</ele>
        <time>2021-10-30T12:56:27.471Z</time>
      </trkpt>
      <trkpt lat="47.20054" lon="-1.54394">
        <ele>57.33171</ele>
        <time>2021-10-30T12:56:29.468Z</time>
      </trkpt>
      <trkpt lat="47.20044" lon="-1.54388">
        <ele>57.554852</ele>
        <time>2021-10-30T12:56:31.486Z</time>
      </trkpt>
      <trkpt lat="47.20035" lon="-1.54381">
        <ele>57.777056</ele>
        <time>2021-10-30T12:56:33.473Z</time>
      </trkpt>
      <trkpt lat="47.20025" lon="-1.54374">
        <ele>57.73738</ele>
        <time>2021-10-30T12:56:35.476Z</time>
      </trkpt>
      <trkpt lat="47.20015" lon="-1.54368">
        <ele>57.686739</ele>
        <time>2021-10-30T12:56:37.474Z</time>
      </trkpt>
      <trkpt lat="47.20006" lon="-1.54361">
        <ele>57.639334</ele>
        <time>2021-10-30T12:56:39.479Z</time>
      </trkpt>
      <trkpt lat="47.19997" lon="-1.54355">
        <ele>57.594402</ele>
        <time>2021-10-30T12:56:41.474Z</time>
      </trkpt>
      <trkpt lat="47.19988" lon="-1.54349">
        <ele>57.547831</ele>
        <time>2021-10-30T12:56:43.465Z</time>
      </trkpt>
      <trkpt lat="47.19979" lon="-1.54343">
        <ele>57.500835</ele>
        <time>2021-10-30T12:56:45.474Z</time>
      </trkpt>
      <trkpt lat="47.1997" lon="-1.54337">
        <ele>57.453803</ele>
        <time>2021-10-30T12:56:47.469Z</time>
      </trkpt>
      <trkpt lat="47.19961" lon="-1.54331">
        <ele>57.408077</ele>
        <time>2021-10-30T12:56:49.463Z</time>
      </trkpt>
      <trkpt lat="47.19952" lon="-1.54324">
        <ele>57.360656</ele>
        <time>2021-10-30T12:56:51.486Z</time>
      </trkpt>
      <trkpt lat="47.19943" lon="-1.54319">
        <ele>57.31418</ele>
        <time>2021-10-30T12:56:53.469Z</time>
      </trkpt>
      <trkpt lat="47.19934" lon="-1.54312">
        <ele>57.26649</ele>
        <time>2021-10-30T12:56:55.457Z</time>
      </trkpt>
      <trkpt lat="47.19924" lon="-1.54306">
        <ele>57.216273</ele>
        <time>2021-10-30T12:56:57.476Z</time>
      </trkpt>
      <trkpt lat="47.19914" lon="-1.54299">
        <ele>57.165496</ele>
        <time>2021-10-30T12:56:59.468Z</time>
      </trkpt>
      <trkpt lat="47.19905" lon="-1.54293">
        <ele>57.1171</ele>
        <time>2021-10-30T12:57:01.468Z</time>
      </trkpt>
      <trkpt lat="47.19895" lon="-1.54287">
        <ele>57.065438</ele>
        <time>2021-10-30T12:57:03.474Z</time>
      </trkpt>
      <trkpt lat="47.19884" lon="-1.54279">
        <ele>57.011722</ele>
        <time>2021-10-30T12:57:05.471Z</time>
      </trkpt>
      <trkpt lat="47.19873" lon="-1.54272">
        <ele>56.955755</ele>
        <time>2021-10-30T12:57:07.468Z</time>
      </trkpt>
      <trkpt lat="47.19863" lon="-1.54264">
        <ele>56.795201</ele>
        <time>2021-10-30T12:57:09.467Z</time>
      </trkpt>
      <trkpt lat="47.19852" lon="-1.54257">
        <ele>56.602078</ele>
        <time>2021-10-30T12:57:11.466Z</time>
      </trkpt>
      <trkpt lat="47.19841" lon="-1.54249">
        <ele>56.406163</ele>
        <time>2021-10-30T12:57:13.460Z</time>
      </trkpt>
      <trkpt lat="47.1983" lon="-1.54241">
        <ele>56.208793</ele>
        <time>2021-10-30T12:57:15.480Z</time>
      </trkpt>
      <trkpt lat="47.19819" lon="-1.54234">
        <ele>56.012367</ele>
        <time>2021-10-30T12:57:17.485Z</time>
      </trkpt>
      <trkpt lat="47.19808" lon="-1.54225">
        <ele>55.807235</ele>
        <time>2021-10-30T12:57:19.485Z</time>
      </trkpt>
      <trkpt lat="47.19796" lon="-1.54217">
        <ele>55.599219</ele>
        <time>2021-10-30T12:57:21.473Z</time>
      </trkpt>
      <trkpt lat="47.19785" lon="-1.54209">
        <ele>55.397469</ele>
        <time>2021-10-30T12:57:23.463Z</time>
      </trkpt>
      <trkpt lat="47.19774" lon="-1.54201">
        <ele>55.197649</ele>
        <time>2021-10-30T12:57:25.465Z</time>
      </trkpt>
      <trkpt lat="47.19763" lon="-1.54192">
        <ele>55.002874</ele>
        <time>2021-10-30T12:57:27.489Z</time>
      </trkpt>
      <trkpt lat="47.19753" lon="-1.54185">
        <ele>54.823403</ele>
        <time>2021-10-30T12:57:29.459Z</time>
      </trkpt>
      <trkpt lat="47.19743" lon="-1.54179">
        <ele>54.647723</ele>
        <time>2021-10-30T12:57:31.485Z</time>
      </trkpt>
      <trkpt lat="47.19733" lon="-1.54173">
        <ele>54.469459</ele>
        <time>2021-10-30T12:57:33.485Z</time>
      </trkpt>
      <trkpt lat="47.19722" lon="-1.5417">
        <ele>54.28324</ele>
        <time>2021-10-30T12:57:35.473Z</time>
      </trkpt>
      <trkpt lat="47.19711" lon="-1.54169">
        <ele>54.101867</ele>
        <time>2021-10-30T12:57:37.486Z</time>
      </trkpt>
      <trkpt lat="47.19699" lon="-1.54171">
        <ele>54.054233</ele>
        <time>2021-10-30T12:57:39.470Z</time>
      </trkpt>
      <trkpt lat="47.19689" lon="-1.54176">
        <ele>54.083009</ele>
        <time>2021-10-30T12:57:41.473Z</time>
      </trkpt>
      <trkpt lat="47.19678" lon="-1.54181">
        <ele>54.112052</ele>
        <time>2021-10-30T12:57:43.481Z</time>
      </trkpt>
      <trkpt lat="47.19667" lon="-1.54186">
        <ele>54.139856</ele>
        <time>2021-10-30T12:57:45.490Z</time>
      </trkpt>
      <trkpt lat="47.19657" lon="-1.5419">
        <ele>54.167966</ele>
        <time>2021-10-30T12:57:47.466Z</time>
      </trkpt>
      <trkpt lat="47.19647" lon="-1.54197">
        <ele>54.19564</ele>
        <time>2021-10-30T12:57:49.473Z</time>
      </trkpt>
      <trkpt lat="47.19637" lon="-1.54203">
        <ele>54.221934</ele>
        <time>2021-10-30T12:57:51.494Z</time>
      </trkpt>
      <trkpt lat="47.19628" lon="-1.54211">
        <ele>54.249935</ele>
        <time>2021-10-30T12:57:53.478Z</time>
      </trkpt>
      <trkpt lat="47.19621" lon="-1.54224">
        <ele>54.278523</ele>
        <time>2021-10-30T12:57:55.479Z</time>
      </trkpt>
      <trkpt lat="47.19615" lon="-1.54237">
        <ele>54.30514</ele>
        <time>2021-10-30T12:57:57.488Z</time>
      </trkpt>
      <trkpt lat="47.1961" lon="-1.54251">
        <ele>54.333569</ele>
        <time>2021-10-30T12:57:59.495Z</time>
      </trkpt>
      <trkpt lat="47.19605" lon="-1.54266">
        <ele>54.362097</ele>
        <time>2021-10-30T12:58:01.505Z</time>
      </trkpt>
      <trkpt lat="47.19599" lon="-1.54279">
        <ele>54.388286</ele>
        <time>2021-10-30T12:58:03.491Z</time>
      </trkpt>
      <trkpt lat="47.19595" lon="-1.54292">
        <ele>54.414069</ele>
        <time>2021-10-30T12:58:05.470Z</time>
      </trkpt>
      <trkpt lat="47.1959" lon="-1.54306">
        <ele>54.441286</ele>
        <time>2021-10-30T12:58:07.464Z</time>
      </trkpt>
      <trkpt lat="47.1959" lon="-1.54321">
        <ele>54.467249</ele>
        <time>2021-10-30T12:58:09.509Z</time>
      </trkpt>
      <trkpt lat="47.19593" lon="-1.54337">
        <ele>54.496702</ele>
        <time>2021-10-30T12:58:11.479Z</time>
      </trkpt>
      <trkpt lat="47.19594" lon="-1.54352">
        <ele>54.548723</ele>
        <time>2021-10-30T12:58:13.481Z</time>
      </trkpt>
      <trkpt lat="47.19592" lon="-1.54365">
        <ele>54.595316</ele>
        <time>2021-10-30T12:58:15.483Z</time>
      </trkpt>
      <trkpt lat="47.19587" lon="-1.54377">
        <ele>54.645777</ele>
        <time>2021-10-30T12:58:17.474Z</time>
      </trkpt>
      <trkpt lat="47.19579" lon="-1.54387">
        <ele>54.699005</ele>
        <time>2021-10-30T12:58:19.478Z</time>
      </trkpt>
      <trkpt lat="47.19569" lon="-1.54393">
        <ele>54.752314</ele>
        <time>2021-10-30T12:58:21.473Z</time>
      </trkpt>
      <trkpt lat="47.1956" lon="-1.544">
        <ele>54.806665</ele>
        <time>2021-10-30T12:58:23.488Z</time>
      </trkpt>
      <trkpt lat="47.19551" lon="-1.54407">
        <ele>54.860371</ele>
        <time>2021-10-30T12:58:25.484Z</time>
      </trkpt>
      <trkpt lat="47.19542" lon="-1.54414">
        <ele>54.913194</ele>
        <time>2021-10-30T12:58:27.474Z</time>
      </trkpt>
      <trkpt lat="47.19533" lon="-1.54421">
        <ele>54.965851</ele>
        <time>2021-10-30T12:58:29.475Z</time>
      </trkpt>
      <trkpt lat="47.19524" lon="-1.54428">
        <ele>55.01818</ele>
        <time>2021-10-30T12:58:31.475Z</time>
      </trkpt>
      <trkpt lat="47.19514" lon="-1.54435">
        <ele>55.072192</ele>
        <time>2021-10-30T12:58:33.479Z</time>
      </trkpt>
      <trkpt lat="47.19505" lon="-1.54441">
        <ele>55.126831</ele>
        <time>2021-10-30T12:58:35.482Z</time>
      </trkpt>
      <trkpt lat="47.19495" lon="-1.54448">
        <ele>55.18254</ele>
        <time>2021-10-30T12:58:37.473Z</time>
      </trkpt>
      <trkpt lat="47.19486" lon="-1.54456">
        <ele>55.236944</ele>
        <time>2021-10-30T12:58:39.482Z</time>
      </trkpt>
      <trkpt lat="47.19477" lon="-1.54464">
        <ele>55.289476</ele>
        <time>2021-10-30T12:58:41.483Z</time>
      </trkpt>
      <trkpt lat="47.19468" lon="-1.54466">
        <ele>55.338914</ele>
        <time>2021-10-30T12:58:43.546Z</time>
      </trkpt>
      <trkpt lat="47.19458" lon="-1.54464">
        <ele>55.386359</ele>
        <time>2021-10-30T12:58:47.496Z</time>
      </trkpt>
      <trkpt lat="47.19449" lon="-1.54477">
        <ele>55.444518</ele>
        <time>2021-10-30T12:58:50.475Z</time>
      </trkpt>
      <trkpt lat="47.1944" lon="-1.54483">
        <ele>55.482336</ele>
        <time>2021-10-30T12:58:52.473Z</time>
      </trkpt>
      <trkpt lat="47.1943" lon="-1.54486">
        <ele>55.519142</ele>
        <time>2021-10-30T12:58:54.512Z</time>
      </trkpt>
      <trkpt lat="47.1943" lon="-1.54472">
        <ele>55.552782</ele>
        <time>2021-10-30T12:58:58.158Z</time>
      </trkpt>
      <trkpt lat="47.1944" lon="-1.54468">
        <ele>55.593581</ele>
        <time>2021-10-30T12:58:59.896Z</time>
      </trkpt>
      <trkpt lat="47.1945" lon="-1.54462">
        <ele>55.633568</ele>
        <time>2021-10-30T12:59:02.089Z</time>
      </trkpt>
      <trkpt lat="47.19456" lon="-1.54448">
        <ele>55.674627</ele>
        <time>2021-10-30T12:59:04.494Z</time>
      </trkpt>
      <trkpt lat="47.1945" lon="-1.54432">
        <ele>55.720362</ele>
        <time>2021-10-30T12:59:06.479Z</time>
      </trkpt>
      <trkpt lat="47.19438" lon="-1.54418">
        <ele>55.775774</ele>
        <time>2021-10-30T12:59:08.493Z</time>
      </trkpt>
      <trkpt lat="47.19428" lon="-1.54405">
        <ele>55.826039</ele>
        <time>2021-10-30T12:59:10.529Z</time>
      </trkpt>
      <trkpt lat="47.1942" lon="-1.54392">
        <ele>55.8716</ele>
        <time>2021-10-30T12:59:12.482Z</time>
      </trkpt>
      <trkpt lat="47.19412" lon="-1.5438">
        <ele>55.912844</ele>
        <time>2021-10-30T12:59:14.498Z</time>
      </trkpt>
      <trkpt lat="47.19405" lon="-1.54368">
        <ele>55.953357</ele>
        <time>2021-10-30T12:59:16.519Z</time>
      </trkpt>
      <trkpt lat="47.19397" lon="-1.54358">
        <ele>55.99203</ele>
        <time>2021-10-30T12:59:18.477Z</time>
      </trkpt>
      <trkpt lat="47.1939" lon="-1.54347">
        <ele>56.030145</ele>
        <time>2021-10-30T12:59:20.502Z</time>
      </trkpt>
      <trkpt lat="47.19382" lon="-1.54338">
        <ele>56.066362</ele>
        <time>2021-10-30T12:59:22.534Z</time>
      </trkpt>
      <trkpt lat="47.19374" lon="-1.54326">
        <ele>55.952589</ele>
        <time>2021-10-30T12:59:27.485Z</time>
      </trkpt>
      <trkpt lat="47.19361" lon="-1.54304">
        <ele>55.42377</ele>
        <time>2021-10-30T12:59:31.480Z</time>
      </trkpt>
      <trkpt lat="47.19352" lon="-1.54292">
        <ele>55.078402</ele>
        <time>2021-10-30T12:59:33.457Z</time>
      </trkpt>
      <trkpt lat="47.19343" lon="-1.54282">
        <ele>54.780552</ele>
        <time>2021-10-30T12:59:35.470Z</time>
      </trkpt>
      <trkpt lat="47.19337" lon="-1.5427">
        <ele>54.50989</ele>
        <time>2021-10-30T12:59:37.474Z</time>
      </trkpt>
      <trkpt lat="47.19335" lon="-1.54255">
        <ele>54.224574</ele>
        <time>2021-10-30T12:59:40.871Z</time>
      </trkpt>
      <trkpt lat="47.19327" lon="-1.54244">
        <ele>53.930009</ele>
        <time>2021-10-30T12:59:42.537Z</time>
      </trkpt>
      <trkpt lat="47.19322" lon="-1.5423">
        <ele>53.640374</ele>
        <time>2021-10-30T12:59:44.483Z</time>
      </trkpt>
      <trkpt lat="47.19317" lon="-1.54218">
        <ele>53.383635</ele>
        <time>2021-10-30T12:59:46.514Z</time>
      </trkpt>
      <trkpt lat="47.1931" lon="-1.54203">
        <ele>53.045074</ele>
        <time>2021-10-30T12:59:50.005Z</time>
      </trkpt>
      <trkpt lat="47.19303" lon="-1.54193">
        <ele>52.773866</ele>
        <time>2021-10-30T12:59:52.847Z</time>
      </trkpt>
      <trkpt lat="47.19294" lon="-1.54185">
        <ele>52.495129</ele>
        <time>2021-10-30T12:59:54.963Z</time>
      </trkpt>
      <trkpt lat="47.19285" lon="-1.54175">
        <ele>52.198972</ele>
        <time>2021-10-30T12:59:57.647Z</time>
      </trkpt>
      <trkpt lat="47.19277" lon="-1.54168">
        <ele>51.939601</ele>
        <time>2021-10-30T12:59:59.826Z</time>
      </trkpt>
      <trkpt lat="47.19271" lon="-1.54154">
        <ele>51.623703</ele>
        <time>2021-10-30T13:00:02.507Z</time>
      </trkpt>
      <trkpt lat="47.19266" lon="-1.54141">
        <ele>51.362506</ele>
        <time>2021-10-30T13:00:04.493Z</time>
      </trkpt>
      <trkpt lat="47.19262" lon="-1.54129">
        <ele>51.181184</ele>
        <time>2021-10-30T13:00:06.467Z</time>
      </trkpt>
      <trkpt lat="47.19256" lon="-1.54118">
        <ele>51.1103</ele>
        <time>2021-10-30T13:00:08.466Z</time>
      </trkpt>
      <trkpt lat="47.19247" lon="-1.54102">
        <ele>51.003884</ele>
        <time>2021-10-30T13:00:11.521Z</time>
      </trkpt>
      <trkpt lat="47.19241" lon="-1.54089">
        <ele>50.924473</ele>
        <time>2021-10-30T13:00:13.490Z</time>
      </trkpt>
      <trkpt lat="47.19236" lon="-1.54076">
        <ele>50.845025</ele>
        <time>2021-10-30T13:00:15.494Z</time>
      </trkpt>
      <trkpt lat="47.19231" lon="-1.54064">
        <ele>50.769374</ele>
        <time>2021-10-30T13:00:17.511Z</time>
      </trkpt>
      <trkpt lat="47.19225" lon="-1.54051">
        <ele>50.689403</ele>
        <time>2021-10-30T13:00:19.498Z</time>
      </trkpt>
      <trkpt lat="47.19219" lon="-1.54038">
        <ele>50.610845</ele>
        <time>2021-10-30T13:00:21.490Z</time>
      </trkpt>
      <trkpt lat="47.19213" lon="-1.54027">
        <ele>50.535543</ele>
        <time>2021-10-30T13:00:23.505Z</time>
      </trkpt>
      <trkpt lat="47.19206" lon="-1.54016">
        <ele>50.461788</ele>
        <time>2021-10-30T13:00:25.499Z</time>
      </trkpt>
      <trkpt lat="47.19198" lon="-1.54002">
        <ele>50.361273</ele>
        <time>2021-10-30T13:00:28.479Z</time>
      </trkpt>
      <trkpt lat="47.19193" lon="-1.5399">
        <ele>50.290826</ele>
        <time>2021-10-30T13:00:30.480Z</time>
      </trkpt>
      <trkpt lat="47.19187" lon="-1.5398">
        <ele>50.221986</ele>
        <time>2021-10-30T13:00:32.510Z</time>
      </trkpt>
      <trkpt lat="47.19179" lon="-1.53965">
        <ele>50.121738</ele>
        <time>2021-10-30T13:00:35.530Z</time>
      </trkpt>
      <trkpt lat="47.1917" lon="-1.53949">
        <ele>50.016285</ele>
        <time>2021-10-30T13:00:38.464Z</time>
      </trkpt>
      <trkpt lat="47.19163" lon="-1.53937">
        <ele>49.938517</ele>
        <time>2021-10-30T13:00:40.486Z</time>
      </trkpt>
      <trkpt lat="47.19158" lon="-1.53926">
        <ele>49.868074</ele>
        <time>2021-10-30T13:00:42.476Z</time>
      </trkpt>
      <trkpt lat="47.19151" lon="-1.53915">
        <ele>49.844147</ele>
        <time>2021-10-30T13:00:44.470Z</time>
      </trkpt>
      <trkpt lat="47.19142" lon="-1.539">
        <ele>49.845783</ele>
        <time>2021-10-30T13:00:47.504Z</time>
      </trkpt>
      <trkpt lat="47.1913" lon="-1.53889">
        <ele>49.847491</ele>
        <time>2021-10-30T13:00:50.472Z</time>
      </trkpt>
      <trkpt lat="47.19121" lon="-1.53881">
        <ele>49.848785</ele>
        <time>2021-10-30T13:00:52.530Z</time>
      </trkpt>
      <trkpt lat="47.19115" lon="-1.53869">
        <ele>49.850047</ele>
        <time>2021-10-30T13:00:54.500Z</time>
      </trkpt>
      <trkpt lat="47.19108" lon="-1.53858">
        <ele>49.851221</ele>
        <time>2021-10-30T13:00:56.493Z</time>
      </trkpt>
      <trkpt lat="47.19101" lon="-1.53849">
        <ele>49.852373</ele>
        <time>2021-10-30T13:00:58.516Z</time>
      </trkpt>
      <trkpt lat="47.19093" lon="-1.53842">
        <ele>49.853495</ele>
        <time>2021-10-30T13:01:00.483Z</time>
      </trkpt>
      <trkpt lat="47.19085" lon="-1.53833">
        <ele>49.854688</ele>
        <time>2021-10-30T13:01:02.496Z</time>
      </trkpt>
      <trkpt lat="47.19077" lon="-1.53824">
        <ele>49.855924</ele>
        <time>2021-10-30T13:01:04.520Z</time>
      </trkpt>
      <trkpt lat="47.19069" lon="-1.53814">
        <ele>49.857147</ele>
        <time>2021-10-30T13:01:06.473Z</time>
      </trkpt>
      <trkpt lat="47.19061" lon="-1.53805">
        <ele>49.858374</ele>
        <time>2021-10-30T13:01:08.500Z</time>
      </trkpt>
      <trkpt lat="47.19053" lon="-1.53796">
        <ele>49.859578</ele>
        <time>2021-10-30T13:01:10.457Z</time>
      </trkpt>
      <trkpt lat="47.19046" lon="-1.53785">
        <ele>49.860793</ele>
        <time>2021-10-30T13:01:12.481Z</time>
      </trkpt>
      <trkpt lat="47.19038" lon="-1.53775">
        <ele>49.861997</ele>
        <time>2021-10-30T13:01:14.495Z</time>
      </trkpt>
      <trkpt lat="47.19031" lon="-1.53765">
        <ele>49.863181</ele>
        <time>2021-10-30T13:01:16.531Z</time>
      </trkpt>
      <trkpt lat="47.19024" lon="-1.53757">
        <ele>49.864325</ele>
        <time>2021-10-30T13:01:18.476Z</time>
      </trkpt>
      <trkpt lat="47.19012" lon="-1.53745">
        <ele>49.990106</ele>
        <time>2021-10-30T13:01:21.500Z</time>
      </trkpt>
      <trkpt lat="47.19005" lon="-1.53735">
        <ele>50.128307</ele>
        <time>2021-10-30T13:01:23.480Z</time>
      </trkpt>
      <trkpt lat="47.18997" lon="-1.53726">
        <ele>50.268581</ele>
        <time>2021-10-30T13:01:25.483Z</time>
      </trkpt>
      <trkpt lat="47.18989" lon="-1.53718">
        <ele>50.413139</ele>
        <time>2021-10-30T13:01:27.479Z</time>
      </trkpt>
      <trkpt lat="47.1898" lon="-1.5371">
        <ele>50.551537</ele>
        <time>2021-10-30T13:01:29.477Z</time>
      </trkpt>
      <trkpt lat="47.18972" lon="-1.53705">
        <ele>50.685872</ele>
        <time>2021-10-30T13:01:31.488Z</time>
      </trkpt>
      <trkpt lat="47.18963" lon="-1.53698">
        <ele>50.824842</ele>
        <time>2021-10-30T13:01:33.468Z</time>
      </trkpt>
      <trkpt lat="47.18954" lon="-1.53692">
        <ele>50.969902</ele>
        <time>2021-10-30T13:01:35.471Z</time>
      </trkpt>
      <trkpt lat="47.18944" lon="-1.53686">
        <ele>51.122989</ele>
        <time>2021-10-30T13:01:37.481Z</time>
      </trkpt>
      <trkpt lat="47.18935" lon="-1.53679">
        <ele>51.263069</ele>
        <time>2021-10-30T13:01:39.464Z</time>
      </trkpt>
      <trkpt lat="47.18926" lon="-1.53671">
        <ele>51.407801</ele>
        <time>2021-10-30T13:01:41.475Z</time>
      </trkpt>
      <trkpt lat="47.18918" lon="-1.53663">
        <ele>51.5442</ele>
        <time>2021-10-30T13:01:43.480Z</time>
      </trkpt>
      <trkpt lat="47.1891" lon="-1.53656">
        <ele>51.682335</ele>
        <time>2021-10-30T13:01:45.475Z</time>
      </trkpt>
      <trkpt lat="47.18901" lon="-1.5365">
        <ele>51.817556</ele>
        <time>2021-10-30T13:01:47.470Z</time>
      </trkpt>
      <trkpt lat="47.18892" lon="-1.53645">
        <ele>51.948468</ele>
        <time>2021-10-30T13:01:49.481Z</time>
      </trkpt>
      <trkpt lat="47.18883" lon="-1.5364">
        <ele>52.09204</ele>
        <time>2021-10-30T13:01:51.499Z</time>
      </trkpt>
      <trkpt lat="47.18874" lon="-1.53634">
        <ele>52.232991</ele>
        <time>2021-10-30T13:01:53.482Z</time>
      </trkpt>
      <trkpt lat="47.18865" lon="-1.53629">
        <ele>52.367046</ele>
        <time>2021-10-30T13:01:55.473Z</time>
      </trkpt>
      <trkpt lat="47.18856" lon="-1.53622">
        <ele>52.410535</ele>
        <time>2021-10-30T13:01:57.475Z</time>
      </trkpt>
      <trkpt lat="47.18843" lon="-1.53616">
        <ele>52.409049</ele>
        <time>2021-10-30T13:02:00.491Z</time>
      </trkpt>
      <trkpt lat="47.18834" lon="-1.53612">
        <ele>52.408025</ele>
        <time>2021-10-30T13:02:02.476Z</time>
      </trkpt>
      <trkpt lat="47.18824" lon="-1.53609">
        <ele>52.406878</ele>
        <time>2021-10-30T13:02:04.514Z</time>
      </trkpt>
      <trkpt lat="47.18813" lon="-1.53606">
        <ele>52.405717</ele>
        <time>2021-10-30T13:02:06.485Z</time>
      </trkpt>
      <trkpt lat="47.18803" lon="-1.53603">
        <ele>52.40459</ele>
        <time>2021-10-30T13:02:08.476Z</time>
      </trkpt>
      <trkpt lat="47.18794" lon="-1.53599">
        <ele>52.403526</ele>
        <time>2021-10-30T13:02:10.510Z</time>
      </trkpt>
      <trkpt lat="47.18785" lon="-1.53596">
        <ele>52.402503</ele>
        <time>2021-10-30T13:02:12.499Z</time>
      </trkpt>
      <trkpt lat="47.18775" lon="-1.53594">
        <ele>52.401429</ele>
        <time>2021-10-30T13:02:14.497Z</time>
      </trkpt>
      <trkpt lat="47.18766" lon="-1.53591">
        <ele>52.400397</ele>
        <time>2021-10-30T13:02:16.521Z</time>
      </trkpt>
      <trkpt lat="47.18757" lon="-1.53588">
        <ele>52.399363</ele>
        <time>2021-10-30T13:02:18.473Z</time>
      </trkpt>
      <trkpt lat="47.18748" lon="-1.53585">
        <ele>52.398364</ele>
        <time>2021-10-30T13:02:20.500Z</time>
      </trkpt>
      <trkpt lat="47.18738" lon="-1.53583">
        <ele>52.397299</ele>
        <time>2021-10-30T13:02:22.520Z</time>
      </trkpt>
      <trkpt lat="47.18729" lon="-1.5358">
        <ele>52.396235</ele>
        <time>2021-10-30T13:02:24.489Z</time>
      </trkpt>
      <trkpt lat="47.18719" lon="-1.53578">
        <ele>52.395169</ele>
        <time>2021-10-30T13:02:26.472Z</time>
      </trkpt>
      <trkpt lat="47.18709" lon="-1.53575">
        <ele>52.394089</ele>
        <time>2021-10-30T13:02:28.533Z</time>
      </trkpt>
      <trkpt lat="47.187" lon="-1.53572">
        <ele>52.393029</ele>
        <time>2021-10-30T13:02:30.479Z</time>
      </trkpt>
      <trkpt lat="47.1869" lon="-1.5357">
        <ele>52.39194</ele>
        <time>2021-10-30T13:02:32.467Z</time>
      </trkpt>
      <trkpt lat="47.18681" lon="-1.53567">
        <ele>52.581434</ele>
        <time>2021-10-30T13:02:34.527Z</time>
      </trkpt>
      <trkpt lat="47.18671" lon="-1.53563">
        <ele>52.866306</ele>
        <time>2021-10-30T13:02:36.470Z</time>
      </trkpt>
      <trkpt lat="47.18661" lon="-1.53561">
        <ele>53.150248</ele>
        <time>2021-10-30T13:02:38.489Z</time>
      </trkpt>
      <trkpt lat="47.18652" lon="-1.53558">
        <ele>53.438679</ele>
        <time>2021-10-30T13:02:40.521Z</time>
      </trkpt>
      <trkpt lat="47.18642" lon="-1.53553">
        <ele>53.719553</ele>
        <time>2021-10-30T13:02:42.478Z</time>
      </trkpt>
      <trkpt lat="47.18634" lon="-1.53546">
        <ele>53.99136</ele>
        <time>2021-10-30T13:02:44.496Z</time>
      </trkpt>
      <trkpt lat="47.18625" lon="-1.53539">
        <ele>54.289594</ele>
        <time>2021-10-30T13:02:46.519Z</time>
      </trkpt>
      <trkpt lat="47.18614" lon="-1.53534">
        <ele>54.640278</ele>
        <time>2021-10-30T13:02:49.486Z</time>
      </trkpt>
      <trkpt lat="47.18605" lon="-1.53529">
        <ele>54.911709</ele>
        <time>2021-10-30T13:02:51.478Z</time>
      </trkpt>
      <trkpt lat="47.1859" lon="-1.53517">
        <ele>55.387556</ele>
        <time>2021-10-30T13:02:54.113Z</time>
      </trkpt>
      <trkpt lat="47.18579" lon="-1.53507">
        <ele>55.777695</ele>
        <time>2021-10-30T13:02:57.541Z</time>
      </trkpt>
      <trkpt lat="47.1857" lon="-1.535">
        <ele>56.053261</ele>
        <time>2021-10-30T13:02:59.478Z</time>
      </trkpt>
      <trkpt lat="47.18562" lon="-1.5349">
        <ele>56.356579</ele>
        <time>2021-10-30T13:03:01.472Z</time>
      </trkpt>
      <trkpt lat="47.18554" lon="-1.53481">
        <ele>56.641989</ele>
        <time>2021-10-30T13:03:03.480Z</time>
      </trkpt>
      <trkpt lat="47.18547" lon="-1.53474">
        <ele>56.907984</ele>
        <time>2021-10-30T13:03:05.484Z</time>
      </trkpt>
      <trkpt lat="47.18539" lon="-1.53465">
        <ele>57.184966</ele>
        <time>2021-10-30T13:03:07.482Z</time>
      </trkpt>
      <trkpt lat="47.18531" lon="-1.53458">
        <ele>57.457268</ele>
        <time>2021-10-30T13:03:09.482Z</time>
      </trkpt>
      <trkpt lat="47.18523" lon="-1.5345">
        <ele>57.581426</ele>
        <time>2021-10-30T13:03:11.497Z</time>
      </trkpt>
      <trkpt lat="47.18514" lon="-1.53445">
        <ele>57.604705</ele>
        <time>2021-10-30T13:03:12.953Z</time>
      </trkpt>
      <trkpt lat="47.18507" lon="-1.53436">
        <ele>57.627552</ele>
        <time>2021-10-30T13:03:14.975Z</time>
      </trkpt>
      <trkpt lat="47.18499" lon="-1.53424">
        <ele>57.656689</ele>
        <time>2021-10-30T13:03:18.257Z</time>
      </trkpt>
      <trkpt lat="47.18491" lon="-1.53412">
        <ele>57.684966</ele>
        <time>2021-10-30T13:03:21.029Z</time>
      </trkpt>
      <trkpt lat="47.18482" lon="-1.53402">
        <ele>57.712286</ele>
        <time>2021-10-30T13:03:23.783Z</time>
      </trkpt>
      <trkpt lat="47.18473" lon="-1.53394">
        <ele>57.737786</ele>
        <time>2021-10-30T13:03:26.245Z</time>
      </trkpt>
      <trkpt lat="47.18465" lon="-1.53387">
        <ele>57.761669</ele>
        <time>2021-10-30T13:03:28.470Z</time>
      </trkpt>
      <trkpt lat="47.18456" lon="-1.53378">
        <ele>57.787602</ele>
        <time>2021-10-30T13:03:30.471Z</time>
      </trkpt>
      <trkpt lat="47.18448" lon="-1.53369">
        <ele>57.812888</ele>
        <time>2021-10-30T13:03:32.468Z</time>
      </trkpt>
      <trkpt lat="47.18441" lon="-1.53359">
        <ele>57.836881</ele>
        <time>2021-10-30T13:03:34.497Z</time>
      </trkpt>
      <trkpt lat="47.18432" lon="-1.53349">
        <ele>57.863867</ele>
        <time>2021-10-30T13:03:36.574Z</time>
      </trkpt>
      <trkpt lat="47.18422" lon="-1.53339">
        <ele>57.89491</ele>
        <time>2021-10-30T13:03:39.474Z</time>
      </trkpt>
      <trkpt lat="47.18414" lon="-1.5333">
        <ele>57.919635</ele>
        <time>2021-10-30T13:03:41.485Z</time>
      </trkpt>
      <trkpt lat="47.18406" lon="-1.53322">
        <ele>57.942473</ele>
        <time>2021-10-30T13:03:43.490Z</time>
      </trkpt>
      <trkpt lat="47.18397" lon="-1.53309">
        <ele>57.97392</ele>
        <time>2021-10-30T13:03:46.494Z</time>
      </trkpt>
      <trkpt lat="47.18388" lon="-1.533">
        <ele>58.000882</ele>
        <time>2021-10-30T13:03:48.465Z</time>
      </trkpt>
      <trkpt lat="47.18379" lon="-1.53291">
        <ele>57.876132</ele>
        <time>2021-10-30T13:03:50.499Z</time>
      </trkpt>
      <trkpt lat="47.18371" lon="-1.53282">
        <ele>57.659955</ele>
        <time>2021-10-30T13:03:52.472Z</time>
      </trkpt>
      <trkpt lat="47.18364" lon="-1.53272">
        <ele>57.455259</ele>
        <time>2021-10-30T13:03:54.482Z</time>
      </trkpt>
      <trkpt lat="47.18357" lon="-1.53262">
        <ele>57.248654</ele>
        <time>2021-10-30T13:03:56.509Z</time>
      </trkpt>
      <trkpt lat="47.1835" lon="-1.53251">
        <ele>57.043333</ele>
        <time>2021-10-30T13:03:58.484Z</time>
      </trkpt>
      <trkpt lat="47.18344" lon="-1.53241">
        <ele>56.845166</ele>
        <time>2021-10-30T13:04:00.482Z</time>
      </trkpt>
      <trkpt lat="47.18337" lon="-1.53232">
        <ele>56.64988</ele>
        <time>2021-10-30T13:04:02.509Z</time>
      </trkpt>
      <trkpt lat="47.18327" lon="-1.53221">
        <ele>56.394294</ele>
        <time>2021-10-30T13:04:05.485Z</time>
      </trkpt>
      <trkpt lat="47.18318" lon="-1.5321">
        <ele>56.146265</ele>
        <time>2021-10-30T13:04:08.338Z</time>
      </trkpt>
      <trkpt lat="47.18309" lon="-1.53195">
        <ele>55.854374</ele>
        <time>2021-10-30T13:04:11.512Z</time>
      </trkpt>
      <trkpt lat="47.18301" lon="-1.53181">
        <ele>55.596503</ele>
        <time>2021-10-30T13:04:14.493Z</time>
      </trkpt>
      <trkpt lat="47.18291" lon="-1.53167">
        <ele>55.318373</ele>
        <time>2021-10-30T13:04:17.466Z</time>
      </trkpt>
      <trkpt lat="47.18281" lon="-1.53162">
        <ele>55.081657</ele>
        <time>2021-10-30T13:04:19.600Z</time>
      </trkpt>
      <trkpt lat="47.18271" lon="-1.53167">
        <ele>54.866203</ele>
        <time>2021-10-30T13:04:22.457Z</time>
      </trkpt>
      <trkpt lat="47.1826" lon="-1.53178">
        <ele>54.597231</ele>
        <time>2021-10-30T13:04:25.163Z</time>
      </trkpt>
      <trkpt lat="47.18253" lon="-1.53189">
        <ele>54.377164</ele>
        <time>2021-10-30T13:04:28.000Z</time>
      </trkpt>
      <trkpt lat="47.18245" lon="-1.53201">
        <ele>54.260617</ele>
        <time>2021-10-30T13:04:31.870Z</time>
      </trkpt>
      <trkpt lat="47.18237" lon="-1.53196">
        <ele>54.267079</ele>
        <time>2021-10-30T13:04:35.976Z</time>
      </trkpt>
      <trkpt lat="47.1824" lon="-1.5318">
        <ele>54.275048</ele>
        <time>2021-10-30T13:04:38.336Z</time>
      </trkpt>
      <trkpt lat="47.18254" lon="-1.53165">
        <ele>54.287527</ele>
        <time>2021-10-30T13:04:40.465Z</time>
      </trkpt>
      <trkpt lat="47.18262" lon="-1.53155">
        <ele>54.295196</ele>
        <time>2021-10-30T13:04:42.474Z</time>
      </trkpt>
      <trkpt lat="47.1827" lon="-1.53146">
        <ele>54.302082</ele>
        <time>2021-10-30T13:04:44.477Z</time>
      </trkpt>
      <trkpt lat="47.18278" lon="-1.53139">
        <ele>54.309248</ele>
        <time>2021-10-30T13:04:46.484Z</time>
      </trkpt>
      <trkpt lat="47.18287" lon="-1.53134">
        <ele>54.315761</ele>
        <time>2021-10-30T13:04:48.487Z</time>
      </trkpt>
      <trkpt lat="47.18296" lon="-1.53126">
        <ele>54.323298</ele>
        <time>2021-10-30T13:04:50.482Z</time>
      </trkpt>
      <trkpt lat="47.18304" lon="-1.53118">
        <ele>54.330525</ele>
        <time>2021-10-30T13:04:52.465Z</time>
      </trkpt>
      <trkpt lat="47.18313" lon="-1.53111">
        <ele>54.337767</ele>
        <time>2021-10-30T13:04:54.508Z</time>
      </trkpt>
      <trkpt lat="47.18322" lon="-1.53103">
        <ele>54.344994</ele>
        <time>2021-10-30T13:04:56.480Z</time>
      </trkpt>
      <trkpt lat="47.18331" lon="-1.53095">
        <ele>54.352604</ele>
        <time>2021-10-30T13:04:58.484Z</time>
      </trkpt>
      <trkpt lat="47.18341" lon="-1.53088">
        <ele>54.360253</ele>
        <time>2021-10-30T13:05:00.476Z</time>
      </trkpt>
      <trkpt lat="47.1835" lon="-1.5308">
        <ele>54.368075</ele>
        <time>2021-10-30T13:05:02.491Z</time>
      </trkpt>
      <trkpt lat="47.18359" lon="-1.5307">
        <ele>54.376143</ele>
        <time>2021-10-30T13:05:04.500Z</time>
      </trkpt>
      <trkpt lat="47.18367" lon="-1.53059">
        <ele>54.383975</ele>
        <time>2021-10-30T13:05:06.485Z</time>
      </trkpt>
      <trkpt lat="47.18374" lon="-1.53046">
        <ele>54.312387</ele>
        <time>2021-10-30T13:05:08.476Z</time>
      </trkpt>
      <trkpt lat="47.18382" lon="-1.53033">
        <ele>54.216431</ele>
        <time>2021-10-30T13:05:10.463Z</time>
      </trkpt>
      <trkpt lat="47.1839" lon="-1.53019">
        <ele>54.118268</ele>
        <time>2021-10-30T13:05:12.482Z</time>
      </trkpt>
      <trkpt lat="47.18397" lon="-1.53007">
        <ele>54.028337</ele>
        <time>2021-10-30T13:05:14.486Z</time>
      </trkpt>
      <trkpt lat="47.18404" lon="-1.52993">
        <ele>53.932469</ele>
        <time>2021-10-30T13:05:16.483Z</time>
      </trkpt>
      <trkpt lat="47.18411" lon="-1.52979">
        <ele>53.836851</ele>
        <time>2021-10-30T13:05:18.486Z</time>
      </trkpt>
      <trkpt lat="47.18418" lon="-1.52966">
        <ele>53.745635</ele>
        <time>2021-10-30T13:05:20.481Z</time>
      </trkpt>
      <trkpt lat="47.18425" lon="-1.52954">
        <ele>53.658756</ele>
        <time>2021-10-30T13:05:22.484Z</time>
      </trkpt>
      <trkpt lat="47.18433" lon="-1.52942">
        <ele>53.573571</ele>
        <time>2021-10-30T13:05:24.467Z</time>
      </trkpt>
      <trkpt lat="47.1844" lon="-1.52931">
        <ele>53.488785</ele>
        <time>2021-10-30T13:05:26.472Z</time>
      </trkpt>
      <trkpt lat="47.1844" lon="-1.52917">
        <ele>53.414779</ele>
        <time>2021-10-30T13:05:28.466Z</time>
      </trkpt>
      <trkpt lat="47.18429" lon="-1.52907">
        <ele>53.310351</ele>
        <time>2021-10-30T13:05:30.478Z</time>
      </trkpt>
      <trkpt lat="47.1842" lon="-1.52893">
        <ele>53.202237</ele>
        <time>2021-10-30T13:05:32.466Z</time>
      </trkpt>
      <trkpt lat="47.18415" lon="-1.52875">
        <ele>53.093664</ele>
        <time>2021-10-30T13:05:34.470Z</time>
      </trkpt>
      <trkpt lat="47.18409" lon="-1.52858">
        <ele>52.988959</ele>
        <time>2021-10-30T13:05:36.467Z</time>
      </trkpt>
      <trkpt lat="47.18404" lon="-1.52841">
        <ele>52.908533</ele>
        <time>2021-10-30T13:05:38.471Z</time>
      </trkpt>
      <trkpt lat="47.18399" lon="-1.52824">
        <ele>52.84483</ele>
        <time>2021-10-30T13:05:40.471Z</time>
      </trkpt>
      <trkpt lat="47.18393" lon="-1.52807">
        <ele>52.782836</ele>
        <time>2021-10-30T13:05:42.469Z</time>
      </trkpt>
      <trkpt lat="47.18388" lon="-1.52791">
        <ele>52.723583</ele>
        <time>2021-10-30T13:05:44.506Z</time>
      </trkpt>
      <trkpt lat="47.18384" lon="-1.52774">
        <ele>52.663304</ele>
        <time>2021-10-30T13:05:46.488Z</time>
      </trkpt>
      <trkpt lat="47.18381" lon="-1.52757">
        <ele>52.603825</ele>
        <time>2021-10-30T13:05:48.491Z</time>
      </trkpt>
      <trkpt lat="47.18378" lon="-1.52739">
        <ele>52.54535</ele>
        <time>2021-10-30T13:05:50.462Z</time>
      </trkpt>
      <trkpt lat="47.18376" lon="-1.52722">
        <ele>52.487302</ele>
        <time>2021-10-30T13:05:52.474Z</time>
      </trkpt>
      <trkpt lat="47.18376" lon="-1.52705">
        <ele>52.431099</ele>
        <time>2021-10-30T13:05:54.481Z</time>
      </trkpt>
      <trkpt lat="47.18381" lon="-1.5269">
        <ele>52.374374</ele>
        <time>2021-10-30T13:05:56.469Z</time>
      </trkpt>
      <trkpt lat="47.18382" lon="-1.52674">
        <ele>52.321332</ele>
        <time>2021-10-30T13:05:58.475Z</time>
      </trkpt>
      <trkpt lat="47.18378" lon="-1.52659">
        <ele>52.26524</ele>
        <time>2021-10-30T13:06:00.473Z</time>
      </trkpt>
      <trkpt lat="47.18373" lon="-1.52643">
        <ele>52.206392</ele>
        <time>2021-10-30T13:06:02.470Z</time>
      </trkpt>
      <trkpt lat="47.18369" lon="-1.52629">
        <ele>52.157561</ele>
        <time>2021-10-30T13:06:04.504Z</time>
      </trkpt>
      <trkpt lat="47.18369" lon="-1.52615">
        <ele>52.112253</ele>
        <time>2021-10-30T13:06:07.471Z</time>
      </trkpt>
      <trkpt lat="47.18366" lon="-1.52602">
        <ele>52.066106</ele>
        <time>2021-10-30T13:06:09.468Z</time>
      </trkpt>
      <trkpt lat="47.18362" lon="-1.52587">
        <ele>52.037987</ele>
        <time>2021-10-30T13:06:11.475Z</time>
      </trkpt>
      <trkpt lat="47.18357" lon="-1.52573">
        <ele>52.015264</ele>
        <time>2021-10-30T13:06:13.488Z</time>
      </trkpt>
      <trkpt lat="47.18353" lon="-1.52558">
        <ele>51.992018</ele>
        <time>2021-10-30T13:06:15.486Z</time>
      </trkpt>
      <trkpt lat="47.18348" lon="-1.52544">
        <ele>51.969171</ele>
        <time>2021-10-30T13:06:17.510Z</time>
      </trkpt>
      <trkpt lat="47.18343" lon="-1.52531">
        <ele>51.948531</ele>
        <time>2021-10-30T13:06:19.479Z</time>
      </trkpt>
      <trkpt lat="47.18333" lon="-1.52527">
        <ele>51.926148</ele>
        <time>2021-10-30T13:06:21.458Z</time>
      </trkpt>
      <trkpt lat="47.18323" lon="-1.52525">
        <ele>51.905773</ele>
        <time>2021-10-30T13:06:23.487Z</time>
      </trkpt>
      <trkpt lat="47.18316" lon="-1.52515">
        <ele>51.884893</ele>
        <time>2021-10-30T13:06:25.475Z</time>
      </trkpt>
      <trkpt lat="47.18314" lon="-1.52501">
        <ele>51.864158</ele>
        <time>2021-10-30T13:06:27.503Z</time>
      </trkpt>
      <trkpt lat="47.18317" lon="-1.52484">
        <ele>51.838973</ele>
        <time>2021-10-30T13:06:30.470Z</time>
      </trkpt>
      <trkpt lat="47.18322" lon="-1.52464">
        <ele>51.808832</ele>
        <time>2021-10-30T13:06:33.474Z</time>
      </trkpt>
      <trkpt lat="47.18323" lon="-1.52449">
        <ele>51.786516</ele>
        <time>2021-10-30T13:06:35.473Z</time>
      </trkpt>
      <trkpt lat="47.1832" lon="-1.52435">
        <ele>51.764731</ele>
        <time>2021-10-30T13:06:37.478Z</time>
      </trkpt>
      <trkpt lat="47.18315" lon="-1.52419">
        <ele>51.739751</ele>
        <time>2021-10-30T13:06:39.483Z</time>
      </trkpt>
      <trkpt lat="47.1831" lon="-1.52403">
        <ele>51.715277</ele>
        <time>2021-10-30T13:06:41.484Z</time>
      </trkpt>
      <trkpt lat="47.18307" lon="-1.52388">
        <ele>51.693021</ele>
        <time>2021-10-30T13:06:43.473Z</time>
      </trkpt>
      <trkpt lat="47.18304" lon="-1.52373">
        <ele>51.680323</ele>
        <time>2021-10-30T13:06:45.471Z</time>
      </trkpt>
      <trkpt lat="47.18302" lon="-1.52359">
        <ele>51.688063</ele>
        <time>2021-10-30T13:06:47.467Z</time>
      </trkpt>
      <trkpt lat="47.18297" lon="-1.52347">
        <ele>51.695091</ele>
        <time>2021-10-30T13:06:49.502Z</time>
      </trkpt>
      <trkpt lat="47.18285" lon="-1.52344">
        <ele>51.704843</ele>
        <time>2021-10-30T13:06:52.473Z</time>
      </trkpt>
      <trkpt lat="47.18273" lon="-1.52345">
        <ele>51.714024</ele>
        <time>2021-10-30T13:06:55.463Z</time>
      </trkpt>
      <trkpt lat="47.18261" lon="-1.52356">
        <ele>51.724818</ele>
        <time>2021-10-30T13:06:58.302Z</time>
      </trkpt>
      <trkpt lat="47.18251" lon="-1.52357">
        <ele>51.733072</ele>
        <time>2021-10-30T13:07:00.501Z</time>
      </trkpt>
      <trkpt lat="47.18241" lon="-1.52359">
        <ele>51.740489</ele>
        <time>2021-10-30T13:07:02.474Z</time>
      </trkpt>
      <trkpt lat="47.18232" lon="-1.52363">
        <ele>51.74791</ele>
        <time>2021-10-30T13:07:04.490Z</time>
      </trkpt>
      <trkpt lat="47.18222" lon="-1.52366">
        <ele>51.755742</ele>
        <time>2021-10-30T13:07:07.485Z</time>
      </trkpt>
      <trkpt lat="47.18209" lon="-1.52372">
        <ele>51.765866</ele>
        <time>2021-10-30T13:07:10.244Z</time>
      </trkpt>
      <trkpt lat="47.18199" lon="-1.52378">
        <ele>51.774439</ele>
        <time>2021-10-30T13:07:13.489Z</time>
      </trkpt>
      <trkpt lat="47.18189" lon="-1.52383">
        <ele>51.78274</ele>
        <time>2021-10-30T13:07:16.488Z</time>
      </trkpt>
      <trkpt lat="47.18179" lon="-1.52381">
        <ele>51.790326</ele>
        <time>2021-10-30T13:07:19.471Z</time>
      </trkpt>
      <trkpt lat="47.18177" lon="-1.52368">
        <ele>51.797387</ele>
        <time>2021-10-30T13:07:21.483Z</time>
      </trkpt>
      <trkpt lat="47.18179" lon="-1.52354">
        <ele>51.804533</ele>
        <time>2021-10-30T13:07:23.473Z</time>
      </trkpt>
      <trkpt lat="47.1818" lon="-1.52335">
        <ele>51.814559</ele>
        <time>2021-10-30T13:07:26.057Z</time>
      </trkpt>
      <trkpt lat="47.18183" lon="-1.52321">
        <ele>51.805291</ele>
        <time>2021-10-30T13:07:28.232Z</time>
      </trkpt>
      <trkpt lat="47.18188" lon="-1.52305">
        <ele>51.788059</ele>
        <time>2021-10-30T13:07:30.480Z</time>
      </trkpt>
      <trkpt lat="47.18189" lon="-1.5229">
        <ele>51.774148</ele>
        <time>2021-10-30T13:07:32.478Z</time>
      </trkpt>
      <trkpt lat="47.18188" lon="-1.52277">
        <ele>51.760828</ele>
        <time>2021-10-30T13:07:34.468Z</time>
      </trkpt>
      <trkpt lat="47.18187" lon="-1.52263">
        <ele>51.747397</ele>
        <time>2021-10-30T13:07:36.506Z</time>
      </trkpt>
      <trkpt lat="47.18186" lon="-1.52249">
        <ele>51.734231</ele>
        <time>2021-10-30T13:07:38.499Z</time>
      </trkpt>
      <trkpt lat="47.18181" lon="-1.52233">
        <ele>51.717332</ele>
        <time>2021-10-30T13:07:41.407Z</time>
      </trkpt>
      <trkpt lat="47.18175" lon="-1.52218">
        <ele>51.699939</ele>
        <time>2021-10-30T13:07:44.202Z</time>
      </trkpt>
      <trkpt lat="47.1817" lon="-1.52199">
        <ele>51.680481</ele>
        <time>2021-10-30T13:07:47.473Z</time>
      </trkpt>
      <trkpt lat="47.18166" lon="-1.52187">
        <ele>51.66723</ele>
        <time>2021-10-30T13:07:49.469Z</time>
      </trkpt>
      <trkpt lat="47.18162" lon="-1.52174">
        <ele>51.654123</ele>
        <time>2021-10-30T13:07:51.471Z</time>
      </trkpt>
      <trkpt lat="47.18159" lon="-1.52161">
        <ele>51.640491</ele>
        <time>2021-10-30T13:07:53.500Z</time>
      </trkpt>
      <trkpt lat="47.18156" lon="-1.52148">
        <ele>51.62736</ele>
        <time>2021-10-30T13:07:55.474Z</time>
      </trkpt>
      <trkpt lat="47.18146" lon="-1.52131">
        <ele>51.605028</ele>
        <time>2021-10-30T13:07:59.520Z</time>
      </trkpt>
      <trkpt lat="47.1814" lon="-1.52119">
        <ele>51.591136</ele>
        <time>2021-10-30T13:08:02.011Z</time>
      </trkpt>
      <trkpt lat="47.18134" lon="-1.52109">
        <ele>51.577852</ele>
        <time>2021-10-30T13:08:03.840Z</time>
      </trkpt>
      <trkpt lat="47.18129" lon="-1.52093">
        <ele>51.560833</ele>
        <time>2021-10-30T13:08:06.313Z</time>
      </trkpt>
      <trkpt lat="47.18127" lon="-1.52078">
        <ele>51.610083</ele>
        <time>2021-10-30T13:08:08.498Z</time>
      </trkpt>
      <trkpt lat="47.18127" lon="-1.52063">
        <ele>51.661971</ele>
        <time>2021-10-30T13:08:10.593Z</time>
      </trkpt>
      <trkpt lat="47.18122" lon="-1.52044">
        <ele>51.732589</ele>
        <time>2021-10-30T13:08:14.148Z</time>
      </trkpt>
      <trkpt lat="47.1812" lon="-1.52029">
        <ele>51.790007</ele>
        <time>2021-10-30T13:08:16.289Z</time>
      </trkpt>
      <trkpt lat="47.18118" lon="-1.52014">
        <ele>51.842618</ele>
        <time>2021-10-30T13:08:18.437Z</time>
      </trkpt>
      <trkpt lat="47.18118" lon="-1.51997">
        <ele>51.902205</ele>
        <time>2021-10-30T13:08:20.909Z</time>
      </trkpt>
      <trkpt lat="47.18115" lon="-1.51983">
        <ele>51.954731</ele>
        <time>2021-10-30T13:08:23.506Z</time>
      </trkpt>
      <trkpt lat="47.18114" lon="-1.51968">
        <ele>52.006413</ele>
        <time>2021-10-30T13:08:25.614Z</time>
      </trkpt>
      <trkpt lat="47.18113" lon="-1.51951">
        <ele>52.066487</ele>
        <time>2021-10-30T13:08:28.500Z</time>
      </trkpt>
      <trkpt lat="47.18111" lon="-1.51936">
        <ele>52.120533</ele>
        <time>2021-10-30T13:08:30.501Z</time>
      </trkpt>
      <trkpt lat="47.18112" lon="-1.5192">
        <ele>52.178358</ele>
        <time>2021-10-30T13:08:33.496Z</time>
      </trkpt>
      <trkpt lat="47.18109" lon="-1.51906">
        <ele>52.227893</ele>
        <time>2021-10-30T13:08:38.486Z</time>
      </trkpt>
      <trkpt lat="47.18107" lon="-1.5189">
        <ele>52.286033</ele>
        <time>2021-10-30T13:08:45.996Z</time>
      </trkpt>
      <trkpt lat="47.18105" lon="-1.5187">
        <ele>52.357226</ele>
        <time>2021-10-30T13:08:49.484Z</time>
      </trkpt>
      <trkpt lat="47.18106" lon="-1.5185">
        <ele>52.42775</ele>
        <time>2021-10-30T13:08:52.188Z</time>
      </trkpt>
      <trkpt lat="47.18109" lon="-1.51836">
        <ele>52.478505</ele>
        <time>2021-10-30T13:08:54.262Z</time>
      </trkpt>
      <trkpt lat="47.18111" lon="-1.51816">
        <ele>52.512229</ele>
        <time>2021-10-30T13:08:56.965Z</time>
      </trkpt>
      <trkpt lat="47.18114" lon="-1.51803">
        <ele>52.528957</ele>
        <time>2021-10-30T13:08:59.377Z</time>
      </trkpt>
      <trkpt lat="47.18121" lon="-1.51788">
        <ele>52.550383</ele>
        <time>2021-10-30T13:09:02.156Z</time>
      </trkpt>
      <trkpt lat="47.1813" lon="-1.51776">
        <ele>52.572448</ele>
        <time>2021-10-30T13:09:05.273Z</time>
      </trkpt>
      <trkpt lat="47.18137" lon="-1.51764">
        <ele>52.590421</ele>
        <time>2021-10-30T13:09:08.137Z</time>
      </trkpt>
      <trkpt lat="47.18145" lon="-1.51751">
        <ele>52.611272</ele>
        <time>2021-10-30T13:09:11.140Z</time>
      </trkpt>
      <trkpt lat="47.18148" lon="-1.51735">
        <ele>52.631845</ele>
        <time>2021-10-30T13:09:13.743Z</time>
      </trkpt>
      <trkpt lat="47.18148" lon="-1.51718">
        <ele>52.651409</ele>
        <time>2021-10-30T13:09:16.480Z</time>
      </trkpt>
      <trkpt lat="47.18146" lon="-1.51704">
        <ele>52.668289</ele>
        <time>2021-10-30T13:09:18.024Z</time>
      </trkpt>
      <trkpt lat="47.18145" lon="-1.51689">
        <ele>52.687119</ele>
        <time>2021-10-30T13:09:20.467Z</time>
      </trkpt>
      <trkpt lat="47.18142" lon="-1.51673">
        <ele>52.706088</ele>
        <time>2021-10-30T13:09:22.625Z</time>
      </trkpt>
      <trkpt lat="47.18145" lon="-1.51659">
        <ele>52.723969</ele>
        <time>2021-10-30T13:09:25.072Z</time>
      </trkpt>
      <trkpt lat="47.18141" lon="-1.51644">
        <ele>52.74309</ele>
        <time>2021-10-30T13:09:27.466Z</time>
      </trkpt>
      <trkpt lat="47.1814" lon="-1.51629">
        <ele>52.760188</ele>
        <time>2021-10-30T13:09:29.472Z</time>
      </trkpt>
      <trkpt lat="47.18141" lon="-1.51615">
        <ele>52.777095</ele>
        <time>2021-10-30T13:09:31.471Z</time>
      </trkpt>
      <trkpt lat="47.18139" lon="-1.51601">
        <ele>52.793707</ele>
        <time>2021-10-30T13:09:33.474Z</time>
      </trkpt>
      <trkpt lat="47.18138" lon="-1.51588">
        <ele>52.812619</ele>
        <time>2021-10-30T13:09:35.466Z</time>
      </trkpt>
      <trkpt lat="47.18136" lon="-1.51575">
        <ele>52.856285</ele>
        <time>2021-10-30T13:09:37.481Z</time>
      </trkpt>
      <trkpt lat="47.18135" lon="-1.51561">
        <ele>52.900919</ele>
        <time>2021-10-30T13:09:39.500Z</time>
      </trkpt>
      <trkpt lat="47.18133" lon="-1.51548">
        <ele>52.945547</ele>
        <time>2021-10-30T13:09:41.478Z</time>
      </trkpt>
      <trkpt lat="47.1813" lon="-1.51534">
        <ele>52.993526</ele>
        <time>2021-10-30T13:09:43.479Z</time>
      </trkpt>
      <trkpt lat="47.18127" lon="-1.51521">
        <ele>53.038894</ele>
        <time>2021-10-30T13:09:45.491Z</time>
      </trkpt>
      <trkpt lat="47.18123" lon="-1.51502">
        <ele>53.103264</ele>
        <time>2021-10-30T13:09:48.506Z</time>
      </trkpt>
      <trkpt lat="47.1812" lon="-1.5149">
        <ele>53.147573</ele>
        <time>2021-10-30T13:09:50.474Z</time>
      </trkpt>
      <trkpt lat="47.18117" lon="-1.51476">
        <ele>53.193065</ele>
        <time>2021-10-30T13:09:52.483Z</time>
      </trkpt>
      <trkpt lat="47.18115" lon="-1.51463">
        <ele>53.236428</ele>
        <time>2021-10-30T13:09:54.498Z</time>
      </trkpt>
      <trkpt lat="47.18111" lon="-1.51446">
        <ele>53.294771</ele>
        <time>2021-10-30T13:09:57.484Z</time>
      </trkpt>
      <trkpt lat="47.18106" lon="-1.51433">
        <ele>53.344857</ele>
        <time>2021-10-30T13:09:59.461Z</time>
      </trkpt>
      <trkpt lat="47.18101" lon="-1.5142">
        <ele>53.393801</ele>
        <time>2021-10-30T13:10:01.483Z</time>
      </trkpt>
      <trkpt lat="47.18094" lon="-1.51404">
        <ele>53.455202</ele>
        <time>2021-10-30T13:10:04.470Z</time>
      </trkpt>
      <trkpt lat="47.1809" lon="-1.51392">
        <ele>53.499192</ele>
        <time>2021-10-30T13:10:06.489Z</time>
      </trkpt>
      <trkpt lat="47.18089" lon="-1.51378">
        <ele>53.547357</ele>
        <time>2021-10-30T13:10:09.040Z</time>
      </trkpt>
      <trkpt lat="47.18083" lon="-1.51366">
        <ele>53.594141</ele>
        <time>2021-10-30T13:10:10.807Z</time>
      </trkpt>
      <trkpt lat="47.18076" lon="-1.51351">
        <ele>53.656319</ele>
        <time>2021-10-30T13:10:13.456Z</time>
      </trkpt>
      <trkpt lat="47.18071" lon="-1.51338">
        <ele>53.690329</ele>
        <time>2021-10-30T13:10:15.580Z</time>
      </trkpt>
      <trkpt lat="47.18067" lon="-1.5132">
        <ele>53.72451</ele>
        <time>2021-10-30T13:10:19.479Z</time>
      </trkpt>
      <trkpt lat="47.18065" lon="-1.51305">
        <ele>53.752512</ele>
        <time>2021-10-30T13:10:22.474Z</time>
      </trkpt>
      <trkpt lat="47.18063" lon="-1.51291">
        <ele>53.77789</ele>
        <time>2021-10-30T13:10:25.483Z</time>
      </trkpt>
      <trkpt lat="47.1806" lon="-1.51271">
        <ele>53.814433</ele>
        <time>2021-10-30T13:10:28.968Z</time>
      </trkpt>
      <trkpt lat="47.18058" lon="-1.51258">
        <ele>53.838617</ele>
        <time>2021-10-30T13:10:31.111Z</time>
      </trkpt>
      <trkpt lat="47.18057" lon="-1.51243">
        <ele>53.864904</ele>
        <time>2021-10-30T13:10:33.340Z</time>
      </trkpt>
      <trkpt lat="47.18055" lon="-1.51229">
        <ele>53.892032</ele>
        <time>2021-10-30T13:10:36.517Z</time>
      </trkpt>
      <trkpt lat="47.18053" lon="-1.51212">
        <ele>53.922588</ele>
        <time>2021-10-30T13:10:39.461Z</time>
      </trkpt>
      <trkpt lat="47.18052" lon="-1.51196">
        <ele>53.952608</ele>
        <time>2021-10-30T13:10:42.472Z</time>
      </trkpt>
      <trkpt lat="47.18053" lon="-1.5118">
        <ele>53.981097</ele>
        <time>2021-10-30T13:10:45.485Z</time>
      </trkpt>
      <trkpt lat="47.18053" lon="-1.51162">
        <ele>54.01404</ele>
        <time>2021-10-30T13:10:48.487Z</time>
      </trkpt>
      <trkpt lat="47.1805" lon="-1.51148">
        <ele>54.040513</ele>
        <time>2021-10-30T13:10:50.704Z</time>
      </trkpt>
      <trkpt lat="47.18039" lon="-1.5114">
        <ele>54.071691</ele>
        <time>2021-10-30T13:10:53.065Z</time>
      </trkpt>
      <trkpt lat="47.18029" lon="-1.51141">
        <ele>54.098717</ele>
        <time>2021-10-30T13:10:55.281Z</time>
      </trkpt>
      <trkpt lat="47.18012" lon="-1.51144">
        <ele>54.144345</ele>
        <time>2021-10-30T13:10:58.489Z</time>
      </trkpt>
      <trkpt lat="47.18003" lon="-1.51144">
        <ele>54.089183</ele>
        <time>2021-10-30T13:11:00.530Z</time>
      </trkpt>
      <trkpt lat="47.17993" lon="-1.51142">
        <ele>53.993001</ele>
        <time>2021-10-30T13:11:02.909Z</time>
      </trkpt>
      <trkpt lat="47.17982" lon="-1.5113">
        <ele>53.863397</ele>
        <time>2021-10-30T13:11:05.488Z</time>
      </trkpt>
      <trkpt lat="47.17974" lon="-1.51123">
        <ele>53.771458</ele>
        <time>2021-10-30T13:11:07.471Z</time>
      </trkpt>
      <trkpt lat="47.17966" lon="-1.51115">
        <ele>53.677991</ele>
        <time>2021-10-30T13:11:09.487Z</time>
      </trkpt>
      <trkpt lat="47.17958" lon="-1.51108">
        <ele>53.5826</ele>
        <time>2021-10-30T13:11:11.470Z</time>
      </trkpt>
      <trkpt lat="47.1795" lon="-1.511">
        <ele>53.488103</ele>
        <time>2021-10-30T13:11:13.482Z</time>
      </trkpt>
      <trkpt lat="47.17943" lon="-1.5109">
        <ele>53.397851</ele>
        <time>2021-10-30T13:11:15.520Z</time>
      </trkpt>
      <trkpt lat="47.17933" lon="-1.51076">
        <ele>53.260376</ele>
        <time>2021-10-30T13:11:18.496Z</time>
      </trkpt>
      <trkpt lat="47.17926" lon="-1.51065">
        <ele>53.162067</ele>
        <time>2021-10-30T13:11:20.485Z</time>
      </trkpt>
      <trkpt lat="47.17919" lon="-1.51055">
        <ele>53.069478</ele>
        <time>2021-10-30T13:11:22.470Z</time>
      </trkpt>
      <trkpt lat="47.17914" lon="-1.51044">
        <ele>52.977169</ele>
        <time>2021-10-30T13:11:24.480Z</time>
      </trkpt>
      <trkpt lat="47.17907" lon="-1.51033">
        <ele>52.887668</ele>
        <time>2021-10-30T13:11:26.475Z</time>
      </trkpt>
      <trkpt lat="47.179" lon="-1.51024">
        <ele>52.793209</ele>
        <time>2021-10-30T13:11:28.471Z</time>
      </trkpt>
      <trkpt lat="47.17894" lon="-1.51014">
        <ele>52.701385</ele>
        <time>2021-10-30T13:11:30.505Z</time>
      </trkpt>
      <trkpt lat="47.17887" lon="-1.51004">
        <ele>52.609817</ele>
        <time>2021-10-30T13:11:32.489Z</time>
      </trkpt>
      <trkpt lat="47.17879" lon="-1.50995">
        <ele>52.516429</ele>
        <time>2021-10-30T13:11:34.484Z</time>
      </trkpt>
      <trkpt lat="47.17873" lon="-1.50985">
        <ele>52.424171</ele>
        <time>2021-10-30T13:11:36.483Z</time>
      </trkpt>
      <trkpt lat="47.17865" lon="-1.50975">
        <ele>52.436627</ele>
        <time>2021-10-30T13:11:38.485Z</time>
      </trkpt>
      <trkpt lat="47.17858" lon="-1.50965">
        <ele>52.471744</ele>
        <time>2021-10-30T13:11:40.487Z</time>
      </trkpt>
      <trkpt lat="47.1785" lon="-1.50956">
        <ele>52.507236</ele>
        <time>2021-10-30T13:11:42.461Z</time>
      </trkpt>
      <trkpt lat="47.17842" lon="-1.50948">
        <ele>52.540363</ele>
        <time>2021-10-30T13:11:44.502Z</time>
      </trkpt>
      <trkpt lat="47.17835" lon="-1.50939">
        <ele>52.573693</ele>
        <time>2021-10-30T13:11:46.472Z</time>
      </trkpt>
      <trkpt lat="47.17826" lon="-1.5093">
        <ele>52.609236</ele>
        <time>2021-10-30T13:11:48.471Z</time>
      </trkpt>
      <trkpt lat="47.17818" lon="-1.50921">
        <ele>52.645009</ele>
        <time>2021-10-30T13:11:50.460Z</time>
      </trkpt>
      <trkpt lat="47.1781" lon="-1.50913">
        <ele>52.679392</ele>
        <time>2021-10-30T13:11:52.496Z</time>
      </trkpt>
      <trkpt lat="47.17802" lon="-1.50904">
        <ele>52.713403</ele>
        <time>2021-10-30T13:11:54.485Z</time>
      </trkpt>
      <trkpt lat="47.17793" lon="-1.50895">
        <ele>52.751036</ele>
        <time>2021-10-30T13:11:56.477Z</time>
      </trkpt>
      <trkpt lat="47.17784" lon="-1.50886">
        <ele>52.78792</ele>
        <time>2021-10-30T13:11:58.518Z</time>
      </trkpt>
      <trkpt lat="47.17776" lon="-1.50876">
        <ele>52.822739</ele>
        <time>2021-10-30T13:12:00.482Z</time>
      </trkpt>
      <trkpt lat="47.17769" lon="-1.50867">
        <ele>52.8569</ele>
        <time>2021-10-30T13:12:02.520Z</time>
      </trkpt>
      <trkpt lat="47.17761" lon="-1.50858">
        <ele>52.891846</ele>
        <time>2021-10-30T13:12:04.480Z</time>
      </trkpt>
      <trkpt lat="47.17752" lon="-1.50849">
        <ele>52.928175</ele>
        <time>2021-10-30T13:12:06.480Z</time>
      </trkpt>
      <trkpt lat="47.17744" lon="-1.5084">
        <ele>52.963807</ele>
        <time>2021-10-30T13:12:08.488Z</time>
      </trkpt>
      <trkpt lat="47.17736" lon="-1.50831">
        <ele>52.99767</ele>
        <time>2021-10-30T13:12:10.481Z</time>
      </trkpt>
      <trkpt lat="47.17729" lon="-1.50822">
        <ele>53.026997</ele>
        <time>2021-10-30T13:12:12.486Z</time>
      </trkpt>
      <trkpt lat="47.17722" lon="-1.50811">
        <ele>52.925581</ele>
        <time>2021-10-30T13:12:14.476Z</time>
      </trkpt>
      <trkpt lat="47.17713" lon="-1.50802">
        <ele>52.819108</ele>
        <time>2021-10-30T13:12:16.496Z</time>
      </trkpt>
      <trkpt lat="47.17705" lon="-1.50793">
        <ele>52.713451</ele>
        <time>2021-10-30T13:12:18.475Z</time>
      </trkpt>
      <trkpt lat="47.17695" lon="-1.50787">
        <ele>52.606965</ele>
        <time>2021-10-30T13:12:20.487Z</time>
      </trkpt>
      <trkpt lat="47.17686" lon="-1.50793">
        <ele>52.511412</ele>
        <time>2021-10-30T13:12:22.493Z</time>
      </trkpt>
      <trkpt lat="47.17679" lon="-1.50805">
        <ele>52.405601</ele>
        <time>2021-10-30T13:12:24.481Z</time>
      </trkpt>
      <trkpt lat="47.17672" lon="-1.50815">
        <ele>52.310408</ele>
        <time>2021-10-30T13:12:26.489Z</time>
      </trkpt>
      <trkpt lat="47.1766" lon="-1.50816">
        <ele>52.187573</ele>
        <time>2021-10-30T13:12:29.516Z</time>
      </trkpt>
      <trkpt lat="47.1765" lon="-1.50808">
        <ele>52.079471</ele>
        <time>2021-10-30T13:12:32.478Z</time>
      </trkpt>
      <trkpt lat="47.17641" lon="-1.50799">
        <ele>51.970101</ele>
        <time>2021-10-30T13:12:34.485Z</time>
      </trkpt>
      <trkpt lat="47.17634" lon="-1.50787">
        <ele>51.857723</ele>
        <time>2021-10-30T13:12:36.523Z</time>
      </trkpt>
      <trkpt lat="47.17628" lon="-1.50774">
        <ele>51.750549</ele>
        <time>2021-10-30T13:12:38.491Z</time>
      </trkpt>
      <trkpt lat="47.17628" lon="-1.50758">
        <ele>51.644776</ele>
        <time>2021-10-30T13:12:40.478Z</time>
      </trkpt>
      <trkpt lat="47.17634" lon="-1.50746">
        <ele>51.539314</ele>
        <time>2021-10-30T13:12:42.504Z</time>
      </trkpt>
      <trkpt lat="47.17642" lon="-1.50736">
        <ele>51.434165</ele>
        <time>2021-10-30T13:12:44.501Z</time>
      </trkpt>
      <trkpt lat="47.17647" lon="-1.50723">
        <ele>51.333064</ele>
        <time>2021-10-30T13:12:46.478Z</time>
      </trkpt>
      <trkpt lat="47.17648" lon="-1.50707">
        <ele>51.239527</ele>
        <time>2021-10-30T13:12:48.524Z</time>
      </trkpt>
      <trkpt lat="47.17641" lon="-1.50695">
        <ele>51.286665</ele>
        <time>2021-10-30T13:12:50.496Z</time>
      </trkpt>
      <trkpt lat="47.17633" lon="-1.50686">
        <ele>51.331332</ele>
        <time>2021-10-30T13:12:52.491Z</time>
      </trkpt>
      <trkpt lat="47.17627" lon="-1.50675">
        <ele>51.372448</ele>
        <time>2021-10-30T13:12:54.525Z</time>
      </trkpt>
      <trkpt lat="47.17618" lon="-1.50664">
        <ele>51.423317</ele>
        <time>2021-10-30T13:12:57.480Z</time>
      </trkpt>
      <trkpt lat="47.17608" lon="-1.5065">
        <ele>51.481586</ele>
        <time>2021-10-30T13:13:00.534Z</time>
      </trkpt>
      <trkpt lat="47.17598" lon="-1.50638">
        <ele>51.537311</ele>
        <time>2021-10-30T13:13:03.027Z</time>
      </trkpt>
      <trkpt lat="47.17592" lon="-1.50627">
        <ele>51.578767</ele>
        <time>2021-10-30T13:13:05.496Z</time>
      </trkpt>
      <trkpt lat="47.17582" lon="-1.50612">
        <ele>51.64135</ele>
        <time>2021-10-30T13:13:08.269Z</time>
      </trkpt>
      <trkpt lat="47.17574" lon="-1.50601">
        <ele>51.686509</ele>
        <time>2021-10-30T13:13:10.836Z</time>
      </trkpt>
      <trkpt lat="47.17567" lon="-1.50591">
        <ele>51.731467</ele>
        <time>2021-10-30T13:13:13.100Z</time>
      </trkpt>
      <trkpt lat="47.17558" lon="-1.5058">
        <ele>51.78057</ele>
        <time>2021-10-30T13:13:15.508Z</time>
      </trkpt>
      <trkpt lat="47.17552" lon="-1.50571">
        <ele>51.820469</ele>
        <time>2021-10-30T13:13:17.248Z</time>
      </trkpt>
      <trkpt lat="47.17543" lon="-1.50555">
        <ele>51.8792</ele>
        <time>2021-10-30T13:13:20.474Z</time>
      </trkpt>
      <trkpt lat="47.17533" lon="-1.5054">
        <ele>51.939702</ele>
        <time>2021-10-30T13:13:23.474Z</time>
      </trkpt>
      <trkpt lat="47.17527" lon="-1.5053">
        <ele>51.981593</ele>
        <time>2021-10-30T13:13:25.466Z</time>
      </trkpt>
      <trkpt lat="47.17521" lon="-1.50519">
        <ele>52.013984</ele>
        <time>2021-10-30T13:13:27.502Z</time>
      </trkpt>
      <trkpt lat="47.17515" lon="-1.50508">
        <ele>52.007835</ele>
        <time>2021-10-30T13:13:29.521Z</time>
      </trkpt>
      <trkpt lat="47.17507" lon="-1.50494">
        <ele>51.999219</ele>
        <time>2021-10-30T13:13:32.477Z</time>
      </trkpt>
      <trkpt lat="47.17501" lon="-1.50482">
        <ele>51.992846</ele>
        <time>2021-10-30T13:13:34.497Z</time>
      </trkpt>
      <trkpt lat="47.17496" lon="-1.50471">
        <ele>51.986592</ele>
        <time>2021-10-30T13:13:36.487Z</time>
      </trkpt>
      <trkpt lat="47.17491" lon="-1.50459">
        <ele>51.980113</ele>
        <time>2021-10-30T13:13:38.498Z</time>
      </trkpt>
      <trkpt lat="47.17485" lon="-1.50448">
        <ele>51.973746</ele>
        <time>2021-10-30T13:13:40.482Z</time>
      </trkpt>
      <trkpt lat="47.17479" lon="-1.50437">
        <ele>51.967449</ele>
        <time>2021-10-30T13:13:42.494Z</time>
      </trkpt>
      <trkpt lat="47.17473" lon="-1.50426">
        <ele>51.961065</ele>
        <time>2021-10-30T13:13:44.486Z</time>
      </trkpt>
      <trkpt lat="47.17467" lon="-1.50414">
        <ele>51.954498</ele>
        <time>2021-10-30T13:13:46.479Z</time>
      </trkpt>
      <trkpt lat="47.17461" lon="-1.50403">
        <ele>51.948015</ele>
        <time>2021-10-30T13:13:48.479Z</time>
      </trkpt>
      <trkpt lat="47.17455" lon="-1.50391">
        <ele>51.941345</ele>
        <time>2021-10-30T13:13:50.478Z</time>
      </trkpt>
      <trkpt lat="47.1745" lon="-1.5038">
        <ele>51.934899</ele>
        <time>2021-10-30T13:13:52.479Z</time>
      </trkpt>
      <trkpt lat="47.17444" lon="-1.50369">
        <ele>51.928678</ele>
        <time>2021-10-30T13:13:54.490Z</time>
      </trkpt>
      <trkpt lat="47.17438" lon="-1.50358">
        <ele>51.922533</ele>
        <time>2021-10-30T13:13:56.482Z</time>
      </trkpt>
      <trkpt lat="47.17433" lon="-1.50347">
        <ele>51.916497</ele>
        <time>2021-10-30T13:13:58.479Z</time>
      </trkpt>
      <trkpt lat="47.17427" lon="-1.50336">
        <ele>51.910266</ele>
        <time>2021-10-30T13:14:00.484Z</time>
      </trkpt>
      <trkpt lat="47.17421" lon="-1.50324">
        <ele>51.903565</ele>
        <time>2021-10-30T13:14:02.481Z</time>
      </trkpt>
      <trkpt lat="47.17416" lon="-1.50312">
        <ele>51.897011</ele>
        <time>2021-10-30T13:14:04.493Z</time>
      </trkpt>
      <trkpt lat="47.17411" lon="-1.503">
        <ele>51.909937</ele>
        <time>2021-10-30T13:14:06.472Z</time>
      </trkpt>
      <trkpt lat="47.17407" lon="-1.50288">
        <ele>51.92919</ele>
        <time>2021-10-30T13:14:08.490Z</time>
      </trkpt>
      <trkpt lat="47.17402" lon="-1.50276">
        <ele>51.949018</ele>
        <time>2021-10-30T13:14:10.494Z</time>
      </trkpt>
      <trkpt lat="47.17397" lon="-1.50264">
        <ele>51.968687</ele>
        <time>2021-10-30T13:14:12.504Z</time>
      </trkpt>
      <trkpt lat="47.17389" lon="-1.50247">
        <ele>51.998719</ele>
        <time>2021-10-30T13:14:15.516Z</time>
      </trkpt>
      <trkpt lat="47.17383" lon="-1.50234">
        <ele>52.020391</ele>
        <time>2021-10-30T13:14:17.504Z</time>
      </trkpt>
      <trkpt lat="47.17378" lon="-1.50222">
        <ele>52.041483</ele>
        <time>2021-10-30T13:14:19.511Z</time>
      </trkpt>
      <trkpt lat="47.17372" lon="-1.50209">
        <ele>52.063192</ele>
        <time>2021-10-30T13:14:21.491Z</time>
      </trkpt>
      <trkpt lat="47.17367" lon="-1.50195">
        <ele>52.085376</ele>
        <time>2021-10-30T13:14:23.501Z</time>
      </trkpt>
      <trkpt lat="47.17361" lon="-1.50182">
        <ele>52.107402</ele>
        <time>2021-10-30T13:14:25.482Z</time>
      </trkpt>
      <trkpt lat="47.17356" lon="-1.50169">
        <ele>52.129792</ele>
        <time>2021-10-30T13:14:27.462Z</time>
      </trkpt>
      <trkpt lat="47.1735" lon="-1.50155">
        <ele>52.152314</ele>
        <time>2021-10-30T13:14:29.493Z</time>
      </trkpt>
      <trkpt lat="47.17344" lon="-1.50142">
        <ele>52.174465</ele>
        <time>2021-10-30T13:14:31.497Z</time>
      </trkpt>
      <trkpt lat="47.17338" lon="-1.5013">
        <ele>52.196136</ele>
        <time>2021-10-30T13:14:33.474Z</time>
      </trkpt>
      <trkpt lat="47.17333" lon="-1.50117">
        <ele>52.217581</ele>
        <time>2021-10-30T13:14:35.489Z</time>
      </trkpt>
      <trkpt lat="47.17327" lon="-1.50106">
        <ele>52.237611</ele>
        <time>2021-10-30T13:14:37.528Z</time>
      </trkpt>
      <trkpt lat="47.17322" lon="-1.50094">
        <ele>52.257655</ele>
        <time>2021-10-30T13:14:39.511Z</time>
      </trkpt>
      <trkpt lat="47.17314" lon="-1.50077">
        <ele>52.316288</ele>
        <time>2021-10-30T13:14:42.487Z</time>
      </trkpt>
      <trkpt lat="47.17308" lon="-1.50064">
        <ele>52.379929</ele>
        <time>2021-10-30T13:14:44.458Z</time>
      </trkpt>
      <trkpt lat="47.17303" lon="-1.50053">
        <ele>52.437709</ele>
        <time>2021-10-30T13:14:46.488Z</time>
      </trkpt>
      <trkpt lat="47.17294" lon="-1.5004">
        <ele>52.5137</ele>
        <time>2021-10-30T13:14:49.488Z</time>
      </trkpt>
      <trkpt lat="47.17286" lon="-1.50028">
        <ele>52.587801</ele>
        <time>2021-10-30T13:14:52.493Z</time>
      </trkpt>
      <trkpt lat="47.1728" lon="-1.50017">
        <ele>52.643942</ele>
        <time>2021-10-30T13:14:54.460Z</time>
      </trkpt>
      <trkpt lat="47.17274" lon="-1.50002">
        <ele>52.717447</ele>
        <time>2021-10-30T13:14:57.288Z</time>
      </trkpt>
      <trkpt lat="47.17266" lon="-1.49987">
        <ele>52.793642</ele>
        <time>2021-10-30T13:14:59.748Z</time>
      </trkpt>
      <trkpt lat="47.17261" lon="-1.49975">
        <ele>52.857633</ele>
        <time>2021-10-30T13:15:02.417Z</time>
      </trkpt>
      <trkpt lat="47.17256" lon="-1.49959">
        <ele>52.929242</ele>
        <time>2021-10-30T13:15:05.128Z</time>
      </trkpt>
      <trkpt lat="47.17252" lon="-1.49945">
        <ele>52.992607</ele>
        <time>2021-10-30T13:15:07.482Z</time>
      </trkpt>
      <trkpt lat="47.17247" lon="-1.49932">
        <ele>53.056409</ele>
        <time>2021-10-30T13:15:09.484Z</time>
      </trkpt>
      <trkpt lat="47.17243" lon="-1.49918">
        <ele>53.120274</ele>
        <time>2021-10-30T13:15:11.495Z</time>
      </trkpt>
      <trkpt lat="47.17238" lon="-1.49903">
        <ele>53.185802</ele>
        <time>2021-10-30T13:15:13.494Z</time>
      </trkpt>
      <trkpt lat="47.17234" lon="-1.49889">
        <ele>53.250429</ele>
        <time>2021-10-30T13:15:15.474Z</time>
      </trkpt>
      <trkpt lat="47.17229" lon="-1.49875">
        <ele>53.315538</ele>
        <time>2021-10-30T13:15:17.490Z</time>
      </trkpt>
      <trkpt lat="47.17224" lon="-1.49863">
        <ele>53.378257</ele>
        <time>2021-10-30T13:15:19.483Z</time>
      </trkpt>
      <trkpt lat="47.17219" lon="-1.49851">
        <ele>53.496557</ele>
        <time>2021-10-30T13:15:21.491Z</time>
      </trkpt>
      <trkpt lat="47.17214" lon="-1.49839">
        <ele>53.623739</ele>
        <time>2021-10-30T13:15:23.488Z</time>
      </trkpt>
      <trkpt lat="47.17211" lon="-1.49826">
        <ele>53.746094</ele>
        <time>2021-10-30T13:15:25.497Z</time>
      </trkpt>
      <trkpt lat="47.17204" lon="-1.49808">
        <ele>53.924565</ele>
        <time>2021-10-30T13:15:28.497Z</time>
      </trkpt>
      <trkpt lat="47.17199" lon="-1.49795">
        <ele>54.05037</ele>
        <time>2021-10-30T13:15:30.472Z</time>
      </trkpt>
      <trkpt lat="47.17192" lon="-1.49778">
        <ele>54.227133</ele>
        <time>2021-10-30T13:15:33.481Z</time>
      </trkpt>
      <trkpt lat="47.17187" lon="-1.49765">
        <ele>54.355699</ele>
        <time>2021-10-30T13:15:35.507Z</time>
      </trkpt>
      <trkpt lat="47.17183" lon="-1.4975">
        <ele>54.507719</ele>
        <time>2021-10-30T13:15:38.066Z</time>
      </trkpt>
      <trkpt lat="47.17177" lon="-1.49728">
        <ele>54.712543</ele>
        <time>2021-10-30T13:15:41.481Z</time>
      </trkpt>
      <trkpt lat="47.17174" lon="-1.49712">
        <ele>54.860549</ele>
        <time>2021-10-30T13:15:43.534Z</time>
      </trkpt>
      <trkpt lat="47.17169" lon="-1.49695">
        <ele>55.023243</ele>
        <time>2021-10-30T13:15:46.479Z</time>
      </trkpt>
      <trkpt lat="47.17165" lon="-1.4968">
        <ele>55.158933</ele>
        <time>2021-10-30T13:15:48.501Z</time>
      </trkpt>
      <trkpt lat="47.17161" lon="-1.49666">
        <ele>55.294455</ele>
        <time>2021-10-30T13:15:50.654Z</time>
      </trkpt>
      <trkpt lat="47.17156" lon="-1.49653">
        <ele>55.421452</ele>
        <time>2021-10-30T13:15:52.966Z</time>
      </trkpt>
      <trkpt lat="47.17152" lon="-1.49638">
        <ele>55.564168</ele>
        <time>2021-10-30T13:15:56.070Z</time>
      </trkpt>
      <trkpt lat="47.17148" lon="-1.49621">
        <ele>55.670115</ele>
        <time>2021-10-30T13:15:59.116Z</time>
      </trkpt>
      <trkpt lat="47.17145" lon="-1.49608">
        <ele>55.501655</ele>
        <time>2021-10-30T13:16:01.512Z</time>
      </trkpt>
      <trkpt lat="47.1714" lon="-1.49596">
        <ele>55.316082</ele>
        <time>2021-10-30T13:16:03.400Z</time>
      </trkpt>
      <trkpt lat="47.17137" lon="-1.49581">
        <ele>55.130688</ele>
        <time>2021-10-30T13:16:05.489Z</time>
      </trkpt>
      <trkpt lat="47.17133" lon="-1.49567">
        <ele>54.933704</ele>
        <time>2021-10-30T13:16:07.478Z</time>
      </trkpt>
      <trkpt lat="47.17131" lon="-1.49553">
        <ele>54.756983</ele>
        <time>2021-10-30T13:16:09.496Z</time>
      </trkpt>
      <trkpt lat="47.17127" lon="-1.49534">
        <ele>54.505834</ele>
        <time>2021-10-30T13:16:12.495Z</time>
      </trkpt>
      <trkpt lat="47.17123" lon="-1.49521">
        <ele>54.330713</ele>
        <time>2021-10-30T13:16:14.496Z</time>
      </trkpt>
      <trkpt lat="47.17121" lon="-1.49506">
        <ele>54.139008</ele>
        <time>2021-10-30T13:16:16.496Z</time>
      </trkpt>
      <trkpt lat="47.17119" lon="-1.49491">
        <ele>53.947357</ele>
        <time>2021-10-30T13:16:18.493Z</time>
      </trkpt>
      <trkpt lat="47.17118" lon="-1.49477">
        <ele>53.771367</ele>
        <time>2021-10-30T13:16:20.491Z</time>
      </trkpt>
      <trkpt lat="47.17113" lon="-1.49464">
        <ele>53.588466</ele>
        <time>2021-10-30T13:16:22.487Z</time>
      </trkpt>
      <trkpt lat="47.17109" lon="-1.4945">
        <ele>53.398765</ele>
        <time>2021-10-30T13:16:24.485Z</time>
      </trkpt>
      <trkpt lat="47.17104" lon="-1.49438">
        <ele>53.21913</ele>
        <time>2021-10-30T13:16:26.483Z</time>
      </trkpt>
      <trkpt lat="47.17099" lon="-1.49425">
        <ele>53.042832</ele>
        <time>2021-10-30T13:16:28.529Z</time>
      </trkpt>
      <trkpt lat="47.17094" lon="-1.49411">
        <ele>52.834176</ele>
        <time>2021-10-30T13:16:31.512Z</time>
      </trkpt>
      <trkpt lat="47.17086" lon="-1.49393">
        <ele>52.573157</ele>
        <time>2021-10-30T13:16:34.513Z</time>
      </trkpt>
      <trkpt lat="47.17082" lon="-1.49379">
        <ele>52.397441</ele>
        <time>2021-10-30T13:16:36.495Z</time>
      </trkpt>
      <trkpt lat="47.17078" lon="-1.49365">
        <ele>52.515284</ele>
        <time>2021-10-30T13:16:38.480Z</time>
      </trkpt>
      <trkpt lat="47.17074" lon="-1.49351">
        <ele>52.628569</ele>
        <time>2021-10-30T13:16:40.487Z</time>
      </trkpt>
      <trkpt lat="47.1707" lon="-1.49337">
        <ele>52.736903</ele>
        <time>2021-10-30T13:16:42.489Z</time>
      </trkpt>
      <trkpt lat="47.17068" lon="-1.49323">
        <ele>52.850109</ele>
        <time>2021-10-30T13:16:45.795Z</time>
      </trkpt>
      <trkpt lat="47.17063" lon="-1.49307">
        <ele>52.981127</ele>
        <time>2021-10-30T13:16:47.478Z</time>
      </trkpt>
      <trkpt lat="47.17058" lon="-1.49294">
        <ele>53.096842</ele>
        <time>2021-10-30T13:16:49.469Z</time>
      </trkpt>
      <trkpt lat="47.17053" lon="-1.49273">
        <ele>53.261159</ele>
        <time>2021-10-30T13:16:52.487Z</time>
      </trkpt>
      <trkpt lat="47.17047" lon="-1.4926">
        <ele>53.37833</ele>
        <time>2021-10-30T13:16:54.480Z</time>
      </trkpt>
      <trkpt lat="47.1704" lon="-1.49244">
        <ele>53.525172</ele>
        <time>2021-10-30T13:16:57.491Z</time>
      </trkpt>
      <trkpt lat="47.17036" lon="-1.49229">
        <ele>53.646846</ele>
        <time>2021-10-30T13:16:59.494Z</time>
      </trkpt>
      <trkpt lat="47.17032" lon="-1.49216">
        <ele>53.75062</ele>
        <time>2021-10-30T13:17:01.525Z</time>
      </trkpt>
      <trkpt lat="47.17029" lon="-1.49203">
        <ele>53.858722</ele>
        <time>2021-10-30T13:17:03.490Z</time>
      </trkpt>
      <trkpt lat="47.17025" lon="-1.49189">
        <ele>53.968827</ele>
        <time>2021-10-30T13:17:05.479Z</time>
      </trkpt>
      <trkpt lat="47.17021" lon="-1.49176">
        <ele>54.081882</ele>
        <time>2021-10-30T13:17:07.534Z</time>
      </trkpt>
      <trkpt lat="47.17018" lon="-1.49162">
        <ele>54.190572</ele>
        <time>2021-10-30T13:17:09.488Z</time>
      </trkpt>
      <trkpt lat="47.17015" lon="-1.49149">
        <ele>54.297564</ele>
        <time>2021-10-30T13:17:11.482Z</time>
      </trkpt>
      <trkpt lat="47.17009" lon="-1.49137">
        <ele>54.390795</ele>
        <time>2021-10-30T13:17:13.516Z</time>
      </trkpt>
      <trkpt lat="47.17005" lon="-1.49124">
        <ele>54.414142</ele>
        <time>2021-10-30T13:17:15.491Z</time>
      </trkpt>
      <trkpt lat="47.17" lon="-1.4911">
        <ele>54.438276</ele>
        <time>2021-10-30T13:17:17.491Z</time>
      </trkpt>
      <trkpt lat="47.16996" lon="-1.49097">
        <ele>54.461375</ele>
        <time>2021-10-30T13:17:19.529Z</time>
      </trkpt>
      <trkpt lat="47.16992" lon="-1.49084">
        <ele>54.484273</ele>
        <time>2021-10-30T13:17:21.498Z</time>
      </trkpt>
      <trkpt lat="47.16991" lon="-1.49065">
        <ele>54.515083</ele>
        <time>2021-10-30T13:17:24.509Z</time>
      </trkpt>
      <trkpt lat="47.16985" lon="-1.49047">
        <ele>54.546715</ele>
        <time>2021-10-30T13:17:27.491Z</time>
      </trkpt>
      <trkpt lat="47.16979" lon="-1.49031">
        <ele>54.577561</ele>
        <time>2021-10-30T13:17:29.503Z</time>
      </trkpt>
      <trkpt lat="47.16975" lon="-1.49017">
        <ele>54.60171</ele>
        <time>2021-10-30T13:17:32.681Z</time>
      </trkpt>
      <trkpt lat="47.1697" lon="-1.49">
        <ele>54.631487</ele>
        <time>2021-10-30T13:17:34.904Z</time>
      </trkpt>
      <trkpt lat="47.16966" lon="-1.48987">
        <ele>54.654404</ele>
        <time>2021-10-30T13:17:37.119Z</time>
      </trkpt>
      <trkpt lat="47.16963" lon="-1.48974">
        <ele>54.67595</ele>
        <time>2021-10-30T13:17:39.085Z</time>
      </trkpt>
      <trkpt lat="47.1696" lon="-1.4896">
        <ele>54.700613</ele>
        <time>2021-10-30T13:17:41.260Z</time>
      </trkpt>
      <trkpt lat="47.16956" lon="-1.48947">
        <ele>54.722923</ele>
        <time>2021-10-30T13:17:43.497Z</time>
      </trkpt>
      <trkpt lat="47.16953" lon="-1.48931">
        <ele>54.749737</ele>
        <time>2021-10-30T13:17:45.634Z</time>
      </trkpt>
      <trkpt lat="47.16949" lon="-1.48912">
        <ele>54.78127</ele>
        <time>2021-10-30T13:17:48.417Z</time>
      </trkpt>
      <trkpt lat="47.16946" lon="-1.48894">
        <ele>54.811554</ele>
        <time>2021-10-30T13:17:51.186Z</time>
      </trkpt>
      <trkpt lat="47.16942" lon="-1.48874">
        <ele>54.772374</ele>
        <time>2021-10-30T13:17:54.485Z</time>
      </trkpt>
      <trkpt lat="47.16939" lon="-1.4886">
        <ele>54.743169</ele>
        <time>2021-10-30T13:17:56.495Z</time>
      </trkpt>
      <trkpt lat="47.16935" lon="-1.48846">
        <ele>54.714135</ele>
        <time>2021-10-30T13:17:58.503Z</time>
      </trkpt>
      <trkpt lat="47.16934" lon="-1.48829">
        <ele>54.680515</ele>
        <time>2021-10-30T13:18:01.045Z</time>
      </trkpt>
      <trkpt lat="47.1693" lon="-1.48816">
        <ele>54.651405</ele>
        <time>2021-10-30T13:18:03.518Z</time>
      </trkpt>
      <trkpt lat="47.16926" lon="-1.48801">
        <ele>54.620362</ele>
        <time>2021-10-30T13:18:05.857Z</time>
      </trkpt>
      <trkpt lat="47.16923" lon="-1.48783">
        <ele>54.582436</ele>
        <time>2021-10-30T13:18:08.490Z</time>
      </trkpt>
      <trkpt lat="47.16921" lon="-1.48768">
        <ele>54.553634</ele>
        <time>2021-10-30T13:18:10.476Z</time>
      </trkpt>
      <trkpt lat="47.16919" lon="-1.48754">
        <ele>54.525422</ele>
        <time>2021-10-30T13:18:12.479Z</time>
      </trkpt>
      <trkpt lat="47.16915" lon="-1.48741">
        <ele>54.496779</ele>
        <time>2021-10-30T13:18:14.526Z</time>
      </trkpt>
      <trkpt lat="47.1691" lon="-1.48725">
        <ele>54.460586</ele>
        <time>2021-10-30T13:18:17.495Z</time>
      </trkpt>
      <trkpt lat="47.16904" lon="-1.48706">
        <ele>54.420796</ele>
        <time>2021-10-30T13:18:20.472Z</time>
      </trkpt>
      <trkpt lat="47.16901" lon="-1.48691">
        <ele>54.388669</ele>
        <time>2021-10-30T13:18:22.511Z</time>
      </trkpt>
      <trkpt lat="47.16897" lon="-1.48677">
        <ele>54.359738</ele>
        <time>2021-10-30T13:18:24.502Z</time>
      </trkpt>
      <trkpt lat="47.16894" lon="-1.48663">
        <ele>54.33015</ele>
        <time>2021-10-30T13:18:26.489Z</time>
      </trkpt>
      <trkpt lat="47.16891" lon="-1.4865">
        <ele>54.302729</ele>
        <time>2021-10-30T13:18:28.517Z</time>
      </trkpt>
      <trkpt lat="47.16889" lon="-1.48636">
        <ele>54.250167</ele>
        <time>2021-10-30T13:18:30.491Z</time>
      </trkpt>
      <trkpt lat="47.16886" lon="-1.48621">
        <ele>54.173206</ele>
        <time>2021-10-30T13:18:32.495Z</time>
      </trkpt>
      <trkpt lat="47.16885" lon="-1.48607">
        <ele>54.098391</ele>
        <time>2021-10-30T13:18:34.533Z</time>
      </trkpt>
      <trkpt lat="47.16883" lon="-1.48592">
        <ele>54.01745</ele>
        <time>2021-10-30T13:18:36.481Z</time>
      </trkpt>
      <trkpt lat="47.16881" lon="-1.48577">
        <ele>53.936797</ele>
        <time>2021-10-30T13:18:38.480Z</time>
      </trkpt>
      <trkpt lat="47.1688" lon="-1.48561">
        <ele>53.858123</ele>
        <time>2021-10-30T13:18:40.500Z</time>
      </trkpt>
      <trkpt lat="47.1688" lon="-1.48546">
        <ele>53.775615</ele>
        <time>2021-10-30T13:18:42.474Z</time>
      </trkpt>
      <trkpt lat="47.16882" lon="-1.4853">
        <ele>53.69569</ele>
        <time>2021-10-30T13:18:44.493Z</time>
      </trkpt>
      <trkpt lat="47.16885" lon="-1.48516">
        <ele>53.618805</ele>
        <time>2021-10-30T13:18:46.484Z</time>
      </trkpt>
      <trkpt lat="47.16888" lon="-1.48502">
        <ele>53.543663</ele>
        <time>2021-10-30T13:18:48.510Z</time>
      </trkpt>
      <trkpt lat="47.16892" lon="-1.48489">
        <ele>53.46991</ele>
        <time>2021-10-30T13:18:50.495Z</time>
      </trkpt>
      <trkpt lat="47.16895" lon="-1.48475">
        <ele>53.392071</ele>
        <time>2021-10-30T13:18:52.494Z</time>
      </trkpt>
      <trkpt lat="47.16899" lon="-1.48461">
        <ele>53.312843</ele>
        <time>2021-10-30T13:18:54.494Z</time>
      </trkpt>
      <trkpt lat="47.16903" lon="-1.48443">
        <ele>53.212186</ele>
        <time>2021-10-30T13:18:57.480Z</time>
      </trkpt>
      <trkpt lat="47.16907" lon="-1.48427">
        <ele>53.12691</ele>
        <time>2021-10-30T13:18:59.490Z</time>
      </trkpt>
      <trkpt lat="47.1691" lon="-1.48413">
        <ele>53.048739</ele>
        <time>2021-10-30T13:19:01.480Z</time>
      </trkpt>
      <trkpt lat="47.16913" lon="-1.48398">
        <ele>52.969422</ele>
        <time>2021-10-30T13:19:03.474Z</time>
      </trkpt>
      <trkpt lat="47.16917" lon="-1.48385">
        <ele>52.916016</ele>
        <time>2021-10-30T13:19:05.488Z</time>
      </trkpt>
      <trkpt lat="47.16922" lon="-1.48372">
        <ele>52.911704</ele>
        <time>2021-10-30T13:19:07.501Z</time>
      </trkpt>
      <trkpt lat="47.16926" lon="-1.48358">
        <ele>52.907228</ele>
        <time>2021-10-30T13:19:09.477Z</time>
      </trkpt>
      <trkpt lat="47.1693" lon="-1.48345">
        <ele>52.903033</ele>
        <time>2021-10-30T13:19:11.474Z</time>
      </trkpt>
      <trkpt lat="47.16933" lon="-1.48331">
        <ele>52.898705</ele>
        <time>2021-10-30T13:19:13.489Z</time>
      </trkpt>
      <trkpt lat="47.16936" lon="-1.48317">
        <ele>52.894323</ele>
        <time>2021-10-30T13:19:15.490Z</time>
      </trkpt>
      <trkpt lat="47.16939" lon="-1.48299">
        <ele>52.889022</ele>
        <time>2021-10-30T13:19:18.509Z</time>
      </trkpt>
      <trkpt lat="47.1694" lon="-1.48284">
        <ele>52.884494</ele>
        <time>2021-10-30T13:19:20.497Z</time>
      </trkpt>
      <trkpt lat="47.1694" lon="-1.4827">
        <ele>52.880399</ele>
        <time>2021-10-30T13:19:22.538Z</time>
      </trkpt>
      <trkpt lat="47.16937" lon="-1.4825">
        <ele>52.874255</ele>
        <time>2021-10-30T13:19:25.474Z</time>
      </trkpt>
      <trkpt lat="47.16934" lon="-1.48236">
        <ele>52.870099</ele>
        <time>2021-10-30T13:19:27.501Z</time>
      </trkpt>
      <trkpt lat="47.16931" lon="-1.48222">
        <ele>52.865607</ele>
        <time>2021-10-30T13:19:30.379Z</time>
      </trkpt>
      <trkpt lat="47.16928" lon="-1.48209">
        <ele>52.861604</ele>
        <time>2021-10-30T13:19:37.121Z</time>
      </trkpt>
      <trkpt lat="47.16918" lon="-1.48198">
        <ele>52.856139</ele>
        <time>2021-10-30T13:19:40.287Z</time>
      </trkpt>
      <trkpt lat="47.1691" lon="-1.4819">
        <ele>52.852002</ele>
        <time>2021-10-30T13:19:42.482Z</time>
      </trkpt>
      <trkpt lat="47.16904" lon="-1.4818">
        <ele>52.848041</ele>
        <time>2021-10-30T13:19:44.110Z</time>
      </trkpt>
      <trkpt lat="47.16895" lon="-1.48167">
        <ele>52.842808</ele>
        <time>2021-10-30T13:19:46.500Z</time>
      </trkpt>
      <trkpt lat="47.16889" lon="-1.48154">
        <ele>52.854726</ele>
        <time>2021-10-30T13:19:48.474Z</time>
      </trkpt>
      <trkpt lat="47.16882" lon="-1.48139">
        <ele>52.925511</ele>
        <time>2021-10-30T13:19:51.469Z</time>
      </trkpt>
      <trkpt lat="47.16877" lon="-1.48127">
        <ele>52.97987</ele>
        <time>2021-10-30T13:19:53.469Z</time>
      </trkpt>
      <trkpt lat="47.1687" lon="-1.48114">
        <ele>53.043837</ele>
        <time>2021-10-30T13:19:55.620Z</time>
      </trkpt>
      <trkpt lat="47.16862" lon="-1.48099">
        <ele>53.117652</ele>
        <time>2021-10-30T13:19:59.059Z</time>
      </trkpt>
      <trkpt lat="47.16854" lon="-1.48087">
        <ele>53.180661</ele>
        <time>2021-10-30T13:20:05.331Z</time>
      </trkpt>
      <trkpt lat="47.16856" lon="-1.48074">
        <ele>53.233083</ele>
        <time>2021-10-30T13:20:10.462Z</time>
      </trkpt>
      <trkpt lat="47.16847" lon="-1.48079">
        <ele>53.288234</ele>
        <time>2021-10-30T13:20:19.140Z</time>
      </trkpt>
      <trkpt lat="47.16835" lon="-1.48074">
        <ele>53.355132</ele>
        <time>2021-10-30T13:20:21.964Z</time>
      </trkpt>
      <trkpt lat="47.16829" lon="-1.48062">
        <ele>53.412463</ele>
        <time>2021-10-30T13:20:24.482Z</time>
      </trkpt>
      <trkpt lat="47.16822" lon="-1.4805">
        <ele>53.473333</ele>
        <time>2021-10-30T13:20:26.362Z</time>
      </trkpt>
      <trkpt lat="47.16816" lon="-1.48035">
        <ele>53.541107</ele>
        <time>2021-10-30T13:20:28.490Z</time>
      </trkpt>
      <trkpt lat="47.1681" lon="-1.48023">
        <ele>53.59516</ele>
        <time>2021-10-30T13:20:30.498Z</time>
      </trkpt>
      <trkpt lat="47.16808" lon="-1.4801">
        <ele>53.648895</ele>
        <time>2021-10-30T13:20:32.871Z</time>
      </trkpt>
      <trkpt lat="47.16802" lon="-1.47994">
        <ele>53.71556</ele>
        <time>2021-10-30T13:20:35.749Z</time>
      </trkpt>
      <trkpt lat="47.16802" lon="-1.4798">
        <ele>53.76878</ele>
        <time>2021-10-30T13:20:38.348Z</time>
      </trkpt>
      <trkpt lat="47.16803" lon="-1.47964">
        <ele>53.831086</ele>
        <time>2021-10-30T13:20:40.909Z</time>
      </trkpt>
      <trkpt lat="47.16798" lon="-1.47949">
        <ele>53.763787</ele>
        <time>2021-10-30T13:20:43.924Z</time>
      </trkpt>
      <trkpt lat="47.16788" lon="-1.47946">
        <ele>53.649685</ele>
        <time>2021-10-30T13:20:46.429Z</time>
      </trkpt>
      <trkpt lat="47.1678" lon="-1.4796">
        <ele>53.517707</ele>
        <time>2021-10-30T13:20:47.492Z</time>
      </trkpt>
      <trkpt lat="47.1677" lon="-1.47967">
        <ele>53.393997</ele>
        <time>2021-10-30T13:20:49.481Z</time>
      </trkpt>
      <trkpt lat="47.16761" lon="-1.47975">
        <ele>53.279991</ele>
        <time>2021-10-30T13:20:51.474Z</time>
      </trkpt>
      <trkpt lat="47.16752" lon="-1.47983">
        <ele>53.159153</ele>
        <time>2021-10-30T13:20:53.469Z</time>
      </trkpt>
      <trkpt lat="47.16741" lon="-1.47985">
        <ele>53.043175</ele>
        <time>2021-10-30T13:20:55.481Z</time>
      </trkpt>
      <trkpt lat="47.16731" lon="-1.47983">
        <ele>52.935795</ele>
        <time>2021-10-30T13:20:57.465Z</time>
      </trkpt>
      <trkpt lat="47.16718" lon="-1.47978">
        <ele>52.782805</ele>
        <time>2021-10-30T13:21:00.477Z</time>
      </trkpt>
      <trkpt lat="47.16707" lon="-1.47972">
        <ele>52.656474</ele>
        <time>2021-10-30T13:21:02.494Z</time>
      </trkpt>
      <trkpt lat="47.16697" lon="-1.47965">
        <ele>52.536712</ele>
        <time>2021-10-30T13:21:04.460Z</time>
      </trkpt>
      <trkpt lat="47.16688" lon="-1.47959">
        <ele>52.424821</ele>
        <time>2021-10-30T13:21:06.485Z</time>
      </trkpt>
      <trkpt lat="47.16675" lon="-1.47957">
        <ele>52.287201</ele>
        <time>2021-10-30T13:21:09.466Z</time>
      </trkpt>
      <trkpt lat="47.16663" lon="-1.47959">
        <ele>52.149509</ele>
        <time>2021-10-30T13:21:11.487Z</time>
      </trkpt>
      <trkpt lat="47.16652" lon="-1.47959">
        <ele>52.033303</ele>
        <time>2021-10-30T13:21:13.493Z</time>
      </trkpt>
      <trkpt lat="47.16642" lon="-1.47959">
        <ele>51.92361</ele>
        <time>2021-10-30T13:21:15.482Z</time>
      </trkpt>
      <trkpt lat="47.16633" lon="-1.47961">
        <ele>51.925836</ele>
        <time>2021-10-30T13:21:17.494Z</time>
      </trkpt>
      <trkpt lat="47.16625" lon="-1.4797">
        <ele>52.010162</ele>
        <time>2021-10-30T13:21:19.478Z</time>
      </trkpt>
      <trkpt lat="47.16619" lon="-1.4798">
        <ele>52.090571</ele>
        <time>2021-10-30T13:21:21.468Z</time>
      </trkpt>
      <trkpt lat="47.16612" lon="-1.47989">
        <ele>52.169704</ele>
        <time>2021-10-30T13:21:23.492Z</time>
      </trkpt>
      <trkpt lat="47.16603" lon="-1.47993">
        <ele>52.254213</ele>
        <time>2021-10-30T13:21:25.483Z</time>
      </trkpt>
      <trkpt lat="47.16593" lon="-1.47995">
        <ele>52.337498</ele>
        <time>2021-10-30T13:21:27.478Z</time>
      </trkpt>
      <trkpt lat="47.16584" lon="-1.47997">
        <ele>52.417006</ele>
        <time>2021-10-30T13:21:29.483Z</time>
      </trkpt>
      <trkpt lat="47.16575" lon="-1.47999">
        <ele>52.501318</ele>
        <time>2021-10-30T13:21:31.492Z</time>
      </trkpt>
      <trkpt lat="47.16565" lon="-1.48001">
        <ele>52.588542</ele>
        <time>2021-10-30T13:21:33.497Z</time>
      </trkpt>
      <trkpt lat="47.16555" lon="-1.48003">
        <ele>52.669472</ele>
        <time>2021-10-30T13:21:35.503Z</time>
      </trkpt>
      <trkpt lat="47.1655" lon="-1.47992">
        <ele>52.753685</ele>
        <time>2021-10-30T13:21:39.475Z</time>
      </trkpt>
      <trkpt lat="47.16537" lon="-1.47987">
        <ele>52.86559</ele>
        <time>2021-10-30T13:21:42.479Z</time>
      </trkpt>
      <trkpt lat="47.16528" lon="-1.47982">
        <ele>52.95186</ele>
        <time>2021-10-30T13:21:44.907Z</time>
      </trkpt>
      <trkpt lat="47.16519" lon="-1.47977">
        <ele>53.03252</ele>
        <time>2021-10-30T13:21:48.474Z</time>
      </trkpt>
      <trkpt lat="47.16508" lon="-1.47973">
        <ele>53.13133</ele>
        <time>2021-10-30T13:21:50.935Z</time>
      </trkpt>
      <trkpt lat="47.16498" lon="-1.47975">
        <ele>53.218712</ele>
        <time>2021-10-30T13:21:52.880Z</time>
      </trkpt>
      <trkpt lat="47.16492" lon="-1.47988">
        <ele>53.308765</ele>
        <time>2021-10-30T13:21:55.080Z</time>
      </trkpt>
      <trkpt lat="47.16487" lon="-1.47999">
        <ele>53.387505</ele>
        <time>2021-10-30T13:21:56.915Z</time>
      </trkpt>
      <trkpt lat="47.16485" lon="-1.48017">
        <ele>53.490325</ele>
        <time>2021-10-30T13:21:59.492Z</time>
      </trkpt>
      <trkpt lat="47.16486" lon="-1.48032">
        <ele>53.572246</ele>
        <time>2021-10-30T13:22:01.237Z</time>
      </trkpt>
      <trkpt lat="47.16488" lon="-1.48047">
        <ele>53.653053</ele>
        <time>2021-10-30T13:22:03.435Z</time>
      </trkpt>
      <trkpt lat="47.16491" lon="-1.4806">
        <ele>53.730497</ele>
        <time>2021-10-30T13:22:06.073Z</time>
      </trkpt>
      <trkpt lat="47.16493" lon="-1.48078">
        <ele>53.828861</ele>
        <time>2021-10-30T13:22:09.236Z</time>
      </trkpt>
      <trkpt lat="47.1649" lon="-1.48092">
        <ele>53.907756</ele>
        <time>2021-10-30T13:22:15.076Z</time>
      </trkpt>
      <trkpt lat="47.16491" lon="-1.48105">
        <ele>53.982236</ele>
        <time>2021-10-30T13:22:19.388Z</time>
      </trkpt>
      <trkpt lat="47.16483" lon="-1.48113">
        <ele>54.056951</ele>
        <time>2021-10-30T13:22:23.008Z</time>
      </trkpt>
      <trkpt lat="47.16475" lon="-1.48103">
        <ele>54.13561</ele>
        <time>2021-10-30T13:22:30.995Z</time>
      </trkpt>
      <trkpt lat="47.1647" lon="-1.48089">
        <ele>54.225065</ele>
        <time>2021-10-30T13:22:37.873Z</time>
      </trkpt>
      <trkpt lat="47.16465" lon="-1.48069">
        <ele>54.339839</ele>
        <time>2021-10-30T13:22:41.202Z</time>
      </trkpt>
      <trkpt lat="47.16462" lon="-1.48055">
        <ele>54.419525</ele>
        <time>2021-10-30T13:22:43.216Z</time>
      </trkpt>
      <trkpt lat="47.16458" lon="-1.48042">
        <ele>54.496962</ele>
        <time>2021-10-30T13:22:45.307Z</time>
      </trkpt>
      <trkpt lat="47.16444" lon="-1.48041">
        <ele>54.609925</ele>
        <time>2021-10-30T13:22:48.484Z</time>
      </trkpt>
      <trkpt lat="47.16438" lon="-1.48052">
        <ele>54.68833</ele>
        <time>2021-10-30T13:22:50.477Z</time>
      </trkpt>
      <trkpt lat="47.16437" lon="-1.48071">
        <ele>54.79183</ele>
        <time>2021-10-30T13:22:53.485Z</time>
      </trkpt>
      <trkpt lat="47.16439" lon="-1.48086">
        <ele>54.874165</ele>
        <time>2021-10-30T13:22:55.476Z</time>
      </trkpt>
      <trkpt lat="47.1644" lon="-1.48102">
        <ele>54.770674</ele>
        <time>2021-10-30T13:22:57.484Z</time>
      </trkpt>
      <trkpt lat="47.16443" lon="-1.48116">
        <ele>54.679794</ele>
        <time>2021-10-30T13:22:59.476Z</time>
      </trkpt>
      <trkpt lat="47.16444" lon="-1.48131">
        <ele>54.58664</ele>
        <time>2021-10-30T13:23:01.497Z</time>
      </trkpt>
      <trkpt lat="47.16444" lon="-1.48146">
        <ele>54.49282</ele>
        <time>2021-10-30T13:23:03.481Z</time>
      </trkpt>
      <trkpt lat="47.16444" lon="-1.4816">
        <ele>54.402199</ele>
        <time>2021-10-30T13:23:05.508Z</time>
      </trkpt>
      <trkpt lat="47.16442" lon="-1.48174">
        <ele>54.315789</ele>
        <time>2021-10-30T13:23:07.494Z</time>
      </trkpt>
      <trkpt lat="47.1644" lon="-1.4819">
        <ele>54.208762</ele>
        <time>2021-10-30T13:23:10.472Z</time>
      </trkpt>
      <trkpt lat="47.16432" lon="-1.48201">
        <ele>54.108846</ele>
        <time>2021-10-30T13:23:13.471Z</time>
      </trkpt>
      <trkpt lat="47.1642" lon="-1.48199">
        <ele>53.994024</ele>
        <time>2021-10-30T13:23:17.007Z</time>
      </trkpt>
      <trkpt lat="47.16411" lon="-1.48196">
        <ele>53.908469</ele>
        <time>2021-10-30T13:23:18.500Z</time>
      </trkpt>
      <trkpt lat="47.16399" lon="-1.48193">
        <ele>53.799793</ele>
        <time>2021-10-30T13:23:20.488Z</time>
      </trkpt>
      <trkpt lat="47.16389" lon="-1.48192">
        <ele>53.706156</ele>
        <time>2021-10-30T13:23:22.502Z</time>
      </trkpt>
      <trkpt lat="47.1638" lon="-1.48198">
        <ele>53.615567</ele>
        <time>2021-10-30T13:23:24.306Z</time>
      </trkpt>
      <trkpt lat="47.1637" lon="-1.48194">
        <ele>53.516462</ele>
        <time>2021-10-30T13:23:26.490Z</time>
      </trkpt>
      <trkpt lat="47.16361" lon="-1.48193">
        <ele>53.432983</ele>
        <time>2021-10-30T13:23:28.486Z</time>
      </trkpt>
      <trkpt lat="47.1635" lon="-1.4819">
        <ele>53.324789</ele>
        <time>2021-10-30T13:23:30.682Z</time>
      </trkpt>
      <trkpt lat="47.16339" lon="-1.48185">
        <ele>53.227309</ele>
        <time>2021-10-30T13:23:33.481Z</time>
      </trkpt>
      <trkpt lat="47.1633" lon="-1.48181">
        <ele>53.102574</ele>
        <time>2021-10-30T13:23:35.480Z</time>
      </trkpt>
      <trkpt lat="47.16321" lon="-1.48174">
        <ele>52.966311</ele>
        <time>2021-10-30T13:23:37.497Z</time>
      </trkpt>
      <trkpt lat="47.16312" lon="-1.48164">
        <ele>52.807965</ele>
        <time>2021-10-30T13:23:40.154Z</time>
      </trkpt>
      <trkpt lat="47.16305" lon="-1.48153">
        <ele>52.670921</ele>
        <time>2021-10-30T13:23:42.487Z</time>
      </trkpt>
      <trkpt lat="47.16297" lon="-1.48144">
        <ele>52.543418</ele>
        <time>2021-10-30T13:23:44.164Z</time>
      </trkpt>
      <trkpt lat="47.1629" lon="-1.48135">
        <ele>52.412281</ele>
        <time>2021-10-30T13:23:46.339Z</time>
      </trkpt>
      <trkpt lat="47.1628" lon="-1.48123">
        <ele>52.235426</ele>
        <time>2021-10-30T13:23:49.511Z</time>
      </trkpt>
      <trkpt lat="47.1627" lon="-1.4811">
        <ele>52.061474</ele>
        <time>2021-10-30T13:23:52.492Z</time>
      </trkpt>
      <trkpt lat="47.16262" lon="-1.481">
        <ele>51.917814</ele>
        <time>2021-10-30T13:23:54.479Z</time>
      </trkpt>
      <trkpt lat="47.16254" lon="-1.48091">
        <ele>51.786473</ele>
        <time>2021-10-30T13:23:56.541Z</time>
      </trkpt>
      <trkpt lat="47.16247" lon="-1.48081">
        <ele>51.652066</ele>
        <time>2021-10-30T13:23:58.480Z</time>
      </trkpt>
      <trkpt lat="47.16241" lon="-1.48072">
        <ele>51.526673</ele>
        <time>2021-10-30T13:24:00.503Z</time>
      </trkpt>
      <trkpt lat="47.16234" lon="-1.48063">
        <ele>51.403005</ele>
        <time>2021-10-30T13:24:02.497Z</time>
      </trkpt>
      <trkpt lat="47.16226" lon="-1.48054">
        <ele>51.272247</ele>
        <time>2021-10-30T13:24:04.484Z</time>
      </trkpt>
      <trkpt lat="47.16218" lon="-1.48045">
        <ele>51.139477</ele>
        <time>2021-10-30T13:24:06.478Z</time>
      </trkpt>
      <trkpt lat="47.16211" lon="-1.48037">
        <ele>51.010443</ele>
        <time>2021-10-30T13:24:08.505Z</time>
      </trkpt>
      <trkpt lat="47.16203" lon="-1.48028">
        <ele>50.885236</ele>
        <time>2021-10-30T13:24:10.471Z</time>
      </trkpt>
      <trkpt lat="47.16196" lon="-1.48019">
        <ele>50.791434</ele>
        <time>2021-10-30T13:24:12.501Z</time>
      </trkpt>
      <trkpt lat="47.16191" lon="-1.48007">
        <ele>50.848877</ele>
        <time>2021-10-30T13:24:14.477Z</time>
      </trkpt>
      <trkpt lat="47.1619" lon="-1.47993">
        <ele>50.905426</ele>
        <time>2021-10-30T13:24:16.505Z</time>
      </trkpt>
      <trkpt lat="47.16192" lon="-1.47973">
        <ele>50.987848</ele>
        <time>2021-10-30T13:24:19.507Z</time>
      </trkpt>
      <trkpt lat="47.16192" lon="-1.47955">
        <ele>51.063508</ele>
        <time>2021-10-30T13:24:22.489Z</time>
      </trkpt>
      <trkpt lat="47.16183" lon="-1.47939">
        <ele>51.15009</ele>
        <time>2021-10-30T13:24:25.470Z</time>
      </trkpt>
      <trkpt lat="47.16174" lon="-1.4793">
        <ele>51.214964</ele>
        <time>2021-10-30T13:24:27.489Z</time>
      </trkpt>
      <trkpt lat="47.16168" lon="-1.47919">
        <ele>51.272148</ele>
        <time>2021-10-30T13:24:29.489Z</time>
      </trkpt>
      <trkpt lat="47.16164" lon="-1.47906">
        <ele>51.328021</ele>
        <time>2021-10-30T13:24:31.493Z</time>
      </trkpt>
      <trkpt lat="47.1616" lon="-1.47892">
        <ele>51.389249</ele>
        <time>2021-10-30T13:24:33.499Z</time>
      </trkpt>
      <trkpt lat="47.16156" lon="-1.47873">
        <ele>51.472336</ele>
        <time>2021-10-30T13:24:36.483Z</time>
      </trkpt>
      <trkpt lat="47.16156" lon="-1.47859">
        <ele>51.530297</ele>
        <time>2021-10-30T13:24:38.501Z</time>
      </trkpt>
      <trkpt lat="47.16154" lon="-1.47846">
        <ele>51.586334</ele>
        <time>2021-10-30T13:24:40.510Z</time>
      </trkpt>
      <trkpt lat="47.16153" lon="-1.4783">
        <ele>51.651447</ele>
        <time>2021-10-30T13:24:42.544Z</time>
      </trkpt>
      <trkpt lat="47.16148" lon="-1.47812">
        <ele>51.728546</ele>
        <time>2021-10-30T13:24:45.823Z</time>
      </trkpt>
      <trkpt lat="47.16142" lon="-1.47797">
        <ele>51.799774</ele>
        <time>2021-10-30T13:24:48.499Z</time>
      </trkpt>
      <trkpt lat="47.16132" lon="-1.47791">
        <ele>51.862653</ele>
        <time>2021-10-30T13:24:50.479Z</time>
      </trkpt>
      <trkpt lat="47.16124" lon="-1.47784">
        <ele>51.890784</ele>
        <time>2021-10-30T13:24:52.503Z</time>
      </trkpt>
      <trkpt lat="47.16119" lon="-1.47765">
        <ele>51.934132</ele>
        <time>2021-10-30T13:24:55.486Z</time>
      </trkpt>
      <trkpt lat="47.16115" lon="-1.47751">
        <ele>51.964528</ele>
        <time>2021-10-30T13:24:57.506Z</time>
      </trkpt>
      <trkpt lat="47.16111" lon="-1.47732">
        <ele>52.006222</ele>
        <time>2021-10-30T13:25:00.494Z</time>
      </trkpt>
      <trkpt lat="47.16105" lon="-1.47719">
        <ele>52.038686</ele>
        <time>2021-10-30T13:25:02.534Z</time>
      </trkpt>
      <trkpt lat="47.16099" lon="-1.47707">
        <ele>52.06926</ele>
        <time>2021-10-30T13:25:04.511Z</time>
      </trkpt>
      <trkpt lat="47.16093" lon="-1.47695">
        <ele>52.099664</ele>
        <time>2021-10-30T13:25:06.495Z</time>
      </trkpt>
      <trkpt lat="47.16088" lon="-1.47683">
        <ele>52.129726</ele>
        <time>2021-10-30T13:25:08.464Z</time>
      </trkpt>
      <trkpt lat="47.16082" lon="-1.47672">
        <ele>52.159342</ele>
        <time>2021-10-30T13:25:10.529Z</time>
      </trkpt>
      <trkpt lat="47.16076" lon="-1.47654">
        <ele>52.199679</ele>
        <time>2021-10-30T13:25:13.471Z</time>
      </trkpt>
      <trkpt lat="47.16068" lon="-1.47639">
        <ele>52.239371</ele>
        <time>2021-10-30T13:25:16.488Z</time>
      </trkpt>
      <trkpt lat="47.16062" lon="-1.47629">
        <ele>52.266814</ele>
        <time>2021-10-30T13:25:18.500Z</time>
      </trkpt>
      <trkpt lat="47.16057" lon="-1.47618">
        <ele>52.294826</ele>
        <time>2021-10-30T13:25:20.481Z</time>
      </trkpt>
      <trkpt lat="47.16052" lon="-1.47607">
        <ele>52.323169</ele>
        <time>2021-10-30T13:25:22.482Z</time>
      </trkpt>
      <trkpt lat="47.16046" lon="-1.47595">
        <ele>52.353415</ele>
        <time>2021-10-30T13:25:24.483Z</time>
      </trkpt>
      <trkpt lat="47.1604" lon="-1.47584">
        <ele>52.382706</ele>
        <time>2021-10-30T13:25:26.487Z</time>
      </trkpt>
      <trkpt lat="47.16033" lon="-1.47574">
        <ele>52.422621</ele>
        <time>2021-10-30T13:25:28.481Z</time>
      </trkpt>
      <trkpt lat="47.16024" lon="-1.47563">
        <ele>52.570188</ele>
        <time>2021-10-30T13:25:31.525Z</time>
      </trkpt>
      <trkpt lat="47.16018" lon="-1.47552">
        <ele>52.696583</ele>
        <time>2021-10-30T13:25:33.485Z</time>
      </trkpt>
      <trkpt lat="47.1601" lon="-1.4754">
        <ele>52.835253</ele>
        <time>2021-10-30T13:25:35.501Z</time>
      </trkpt>
      <trkpt lat="47.16002" lon="-1.4753">
        <ele>52.963961</ele>
        <time>2021-10-30T13:25:37.530Z</time>
      </trkpt>
      <trkpt lat="47.15996" lon="-1.4752">
        <ele>53.083556</ele>
        <time>2021-10-30T13:25:39.504Z</time>
      </trkpt>
      <trkpt lat="47.15988" lon="-1.47505">
        <ele>53.249455</ele>
        <time>2021-10-30T13:25:42.513Z</time>
      </trkpt>
      <trkpt lat="47.15977" lon="-1.47495">
        <ele>53.410959</ele>
        <time>2021-10-30T13:25:45.509Z</time>
      </trkpt>
      <trkpt lat="47.15968" lon="-1.47486">
        <ele>53.552304</ele>
        <time>2021-10-30T13:25:47.485Z</time>
      </trkpt>
      <trkpt lat="47.15955" lon="-1.47473">
        <ele>53.742797</ele>
        <time>2021-10-30T13:25:50.495Z</time>
      </trkpt>
      <trkpt lat="47.15947" lon="-1.47465">
        <ele>53.868841</ele>
        <time>2021-10-30T13:25:52.477Z</time>
      </trkpt>
      <trkpt lat="47.15939" lon="-1.47456">
        <ele>53.992844</ele>
        <time>2021-10-30T13:25:54.546Z</time>
      </trkpt>
      <trkpt lat="47.15928" lon="-1.47448">
        <ele>54.156251</ele>
        <time>2021-10-30T13:25:57.510Z</time>
      </trkpt>
      <trkpt lat="47.1592" lon="-1.47439">
        <ele>54.280244</ele>
        <time>2021-10-30T13:25:59.485Z</time>
      </trkpt>
      <trkpt lat="47.15912" lon="-1.47432">
        <ele>54.399491</ele>
        <time>2021-10-30T13:26:01.485Z</time>
      </trkpt>
      <trkpt lat="47.15903" lon="-1.47419">
        <ele>54.55872</ele>
        <time>2021-10-30T13:26:04.210Z</time>
      </trkpt>
      <trkpt lat="47.15894" lon="-1.47409">
        <ele>54.699733</ele>
        <time>2021-10-30T13:26:06.693Z</time>
      </trkpt>
      <trkpt lat="47.15887" lon="-1.47394">
        <ele>54.812385</ele>
        <time>2021-10-30T13:26:09.242Z</time>
      </trkpt>
      <trkpt lat="47.15881" lon="-1.47384">
        <ele>54.897841</ele>
        <time>2021-10-30T13:26:11.402Z</time>
      </trkpt>
      <trkpt lat="47.15874" lon="-1.47373">
        <ele>54.989048</ele>
        <time>2021-10-30T13:26:14.008Z</time>
      </trkpt>
      <trkpt lat="47.15867" lon="-1.47363">
        <ele>55.080705</ele>
        <time>2021-10-30T13:26:16.492Z</time>
      </trkpt>
      <trkpt lat="47.15859" lon="-1.47352">
        <ele>55.17387</ele>
        <time>2021-10-30T13:26:18.499Z</time>
      </trkpt>
      <trkpt lat="47.15852" lon="-1.47342">
        <ele>55.270517</ele>
        <time>2021-10-30T13:26:20.486Z</time>
      </trkpt>
      <trkpt lat="47.15845" lon="-1.4733">
        <ele>55.364769</ele>
        <time>2021-10-30T13:26:22.483Z</time>
      </trkpt>
      <trkpt lat="47.15838" lon="-1.4732">
        <ele>55.456706</ele>
        <time>2021-10-30T13:26:24.486Z</time>
      </trkpt>
      <trkpt lat="47.15833" lon="-1.47308">
        <ele>55.541932</ele>
        <time>2021-10-30T13:26:26.505Z</time>
      </trkpt>
      <trkpt lat="47.15826" lon="-1.47292">
        <ele>55.659748</ele>
        <time>2021-10-30T13:26:29.480Z</time>
      </trkpt>
      <trkpt lat="47.15817" lon="-1.4728">
        <ele>55.775482</ele>
        <time>2021-10-30T13:26:32.493Z</time>
      </trkpt>
      <trkpt lat="47.15806" lon="-1.47275">
        <ele>55.877884</ele>
        <time>2021-10-30T13:26:34.139Z</time>
      </trkpt>
      <trkpt lat="47.15797" lon="-1.47278">
        <ele>55.964619</ele>
        <time>2021-10-30T13:26:37.305Z</time>
      </trkpt>
      <trkpt lat="47.15788" lon="-1.47283">
        <ele>56.050196</ele>
        <time>2021-10-30T13:26:39.892Z</time>
      </trkpt>
      <trkpt lat="47.15777" lon="-1.47288">
        <ele>56.153328</ele>
        <time>2021-10-30T13:26:41.982Z</time>
      </trkpt>
      <trkpt lat="47.15768" lon="-1.47286">
        <ele>56.242393</ele>
        <time>2021-10-30T13:26:44.522Z</time>
      </trkpt>
      <trkpt lat="47.15756" lon="-1.47285">
        <ele>56.328875</ele>
        <time>2021-10-30T13:26:47.064Z</time>
      </trkpt>
      <trkpt lat="47.15746" lon="-1.47281">
        <ele>56.256731</ele>
        <time>2021-10-30T13:26:49.529Z</time>
      </trkpt>
      <trkpt lat="47.15732" lon="-1.47278">
        <ele>56.15557</ele>
        <time>2021-10-30T13:26:52.500Z</time>
      </trkpt>
      <trkpt lat="47.15722" lon="-1.47277">
        <ele>56.085259</ele>
        <time>2021-10-30T13:26:54.533Z</time>
      </trkpt>
      <trkpt lat="47.15713" lon="-1.47276">
        <ele>56.021445</ele>
        <time>2021-10-30T13:26:56.496Z</time>
      </trkpt>
      <trkpt lat="47.15703" lon="-1.4727">
        <ele>55.948279</ele>
        <time>2021-10-30T13:26:59.031Z</time>
      </trkpt>
      <trkpt lat="47.15693" lon="-1.47268">
        <ele>55.877855</ele>
        <time>2021-10-30T13:27:00.818Z</time>
      </trkpt>
      <trkpt lat="47.15683" lon="-1.47265">
        <ele>55.805444</ele>
        <time>2021-10-30T13:27:03.490Z</time>
      </trkpt>
      <trkpt lat="47.1567" lon="-1.47262">
        <ele>55.707373</ele>
        <time>2021-10-30T13:27:06.098Z</time>
      </trkpt>
      <trkpt lat="47.15659" lon="-1.47257">
        <ele>55.629895</ele>
        <time>2021-10-30T13:27:08.654Z</time>
      </trkpt>
      <trkpt lat="47.15652" lon="-1.47246">
        <ele>55.555767</ele>
        <time>2021-10-30T13:27:11.082Z</time>
      </trkpt>
      <trkpt lat="47.15642" lon="-1.47239">
        <ele>55.475124</ele>
        <time>2021-10-30T13:27:14.145Z</time>
      </trkpt>
      <trkpt lat="47.15631" lon="-1.47237">
        <ele>55.396332</ele>
        <time>2021-10-30T13:27:17.503Z</time>
      </trkpt>
      <trkpt lat="47.15619" lon="-1.47233">
        <ele>55.31223</ele>
        <time>2021-10-30T13:27:19.876Z</time>
      </trkpt>
      <trkpt lat="47.15604" lon="-1.47233">
        <ele>55.205945</ele>
        <time>2021-10-30T13:27:23.532Z</time>
      </trkpt>
      <trkpt lat="47.15594" lon="-1.47236">
        <ele>55.127788</ele>
        <time>2021-10-30T13:27:26.137Z</time>
      </trkpt>
      <trkpt lat="47.15583" lon="-1.47235">
        <ele>55.043234</ele>
        <time>2021-10-30T13:27:28.218Z</time>
      </trkpt>
      <trkpt lat="47.15574" lon="-1.47232">
        <ele>54.883515</ele>
        <time>2021-10-30T13:27:30.314Z</time>
      </trkpt>
      <trkpt lat="47.15562" lon="-1.47226">
        <ele>54.677901</ele>
        <time>2021-10-30T13:27:32.871Z</time>
      </trkpt>
      <trkpt lat="47.15549" lon="-1.47222">
        <ele>54.46389</ele>
        <time>2021-10-30T13:27:36.523Z</time>
      </trkpt>
      <trkpt lat="47.15539" lon="-1.47216">
        <ele>54.2989</ele>
        <time>2021-10-30T13:27:38.862Z</time>
      </trkpt>
      <trkpt lat="47.1553" lon="-1.47213">
        <ele>54.152831</ele>
        <time>2021-10-30T13:27:41.196Z</time>
      </trkpt>
      <trkpt lat="47.1552" lon="-1.47209">
        <ele>53.971809</ele>
        <time>2021-10-30T13:27:43.906Z</time>
      </trkpt>
      <trkpt lat="47.15506" lon="-1.47206">
        <ele>53.758007</ele>
        <time>2021-10-30T13:27:46.976Z</time>
      </trkpt>
      <trkpt lat="47.15496" lon="-1.47201">
        <ele>53.578295</ele>
        <time>2021-10-30T13:27:49.517Z</time>
      </trkpt>
      <trkpt lat="47.15487" lon="-1.47196">
        <ele>53.428874</ele>
        <time>2021-10-30T13:27:51.500Z</time>
      </trkpt>
      <trkpt lat="47.15478" lon="-1.47192">
        <ele>53.272741</ele>
        <time>2021-10-30T13:27:53.481Z</time>
      </trkpt>
      <trkpt lat="47.15468" lon="-1.47188">
        <ele>53.116608</ele>
        <time>2021-10-30T13:27:55.489Z</time>
      </trkpt>
      <trkpt lat="47.1546" lon="-1.47185">
        <ele>52.96871</ele>
        <time>2021-10-30T13:27:57.498Z</time>
      </trkpt>
      <trkpt lat="47.1545" lon="-1.47192">
        <ele>52.793632</ele>
        <time>2021-10-30T13:28:00.031Z</time>
      </trkpt>
      <trkpt lat="47.15438" lon="-1.47182">
        <ele>52.577743</ele>
        <time>2021-10-30T13:28:02.491Z</time>
      </trkpt>
      <trkpt lat="47.15428" lon="-1.47179">
        <ele>52.4196</ele>
        <time>2021-10-30T13:28:04.491Z</time>
      </trkpt>
      <trkpt lat="47.15419" lon="-1.47175">
        <ele>52.257848</ele>
        <time>2021-10-30T13:28:06.498Z</time>
      </trkpt>
      <trkpt lat="47.1541" lon="-1.47169">
        <ele>52.169697</ele>
        <time>2021-10-30T13:28:08.512Z</time>
      </trkpt>
      <trkpt lat="47.15398" lon="-1.47168">
        <ele>52.176354</ele>
        <time>2021-10-30T13:28:11.613Z</time>
      </trkpt>
      <trkpt lat="47.15386" lon="-1.47155">
        <ele>52.184635</ele>
        <time>2021-10-30T13:28:14.493Z</time>
      </trkpt>
      <trkpt lat="47.15378" lon="-1.4715">
        <ele>52.189695</ele>
        <time>2021-10-30T13:28:16.330Z</time>
      </trkpt>
      <trkpt lat="47.15367" lon="-1.47143">
        <ele>52.196353</ele>
        <time>2021-10-30T13:28:19.415Z</time>
      </trkpt>
      <trkpt lat="47.15358" lon="-1.47139">
        <ele>52.201506</ele>
        <time>2021-10-30T13:28:20.881Z</time>
      </trkpt>
      <trkpt lat="47.15348" lon="-1.47135">
        <ele>52.207496</ele>
        <time>2021-10-30T13:28:23.490Z</time>
      </trkpt>
      <trkpt lat="47.15336" lon="-1.4713">
        <ele>52.214613</ele>
        <time>2021-10-30T13:28:26.093Z</time>
      </trkpt>
      <trkpt lat="47.15325" lon="-1.47125">
        <ele>52.220768</ele>
        <time>2021-10-30T13:28:28.573Z</time>
      </trkpt>
      <trkpt lat="47.15315" lon="-1.47123">
        <ele>52.226545</ele>
        <time>2021-10-30T13:28:31.120Z</time>
      </trkpt>
      <trkpt lat="47.15306" lon="-1.47119">
        <ele>52.232042</ele>
        <time>2021-10-30T13:28:33.482Z</time>
      </trkpt>
      <trkpt lat="47.15297" lon="-1.47115">
        <ele>52.237225</ele>
        <time>2021-10-30T13:28:35.502Z</time>
      </trkpt>
      <trkpt lat="47.15288" lon="-1.47111">
        <ele>52.24258</ele>
        <time>2021-10-30T13:28:37.190Z</time>
      </trkpt>
      <trkpt lat="47.15275" lon="-1.47104">
        <ele>52.250302</ele>
        <time>2021-10-30T13:28:40.387Z</time>
      </trkpt>
      <trkpt lat="47.15264" lon="-1.47099">
        <ele>52.256874</ele>
        <time>2021-10-30T13:28:43.380Z</time>
      </trkpt>
      <trkpt lat="47.15255" lon="-1.47097">
        <ele>52.262058</ele>
        <time>2021-10-30T13:28:45.738Z</time>
      </trkpt>
      <trkpt lat="47.15243" lon="-1.47091">
        <ele>52.267024</ele>
        <time>2021-10-30T13:28:49.118Z</time>
      </trkpt>
      <trkpt lat="47.15232" lon="-1.47086">
        <ele>52.251401</ele>
        <time>2021-10-30T13:28:51.809Z</time>
      </trkpt>
      <trkpt lat="47.15223" lon="-1.47083">
        <ele>52.238267</ele>
        <time>2021-10-30T13:28:53.937Z</time>
      </trkpt>
      <trkpt lat="47.1521" lon="-1.47078">
        <ele>52.22028</ele>
        <time>2021-10-30T13:28:57.125Z</time>
      </trkpt>
      <trkpt lat="47.15199" lon="-1.47068">
        <ele>52.202335</ele>
        <time>2021-10-30T13:29:00.460Z</time>
      </trkpt>
      <trkpt lat="47.15188" lon="-1.4706">
        <ele>52.186624</ele>
        <time>2021-10-30T13:29:03.496Z</time>
      </trkpt>
      <trkpt lat="47.15176" lon="-1.47054">
        <ele>52.168538</ele>
        <time>2021-10-30T13:29:06.487Z</time>
      </trkpt>
      <trkpt lat="47.15167" lon="-1.47045">
        <ele>52.154587</ele>
        <time>2021-10-30T13:29:09.052Z</time>
      </trkpt>
      <trkpt lat="47.15159" lon="-1.47031">
        <ele>52.137203</ele>
        <time>2021-10-30T13:29:12.312Z</time>
      </trkpt>
      <trkpt lat="47.15155" lon="-1.47018">
        <ele>52.123607</ele>
        <time>2021-10-30T13:29:15.040Z</time>
      </trkpt>
      <trkpt lat="47.15151" lon="-1.47005">
        <ele>52.110657</ele>
        <time>2021-10-30T13:29:17.019Z</time>
      </trkpt>
      <trkpt lat="47.15147" lon="-1.46991">
        <ele>52.097089</ele>
        <time>2021-10-30T13:29:19.705Z</time>
      </trkpt>
      <trkpt lat="47.15143" lon="-1.46978">
        <ele>52.083047</ele>
        <time>2021-10-30T13:29:22.379Z</time>
      </trkpt>
      <trkpt lat="47.15137" lon="-1.46963">
        <ele>52.067289</ele>
        <time>2021-10-30T13:29:26.494Z</time>
      </trkpt>
      <trkpt lat="47.15132" lon="-1.46946">
        <ele>52.05009</ele>
        <time>2021-10-30T13:29:30.049Z</time>
      </trkpt>
      <trkpt lat="47.15126" lon="-1.46931">
        <ele>52.033875</ele>
        <time>2021-10-30T13:29:33.160Z</time>
      </trkpt>
      <trkpt lat="47.15121" lon="-1.46917">
        <ele>52.013602</ele>
        <time>2021-10-30T13:29:36.509Z</time>
      </trkpt>
      <trkpt lat="47.15119" lon="-1.46903">
        <ele>51.976952</ele>
        <time>2021-10-30T13:29:38.882Z</time>
      </trkpt>
      <trkpt lat="47.15119" lon="-1.46889">
        <ele>51.942332</ele>
        <time>2021-10-30T13:29:41.749Z</time>
      </trkpt>
      <trkpt lat="47.15116" lon="-1.46876">
        <ele>51.907133</ele>
        <time>2021-10-30T13:29:44.820Z</time>
      </trkpt>
      <trkpt lat="47.1511" lon="-1.46862">
        <ele>51.865919</ele>
        <time>2021-10-30T13:29:49.060Z</time>
      </trkpt>
      <trkpt lat="47.15106" lon="-1.46846">
        <ele>51.821818</ele>
        <time>2021-10-30T13:29:53.146Z</time>
      </trkpt>
      <trkpt lat="47.1511" lon="-1.46832">
        <ele>51.783722</ele>
        <time>2021-10-30T13:29:55.932Z</time>
      </trkpt>
      <trkpt lat="47.15113" lon="-1.46817">
        <ele>51.746069</ele>
        <time>2021-10-30T13:29:59.110Z</time>
      </trkpt>
      <trkpt lat="47.15124" lon="-1.46818">
        <ele>51.703941</ele>
        <time>2021-10-30T13:30:03.019Z</time>
      </trkpt>
      <trkpt lat="47.15134" lon="-1.46819">
        <ele>51.668032</ele>
        <time>2021-10-30T13:30:05.394Z</time>
      </trkpt>
      <trkpt lat="47.15145" lon="-1.46821">
        <ele>51.625097</ele>
        <time>2021-10-30T13:30:07.741Z</time>
      </trkpt>
      <trkpt lat="47.15156" lon="-1.46822">
        <ele>51.586614</ele>
        <time>2021-10-30T13:30:10.315Z</time>
      </trkpt>
      <trkpt lat="47.15167" lon="-1.46822">
        <ele>51.544927</ele>
        <time>2021-10-30T13:30:12.885Z</time>
      </trkpt>
      <trkpt lat="47.15178" lon="-1.46822">
        <ele>51.505811</ele>
        <time>2021-10-30T13:30:15.632Z</time>
      </trkpt>
      <trkpt lat="47.15189" lon="-1.46822">
        <ele>51.463757</ele>
        <time>2021-10-30T13:30:18.489Z</time>
      </trkpt>
      <trkpt lat="47.152" lon="-1.46823">
        <ele>51.422349</ele>
        <time>2021-10-30T13:30:21.380Z</time>
      </trkpt>
      <trkpt lat="47.1521" lon="-1.46823">
        <ele>51.388042</ele>
        <time>2021-10-30T13:30:23.429Z</time>
      </trkpt>
      <trkpt lat="47.15219" lon="-1.4682">
        <ele>51.376235</ele>
        <time>2021-10-30T13:30:25.775Z</time>
      </trkpt>
      <trkpt lat="47.15229" lon="-1.46816">
        <ele>51.465277</ele>
        <time>2021-10-30T13:30:28.139Z</time>
      </trkpt>
      <trkpt lat="47.15239" lon="-1.46813">
        <ele>51.555439</ele>
        <time>2021-10-30T13:30:31.054Z</time>
      </trkpt>
      <trkpt lat="47.1525" lon="-1.46812">
        <ele>51.658871</ele>
        <time>2021-10-30T13:30:34.419Z</time>
      </trkpt>
      <trkpt lat="47.1526" lon="-1.46811">
        <ele>51.743777</ele>
        <time>2021-10-30T13:30:36.794Z</time>
      </trkpt>
      <trkpt lat="47.1527" lon="-1.46809">
        <ele>51.828282</ele>
        <time>2021-10-30T13:30:39.417Z</time>
      </trkpt>
      <trkpt lat="47.1528" lon="-1.46806">
        <ele>51.921413</ele>
        <time>2021-10-30T13:30:41.856Z</time>
      </trkpt>
      <trkpt lat="47.15291" lon="-1.46802">
        <ele>52.02626</ele>
        <time>2021-10-30T13:30:45.199Z</time>
      </trkpt>
      <trkpt lat="47.15301" lon="-1.46799">
        <ele>52.109529</ele>
        <time>2021-10-30T13:30:47.976Z</time>
      </trkpt>
      <trkpt lat="47.1531" lon="-1.46796">
        <ele>52.198501</ele>
        <time>2021-10-30T13:30:50.326Z</time>
      </trkpt>
      <trkpt lat="47.15321" lon="-1.4679">
        <ele>52.301181</ele>
        <time>2021-10-30T13:30:53.246Z</time>
      </trkpt>
      <trkpt lat="47.1533" lon="-1.46784">
        <ele>52.387064</ele>
        <time>2021-10-30T13:30:57.083Z</time>
      </trkpt>
      <trkpt lat="47.15339" lon="-1.46775">
        <ele>52.479623</ele>
        <time>2021-10-30T13:31:00.021Z</time>
      </trkpt>
      <trkpt lat="47.15345" lon="-1.46763">
        <ele>52.569989</ele>
        <time>2021-10-30T13:31:03.921Z</time>
      </trkpt>
      <trkpt lat="47.15344" lon="-1.46749">
        <ele>52.659304</ele>
        <time>2021-10-30T13:31:06.446Z</time>
      </trkpt>
      <trkpt lat="47.15339" lon="-1.46736">
        <ele>52.746821</ele>
        <time>2021-10-30T13:31:08.820Z</time>
      </trkpt>
      <trkpt lat="47.15331" lon="-1.46723">
        <ele>52.846083</ele>
        <time>2021-10-30T13:31:11.585Z</time>
      </trkpt>
      <trkpt lat="47.15327" lon="-1.4671">
        <ele>52.937525</ele>
        <time>2021-10-30T13:31:14.402Z</time>
      </trkpt>
      <trkpt lat="47.15324" lon="-1.46695">
        <ele>53.065603</ele>
        <time>2021-10-30T13:31:17.005Z</time>
      </trkpt>
      <trkpt lat="47.15318" lon="-1.46681">
        <ele>53.201227</ele>
        <time>2021-10-30T13:31:19.798Z</time>
      </trkpt>
      <trkpt lat="47.15313" lon="-1.46667">
        <ele>53.336515</ele>
        <time>2021-10-30T13:31:22.655Z</time>
      </trkpt>
      <trkpt lat="47.15308" lon="-1.46653">
        <ele>53.473597</ele>
        <time>2021-10-30T13:31:25.728Z</time>
      </trkpt>
      <trkpt lat="47.15305" lon="-1.46639">
        <ele>53.596219</ele>
        <time>2021-10-30T13:31:28.482Z</time>
      </trkpt>
      <trkpt lat="47.15304" lon="-1.46623">
        <ele>53.732418</ele>
        <time>2021-10-30T13:31:31.346Z</time>
      </trkpt>
      <trkpt lat="47.15306" lon="-1.46607">
        <ele>53.869898</ele>
        <time>2021-10-30T13:31:34.187Z</time>
      </trkpt>
      <trkpt lat="47.15309" lon="-1.46594">
        <ele>53.991269</ele>
        <time>2021-10-30T13:31:37.141Z</time>
      </trkpt>
      <trkpt lat="47.15313" lon="-1.46579">
        <ele>54.125566</ele>
        <time>2021-10-30T13:31:39.926Z</time>
      </trkpt>
      <trkpt lat="47.1532" lon="-1.46566">
        <ele>54.265475</ele>
        <time>2021-10-30T13:31:42.935Z</time>
      </trkpt>
      <trkpt lat="47.15328" lon="-1.46557">
        <ele>54.391705</ele>
        <time>2021-10-30T13:31:45.720Z</time>
      </trkpt>
      <trkpt lat="47.15337" lon="-1.46545">
        <ele>54.544195</ele>
        <time>2021-10-30T13:31:48.933Z</time>
      </trkpt>
      <trkpt lat="47.15335" lon="-1.4653">
        <ele>54.664992</ele>
        <time>2021-10-30T13:31:51.649Z</time>
      </trkpt>
      <trkpt lat="47.15329" lon="-1.46519">
        <ele>54.797109</ele>
        <time>2021-10-30T13:31:54.196Z</time>
      </trkpt>
      <trkpt lat="47.1532" lon="-1.46506">
        <ele>54.94985</ele>
        <time>2021-10-30T13:31:56.771Z</time>
      </trkpt>
      <trkpt lat="47.15312" lon="-1.46494">
        <ele>55.093674</ele>
        <time>2021-10-30T13:31:59.734Z</time>
      </trkpt>
      <trkpt lat="47.15306" lon="-1.46483">
        <ele>55.235051</ele>
        <time>2021-10-30T13:32:03.023Z</time>
      </trkpt>
      <trkpt lat="47.153" lon="-1.46468">
        <ele>55.53818</ele>
        <time>2021-10-30T13:32:05.923Z</time>
      </trkpt>
      <trkpt lat="47.15296" lon="-1.46455">
        <ele>55.809878</ele>
        <time>2021-10-30T13:32:08.866Z</time>
      </trkpt>
      <trkpt lat="47.15313" lon="-1.4634">
        <ele>57.927424</ele>
        <time>2021-10-30T13:32:56.224Z</time>
      </trkpt>
      <trkpt lat="47.15311" lon="-1.46326">
        <ele>58.176274</ele>
        <time>2021-10-30T13:32:59.494Z</time>
      </trkpt>
      <trkpt lat="47.15309" lon="-1.46313">
        <ele>58.414165</ele>
        <time>2021-10-30T13:33:02.530Z</time>
      </trkpt>
      <trkpt lat="47.15308" lon="-1.46298">
        <ele>58.692552</ele>
        <time>2021-10-30T13:33:06.127Z</time>
      </trkpt>
      <trkpt lat="47.15309" lon="-1.46282">
        <ele>58.974833</ele>
        <time>2021-10-30T13:33:09.442Z</time>
      </trkpt>
      <trkpt lat="47.15309" lon="-1.46266">
        <ele>59.263669</ele>
        <time>2021-10-30T13:33:12.958Z</time>
      </trkpt>
      <trkpt lat="47.15311" lon="-1.46253">
        <ele>59.506441</ele>
        <time>2021-10-30T13:33:15.583Z</time>
      </trkpt>
      <trkpt lat="47.15314" lon="-1.46238">
        <ele>59.780052</ele>
        <time>2021-10-30T13:33:18.791Z</time>
      </trkpt>
      <trkpt lat="47.15317" lon="-1.46222">
        <ele>59.947279</ele>
        <time>2021-10-30T13:33:22.558Z</time>
      </trkpt>
      <trkpt lat="47.15321" lon="-1.46207">
        <ele>59.969346</ele>
        <time>2021-10-30T13:33:25.935Z</time>
      </trkpt>
      <trkpt lat="47.15323" lon="-1.46191">
        <ele>59.990874</ele>
        <time>2021-10-30T13:33:29.017Z</time>
      </trkpt>
      <trkpt lat="47.15324" lon="-1.46177">
        <ele>60.009353</ele>
        <time>2021-10-30T13:33:32.229Z</time>
      </trkpt>
      <trkpt lat="47.15323" lon="-1.46161">
        <ele>60.031493</ele>
        <time>2021-10-30T13:33:35.949Z</time>
      </trkpt>
      <trkpt lat="47.1532" lon="-1.46144">
        <ele>60.054181</ele>
        <time>2021-10-30T13:33:38.925Z</time>
      </trkpt>
      <trkpt lat="47.15319" lon="-1.46131">
        <ele>60.072077</ele>
        <time>2021-10-30T13:33:41.229Z</time>
      </trkpt>
      <trkpt lat="47.15318" lon="-1.46116">
        <ele>60.092766</ele>
        <time>2021-10-30T13:33:44.026Z</time>
      </trkpt>
      <trkpt lat="47.1532" lon="-1.46098">
        <ele>60.117808</ele>
        <time>2021-10-30T13:33:47.449Z</time>
      </trkpt>
      <trkpt lat="47.1532" lon="-1.46082">
        <ele>60.139249</ele>
        <time>2021-10-30T13:33:51.187Z</time>
      </trkpt>
      <trkpt lat="47.15324" lon="-1.46066">
        <ele>60.161194</ele>
        <time>2021-10-30T13:33:53.487Z</time>
      </trkpt>
      <trkpt lat="47.15331" lon="-1.46051">
        <ele>60.185902</ele>
        <time>2021-10-30T13:33:55.481Z</time>
      </trkpt>
      <trkpt lat="47.1534" lon="-1.46038">
        <ele>60.21132</ele>
        <time>2021-10-30T13:33:57.499Z</time>
      </trkpt>
      <trkpt lat="47.1535" lon="-1.4603">
        <ele>60.233681</ele>
        <time>2021-10-30T13:33:59.472Z</time>
      </trkpt>
      <trkpt lat="47.15361" lon="-1.4602">
        <ele>60.258912</ele>
        <time>2021-10-30T13:34:02.199Z</time>
      </trkpt>
      <trkpt lat="47.1537" lon="-1.46012">
        <ele>60.279473</ele>
        <time>2021-10-30T13:34:06.131Z</time>
      </trkpt>
      <trkpt lat="47.15379" lon="-1.46015">
        <ele>60.433139</ele>
        <time>2021-10-30T13:34:09.883Z</time>
      </trkpt>
      <trkpt lat="47.15391" lon="-1.46013">
        <ele>60.932725</ele>
        <time>2021-10-30T13:34:14.410Z</time>
      </trkpt>
      <trkpt lat="47.15403" lon="-1.46005">
        <ele>61.449476</ele>
        <time>2021-10-30T13:34:18.273Z</time>
      </trkpt>
      <trkpt lat="47.1542" lon="-1.45982">
        <ele>62.387901</ele>
        <time>2021-10-30T13:34:25.083Z</time>
      </trkpt>
      <trkpt lat="47.15429" lon="-1.45982">
        <ele>62.748383</ele>
        <time>2021-10-30T13:34:28.976Z</time>
      </trkpt>
      <trkpt lat="47.15437" lon="-1.45998">
        <ele>63.270869</ele>
        <time>2021-10-30T13:34:33.077Z</time>
      </trkpt>
      <trkpt lat="47.15601" lon="-1.45912">
        <ele>70.579197</ele>
        <time>2021-10-30T13:35:45.202Z</time>
      </trkpt>
      <trkpt lat="47.15611" lon="-1.45907">
        <ele>71.033091</ele>
        <time>2021-10-30T13:35:50.837Z</time>
      </trkpt>
      <trkpt lat="47.15649" lon="-1.45886">
        <ele>72.836741</ele>
        <time>2021-10-30T13:36:11.439Z</time>
      </trkpt>
      <trkpt lat="47.15664" lon="-1.45872">
        <ele>73.614623</ele>
        <time>2021-10-30T13:36:19.489Z</time>
      </trkpt>
      <trkpt lat="47.15664" lon="-1.45787">
        <ele>75.610487</ele>
        <time>2021-10-30T13:36:47.054Z</time>
      </trkpt>
      <trkpt lat="47.1566" lon="-1.45801">
        <ele>75.680352</ele>
        <time>2021-10-30T13:36:52.990Z</time>
      </trkpt>
      <trkpt lat="47.15642" lon="-1.45812">
        <ele>75.813436</ele>
        <time>2021-10-30T13:37:03.349Z</time>
      </trkpt>
      <trkpt lat="47.15718" lon="-1.45715">
        <ele>76.508527</ele>
        <time>2021-10-30T13:37:34.120Z</time>
      </trkpt>
      <trkpt lat="47.15715" lon="-1.45696">
        <ele>76.597291</ele>
        <time>2021-10-30T13:37:37.118Z</time>
      </trkpt>
      <trkpt lat="47.15713" lon="-1.45682">
        <ele>76.666952</ele>
        <time>2021-10-30T13:37:39.332Z</time>
      </trkpt>
      <trkpt lat="47.15708" lon="-1.45667">
        <ele>76.740854</ele>
        <time>2021-10-30T13:37:41.494Z</time>
      </trkpt>
      <trkpt lat="47.15706" lon="-1.45654">
        <ele>76.871859</ele>
        <time>2021-10-30T13:37:43.497Z</time>
      </trkpt>
      <trkpt lat="47.15704" lon="-1.45639">
        <ele>77.016346</ele>
        <time>2021-10-30T13:37:45.497Z</time>
      </trkpt>
      <trkpt lat="47.15702" lon="-1.45626">
        <ele>77.157922</ele>
        <time>2021-10-30T13:37:47.500Z</time>
      </trkpt>
      <trkpt lat="47.15701" lon="-1.45612">
        <ele>77.295761</ele>
        <time>2021-10-30T13:37:49.511Z</time>
      </trkpt>
      <trkpt lat="47.15698" lon="-1.45595">
        <ele>77.470771</ele>
        <time>2021-10-30T13:37:52.111Z</time>
      </trkpt>
      <trkpt lat="47.15696" lon="-1.45578">
        <ele>77.642773</ele>
        <time>2021-10-30T13:37:54.412Z</time>
      </trkpt>
      <trkpt lat="47.15696" lon="-1.4556">
        <ele>77.824136</ele>
        <time>2021-10-30T13:37:57.503Z</time>
      </trkpt>
      <trkpt lat="47.15691" lon="-1.45543">
        <ele>77.999642</ele>
        <time>2021-10-30T13:38:00.194Z</time>
      </trkpt>
      <trkpt lat="47.15694" lon="-1.4553">
        <ele>78.141669</ele>
        <time>2021-10-30T13:38:02.399Z</time>
      </trkpt>
      <trkpt lat="47.15704" lon="-1.45529">
        <ele>78.289796</ele>
        <time>2021-10-30T13:38:05.140Z</time>
      </trkpt>
      <trkpt lat="47.15712" lon="-1.45537">
        <ele>78.421477</ele>
        <time>2021-10-30T13:38:07.144Z</time>
      </trkpt>
      <trkpt lat="47.15722" lon="-1.45544">
        <ele>78.588264</ele>
        <time>2021-10-30T13:38:09.486Z</time>
      </trkpt>
      <trkpt lat="47.15734" lon="-1.45545">
        <ele>78.764395</ele>
        <time>2021-10-30T13:38:11.888Z</time>
      </trkpt>
      <trkpt lat="47.15743" lon="-1.45546">
        <ele>78.89793</ele>
        <time>2021-10-30T13:38:14.132Z</time>
      </trkpt>
      <trkpt lat="47.15752" lon="-1.45546">
        <ele>79.031464</ele>
        <time>2021-10-30T13:38:16.063Z</time>
      </trkpt>
      <trkpt lat="47.15765" lon="-1.45547">
        <ele>79.217667</ele>
        <time>2021-10-30T13:38:19.075Z</time>
      </trkpt>
      <trkpt lat="47.15777" lon="-1.45547">
        <ele>79.388658</ele>
        <time>2021-10-30T13:38:22.511Z</time>
      </trkpt>
      <trkpt lat="47.15786" lon="-1.45548">
        <ele>79.472744</ele>
        <time>2021-10-30T13:38:24.492Z</time>
      </trkpt>
      <trkpt lat="47.15799" lon="-1.45549">
        <ele>79.593294</ele>
        <time>2021-10-30T13:38:27.488Z</time>
      </trkpt>
      <trkpt lat="47.15811" lon="-1.45546">
        <ele>79.709527</ele>
        <time>2021-10-30T13:38:30.504Z</time>
      </trkpt>
      <trkpt lat="47.15817" lon="-1.4553">
        <ele>79.82512</ele>
        <time>2021-10-30T13:38:33.509Z</time>
      </trkpt>
      <trkpt lat="47.15818" lon="-1.45516">
        <ele>79.913628</ele>
        <time>2021-10-30T13:38:35.500Z</time>
      </trkpt>
      <trkpt lat="47.15818" lon="-1.45503">
        <ele>80.000643</ele>
        <time>2021-10-30T13:38:37.488Z</time>
      </trkpt>
      <trkpt lat="47.15819" lon="-1.45483">
        <ele>80.124596</ele>
        <time>2021-10-30T13:38:40.481Z</time>
      </trkpt>
      <trkpt lat="47.1582" lon="-1.45465">
        <ele>80.241619</ele>
        <time>2021-10-30T13:38:43.473Z</time>
      </trkpt>
      <trkpt lat="47.15821" lon="-1.45447">
        <ele>80.353218</ele>
        <time>2021-10-30T13:38:46.479Z</time>
      </trkpt>
      <trkpt lat="47.15822" lon="-1.45429">
        <ele>80.468067</ele>
        <time>2021-10-30T13:38:49.480Z</time>
      </trkpt>
      <trkpt lat="47.15824" lon="-1.45412">
        <ele>80.57655</ele>
        <time>2021-10-30T13:38:52.255Z</time>
      </trkpt>
      <trkpt lat="47.15826" lon="-1.45395">
        <ele>80.690019</ele>
        <time>2021-10-30T13:38:55.239Z</time>
      </trkpt>
      <trkpt lat="47.15825" lon="-1.45378">
        <ele>80.795495</ele>
        <time>2021-10-30T13:38:58.415Z</time>
      </trkpt>
      <trkpt lat="47.15818" lon="-1.45369">
        <ele>80.884768</ele>
        <time>2021-10-30T13:39:01.315Z</time>
      </trkpt>
      <trkpt lat="47.15805" lon="-1.45369">
        <ele>81.002441</ele>
        <time>2021-10-30T13:39:04.481Z</time>
      </trkpt>
      <trkpt lat="47.15793" lon="-1.45373">
        <ele>80.654367</ele>
        <time>2021-10-30T13:39:06.509Z</time>
      </trkpt>
      <trkpt lat="47.15783" lon="-1.45373">
        <ele>79.990454</ele>
        <time>2021-10-30T13:39:08.472Z</time>
      </trkpt>
      <trkpt lat="47.15771" lon="-1.45371">
        <ele>79.187696</ele>
        <time>2021-10-30T13:39:11.465Z</time>
      </trkpt>
      <trkpt lat="47.15764" lon="-1.45358">
        <ele>78.455598</ele>
        <time>2021-10-30T13:39:14.478Z</time>
      </trkpt>
      <trkpt lat="47.15762" lon="-1.45341">
        <ele>77.678306</ele>
        <time>2021-10-30T13:39:17.477Z</time>
      </trkpt>
      <trkpt lat="47.15761" lon="-1.45328">
        <ele>77.067244</ele>
        <time>2021-10-30T13:39:19.474Z</time>
      </trkpt>
      <trkpt lat="47.15759" lon="-1.45313">
        <ele>76.3596</ele>
        <time>2021-10-30T13:39:21.467Z</time>
      </trkpt>
      <trkpt lat="47.15757" lon="-1.45298">
        <ele>75.666111</ele>
        <time>2021-10-30T13:39:23.491Z</time>
      </trkpt>
      <trkpt lat="47.15754" lon="-1.45284">
        <ele>74.984088</ele>
        <time>2021-10-30T13:39:25.481Z</time>
      </trkpt>
      <trkpt lat="47.15751" lon="-1.4527">
        <ele>74.317101</ele>
        <time>2021-10-30T13:39:27.502Z</time>
      </trkpt>
      <trkpt lat="47.15745" lon="-1.45256">
        <ele>73.566073</ele>
        <time>2021-10-30T13:39:30.056Z</time>
      </trkpt>
      <trkpt lat="47.15742" lon="-1.45241">
        <ele>72.858292</ele>
        <time>2021-10-30T13:39:34.186Z</time>
      </trkpt>
      <trkpt lat="47.15737" lon="-1.45228">
        <ele>72.192112</ele>
        <time>2021-10-30T13:39:38.479Z</time>
      </trkpt>
      <trkpt lat="47.15734" lon="-1.45215">
        <ele>71.558846</ele>
        <time>2021-10-30T13:39:42.050Z</time>
      </trkpt>
      <trkpt lat="47.1573" lon="-1.452">
        <ele>70.836366</ele>
        <time>2021-10-30T13:39:46.052Z</time>
      </trkpt>
      <trkpt lat="47.15725" lon="-1.45186">
        <ele>70.078074</ele>
        <time>2021-10-30T13:39:49.179Z</time>
      </trkpt>
      <trkpt lat="47.15721" lon="-1.4517">
        <ele>69.339523</ele>
        <time>2021-10-30T13:39:51.846Z</time>
      </trkpt>
      <trkpt lat="47.15718" lon="-1.45157">
        <ele>68.822865</ele>
        <time>2021-10-30T13:39:54.043Z</time>
      </trkpt>
      <trkpt lat="47.15714" lon="-1.4514">
        <ele>68.343491</ele>
        <time>2021-10-30T13:39:57.051Z</time>
      </trkpt>
      <trkpt lat="47.15717" lon="-1.45122">
        <ele>67.864649</ele>
        <time>2021-10-30T13:39:59.489Z</time>
      </trkpt>
      <trkpt lat="47.15718" lon="-1.45107">
        <ele>67.453565</ele>
        <time>2021-10-30T13:40:01.501Z</time>
      </trkpt>
      <trkpt lat="47.15715" lon="-1.45093">
        <ele>67.083085</ele>
        <time>2021-10-30T13:40:03.501Z</time>
      </trkpt>
      <trkpt lat="47.15708" lon="-1.45076">
        <ele>66.548038</ele>
        <time>2021-10-30T13:40:07.386Z</time>
      </trkpt>
      <trkpt lat="47.15706" lon="-1.45063">
        <ele>66.195706</ele>
        <time>2021-10-30T13:40:09.225Z</time>
      </trkpt>
      <trkpt lat="47.15701" lon="-1.45052">
        <ele>65.844703</ele>
        <time>2021-10-30T13:40:11.556Z</time>
      </trkpt>
      <trkpt lat="47.15695" lon="-1.45042">
        <ele>65.492482</ele>
        <time>2021-10-30T13:40:13.862Z</time>
      </trkpt>
      <trkpt lat="47.15689" lon="-1.4503">
        <ele>65.091658</ele>
        <time>2021-10-30T13:40:16.804Z</time>
      </trkpt>
      <trkpt lat="47.15681" lon="-1.45018">
        <ele>64.672424</ele>
        <time>2021-10-30T13:40:19.633Z</time>
      </trkpt>
      <trkpt lat="47.15672" lon="-1.45013">
        <ele>64.303671</ele>
        <time>2021-10-30T13:40:21.875Z</time>
      </trkpt>
      <trkpt lat="47.1566" lon="-1.45025">
        <ele>63.727684</ele>
        <time>2021-10-30T13:40:24.486Z</time>
      </trkpt>
      <trkpt lat="47.15651" lon="-1.45032">
        <ele>63.311498</ele>
        <time>2021-10-30T13:40:26.492Z</time>
      </trkpt>
      <trkpt lat="47.1564" lon="-1.45038">
        <ele>62.869216</ele>
        <time>2021-10-30T13:40:28.486Z</time>
      </trkpt>
      <trkpt lat="47.15629" lon="-1.45044">
        <ele>62.409617</ele>
        <time>2021-10-30T13:40:30.491Z</time>
      </trkpt>
      <trkpt lat="47.15619" lon="-1.45049">
        <ele>61.982348</ele>
        <time>2021-10-30T13:40:32.490Z</time>
      </trkpt>
      <trkpt lat="47.15607" lon="-1.45054">
        <ele>61.40768</ele>
        <time>2021-10-30T13:40:34.520Z</time>
      </trkpt>
      <trkpt lat="47.15596" lon="-1.4506">
        <ele>60.849461</ele>
        <time>2021-10-30T13:40:36.486Z</time>
      </trkpt>
      <trkpt lat="47.15585" lon="-1.45065">
        <ele>60.300271</ele>
        <time>2021-10-30T13:40:38.476Z</time>
      </trkpt>
      <trkpt lat="47.15573" lon="-1.45071">
        <ele>59.715182</ele>
        <time>2021-10-30T13:40:41.501Z</time>
      </trkpt>
      <trkpt lat="47.15564" lon="-1.45076">
        <ele>59.270159</ele>
        <time>2021-10-30T13:40:43.505Z</time>
      </trkpt>
      <trkpt lat="47.15552" lon="-1.45085">
        <ele>58.630428</ele>
        <time>2021-10-30T13:40:46.348Z</time>
      </trkpt>
      <trkpt lat="47.1554" lon="-1.45088">
        <ele>58.048946</ele>
        <time>2021-10-30T13:40:49.068Z</time>
      </trkpt>
      <trkpt lat="47.1553" lon="-1.45094">
        <ele>57.52469</ele>
        <time>2021-10-30T13:40:52.051Z</time>
      </trkpt>
      <trkpt lat="47.15526" lon="-1.45108">
        <ele>57.049066</ele>
        <time>2021-10-30T13:40:55.924Z</time>
      </trkpt>
      <trkpt lat="47.15534" lon="-1.45129">
        <ele>56.265933</ele>
        <time>2021-10-30T13:40:58.491Z</time>
      </trkpt>
      <trkpt lat="47.15538" lon="-1.45144">
        <ele>55.743199</ele>
        <time>2021-10-30T13:41:00.476Z</time>
      </trkpt>
      <trkpt lat="47.15543" lon="-1.45158">
        <ele>55.228593</ele>
        <time>2021-10-30T13:41:02.475Z</time>
      </trkpt>
      <trkpt lat="47.15546" lon="-1.45173">
        <ele>54.718928</ele>
        <time>2021-10-30T13:41:04.500Z</time>
      </trkpt>
      <trkpt lat="47.15549" lon="-1.45189">
        <ele>54.183232</ele>
        <time>2021-10-30T13:41:07.132Z</time>
      </trkpt>
      <trkpt lat="47.15547" lon="-1.45207">
        <ele>53.597076</ele>
        <time>2021-10-30T13:41:11.311Z</time>
      </trkpt>
      <trkpt lat="47.15546" lon="-1.45222">
        <ele>53.344641</ele>
        <time>2021-10-30T13:41:18.093Z</time>
      </trkpt>
      <trkpt lat="47.15539" lon="-1.45233">
        <ele>53.166604</ele>
        <time>2021-10-30T13:41:21.356Z</time>
      </trkpt>
      <trkpt lat="47.1553" lon="-1.45237">
        <ele>53.002387</ele>
        <time>2021-10-30T13:41:23.358Z</time>
      </trkpt>
      <trkpt lat="47.15521" lon="-1.45239">
        <ele>52.837709</ele>
        <time>2021-10-30T13:41:25.096Z</time>
      </trkpt>
      <trkpt lat="47.15509" lon="-1.45239">
        <ele>52.636265</ele>
        <time>2021-10-30T13:41:27.341Z</time>
      </trkpt>
      <trkpt lat="47.15499" lon="-1.45234">
        <ele>52.444041</ele>
        <time>2021-10-30T13:41:28.763Z</time>
      </trkpt>
      <trkpt lat="47.15489" lon="-1.45233">
        <ele>52.271451</ele>
        <time>2021-10-30T13:41:31.484Z</time>
      </trkpt>
      <trkpt lat="47.15476" lon="-1.45229">
        <ele>52.024679</ele>
        <time>2021-10-30T13:41:34.441Z</time>
      </trkpt>
      <trkpt lat="47.15464" lon="-1.45229">
        <ele>51.82667</ele>
        <time>2021-10-30T13:41:37.165Z</time>
      </trkpt>
      <trkpt lat="47.15454" lon="-1.4523">
        <ele>51.637591</ele>
        <time>2021-10-30T13:41:39.711Z</time>
      </trkpt>
      <trkpt lat="47.15447" lon="-1.45216">
        <ele>51.436794</ele>
        <time>2021-10-30T13:41:42.485Z</time>
      </trkpt>
      <trkpt lat="47.15443" lon="-1.45204">
        <ele>51.27448</ele>
        <time>2021-10-30T13:41:44.511Z</time>
      </trkpt>
      <trkpt lat="47.1544" lon="-1.45191">
        <ele>51.105379</ele>
        <time>2021-10-30T13:41:46.771Z</time>
      </trkpt>
      <trkpt lat="47.15435" lon="-1.45176">
        <ele>50.91312</ele>
        <time>2021-10-30T13:41:49.002Z</time>
      </trkpt>
      <trkpt lat="47.15415" lon="-1.45111">
        <ele>50.126752</ele>
        <time>2021-10-30T13:42:01.523Z</time>
      </trkpt>
      <trkpt lat="47.15411" lon="-1.45098">
        <ele>50.010917</ele>
        <time>2021-10-30T13:42:03.479Z</time>
      </trkpt>
      <trkpt lat="47.15409" lon="-1.45083">
        <ele>49.892117</ele>
        <time>2021-10-30T13:42:05.476Z</time>
      </trkpt>
      <trkpt lat="47.15408" lon="-1.45067">
        <ele>49.753438</ele>
        <time>2021-10-30T13:42:07.793Z</time>
      </trkpt>
      <trkpt lat="47.15411" lon="-1.45034">
        <ele>49.483577</ele>
        <time>2021-10-30T13:42:14.250Z</time>
      </trkpt>
      <trkpt lat="47.15416" lon="-1.45019">
        <ele>49.346411</ele>
        <time>2021-10-30T13:42:16.870Z</time>
      </trkpt>
      <trkpt lat="47.1542" lon="-1.45003">
        <ele>49.200825</ele>
        <time>2021-10-30T13:42:20.026Z</time>
      </trkpt>
      <trkpt lat="47.15422" lon="-1.44983">
        <ele>49.036664</ele>
        <time>2021-10-30T13:42:23.500Z</time>
      </trkpt>
      <trkpt lat="47.15415" lon="-1.4478">
        <ele>49.334202</ele>
        <time>2021-10-30T13:43:02.406Z</time>
      </trkpt>
      <trkpt lat="47.15416" lon="-1.44767">
        <ele>49.51119</ele>
        <time>2021-10-30T13:43:04.507Z</time>
      </trkpt>
      <trkpt lat="47.1542" lon="-1.44705">
        <ele>50.322522</ele>
        <time>2021-10-30T13:43:15.499Z</time>
      </trkpt>
      <trkpt lat="47.15418" lon="-1.44687">
        <ele>50.55758</ele>
        <time>2021-10-30T13:43:17.496Z</time>
      </trkpt>
      <trkpt lat="47.15417" lon="-1.44669">
        <ele>50.792004</ele>
        <time>2021-10-30T13:43:19.494Z</time>
      </trkpt>
      <trkpt lat="47.15415" lon="-1.44649">
        <ele>51.052845</ele>
        <time>2021-10-30T13:43:22.526Z</time>
      </trkpt>
      <trkpt lat="47.15411" lon="-1.44637">
        <ele>51.23181</ele>
        <time>2021-10-30T13:43:24.341Z</time>
      </trkpt>
      <trkpt lat="47.15407" lon="-1.44625">
        <ele>51.405143</ele>
        <time>2021-10-30T13:43:26.901Z</time>
      </trkpt>
      <trkpt lat="47.15403" lon="-1.44611">
        <ele>51.56376</ele>
        <time>2021-10-30T13:44:41.489Z</time>
      </trkpt>
      <trkpt lat="47.15396" lon="-1.44601">
        <ele>51.490957</ele>
        <time>2021-10-30T13:44:47.494Z</time>
      </trkpt>
      <trkpt lat="47.15316" lon="-1.4452">
        <ele>50.730382</ele>
        <time>2021-10-30T13:45:11.489Z</time>
      </trkpt>
      <trkpt lat="47.15311" lon="-1.44508">
        <ele>50.656339</ele>
        <time>2021-10-30T13:45:14.503Z</time>
      </trkpt>
      <trkpt lat="47.15303" lon="-1.44493">
        <ele>50.55654</ele>
        <time>2021-10-30T13:45:17.495Z</time>
      </trkpt>
      <trkpt lat="47.15296" lon="-1.44478">
        <ele>50.458201</ele>
        <time>2021-10-30T13:45:20.494Z</time>
      </trkpt>
      <trkpt lat="47.15289" lon="-1.44463">
        <ele>50.360761</ele>
        <time>2021-10-30T13:45:23.487Z</time>
      </trkpt>
      <trkpt lat="47.15284" lon="-1.44447">
        <ele>50.266747</ele>
        <time>2021-10-30T13:45:26.501Z</time>
      </trkpt>
      <trkpt lat="47.15279" lon="-1.44434">
        <ele>50.182957</ele>
        <time>2021-10-30T13:45:29.488Z</time>
      </trkpt>
      <trkpt lat="47.15272" lon="-1.44419">
        <ele>50.213303</ele>
        <time>2021-10-30T13:45:31.780Z</time>
      </trkpt>
      <trkpt lat="47.15269" lon="-1.44407">
        <ele>50.258879</ele>
        <time>2021-10-30T13:45:33.835Z</time>
      </trkpt>
      <trkpt lat="47.15257" lon="-1.44377">
        <ele>50.371422</ele>
        <time>2021-10-30T13:45:40.119Z</time>
      </trkpt>
      <trkpt lat="47.15253" lon="-1.44363">
        <ele>50.423237</ele>
        <time>2021-10-30T13:45:42.903Z</time>
      </trkpt>
      <trkpt lat="47.15231" lon="-1.44302">
        <ele>50.651931</ele>
        <time>2021-10-30T13:45:54.517Z</time>
      </trkpt>
      <trkpt lat="47.15223" lon="-1.44289">
        <ele>50.708934</ele>
        <time>2021-10-30T13:45:56.917Z</time>
      </trkpt>
      <trkpt lat="47.15235" lon="-1.4423">
        <ele>50.912514</ele>
        <time>2021-10-30T13:46:09.512Z</time>
      </trkpt>
      <trkpt lat="47.15239" lon="-1.44215">
        <ele>50.963702</ele>
        <time>2021-10-30T13:46:12.516Z</time>
      </trkpt>
      <trkpt lat="47.15241" lon="-1.44201">
        <ele>51.013789</ele>
        <time>2021-10-30T13:46:16.113Z</time>
      </trkpt>
      <trkpt lat="47.1526" lon="-1.44178">
        <ele>51.06812</ele>
        <time>2021-10-30T13:46:20.337Z</time>
      </trkpt>
      <trkpt lat="47.15269" lon="-1.44172">
        <ele>51.081091</ele>
        <time>2021-10-30T13:46:21.481Z</time>
      </trkpt>
      <trkpt lat="47.15275" lon="-1.44162">
        <ele>51.09331</ele>
        <time>2021-10-30T13:46:23.470Z</time>
      </trkpt>
      <trkpt lat="47.15282" lon="-1.44151">
        <ele>51.107236</ele>
        <time>2021-10-30T13:46:25.392Z</time>
      </trkpt>
      <trkpt lat="47.15292" lon="-1.44136">
        <ele>51.126021</ele>
        <time>2021-10-30T13:46:28.485Z</time>
      </trkpt>
      <trkpt lat="47.15302" lon="-1.44129">
        <ele>51.140628</ele>
        <time>2021-10-30T13:46:31.286Z</time>
      </trkpt>
      <trkpt lat="47.15309" lon="-1.44113">
        <ele>51.157734</ele>
        <time>2021-10-30T13:46:33.794Z</time>
      </trkpt>
      <trkpt lat="47.15317" lon="-1.441">
        <ele>51.174176</ele>
        <time>2021-10-30T13:46:36.473Z</time>
      </trkpt>
      <trkpt lat="47.15324" lon="-1.44089">
        <ele>51.186716</ele>
        <time>2021-10-30T13:46:38.495Z</time>
      </trkpt>
      <trkpt lat="47.15332" lon="-1.44075">
        <ele>51.203665</ele>
        <time>2021-10-30T13:46:41.517Z</time>
      </trkpt>
      <trkpt lat="47.15344" lon="-1.44058">
        <ele>51.225627</ele>
        <time>2021-10-30T13:46:45.496Z</time>
      </trkpt>
      <trkpt lat="47.1535" lon="-1.44046">
        <ele>51.239577</ele>
        <time>2021-10-30T13:46:47.487Z</time>
      </trkpt>
      <trkpt lat="47.15358" lon="-1.44041">
        <ele>51.251817</ele>
        <time>2021-10-30T13:46:49.794Z</time>
      </trkpt>
      <trkpt lat="47.15362" lon="-1.44026">
        <ele>51.266284</ele>
        <time>2021-10-30T13:46:52.479Z</time>
      </trkpt>
      <trkpt lat="47.15364" lon="-1.44039">
        <ele>51.278758</ele>
        <time>2021-10-30T13:47:15.309Z</time>
      </trkpt>
      <trkpt lat="47.15375" lon="-1.44122">
        <ele>52.129963</ele>
        <time>2021-10-30T13:47:34.399Z</time>
      </trkpt>
      <trkpt lat="47.15333" lon="-1.43976">
        <ele>53.83534</ele>
        <time>2021-10-30T13:48:01.486Z</time>
      </trkpt>
      <trkpt lat="47.15326" lon="-1.43966">
        <ele>53.990711</ele>
        <time>2021-10-30T13:48:03.497Z</time>
      </trkpt>
      <trkpt lat="47.15319" lon="-1.43956">
        <ele>54.121517</ele>
        <time>2021-10-30T13:48:05.496Z</time>
      </trkpt>
      <trkpt lat="47.1531" lon="-1.43944">
        <ele>53.686117</ele>
        <time>2021-10-30T13:48:07.485Z</time>
      </trkpt>
      <trkpt lat="47.153" lon="-1.43931">
        <ele>53.196178</ele>
        <time>2021-10-30T13:48:09.473Z</time>
      </trkpt>
      <trkpt lat="47.1529" lon="-1.43916">
        <ele>52.686204</ele>
        <time>2021-10-30T13:48:11.486Z</time>
      </trkpt>
      <trkpt lat="47.15281" lon="-1.43902">
        <ele>52.201831</ele>
        <time>2021-10-30T13:48:13.481Z</time>
      </trkpt>
      <trkpt lat="47.15275" lon="-1.43887">
        <ele>51.785475</ele>
        <time>2021-10-30T13:48:15.480Z</time>
      </trkpt>
      <trkpt lat="47.15282" lon="-1.43875">
        <ele>51.393333</ele>
        <time>2021-10-30T13:48:18.497Z</time>
      </trkpt>
      <trkpt lat="47.15289" lon="-1.43864">
        <ele>51.001066</ele>
        <time>2021-10-30T13:48:20.487Z</time>
      </trkpt>
      <trkpt lat="47.15295" lon="-1.43848">
        <ele>50.559849</ele>
        <time>2021-10-30T13:48:22.486Z</time>
      </trkpt>
      <trkpt lat="47.15301" lon="-1.43834">
        <ele>50.156339</ele>
        <time>2021-10-30T13:48:24.481Z</time>
      </trkpt>
      <trkpt lat="47.15305" lon="-1.43822">
        <ele>49.808099</ele>
        <time>2021-10-30T13:48:26.503Z</time>
      </trkpt>
      <trkpt lat="47.15307" lon="-1.43806">
        <ele>49.418895</ele>
        <time>2021-10-30T13:48:29.439Z</time>
      </trkpt>
      <trkpt lat="47.15308" lon="-1.4379">
        <ele>49.019784</ele>
        <time>2021-10-30T13:48:31.470Z</time>
      </trkpt>
      <trkpt lat="47.15304" lon="-1.43777">
        <ele>48.65795</ele>
        <time>2021-10-30T13:48:34.660Z</time>
      </trkpt>
      <trkpt lat="47.15303" lon="-1.43695">
        <ele>47.83086</ele>
        <time>2021-10-30T13:48:47.944Z</time>
      </trkpt>
      <trkpt lat="47.15283" lon="-1.43475">
        <ele>49.334345</ele>
        <time>2021-10-30T13:49:28.092Z</time>
      </trkpt>
      <trkpt lat="47.15276" lon="-1.43445">
        <ele>49.835225</ele>
        <time>2021-10-30T13:49:33.256Z</time>
      </trkpt>
      <trkpt lat="47.15272" lon="-1.4337">
        <ele>51.137902</ele>
        <time>2021-10-30T13:49:45.495Z</time>
      </trkpt>
      <trkpt lat="47.15269" lon="-1.43356">
        <ele>51.392978</ele>
        <time>2021-10-30T13:49:47.366Z</time>
      </trkpt>
      <trkpt lat="47.15281" lon="-1.43312">
        <ele>52.22475</ele>
        <time>2021-10-30T13:49:54.405Z</time>
      </trkpt>
      <trkpt lat="47.15288" lon="-1.43299">
        <ele>52.504644</ele>
        <time>2021-10-30T13:49:56.480Z</time>
      </trkpt>
      <trkpt lat="47.15292" lon="-1.43287">
        <ele>52.74297</ele>
        <time>2021-10-30T13:49:58.505Z</time>
      </trkpt>
      <trkpt lat="47.15295" lon="-1.43272">
        <ele>53.006633</ele>
        <time>2021-10-30T13:50:01.352Z</time>
      </trkpt>
      <trkpt lat="47.15299" lon="-1.43255">
        <ele>53.314948</ele>
        <time>2021-10-30T13:50:03.765Z</time>
      </trkpt>
      <trkpt lat="47.15253" lon="-1.43063">
        <ele>61.181797</ele>
        <time>2021-10-30T13:50:52.133Z</time>
      </trkpt>
      <trkpt lat="47.15248" lon="-1.43037">
        <ele>62.355313</ele>
        <time>2021-10-30T13:51:02.493Z</time>
      </trkpt>
      <trkpt lat="47.15244" lon="-1.43024">
        <ele>62.960155</ele>
        <time>2021-10-30T13:51:09.950Z</time>
      </trkpt>
      <trkpt lat="47.15264" lon="-1.42921">
        <ele>65.197431</ele>
        <time>2021-10-30T13:51:44.024Z</time>
      </trkpt>
      <trkpt lat="47.15238" lon="-1.42749">
        <ele>64.55053</ele>
        <time>2021-10-30T13:52:17.496Z</time>
      </trkpt>
      <trkpt lat="47.15235" lon="-1.42734">
        <ele>64.493733</ele>
        <time>2021-10-30T13:52:19.477Z</time>
      </trkpt>
      <trkpt lat="47.15233" lon="-1.42719">
        <ele>64.434582</ele>
        <time>2021-10-30T13:52:21.487Z</time>
      </trkpt>
      <trkpt lat="47.15232" lon="-1.42702">
        <ele>63.949422</ele>
        <time>2021-10-30T13:52:23.460Z</time>
      </trkpt>
      <trkpt lat="47.1523" lon="-1.42685">
        <ele>63.267169</ele>
        <time>2021-10-30T13:52:25.507Z</time>
      </trkpt>
      <trkpt lat="47.15226" lon="-1.42668">
        <ele>62.532753</ele>
        <time>2021-10-30T13:52:27.471Z</time>
      </trkpt>
      <trkpt lat="47.15217" lon="-1.42652">
        <ele>61.660453</ele>
        <time>2021-10-30T13:52:29.472Z</time>
      </trkpt>
      <trkpt lat="47.15205" lon="-1.42635">
        <ele>60.654804</ele>
        <time>2021-10-30T13:52:31.481Z</time>
      </trkpt>
      <trkpt lat="47.15196" lon="-1.42618">
        <ele>59.785114</ele>
        <time>2021-10-30T13:52:33.486Z</time>
      </trkpt>
      <trkpt lat="47.15191" lon="-1.42607">
        <ele>59.221606</ele>
        <time>2021-10-30T13:52:35.535Z</time>
      </trkpt>
      <trkpt lat="47.15184" lon="-1.42592">
        <ele>58.464921</ele>
        <time>2021-10-30T13:52:38.487Z</time>
      </trkpt>
      <trkpt lat="47.15177" lon="-1.4258">
        <ele>57.809184</ele>
        <time>2021-10-30T13:52:40.476Z</time>
      </trkpt>
      <trkpt lat="47.15171" lon="-1.42563">
        <ele>57.044291</ele>
        <time>2021-10-30T13:52:42.490Z</time>
      </trkpt>
      <trkpt lat="47.15162" lon="-1.42548">
        <ele>56.214467</ele>
        <time>2021-10-30T13:52:44.498Z</time>
      </trkpt>
      <trkpt lat="47.15151" lon="-1.42536">
        <ele>55.402311</ele>
        <time>2021-10-30T13:52:46.503Z</time>
      </trkpt>
      <trkpt lat="47.1514" lon="-1.42525">
        <ele>54.600013</ele>
        <time>2021-10-30T13:52:48.480Z</time>
      </trkpt>
      <trkpt lat="47.15131" lon="-1.42513">
        <ele>53.849712</ele>
        <time>2021-10-30T13:52:50.484Z</time>
      </trkpt>
      <trkpt lat="47.15122" lon="-1.42499">
        <ele>53.616611</ele>
        <time>2021-10-30T13:52:52.489Z</time>
      </trkpt>
      <trkpt lat="47.15115" lon="-1.42487">
        <ele>53.68877</ele>
        <time>2021-10-30T13:52:55.507Z</time>
      </trkpt>
      <trkpt lat="47.1511" lon="-1.42474">
        <ele>53.757889</ele>
        <time>2021-10-30T13:52:58.495Z</time>
      </trkpt>
      <trkpt lat="47.15104" lon="-1.42458">
        <ele>53.838731</ele>
        <time>2021-10-30T13:53:01.056Z</time>
      </trkpt>
      <trkpt lat="47.15095" lon="-1.42439">
        <ele>53.945227</ele>
        <time>2021-10-30T13:53:04.516Z</time>
      </trkpt>
      <trkpt lat="47.15091" lon="-1.42426">
        <ele>54.013557</ele>
        <time>2021-10-30T13:53:06.484Z</time>
      </trkpt>
      <trkpt lat="47.15085" lon="-1.42409">
        <ele>54.098448</ele>
        <time>2021-10-30T13:53:09.945Z</time>
      </trkpt>
      <trkpt lat="47.15046" lon="-1.42361">
        <ele>54.443591</ele>
        <time>2021-10-30T13:53:21.482Z</time>
      </trkpt>
      <trkpt lat="47.15038" lon="-1.42352">
        <ele>54.510924</ele>
        <time>2021-10-30T13:53:23.480Z</time>
      </trkpt>
      <trkpt lat="47.1503" lon="-1.42338">
        <ele>54.593705</ele>
        <time>2021-10-30T13:53:27.231Z</time>
      </trkpt>
      <trkpt lat="47.15021" lon="-1.42334">
        <ele>54.655789</ele>
        <time>2021-10-30T13:53:28.485Z</time>
      </trkpt>
      <trkpt lat="47.15011" lon="-1.42329">
        <ele>54.723995</ele>
        <time>2021-10-30T13:53:30.480Z</time>
      </trkpt>
      <trkpt lat="47.15001" lon="-1.4233">
        <ele>54.737215</ele>
        <time>2021-10-30T13:53:33.501Z</time>
      </trkpt>
      <trkpt lat="47.1499" lon="-1.42321">
        <ele>54.626869</ele>
        <time>2021-10-30T13:53:35.497Z</time>
      </trkpt>
      <trkpt lat="47.14981" lon="-1.42317">
        <ele>54.532553</ele>
        <time>2021-10-30T13:53:38.517Z</time>
      </trkpt>
      <trkpt lat="47.14971" lon="-1.4232">
        <ele>54.439334</ele>
        <time>2021-10-30T13:53:40.334Z</time>
      </trkpt>
      <trkpt lat="47.14958" lon="-1.42306">
        <ele>54.294396</ele>
        <time>2021-10-30T13:53:43.503Z</time>
      </trkpt>
      <trkpt lat="47.14949" lon="-1.42297">
        <ele>54.194372</ele>
        <time>2021-10-30T13:53:45.487Z</time>
      </trkpt>
      <trkpt lat="47.14938" lon="-1.42294">
        <ele>54.090057</ele>
        <time>2021-10-30T13:53:47.500Z</time>
      </trkpt>
      <trkpt lat="47.14928" lon="-1.42294">
        <ele>53.995915</ele>
        <time>2021-10-30T13:53:49.484Z</time>
      </trkpt>
      <trkpt lat="47.14914" lon="-1.42286">
        <ele>53.86694</ele>
        <time>2021-10-30T13:53:52.408Z</time>
      </trkpt>
      <trkpt lat="47.14905" lon="-1.42286">
        <ele>53.780249</ele>
        <time>2021-10-30T13:53:54.303Z</time>
      </trkpt>
      <trkpt lat="47.14894" lon="-1.42285">
        <ele>53.681235</ele>
        <time>2021-10-30T13:53:57.050Z</time>
      </trkpt>
      <trkpt lat="47.14871" lon="-1.42287">
        <ele>53.468915</ele>
        <time>2021-10-30T13:54:02.489Z</time>
      </trkpt>
      <trkpt lat="47.14861" lon="-1.42279">
        <ele>53.364521</ele>
        <time>2021-10-30T13:54:05.103Z</time>
      </trkpt>
      <trkpt lat="47.14825" lon="-1.4227">
        <ele>53.464056</ele>
        <time>2021-10-30T13:54:13.954Z</time>
      </trkpt>
      <trkpt lat="47.14816" lon="-1.42264">
        <ele>53.810448</ele>
        <time>2021-10-30T13:54:15.562Z</time>
      </trkpt>
      <trkpt lat="47.14748" lon="-1.42208">
        <ele>56.609505</ele>
        <time>2021-10-30T13:54:33.971Z</time>
      </trkpt>
      <trkpt lat="47.14739" lon="-1.42198">
        <ele>57.040303</ele>
        <time>2021-10-30T13:54:37.142Z</time>
      </trkpt>
      <trkpt lat="47.14563" lon="-1.42217">
        <ele>67.690306</ele>
        <time>2021-10-30T13:56:14.346Z</time>
      </trkpt>
      <trkpt lat="47.14552" lon="-1.42224">
        <ele>68.604544</ele>
        <time>2021-10-30T13:56:22.843Z</time>
      </trkpt>
      <trkpt lat="47.14543" lon="-1.4223">
        <ele>69.339881</ele>
        <time>2021-10-30T13:56:31.222Z</time>
      </trkpt>
      <trkpt lat="47.14516" lon="-1.42337">
        <ele>72.042409</ele>
        <time>2021-10-30T13:57:03.474Z</time>
      </trkpt>
      <trkpt lat="47.14505" lon="-1.42345">
        <ele>71.394776</ele>
        <time>2021-10-30T13:57:05.476Z</time>
      </trkpt>
      <trkpt lat="47.14492" lon="-1.42354">
        <ele>70.623984</ele>
        <time>2021-10-30T13:57:07.483Z</time>
      </trkpt>
      <trkpt lat="47.14479" lon="-1.42364">
        <ele>69.820649</ele>
        <time>2021-10-30T13:57:09.482Z</time>
      </trkpt>
      <trkpt lat="47.14466" lon="-1.42372">
        <ele>69.06933</ele>
        <time>2021-10-30T13:57:11.484Z</time>
      </trkpt>
      <trkpt lat="47.14453" lon="-1.42381">
        <ele>68.298319</ele>
        <time>2021-10-30T13:57:13.494Z</time>
      </trkpt>
      <trkpt lat="47.14441" lon="-1.42389">
        <ele>67.537171</ele>
        <time>2021-10-30T13:57:15.464Z</time>
      </trkpt>
      <trkpt lat="47.14429" lon="-1.42398">
        <ele>66.800554</ele>
        <time>2021-10-30T13:57:17.475Z</time>
      </trkpt>
      <trkpt lat="47.14418" lon="-1.42407">
        <ele>66.123219</ele>
        <time>2021-10-30T13:57:19.500Z</time>
      </trkpt>
      <trkpt lat="47.14408" lon="-1.42415">
        <ele>65.492827</ele>
        <time>2021-10-30T13:57:21.480Z</time>
      </trkpt>
      <trkpt lat="47.14397" lon="-1.42413">
        <ele>64.903045</ele>
        <time>2021-10-30T13:57:24.493Z</time>
      </trkpt>
      <trkpt lat="47.14393" lon="-1.42395">
        <ele>64.231382</ele>
        <time>2021-10-30T13:57:27.484Z</time>
      </trkpt>
      <trkpt lat="47.1439" lon="-1.42381">
        <ele>63.674902</ele>
        <time>2021-10-30T13:57:30.324Z</time>
      </trkpt>
      <trkpt lat="47.14376" lon="-1.42355">
        <ele>62.31157</ele>
        <time>2021-10-30T13:57:34.492Z</time>
      </trkpt>
      <trkpt lat="47.1437" lon="-1.42343">
        <ele>61.668121</ele>
        <time>2021-10-30T13:57:36.471Z</time>
      </trkpt>
      <trkpt lat="47.14363" lon="-1.4233">
        <ele>61.000792</ele>
        <time>2021-10-30T13:57:38.494Z</time>
      </trkpt>
      <trkpt lat="47.14356" lon="-1.42318">
        <ele>60.339446</ele>
        <time>2021-10-30T13:57:40.478Z</time>
      </trkpt>
      <trkpt lat="47.1435" lon="-1.42306">
        <ele>59.714698</ele>
        <time>2021-10-30T13:57:42.495Z</time>
      </trkpt>
      <trkpt lat="47.14343" lon="-1.42295">
        <ele>59.092278</ele>
        <time>2021-10-30T13:57:44.506Z</time>
      </trkpt>
      <trkpt lat="47.14337" lon="-1.42284">
        <ele>58.499771</ele>
        <time>2021-10-30T13:57:46.483Z</time>
      </trkpt>
      <trkpt lat="47.14331" lon="-1.42273">
        <ele>57.903408</ele>
        <time>2021-10-30T13:57:48.484Z</time>
      </trkpt>
      <trkpt lat="47.14325" lon="-1.42262">
        <ele>57.325016</ele>
        <time>2021-10-30T13:57:50.503Z</time>
      </trkpt>
      <trkpt lat="47.14318" lon="-1.42252">
        <ele>56.768448</ele>
        <time>2021-10-30T13:57:52.486Z</time>
      </trkpt>
      <trkpt lat="47.14312" lon="-1.42242">
        <ele>56.186914</ele>
        <time>2021-10-30T13:57:54.486Z</time>
      </trkpt>
      <trkpt lat="47.14306" lon="-1.42231">
        <ele>55.60661</ele>
        <time>2021-10-30T13:57:56.483Z</time>
      </trkpt>
      <trkpt lat="47.143" lon="-1.42216">
        <ele>54.874633</ele>
        <time>2021-10-30T13:57:59.511Z</time>
      </trkpt>
      <trkpt lat="47.1429" lon="-1.42209">
        <ele>54.199928</ele>
        <time>2021-10-30T13:58:02.496Z</time>
      </trkpt>
      <trkpt lat="47.14279" lon="-1.42198">
        <ele>53.410469</ele>
        <time>2021-10-30T13:58:05.101Z</time>
      </trkpt>
      <trkpt lat="47.14273" lon="-1.42187">
        <ele>52.799922</ele>
        <time>2021-10-30T13:58:07.481Z</time>
      </trkpt>
      <trkpt lat="47.14267" lon="-1.42176">
        <ele>52.674647</ele>
        <time>2021-10-30T13:58:09.420Z</time>
      </trkpt>
      <trkpt lat="47.14257" lon="-1.42164">
        <ele>52.719279</ele>
        <time>2021-10-30T13:58:12.497Z</time>
      </trkpt>
      <trkpt lat="47.14247" lon="-1.42156">
        <ele>52.758961</ele>
        <time>2021-10-30T13:58:14.633Z</time>
      </trkpt>
      <trkpt lat="47.14239" lon="-1.42144">
        <ele>52.800082</ele>
        <time>2021-10-30T13:58:17.048Z</time>
      </trkpt>
      <trkpt lat="47.14218" lon="-1.42118">
        <ele>52.894446</ele>
        <time>2021-10-30T13:58:23.399Z</time>
      </trkpt>
      <trkpt lat="47.14212" lon="-1.42108">
        <ele>52.926909</ele>
        <time>2021-10-30T13:58:25.436Z</time>
      </trkpt>
      <trkpt lat="47.14198" lon="-1.4209">
        <ele>52.991017</ele>
        <time>2021-10-30T13:58:29.941Z</time>
      </trkpt>
      <trkpt lat="47.14192" lon="-1.42078">
        <ele>53.025311</ele>
        <time>2021-10-30T13:58:31.918Z</time>
      </trkpt>
      <trkpt lat="47.14122" lon="-1.41981">
        <ele>53.66488</ele>
        <time>2021-10-30T13:58:55.496Z</time>
      </trkpt>
      <trkpt lat="47.14115" lon="-1.4197">
        <ele>53.832112</ele>
        <time>2021-10-30T13:58:58.325Z</time>
      </trkpt>
      <trkpt lat="47.14106" lon="-1.4196">
        <ele>54.01804</ele>
        <time>2021-10-30T13:59:00.837Z</time>
      </trkpt>
      <trkpt lat="47.14054" lon="-1.41904">
        <ele>55.058775</ele>
        <time>2021-10-30T13:59:18.259Z</time>
      </trkpt>
      <trkpt lat="47.14046" lon="-1.41871">
        <ele>55.432878</ele>
        <time>2021-10-30T13:59:25.063Z</time>
      </trkpt>
      <trkpt lat="47.1397" lon="-1.41824">
        <ele>56.671559</ele>
        <time>2021-10-30T13:59:52.490Z</time>
      </trkpt>
      <trkpt lat="47.13961" lon="-1.41823">
        <ele>56.794151</ele>
        <time>2021-10-30T13:59:54.828Z</time>
      </trkpt>
      <trkpt lat="47.1395" lon="-1.41812">
        <ele>56.977069</ele>
        <time>2021-10-30T13:59:57.488Z</time>
      </trkpt>
      <trkpt lat="47.13941" lon="-1.41809">
        <ele>57.105584</ele>
        <time>2021-10-30T14:00:00.222Z</time>
      </trkpt>
      <trkpt lat="47.1392" lon="-1.41776">
        <ele>57.524586</ele>
        <time>2021-10-30T14:00:13.885Z</time>
      </trkpt>
      <trkpt lat="47.13918" lon="-1.4179">
        <ele>57.657836</ele>
        <time>2021-10-30T14:00:57.814Z</time>
      </trkpt>
      <trkpt lat="47.13822" lon="-1.41753">
        <ele>57.598868</ele>
        <time>2021-10-30T14:01:26.349Z</time>
      </trkpt>
      <trkpt lat="47.13671" lon="-1.41584">
        <ele>52.677087</ele>
        <time>2021-10-30T14:02:15.503Z</time>
      </trkpt>
      <trkpt lat="47.13664" lon="-1.41563">
        <ele>52.772675</ele>
        <time>2021-10-30T14:02:19.492Z</time>
      </trkpt>
      <trkpt lat="47.13659" lon="-1.41549">
        <ele>52.841554</ele>
        <time>2021-10-30T14:02:21.935Z</time>
      </trkpt>
      <trkpt lat="47.1365" lon="-1.41536">
        <ele>52.913028</ele>
        <time>2021-10-30T14:02:24.228Z</time>
      </trkpt>
      <trkpt lat="47.13587" lon="-1.41507">
        <ele>53.314177</ele>
        <time>2021-10-30T14:02:40.498Z</time>
      </trkpt>
      <trkpt lat="47.13576" lon="-1.41506">
        <ele>53.380363</ele>
        <time>2021-10-30T14:02:42.742Z</time>
      </trkpt>
      <trkpt lat="47.13567" lon="-1.41496">
        <ele>53.445638</ele>
        <time>2021-10-30T14:02:45.025Z</time>
      </trkpt>
      <trkpt lat="47.13502" lon="-1.41461">
        <ele>54.405809</ele>
        <time>2021-10-30T14:03:02.196Z</time>
      </trkpt>
      <trkpt lat="47.13489" lon="-1.41458">
        <ele>54.611722</ele>
        <time>2021-10-30T14:03:05.406Z</time>
      </trkpt>
      <trkpt lat="47.13254" lon="-1.41296">
        <ele>57.404868</ele>
        <time>2021-10-30T14:04:18.036Z</time>
      </trkpt>
      <trkpt lat="47.13244" lon="-1.4129">
        <ele>57.484747</ele>
        <time>2021-10-30T14:04:20.622Z</time>
      </trkpt>
      <trkpt lat="47.12932" lon="-1.41118">
        <ele>60.848289</ele>
        <time>2021-10-30T14:06:15.389Z</time>
      </trkpt>
      <trkpt lat="47.129" lon="-1.40989">
        <ele>63.540753</ele>
        <time>2021-10-30T14:06:50.224Z</time>
      </trkpt>
      <trkpt lat="47.12898" lon="-1.40918">
        <ele>65.146785</ele>
        <time>2021-10-30T14:07:14.245Z</time>
      </trkpt>
      <trkpt lat="47.12904" lon="-1.40906">
        <ele>65.475665</ele>
        <time>2021-10-30T14:07:18.271Z</time>
      </trkpt>
      <trkpt lat="47.12918" lon="-1.40872">
        <ele>66.361448</ele>
        <time>2021-10-30T14:07:30.274Z</time>
      </trkpt>
      <trkpt lat="47.1291" lon="-1.40863">
        <ele>66.676127</ele>
        <time>2021-10-30T14:07:34.257Z</time>
      </trkpt>
      <trkpt lat="47.12901" lon="-1.4086">
        <ele>66.984789</ele>
        <time>2021-10-30T14:07:36.455Z</time>
      </trkpt>
      <trkpt lat="47.12872" lon="-1.40893">
        <ele>67.986831</ele>
        <time>2021-10-30T14:07:58.486Z</time>
      </trkpt>
      <trkpt lat="47.12867" lon="-1.40881">
        <ele>68.058244</ele>
        <time>2021-10-30T14:08:12.695Z</time>
      </trkpt>
      <trkpt lat="47.12862" lon="-1.40869">
        <ele>68.123836</ele>
        <time>2021-10-30T14:08:24.113Z</time>
      </trkpt>
      <trkpt lat="47.12856" lon="-1.40859">
        <ele>68.191116</ele>
        <time>2021-10-30T14:08:43.499Z</time>
      </trkpt>
      <trkpt lat="47.1285" lon="-1.40868">
        <ele>68.256877</ele>
        <time>2021-10-30T14:09:01.886Z</time>
      </trkpt>
      <trkpt lat="47.12845" lon="-1.4088">
        <ele>68.322395</ele>
        <time>2021-10-30T14:09:13.443Z</time>
      </trkpt>
      <trkpt lat="47.1284" lon="-1.40892">
        <ele>68.391771</ele>
        <time>2021-10-30T14:09:25.494Z</time>
      </trkpt>
      <trkpt lat="47.12831" lon="-1.40895">
        <ele>68.457516</ele>
        <time>2021-10-30T14:09:39.186Z</time>
      </trkpt>
      <trkpt lat="47.12821" lon="-1.40895">
        <ele>68.52966</ele>
        <time>2021-10-30T14:09:49.162Z</time>
      </trkpt>
      <trkpt lat="47.12812" lon="-1.40895">
        <ele>68.596794</ele>
        <time>2021-10-30T14:10:02.477Z</time>
      </trkpt>
      <trkpt lat="47.12804" lon="-1.40903">
        <ele>68.664013</ele>
        <time>2021-10-30T14:12:40.486Z</time>
      </trkpt>
      <trkpt lat="47.12795" lon="-1.40905">
        <ele>68.734159</ele>
        <time>2021-10-30T14:12:46.963Z</time>
      </trkpt>
      <trkpt lat="47.12758" lon="-1.40916">
        <ele>69.006629</ele>
        <time>2021-10-30T14:13:10.516Z</time>
      </trkpt>
      <trkpt lat="47.12746" lon="-1.40915">
        <ele>69.088895</ele>
        <time>2021-10-30T14:13:37.413Z</time>
      </trkpt>
      <trkpt lat="47.12722" lon="-1.40924">
        <ele>69.924017</ele>
        <time>2021-10-30T14:13:52.029Z</time>
      </trkpt>
      <trkpt lat="47.12686" lon="-1.41077">
        <ele>83.830298</ele>
        <time>2021-10-30T14:14:40.288Z</time>
      </trkpt>
      <trkpt lat="47.12629" lon="-1.41082">
        <ele>91.046574</ele>
        <time>2021-10-30T14:14:57.886Z</time>
      </trkpt>
      <trkpt lat="47.12574" lon="-1.41085">
        <ele>91.009994</ele>
        <time>2021-10-30T14:15:13.498Z</time>
      </trkpt>
      <trkpt lat="47.12466" lon="-1.41209">
        <ele>87.975059</ele>
        <time>2021-10-30T14:16:08.434Z</time>
      </trkpt>
      <trkpt lat="47.12433" lon="-1.41237">
        <ele>83.083116</ele>
        <time>2021-10-30T14:16:21.531Z</time>
      </trkpt>
      <trkpt lat="47.12421" lon="-1.41242">
        <ele>81.467067</ele>
        <time>2021-10-30T14:16:24.514Z</time>
      </trkpt>
      <trkpt lat="47.12447" lon="-1.41274">
        <ele>77.141789</ele>
        <time>2021-10-30T14:16:46.170Z</time>
      </trkpt>
      <trkpt lat="47.12455" lon="-1.41278">
        <ele>75.983552</ele>
        <time>2021-10-30T14:16:59.501Z</time>
      </trkpt>
      <trkpt lat="47.12463" lon="-1.41286">
        <ele>74.751357</ele>
        <time>2021-10-30T14:17:19.003Z</time>
      </trkpt>
      <trkpt lat="47.12472" lon="-1.41295">
        <ele>73.354535</ele>
        <time>2021-10-30T14:17:28.308Z</time>
      </trkpt>
      <trkpt lat="47.1248" lon="-1.41304">
        <ele>72.039075</ele>
        <time>2021-10-30T14:17:35.176Z</time>
      </trkpt>
      <trkpt lat="47.12489" lon="-1.41308">
        <ele>70.81978</ele>
        <time>2021-10-30T14:17:44.129Z</time>
      </trkpt>
      <trkpt lat="47.12498" lon="-1.41314">
        <ele>69.538299</ele>
        <time>2021-10-30T14:17:50.723Z</time>
      </trkpt>
      <trkpt lat="47.12554" lon="-1.41366">
        <ele>63.330996</ele>
        <time>2021-10-30T14:18:13.882Z</time>
      </trkpt>
      <trkpt lat="47.12549" lon="-1.41379">
        <ele>62.721618</ele>
        <time>2021-10-30T14:18:21.345Z</time>
      </trkpt>
      <trkpt lat="47.12532" lon="-1.41404">
        <ele>61.219813</ele>
        <time>2021-10-30T14:18:26.479Z</time>
      </trkpt>
      <trkpt lat="47.12525" lon="-1.41415">
        <ele>60.570228</ele>
        <time>2021-10-30T14:18:28.500Z</time>
      </trkpt>
      <trkpt lat="47.12524" lon="-1.4143">
        <ele>59.93774</ele>
        <time>2021-10-30T14:18:30.514Z</time>
      </trkpt>
      <trkpt lat="47.12529" lon="-1.41444">
        <ele>59.256187</ele>
        <time>2021-10-30T14:18:32.480Z</time>
      </trkpt>
      <trkpt lat="47.12537" lon="-1.41456">
        <ele>58.580531</ele>
        <time>2021-10-30T14:18:34.483Z</time>
      </trkpt>
      <trkpt lat="47.12544" lon="-1.41467">
        <ele>57.977595</ele>
        <time>2021-10-30T14:18:36.483Z</time>
      </trkpt>
      <trkpt lat="47.12549" lon="-1.41477">
        <ele>57.401791</ele>
        <time>2021-10-30T14:18:38.489Z</time>
      </trkpt>
      <trkpt lat="47.12555" lon="-1.41489">
        <ele>56.798729</ele>
        <time>2021-10-30T14:18:40.295Z</time>
      </trkpt>
      <trkpt lat="47.12589" lon="-1.41547">
        <ele>55.193619</ele>
        <time>2021-10-30T14:19:02.100Z</time>
      </trkpt>
      <trkpt lat="47.12625" lon="-1.41585">
        <ele>58.626384</ele>
        <time>2021-10-30T14:19:26.677Z</time>
      </trkpt>
      <trkpt lat="47.12638" lon="-1.41586">
        <ele>59.647485</ele>
        <time>2021-10-30T14:19:33.793Z</time>
      </trkpt>
      <trkpt lat="47.12718" lon="-1.4159">
        <ele>65.881627</ele>
        <time>2021-10-30T14:20:07.409Z</time>
      </trkpt>
      <trkpt lat="47.12758" lon="-1.41672">
        <ele>70.732307</ele>
        <time>2021-10-30T14:20:58.826Z</time>
      </trkpt>
      <trkpt lat="47.12672" lon="-1.41697">
        <ele>76.37217</ele>
        <time>2021-10-30T14:21:36.162Z</time>
      </trkpt>
      <trkpt lat="47.12576" lon="-1.41798">
        <ele>82.84497</ele>
        <time>2021-10-30T14:22:30.488Z</time>
      </trkpt>
      <trkpt lat="47.12444" lon="-1.42286">
        <ele>97.356966</ele>
        <time>2021-10-30T14:25:17.884Z</time>
      </trkpt>
      <trkpt lat="47.12456" lon="-1.42275">
        <ele>97.553911</ele>
        <time>2021-10-30T14:25:21.190Z</time>
      </trkpt>
      <trkpt lat="47.12448" lon="-1.4249">
        <ele>98.975391</ele>
        <time>2021-10-30T14:26:35.504Z</time>
      </trkpt>
      <trkpt lat="47.12453" lon="-1.42743">
        <ele>98.668168</ele>
        <time>2021-10-30T14:27:15.527Z</time>
      </trkpt>
      <trkpt lat="47.12458" lon="-1.42758">
        <ele>98.672999</ele>
        <time>2021-10-30T14:27:17.674Z</time>
      </trkpt>
      <trkpt lat="47.12463" lon="-1.42773">
        <ele>98.677844</ele>
        <time>2021-10-30T14:27:20.289Z</time>
      </trkpt>
      <trkpt lat="47.12468" lon="-1.42785">
        <ele>98.682053</ele>
        <time>2021-10-30T14:27:22.352Z</time>
      </trkpt>
      <trkpt lat="47.12535" lon="-1.42915">
        <ele>98.730326</ele>
        <time>2021-10-30T14:27:49.501Z</time>
      </trkpt>
      <trkpt lat="47.12542" lon="-1.4293">
        <ele>98.740434</ele>
        <time>2021-10-30T14:27:52.435Z</time>
      </trkpt>
      <trkpt lat="47.12631" lon="-1.43138">
        <ele>98.892742</ele>
        <time>2021-10-30T14:28:31.489Z</time>
      </trkpt>
      <trkpt lat="47.12634" lon="-1.4315">
        <ele>98.85979</ele>
        <time>2021-10-30T14:28:33.496Z</time>
      </trkpt>
      <trkpt lat="47.12638" lon="-1.43162">
        <ele>98.808006</ele>
        <time>2021-10-30T14:28:35.505Z</time>
      </trkpt>
      <trkpt lat="47.12642" lon="-1.43175">
        <ele>98.754556</ele>
        <time>2021-10-30T14:28:37.493Z</time>
      </trkpt>
      <trkpt lat="47.12646" lon="-1.43187">
        <ele>98.701707</ele>
        <time>2021-10-30T14:28:39.492Z</time>
      </trkpt>
      <trkpt lat="47.12649" lon="-1.432">
        <ele>98.649036</ele>
        <time>2021-10-30T14:28:41.492Z</time>
      </trkpt>
      <trkpt lat="47.12653" lon="-1.43219">
        <ele>98.572669</ele>
        <time>2021-10-30T14:28:44.505Z</time>
      </trkpt>
      <trkpt lat="47.12655" lon="-1.43232">
        <ele>98.521195</ele>
        <time>2021-10-30T14:28:46.500Z</time>
      </trkpt>
      <trkpt lat="47.12659" lon="-1.43249">
        <ele>98.452367</ele>
        <time>2021-10-30T14:28:49.519Z</time>
      </trkpt>
      <trkpt lat="47.12664" lon="-1.43267">
        <ele>98.375035</ele>
        <time>2021-10-30T14:28:52.483Z</time>
      </trkpt>
      <trkpt lat="47.12668" lon="-1.4328">
        <ele>98.320779</ele>
        <time>2021-10-30T14:28:54.485Z</time>
      </trkpt>
      <trkpt lat="47.12673" lon="-1.43292">
        <ele>98.266034</ele>
        <time>2021-10-30T14:28:56.465Z</time>
      </trkpt>
      <trkpt lat="47.12678" lon="-1.43304">
        <ele>98.211837</ele>
        <time>2021-10-30T14:28:58.483Z</time>
      </trkpt>
      <trkpt lat="47.12683" lon="-1.43316">
        <ele>98.157313</ele>
        <time>2021-10-30T14:29:00.499Z</time>
      </trkpt>
      <trkpt lat="47.12688" lon="-1.43328">
        <ele>98.101211</ele>
        <time>2021-10-30T14:29:02.494Z</time>
      </trkpt>
      <trkpt lat="47.12693" lon="-1.43341">
        <ele>98.044705</ele>
        <time>2021-10-30T14:29:04.491Z</time>
      </trkpt>
      <trkpt lat="47.12699" lon="-1.43353">
        <ele>97.988914</ele>
        <time>2021-10-30T14:29:06.499Z</time>
      </trkpt>
      <trkpt lat="47.12703" lon="-1.43365">
        <ele>97.933656</ele>
        <time>2021-10-30T14:29:08.521Z</time>
      </trkpt>
      <trkpt lat="47.12709" lon="-1.43377">
        <ele>97.87884</ele>
        <time>2021-10-30T14:29:10.495Z</time>
      </trkpt>
      <trkpt lat="47.12714" lon="-1.43389">
        <ele>97.755882</ele>
        <time>2021-10-30T14:29:12.493Z</time>
      </trkpt>
      <trkpt lat="47.12719" lon="-1.43402">
        <ele>97.623737</ele>
        <time>2021-10-30T14:29:14.504Z</time>
      </trkpt>
      <trkpt lat="47.12725" lon="-1.43413">
        <ele>97.494043</ele>
        <time>2021-10-30T14:29:16.473Z</time>
      </trkpt>
      <trkpt lat="47.1273" lon="-1.43426">
        <ele>97.361801</ele>
        <time>2021-10-30T14:29:18.486Z</time>
      </trkpt>
      <trkpt lat="47.12735" lon="-1.43439">
        <ele>97.227402</ele>
        <time>2021-10-30T14:29:20.476Z</time>
      </trkpt>
      <trkpt lat="47.1274" lon="-1.43451">
        <ele>97.092122</ele>
        <time>2021-10-30T14:29:22.501Z</time>
      </trkpt>
      <trkpt lat="47.12745" lon="-1.43464">
        <ele>96.957798</ele>
        <time>2021-10-30T14:29:24.494Z</time>
      </trkpt>
      <trkpt lat="47.1275" lon="-1.43477">
        <ele>96.815651</ele>
        <time>2021-10-30T14:29:26.470Z</time>
      </trkpt>
      <trkpt lat="47.12755" lon="-1.43491">
        <ele>96.672257</ele>
        <time>2021-10-30T14:29:28.484Z</time>
      </trkpt>
      <trkpt lat="47.12759" lon="-1.43506">
        <ele>96.530407</ele>
        <time>2021-10-30T14:29:30.486Z</time>
      </trkpt>
      <trkpt lat="47.12764" lon="-1.4352">
        <ele>96.386617</ele>
        <time>2021-10-30T14:29:32.510Z</time>
      </trkpt>
      <trkpt lat="47.12769" lon="-1.43534">
        <ele>96.242363</ele>
        <time>2021-10-30T14:29:34.480Z</time>
      </trkpt>
      <trkpt lat="47.12773" lon="-1.43548">
        <ele>96.101445</ele>
        <time>2021-10-30T14:29:36.484Z</time>
      </trkpt>
      <trkpt lat="47.12778" lon="-1.43562">
        <ele>95.962331</ele>
        <time>2021-10-30T14:29:38.488Z</time>
      </trkpt>
      <trkpt lat="47.12782" lon="-1.43576">
        <ele>95.824164</ele>
        <time>2021-10-30T14:29:40.490Z</time>
      </trkpt>
      <trkpt lat="47.12786" lon="-1.4359">
        <ele>95.682954</ele>
        <time>2021-10-30T14:29:42.483Z</time>
      </trkpt>
      <trkpt lat="47.12791" lon="-1.43604">
        <ele>95.537047</ele>
        <time>2021-10-30T14:29:44.504Z</time>
      </trkpt>
      <trkpt lat="47.12795" lon="-1.43619">
        <ele>95.479626</ele>
        <time>2021-10-30T14:29:46.490Z</time>
      </trkpt>
      <trkpt lat="47.12801" lon="-1.43632">
        <ele>95.523927</ele>
        <time>2021-10-30T14:29:48.488Z</time>
      </trkpt>
      <trkpt lat="47.12805" lon="-1.43646">
        <ele>95.567709</ele>
        <time>2021-10-30T14:29:50.486Z</time>
      </trkpt>
      <trkpt lat="47.12811" lon="-1.4366">
        <ele>95.612169</ele>
        <time>2021-10-30T14:29:52.478Z</time>
      </trkpt>
      <trkpt lat="47.12816" lon="-1.43674">
        <ele>95.657255</ele>
        <time>2021-10-30T14:29:54.492Z</time>
      </trkpt>
      <trkpt lat="47.12822" lon="-1.43688">
        <ele>95.701921</ele>
        <time>2021-10-30T14:29:56.473Z</time>
      </trkpt>
      <trkpt lat="47.12827" lon="-1.43701">
        <ele>95.745656</ele>
        <time>2021-10-30T14:29:58.521Z</time>
      </trkpt>
      <trkpt lat="47.12832" lon="-1.43716">
        <ele>95.790188</ele>
        <time>2021-10-30T14:30:00.483Z</time>
      </trkpt>
      <trkpt lat="47.12837" lon="-1.4373">
        <ele>95.833683</ele>
        <time>2021-10-30T14:30:02.508Z</time>
      </trkpt>
      <trkpt lat="47.12842" lon="-1.43743">
        <ele>95.876319</ele>
        <time>2021-10-30T14:30:04.487Z</time>
      </trkpt>
      <trkpt lat="47.12846" lon="-1.43756">
        <ele>95.917098</ele>
        <time>2021-10-30T14:30:06.487Z</time>
      </trkpt>
      <trkpt lat="47.12849" lon="-1.43771">
        <ele>95.959004</ele>
        <time>2021-10-30T14:30:08.485Z</time>
      </trkpt>
      <trkpt lat="47.12852" lon="-1.43785">
        <ele>96.000387</ele>
        <time>2021-10-30T14:30:10.530Z</time>
      </trkpt>
      <trkpt lat="47.12856" lon="-1.43797">
        <ele>96.0393</ele>
        <time>2021-10-30T14:30:12.489Z</time>
      </trkpt>
      <trkpt lat="47.1286" lon="-1.4381">
        <ele>96.078054</ele>
        <time>2021-10-30T14:30:14.510Z</time>
      </trkpt>
      <trkpt lat="47.12864" lon="-1.43823">
        <ele>96.117408</ele>
        <time>2021-10-30T14:30:16.487Z</time>
      </trkpt>
      <trkpt lat="47.12868" lon="-1.43837">
        <ele>96.161364</ele>
        <time>2021-10-30T14:30:18.495Z</time>
      </trkpt>
      <trkpt lat="47.12872" lon="-1.43852">
        <ele>96.212262</ele>
        <time>2021-10-30T14:30:20.483Z</time>
      </trkpt>
      <trkpt lat="47.12877" lon="-1.43867">
        <ele>96.291744</ele>
        <time>2021-10-30T14:30:22.473Z</time>
      </trkpt>
      <trkpt lat="47.12881" lon="-1.43881">
        <ele>96.370915</ele>
        <time>2021-10-30T14:30:24.522Z</time>
      </trkpt>
      <trkpt lat="47.12886" lon="-1.43896">
        <ele>96.450375</ele>
        <time>2021-10-30T14:30:26.492Z</time>
      </trkpt>
      <trkpt lat="47.12892" lon="-1.4391">
        <ele>96.532454</ele>
        <time>2021-10-30T14:30:28.487Z</time>
      </trkpt>
      <trkpt lat="47.12898" lon="-1.43925">
        <ele>96.616861</ele>
        <time>2021-10-30T14:30:30.513Z</time>
      </trkpt>
      <trkpt lat="47.12904" lon="-1.43939">
        <ele>96.702068</ele>
        <time>2021-10-30T14:30:32.497Z</time>
      </trkpt>
      <trkpt lat="47.1291" lon="-1.43953">
        <ele>96.785946</ele>
        <time>2021-10-30T14:30:34.487Z</time>
      </trkpt>
      <trkpt lat="47.12916" lon="-1.43967">
        <ele>96.868244</ele>
        <time>2021-10-30T14:30:36.499Z</time>
      </trkpt>
      <trkpt lat="47.12923" lon="-1.43981">
        <ele>96.948436</ele>
        <time>2021-10-30T14:30:38.492Z</time>
      </trkpt>
      <trkpt lat="47.12928" lon="-1.43994">
        <ele>97.027865</ele>
        <time>2021-10-30T14:30:40.515Z</time>
      </trkpt>
      <trkpt lat="47.12934" lon="-1.44008">
        <ele>97.104041</ele>
        <time>2021-10-30T14:30:42.490Z</time>
      </trkpt>
      <trkpt lat="47.12941" lon="-1.44016">
        <ele>97.172088</ele>
        <time>2021-10-30T14:30:44.508Z</time>
      </trkpt>
      <trkpt lat="47.12951" lon="-1.44012">
        <ele>97.244666</ele>
        <time>2021-10-30T14:30:46.492Z</time>
      </trkpt>
      <trkpt lat="47.1296" lon="-1.44008">
        <ele>97.312275</ele>
        <time>2021-10-30T14:30:48.487Z</time>
      </trkpt>
      <trkpt lat="47.12968" lon="-1.44002">
        <ele>97.37781</ele>
        <time>2021-10-30T14:30:50.491Z</time>
      </trkpt>
      <trkpt lat="47.1298" lon="-1.43995">
        <ele>97.473746</ele>
        <time>2021-10-30T14:30:52.834Z</time>
      </trkpt>
      <trkpt lat="47.1299" lon="-1.43989">
        <ele>97.574699</ele>
        <time>2021-10-30T14:30:55.811Z</time>
      </trkpt>
      <trkpt lat="47.13037" lon="-1.43959">
        <ele>98.118967</ele>
        <time>2021-10-30T14:31:15.499Z</time>
      </trkpt>
      <trkpt lat="47.13123" lon="-1.43958">
        <ele>99.034839</ele>
        <time>2021-10-30T14:35:15.495Z</time>
      </trkpt>
      <trkpt lat="47.13129" lon="-1.43947">
        <ele>99.136776</ele>
        <time>2021-10-30T14:35:18.484Z</time>
      </trkpt>
      <trkpt lat="47.13132" lon="-1.43935">
        <ele>99.232379</ele>
        <time>2021-10-30T14:35:20.493Z</time>
      </trkpt>
      <trkpt lat="47.13137" lon="-1.43921">
        <ele>99.343589</ele>
        <time>2021-10-30T14:35:22.497Z</time>
      </trkpt>
      <trkpt lat="47.13142" lon="-1.43907">
        <ele>99.382435</ele>
        <time>2021-10-30T14:35:24.487Z</time>
      </trkpt>
      <trkpt lat="47.13148" lon="-1.43893">
        <ele>99.273223</ele>
        <time>2021-10-30T14:35:26.514Z</time>
      </trkpt>
      <trkpt lat="47.13155" lon="-1.4388">
        <ele>99.162833</ele>
        <time>2021-10-30T14:35:28.507Z</time>
      </trkpt>
      <trkpt lat="47.13162" lon="-1.43866">
        <ele>99.049743</ele>
        <time>2021-10-30T14:35:30.506Z</time>
      </trkpt>
      <trkpt lat="47.13169" lon="-1.43853">
        <ele>98.936798</ele>
        <time>2021-10-30T14:35:32.500Z</time>
      </trkpt>
      <trkpt lat="47.13177" lon="-1.43839">
        <ele>98.819961</ele>
        <time>2021-10-30T14:35:34.510Z</time>
      </trkpt>
      <trkpt lat="47.13185" lon="-1.43825">
        <ele>98.694829</ele>
        <time>2021-10-30T14:35:36.495Z</time>
      </trkpt>
      <trkpt lat="47.13195" lon="-1.4381">
        <ele>98.564385</ele>
        <time>2021-10-30T14:35:38.493Z</time>
      </trkpt>
      <trkpt lat="47.13204" lon="-1.43796">
        <ele>98.430353</ele>
        <time>2021-10-30T14:35:40.486Z</time>
      </trkpt>
      <trkpt lat="47.13215" lon="-1.43782">
        <ele>98.292035</ele>
        <time>2021-10-30T14:35:42.479Z</time>
      </trkpt>
      <trkpt lat="47.13226" lon="-1.43769">
        <ele>98.151937</ele>
        <time>2021-10-30T14:35:44.501Z</time>
      </trkpt>
      <trkpt lat="47.13237" lon="-1.43755">
        <ele>98.012185</ele>
        <time>2021-10-30T14:35:46.511Z</time>
      </trkpt>
      <trkpt lat="47.13249" lon="-1.43742">
        <ele>97.872087</ele>
        <time>2021-10-30T14:35:48.486Z</time>
      </trkpt>
      <trkpt lat="47.1326" lon="-1.4373">
        <ele>97.736387</ele>
        <time>2021-10-30T14:35:50.486Z</time>
      </trkpt>
      <trkpt lat="47.13271" lon="-1.43719">
        <ele>97.573487</ele>
        <time>2021-10-30T14:35:52.513Z</time>
      </trkpt>
      <trkpt lat="47.13281" lon="-1.43709">
        <ele>97.382658</ele>
        <time>2021-10-30T14:35:54.477Z</time>
      </trkpt>
      <trkpt lat="47.13292" lon="-1.43701">
        <ele>97.200163</ele>
        <time>2021-10-30T14:35:56.500Z</time>
      </trkpt>
      <trkpt lat="47.13303" lon="-1.43693">
        <ele>97.013679</ele>
        <time>2021-10-30T14:35:58.494Z</time>
      </trkpt>
      <trkpt lat="47.13314" lon="-1.43685">
        <ele>96.826734</ele>
        <time>2021-10-30T14:36:00.484Z</time>
      </trkpt>
      <trkpt lat="47.13323" lon="-1.43676">
        <ele>96.657743</ele>
        <time>2021-10-30T14:36:02.502Z</time>
      </trkpt>
      <trkpt lat="47.13322" lon="-1.43663">
        <ele>96.513729</ele>
        <time>2021-10-30T14:36:05.493Z</time>
      </trkpt>
      <trkpt lat="47.13316" lon="-1.43652">
        <ele>96.36896</ele>
        <time>2021-10-30T14:36:07.500Z</time>
      </trkpt>
      <trkpt lat="47.13309" lon="-1.43639">
        <ele>96.197803</ele>
        <time>2021-10-30T14:36:09.486Z</time>
      </trkpt>
      <trkpt lat="47.13301" lon="-1.43625">
        <ele>96.00509</ele>
        <time>2021-10-30T14:36:11.492Z</time>
      </trkpt>
      <trkpt lat="47.13293" lon="-1.43609">
        <ele>95.807585</ele>
        <time>2021-10-30T14:36:13.527Z</time>
      </trkpt>
      <trkpt lat="47.13286" lon="-1.43593">
        <ele>95.611859</ele>
        <time>2021-10-30T14:36:15.482Z</time>
      </trkpt>
      <trkpt lat="47.13279" lon="-1.43578">
        <ele>95.413513</ele>
        <time>2021-10-30T14:36:17.494Z</time>
      </trkpt>
      <trkpt lat="47.13271" lon="-1.43562">
        <ele>95.214345</ele>
        <time>2021-10-30T14:36:19.494Z</time>
      </trkpt>
      <trkpt lat="47.13264" lon="-1.43546">
        <ele>95.020288</ele>
        <time>2021-10-30T14:36:21.499Z</time>
      </trkpt>
      <trkpt lat="47.13257" lon="-1.43531">
        <ele>94.952291</ele>
        <time>2021-10-30T14:36:23.491Z</time>
      </trkpt>
      <trkpt lat="47.13258" lon="-1.43517">
        <ele>94.968118</ele>
        <time>2021-10-30T14:36:25.482Z</time>
      </trkpt>
      <trkpt lat="47.13269" lon="-1.43514">
        <ele>94.986465</ele>
        <time>2021-10-30T14:36:27.491Z</time>
      </trkpt>
      <trkpt lat="47.13279" lon="-1.43507">
        <ele>95.005389</ele>
        <time>2021-10-30T14:36:29.495Z</time>
      </trkpt>
      <trkpt lat="47.13289" lon="-1.43497">
        <ele>95.02492</ele>
        <time>2021-10-30T14:36:31.491Z</time>
      </trkpt>
      <trkpt lat="47.13298" lon="-1.43486">
        <ele>95.044517</ele>
        <time>2021-10-30T14:36:33.489Z</time>
      </trkpt>
      <trkpt lat="47.13308" lon="-1.43477">
        <ele>95.0636</ele>
        <time>2021-10-30T14:36:35.493Z</time>
      </trkpt>
      <trkpt lat="47.13317" lon="-1.43468">
        <ele>95.082169</ele>
        <time>2021-10-30T14:36:37.475Z</time>
      </trkpt>
      <trkpt lat="47.13326" lon="-1.43459">
        <ele>95.100634</ele>
        <time>2021-10-30T14:36:39.486Z</time>
      </trkpt>
      <trkpt lat="47.13336" lon="-1.4345">
        <ele>95.11898</ele>
        <time>2021-10-30T14:36:41.492Z</time>
      </trkpt>
      <trkpt lat="47.13345" lon="-1.43441">
        <ele>95.137298</ele>
        <time>2021-10-30T14:36:43.473Z</time>
      </trkpt>
      <trkpt lat="47.13354" lon="-1.43432">
        <ele>95.155735</ele>
        <time>2021-10-30T14:36:45.481Z</time>
      </trkpt>
      <trkpt lat="47.13364" lon="-1.43423">
        <ele>95.174071</ele>
        <time>2021-10-30T14:36:47.491Z</time>
      </trkpt>
      <trkpt lat="47.13373" lon="-1.43413">
        <ele>95.193072</ele>
        <time>2021-10-30T14:36:49.512Z</time>
      </trkpt>
      <trkpt lat="47.13383" lon="-1.43404">
        <ele>95.21237</ele>
        <time>2021-10-30T14:36:51.472Z</time>
      </trkpt>
      <trkpt lat="47.13393" lon="-1.43394">
        <ele>95.232887</ele>
        <time>2021-10-30T14:36:53.498Z</time>
      </trkpt>
      <trkpt lat="47.13403" lon="-1.43384">
        <ele>95.0789</ele>
        <time>2021-10-30T14:36:55.502Z</time>
      </trkpt>
      <trkpt lat="47.13413" lon="-1.43373">
        <ele>94.860404</ele>
        <time>2021-10-30T14:36:57.488Z</time>
      </trkpt>
      <trkpt lat="47.13424" lon="-1.43363">
        <ele>94.640487</ele>
        <time>2021-10-30T14:36:59.464Z</time>
      </trkpt>
      <trkpt lat="47.13435" lon="-1.43352">
        <ele>94.408385</ele>
        <time>2021-10-30T14:37:01.514Z</time>
      </trkpt>
      <trkpt lat="47.13446" lon="-1.43341">
        <ele>94.178607</ele>
        <time>2021-10-30T14:37:03.480Z</time>
      </trkpt>
      <trkpt lat="47.13456" lon="-1.43329">
        <ele>93.943973</ele>
        <time>2021-10-30T14:37:05.484Z</time>
      </trkpt>
      <trkpt lat="47.13467" lon="-1.43317">
        <ele>93.707869</ele>
        <time>2021-10-30T14:37:07.498Z</time>
      </trkpt>
      <trkpt lat="47.13479" lon="-1.43307">
        <ele>93.472029</ele>
        <time>2021-10-30T14:37:09.468Z</time>
      </trkpt>
      <trkpt lat="47.13489" lon="-1.43295">
        <ele>93.245436</ele>
        <time>2021-10-30T14:37:11.515Z</time>
      </trkpt>
      <trkpt lat="47.135" lon="-1.43296">
        <ele>93.051451</ele>
        <time>2021-10-30T14:37:13.500Z</time>
      </trkpt>
      <trkpt lat="47.13505" lon="-1.4331">
        <ele>92.856213</ele>
        <time>2021-10-30T14:37:15.492Z</time>
      </trkpt>
      <trkpt lat="47.13509" lon="-1.43325">
        <ele>92.666844</ele>
        <time>2021-10-30T14:37:17.505Z</time>
      </trkpt>
      <trkpt lat="47.13514" lon="-1.4334">
        <ele>92.478762</ele>
        <time>2021-10-30T14:37:20.729Z</time>
      </trkpt>
      <trkpt lat="47.13519" lon="-1.43354">
        <ele>92.290389</ele>
        <time>2021-10-30T14:37:21.501Z</time>
      </trkpt>
      <trkpt lat="47.13523" lon="-1.43367">
        <ele>92.110755</ele>
        <time>2021-10-30T14:37:23.476Z</time>
      </trkpt>
      <trkpt lat="47.13529" lon="-1.43379">
        <ele>92.172685</ele>
        <time>2021-10-30T14:37:25.511Z</time>
      </trkpt>
      <trkpt lat="47.13533" lon="-1.43391">
        <ele>92.243661</ele>
        <time>2021-10-30T14:37:27.470Z</time>
      </trkpt>
      <trkpt lat="47.1354" lon="-1.43408">
        <ele>92.345981</ele>
        <time>2021-10-30T14:37:30.500Z</time>
      </trkpt>
      <trkpt lat="47.13546" lon="-1.43424">
        <ele>92.437953</ele>
        <time>2021-10-30T14:37:33.491Z</time>
      </trkpt>
      <trkpt lat="47.13552" lon="-1.4344">
        <ele>92.530332</ele>
        <time>2021-10-30T14:37:36.471Z</time>
      </trkpt>
      <trkpt lat="47.13557" lon="-1.43453">
        <ele>92.609766</ele>
        <time>2021-10-30T14:37:38.336Z</time>
      </trkpt>
      <trkpt lat="47.13562" lon="-1.43464">
        <ele>92.678923</ele>
        <time>2021-10-30T14:37:40.216Z</time>
      </trkpt>
      <trkpt lat="47.13586" lon="-1.43494">
        <ele>92.918191</ele>
        <time>2021-10-30T14:37:47.486Z</time>
      </trkpt>
      <trkpt lat="47.13594" lon="-1.43502">
        <ele>92.991879</ele>
        <time>2021-10-30T14:37:49.482Z</time>
      </trkpt>
      <trkpt lat="47.13602" lon="-1.43513">
        <ele>93.070537</ele>
        <time>2021-10-30T14:37:51.515Z</time>
      </trkpt>
      <trkpt lat="47.13609" lon="-1.43524">
        <ele>93.152568</ele>
        <time>2021-10-30T14:37:53.486Z</time>
      </trkpt>
      <trkpt lat="47.13617" lon="-1.43536">
        <ele>93.235799</ele>
        <time>2021-10-30T14:37:55.491Z</time>
      </trkpt>
      <trkpt lat="47.13624" lon="-1.43547">
        <ele>93.317893</ele>
        <time>2021-10-30T14:37:57.479Z</time>
      </trkpt>
      <trkpt lat="47.13633" lon="-1.43557">
        <ele>93.401672</ele>
        <time>2021-10-30T14:38:00.488Z</time>
      </trkpt>
      <trkpt lat="47.13642" lon="-1.43565">
        <ele>93.440425</ele>
        <time>2021-10-30T14:38:02.507Z</time>
      </trkpt>
      <trkpt lat="47.13651" lon="-1.43572">
        <ele>93.221153</ele>
        <time>2021-10-30T14:38:04.496Z</time>
      </trkpt>
      <trkpt lat="47.13661" lon="-1.43581">
        <ele>92.986997</ele>
        <time>2021-10-30T14:38:06.496Z</time>
      </trkpt>
      <trkpt lat="47.1367" lon="-1.4359">
        <ele>92.754591</ele>
        <time>2021-10-30T14:38:08.521Z</time>
      </trkpt>
      <trkpt lat="47.13678" lon="-1.43601">
        <ele>92.521011</ele>
        <time>2021-10-30T14:38:10.497Z</time>
      </trkpt>
      <trkpt lat="47.13687" lon="-1.43612">
        <ele>92.291144</ele>
        <time>2021-10-30T14:38:12.485Z</time>
      </trkpt>
      <trkpt lat="47.13694" lon="-1.43624">
        <ele>92.067507</ele>
        <time>2021-10-30T14:38:14.522Z</time>
      </trkpt>
      <trkpt lat="47.13699" lon="-1.43637">
        <ele>91.849946</ele>
        <time>2021-10-30T14:38:16.483Z</time>
      </trkpt>
      <trkpt lat="47.13704" lon="-1.4365">
        <ele>91.642568</ele>
        <time>2021-10-30T14:38:18.469Z</time>
      </trkpt>
      <trkpt lat="47.13708" lon="-1.43663">
        <ele>91.442779</ele>
        <time>2021-10-30T14:38:20.494Z</time>
      </trkpt>
      <trkpt lat="47.13712" lon="-1.43676">
        <ele>91.246396</ele>
        <time>2021-10-30T14:38:22.493Z</time>
      </trkpt>
      <trkpt lat="47.13716" lon="-1.43689">
        <ele>91.046942</ele>
        <time>2021-10-30T14:38:24.483Z</time>
      </trkpt>
      <trkpt lat="47.1372" lon="-1.43701">
        <ele>90.853134</ele>
        <time>2021-10-30T14:38:26.491Z</time>
      </trkpt>
      <trkpt lat="47.13725" lon="-1.43714">
        <ele>90.636831</ele>
        <time>2021-10-30T14:38:29.500Z</time>
      </trkpt>
      <trkpt lat="47.13736" lon="-1.43711">
        <ele>90.420046</ele>
        <time>2021-10-30T14:38:34.481Z</time>
      </trkpt>
      <trkpt lat="47.13747" lon="-1.4371">
        <ele>90.190074</ele>
        <time>2021-10-30T14:38:37.894Z</time>
      </trkpt>
      <trkpt lat="47.1376" lon="-1.43704">
        <ele>89.898536</ele>
        <time>2021-10-30T14:38:40.488Z</time>
      </trkpt>
      <trkpt lat="47.13771" lon="-1.43701">
        <ele>89.62159</ele>
        <time>2021-10-30T14:38:42.493Z</time>
      </trkpt>
      <trkpt lat="47.13781" lon="-1.43698">
        <ele>89.267968</ele>
        <time>2021-10-30T14:38:44.511Z</time>
      </trkpt>
      <trkpt lat="47.13792" lon="-1.43696">
        <ele>88.923099</ele>
        <time>2021-10-30T14:38:46.483Z</time>
      </trkpt>
      <trkpt lat="47.13802" lon="-1.43694">
        <ele>88.581856</ele>
        <time>2021-10-30T14:38:48.498Z</time>
      </trkpt>
      <trkpt lat="47.13811" lon="-1.43692">
        <ele>88.260513</ele>
        <time>2021-10-30T14:38:50.481Z</time>
      </trkpt>
      <trkpt lat="47.13821" lon="-1.43691">
        <ele>87.942016</ele>
        <time>2021-10-30T14:38:52.483Z</time>
      </trkpt>
      <trkpt lat="47.1383" lon="-1.43691">
        <ele>87.627259</ele>
        <time>2021-10-30T14:38:54.487Z</time>
      </trkpt>
      <trkpt lat="47.13839" lon="-1.43692">
        <ele>87.318996</ele>
        <time>2021-10-30T14:38:56.514Z</time>
      </trkpt>
      <trkpt lat="47.13851" lon="-1.43691">
        <ele>86.933385</ele>
        <time>2021-10-30T14:38:59.505Z</time>
      </trkpt>
      <trkpt lat="47.13865" lon="-1.4369">
        <ele>86.464256</ele>
        <time>2021-10-30T14:39:02.495Z</time>
      </trkpt>
      <trkpt lat="47.13875" lon="-1.43689">
        <ele>86.125577</ele>
        <time>2021-10-30T14:39:04.493Z</time>
      </trkpt>
      <trkpt lat="47.13885" lon="-1.43689">
        <ele>85.79389</ele>
        <time>2021-10-30T14:39:06.496Z</time>
      </trkpt>
      <trkpt lat="47.13895" lon="-1.43688">
        <ele>85.465108</ele>
        <time>2021-10-30T14:39:08.497Z</time>
      </trkpt>
      <trkpt lat="47.13904" lon="-1.43687">
        <ele>85.143533</ele>
        <time>2021-10-30T14:39:10.482Z</time>
      </trkpt>
      <trkpt lat="47.13914" lon="-1.43685">
        <ele>84.812968</ele>
        <time>2021-10-30T14:39:12.380Z</time>
      </trkpt>
      <trkpt lat="47.13941" lon="-1.4368">
        <ele>83.905638</ele>
        <time>2021-10-30T14:39:18.394Z</time>
      </trkpt>
      <trkpt lat="47.13961" lon="-1.43755">
        <ele>80.788736</ele>
        <time>2021-10-30T14:39:33.011Z</time>
      </trkpt>
      <trkpt lat="47.13974" lon="-1.43805">
        <ele>78.642688</ele>
        <time>2021-10-30T14:39:42.487Z</time>
      </trkpt>
      <trkpt lat="47.1398" lon="-1.43815">
        <ele>78.091546</ele>
        <time>2021-10-30T14:39:44.484Z</time>
      </trkpt>
      <trkpt lat="47.13986" lon="-1.43833">
        <ele>77.306711</ele>
        <time>2021-10-30T14:39:47.503Z</time>
      </trkpt>
      <trkpt lat="47.13993" lon="-1.43848">
        <ele>76.539904</ele>
        <time>2021-10-30T14:39:50.498Z</time>
      </trkpt>
      <trkpt lat="47.14" lon="-1.43859">
        <ele>75.970465</ele>
        <time>2021-10-30T14:39:52.769Z</time>
      </trkpt>
      <trkpt lat="47.14006" lon="-1.43868">
        <ele>75.406039</ele>
        <time>2021-10-30T14:39:56.041Z</time>
      </trkpt>
      <trkpt lat="47.14027" lon="-1.43876">
        <ele>74.144144</ele>
        <time>2021-10-30T14:40:01.493Z</time>
      </trkpt>
      <trkpt lat="47.14036" lon="-1.43881">
        <ele>73.556917</ele>
        <time>2021-10-30T14:40:03.488Z</time>
      </trkpt>
      <trkpt lat="47.14046" lon="-1.43887">
        <ele>72.975843</ele>
        <time>2021-10-30T14:40:05.501Z</time>
      </trkpt>
      <trkpt lat="47.14054" lon="-1.43894">
        <ele>72.588691</ele>
        <time>2021-10-30T14:40:07.490Z</time>
      </trkpt>
      <trkpt lat="47.14063" lon="-1.43901">
        <ele>72.186343</ele>
        <time>2021-10-30T14:40:09.488Z</time>
      </trkpt>
      <trkpt lat="47.14073" lon="-1.43913">
        <ele>71.680342</ele>
        <time>2021-10-30T14:40:12.236Z</time>
      </trkpt>
      <trkpt lat="47.14084" lon="-1.43926">
        <ele>71.126998</ele>
        <time>2021-10-30T14:40:15.341Z</time>
      </trkpt>
      <trkpt lat="47.14193" lon="-1.43946">
        <ele>66.692682</ele>
        <time>2021-10-30T14:41:16.108Z</time>
      </trkpt>
      <trkpt lat="47.14183" lon="-1.43946">
        <ele>66.302031</ele>
        <time>2021-10-30T14:41:22.170Z</time>
      </trkpt>
      <trkpt lat="47.14152" lon="-1.43949">
        <ele>65.593243</ele>
        <time>2021-10-30T14:41:38.507Z</time>
      </trkpt>
      <trkpt lat="47.14142" lon="-1.43946">
        <ele>65.476212</ele>
        <time>2021-10-30T14:41:55.473Z</time>
      </trkpt>
      <trkpt lat="47.14131" lon="-1.43942">
        <ele>65.337285</ele>
        <time>2021-10-30T14:42:02.491Z</time>
      </trkpt>
      <trkpt lat="47.14121" lon="-1.43941">
        <ele>65.224233</ele>
        <time>2021-10-30T14:42:14.589Z</time>
      </trkpt>
      <trkpt lat="47.14074" lon="-1.43915">
        <ele>64.626997</ele>
        <time>2021-10-30T14:42:39.013Z</time>
      </trkpt>
      <trkpt lat="47.1404" lon="-1.43883">
        <ele>64.154918</ele>
        <time>2021-10-30T14:43:05.499Z</time>
      </trkpt>
      <trkpt lat="47.1403" lon="-1.43886">
        <ele>64.040538</ele>
        <time>2021-10-30T14:43:14.173Z</time>
      </trkpt>
      <trkpt lat="47.14021" lon="-1.43879">
        <ele>63.91827</ele>
        <time>2021-10-30T14:43:20.390Z</time>
      </trkpt>
      <trkpt lat="47.14023" lon="-1.43893">
        <ele>63.805926</ele>
        <time>2021-10-30T14:43:28.503Z</time>
      </trkpt>
      <trkpt lat="47.14033" lon="-1.43898">
        <ele>63.662166</ele>
        <time>2021-10-30T14:43:30.644Z</time>
      </trkpt>
      <trkpt lat="47.14064" lon="-1.43925">
        <ele>62.757064</ele>
        <time>2021-10-30T14:43:39.527Z</time>
      </trkpt>
      <trkpt lat="47.14083" lon="-1.43974">
        <ele>61.782711</ele>
        <time>2021-10-30T14:43:49.506Z</time>
      </trkpt>
      <trkpt lat="47.14086" lon="-1.43989">
        <ele>61.528867</ele>
        <time>2021-10-30T14:43:51.477Z</time>
      </trkpt>
      <trkpt lat="47.14089" lon="-1.44003">
        <ele>61.279856</ele>
        <time>2021-10-30T14:43:53.494Z</time>
      </trkpt>
      <trkpt lat="47.1409" lon="-1.44023">
        <ele>60.93811</ele>
        <time>2021-10-30T14:43:56.529Z</time>
      </trkpt>
      <trkpt lat="47.14085" lon="-1.44036">
        <ele>60.676749</ele>
        <time>2021-10-30T14:43:58.450Z</time>
      </trkpt>
      <trkpt lat="47.14056" lon="-1.44094">
        <ele>59.468598</ele>
        <time>2021-10-30T14:44:14.269Z</time>
      </trkpt>
      <trkpt lat="47.14037" lon="-1.44228">
        <ele>64.761677</ele>
        <time>2021-10-30T14:45:00.974Z</time>
      </trkpt>
      <trkpt lat="47.14036" lon="-1.44243">
        <ele>65.413564</ele>
        <time>2021-10-30T14:45:09.815Z</time>
      </trkpt>
      <trkpt lat="47.14042" lon="-1.44255">
        <ele>66.073837</ele>
        <time>2021-10-30T14:45:18.391Z</time>
      </trkpt>
      <trkpt lat="47.14172" lon="-1.44356">
        <ele>71.181742</ele>
        <time>2021-10-30T14:46:49.947Z</time>
      </trkpt>
      <trkpt lat="47.14222" lon="-1.44566">
        <ele>70.702077</ele>
        <time>2021-10-30T14:47:35.138Z</time>
      </trkpt>
      <trkpt lat="47.14287" lon="-1.44559">
        <ele>70.005561</ele>
        <time>2021-10-30T14:47:52.499Z</time>
      </trkpt>
      <trkpt lat="47.14299" lon="-1.44554">
        <ele>69.870321</ele>
        <time>2021-10-30T14:47:55.492Z</time>
      </trkpt>
      <trkpt lat="47.14311" lon="-1.44551">
        <ele>69.733506</ele>
        <time>2021-10-30T14:47:58.493Z</time>
      </trkpt>
      <trkpt lat="47.14324" lon="-1.44546">
        <ele>69.590074</ele>
        <time>2021-10-30T14:48:01.504Z</time>
      </trkpt>
      <trkpt lat="47.14333" lon="-1.4454">
        <ele>69.483184</ele>
        <time>2021-10-30T14:48:03.470Z</time>
      </trkpt>
      <trkpt lat="47.1434" lon="-1.44528">
        <ele>69.367969</ele>
        <time>2021-10-30T14:48:05.240Z</time>
      </trkpt>
      <trkpt lat="47.14351" lon="-1.44515">
        <ele>69.224256</ele>
        <time>2021-10-30T14:48:09.697Z</time>
      </trkpt>
      <trkpt lat="47.14385" lon="-1.4457">
        <ele>69.272783</ele>
        <time>2021-10-30T14:48:27.484Z</time>
      </trkpt>
      <trkpt lat="47.14457" lon="-1.44729">
        <ele>69.408793</ele>
        <time>2021-10-30T14:49:01.487Z</time>
      </trkpt>
      <trkpt lat="47.14466" lon="-1.44727">
        <ele>69.322241</ele>
        <time>2021-10-30T14:49:03.487Z</time>
      </trkpt>
      <trkpt lat="47.14475" lon="-1.44725">
        <ele>69.231844</ele>
        <time>2021-10-30T14:49:05.500Z</time>
      </trkpt>
      <trkpt lat="47.14485" lon="-1.44722">
        <ele>69.135842</ele>
        <time>2021-10-30T14:49:07.498Z</time>
      </trkpt>
      <trkpt lat="47.14495" lon="-1.44721">
        <ele>69.040386</ele>
        <time>2021-10-30T14:49:09.497Z</time>
      </trkpt>
      <trkpt lat="47.14507" lon="-1.44727">
        <ele>68.919872</ele>
        <time>2021-10-30T14:49:12.247Z</time>
      </trkpt>
      <trkpt lat="47.14537" lon="-1.4479">
        <ele>68.428045</ele>
        <time>2021-10-30T14:49:24.491Z</time>
      </trkpt>
      <trkpt lat="47.14543" lon="-1.44801">
        <ele>68.33448</ele>
        <time>2021-10-30T14:49:26.487Z</time>
      </trkpt>
      <trkpt lat="47.1455" lon="-1.4481">
        <ele>68.244029</ele>
        <time>2021-10-30T14:49:28.492Z</time>
      </trkpt>
      <trkpt lat="47.14558" lon="-1.44818">
        <ele>68.154696</ele>
        <time>2021-10-30T14:49:30.537Z</time>
      </trkpt>
      <trkpt lat="47.14566" lon="-1.44829">
        <ele>68.045844</ele>
        <time>2021-10-30T14:49:32.756Z</time>
      </trkpt>
      <trkpt lat="47.14575" lon="-1.44844">
        <ele>67.924322</ele>
        <time>2021-10-30T14:49:35.179Z</time>
      </trkpt>
      <trkpt lat="47.14581" lon="-1.44859">
        <ele>67.806002</ele>
        <time>2021-10-30T14:49:38.481Z</time>
      </trkpt>
      <trkpt lat="47.14588" lon="-1.44869">
        <ele>67.718251</ele>
        <time>2021-10-30T14:49:40.490Z</time>
      </trkpt>
      <trkpt lat="47.14595" lon="-1.44878">
        <ele>67.549916</ele>
        <time>2021-10-30T14:49:42.501Z</time>
      </trkpt>
      <trkpt lat="47.14603" lon="-1.44887">
        <ele>67.369873</ele>
        <time>2021-10-30T14:49:44.500Z</time>
      </trkpt>
      <trkpt lat="47.14612" lon="-1.44895">
        <ele>67.187759</ele>
        <time>2021-10-30T14:49:46.489Z</time>
      </trkpt>
      <trkpt lat="47.1462" lon="-1.44901">
        <ele>67.016828</ele>
        <time>2021-10-30T14:49:48.513Z</time>
      </trkpt>
      <trkpt lat="47.14632" lon="-1.44908">
        <ele>66.780834</ele>
        <time>2021-10-30T14:49:51.501Z</time>
      </trkpt>
      <trkpt lat="47.1464" lon="-1.44915">
        <ele>66.615424</ele>
        <time>2021-10-30T14:49:53.493Z</time>
      </trkpt>
      <trkpt lat="47.1465" lon="-1.44925">
        <ele>66.395841</ele>
        <time>2021-10-30T14:49:56.482Z</time>
      </trkpt>
      <trkpt lat="47.1466" lon="-1.4493">
        <ele>66.198055</ele>
        <time>2021-10-30T14:49:58.493Z</time>
      </trkpt>
      <trkpt lat="47.14669" lon="-1.44937">
        <ele>66.008043</ele>
        <time>2021-10-30T14:50:00.502Z</time>
      </trkpt>
      <trkpt lat="47.14679" lon="-1.44943">
        <ele>65.813437</ele>
        <time>2021-10-30T14:50:02.487Z</time>
      </trkpt>
      <trkpt lat="47.14689" lon="-1.44949">
        <ele>65.623338</ele>
        <time>2021-10-30T14:50:04.489Z</time>
      </trkpt>
      <trkpt lat="47.14698" lon="-1.44954">
        <ele>65.449727</ele>
        <time>2021-10-30T14:50:06.479Z</time>
      </trkpt>
      <trkpt lat="47.14709" lon="-1.44957">
        <ele>65.247216</ele>
        <time>2021-10-30T14:50:09.509Z</time>
      </trkpt>
      <trkpt lat="47.14721" lon="-1.44958">
        <ele>65.018114</ele>
        <time>2021-10-30T14:50:12.496Z</time>
      </trkpt>
      <trkpt lat="47.14731" lon="-1.44957">
        <ele>64.836302</ele>
        <time>2021-10-30T14:50:14.685Z</time>
      </trkpt>
      <trkpt lat="47.14741" lon="-1.44963">
        <ele>64.633753</ele>
        <time>2021-10-30T14:50:17.206Z</time>
      </trkpt>
      <trkpt lat="47.14766" lon="-1.44968">
        <ele>63.993577</ele>
        <time>2021-10-30T14:50:22.519Z</time>
      </trkpt>
      <trkpt lat="47.14797" lon="-1.44974">
        <ele>63.044039</ele>
        <time>2021-10-30T14:50:29.495Z</time>
      </trkpt>
      <trkpt lat="47.14807" lon="-1.44976">
        <ele>62.715853</ele>
        <time>2021-10-30T14:50:31.485Z</time>
      </trkpt>
      <trkpt lat="47.14818" lon="-1.44979">
        <ele>62.373952</ele>
        <time>2021-10-30T14:50:33.485Z</time>
      </trkpt>
      <trkpt lat="47.14829" lon="-1.44988">
        <ele>61.985966</ele>
        <time>2021-10-30T14:50:35.499Z</time>
      </trkpt>
      <trkpt lat="47.14838" lon="-1.45005">
        <ele>61.518595</ele>
        <time>2021-10-30T14:50:37.489Z</time>
      </trkpt>
      <trkpt lat="47.14841" lon="-1.45032">
        <ele>60.953584</ele>
        <time>2021-10-30T14:50:39.496Z</time>
      </trkpt>
      <trkpt lat="47.1484" lon="-1.45046">
        <ele>60.644768</ele>
        <time>2021-10-30T14:50:40.498Z</time>
      </trkpt>
      <trkpt lat="47.1484" lon="-1.45061">
        <ele>60.334074</ele>
        <time>2021-10-30T14:50:41.482Z</time>
      </trkpt>
      <trkpt lat="47.1484" lon="-1.45075">
        <ele>60.040303</ele>
        <time>2021-10-30T14:50:42.482Z</time>
      </trkpt>
      <trkpt lat="47.14843" lon="-1.45094">
        <ele>59.62092</ele>
        <time>2021-10-30T14:50:44.503Z</time>
      </trkpt>
      <trkpt lat="47.14849" lon="-1.45104">
        <ele>59.327929</ele>
        <time>2021-10-30T14:50:46.484Z</time>
      </trkpt>
      <trkpt lat="47.14861" lon="-1.45104">
        <ele>58.973509</ele>
        <time>2021-10-30T14:50:48.492Z</time>
      </trkpt>
      <trkpt lat="47.14872" lon="-1.45099">
        <ele>59.154874</ele>
        <time>2021-10-30T14:50:50.491Z</time>
      </trkpt>
      <trkpt lat="47.14882" lon="-1.45093">
        <ele>59.578439</ele>
        <time>2021-10-30T14:50:52.506Z</time>
      </trkpt>
      <trkpt lat="47.14872" lon="-1.45097">
        <ele>60.009541</ele>
        <time>2021-10-30T14:50:58.485Z</time>
      </trkpt>
      <trkpt lat="47.1486" lon="-1.45105">
        <ele>60.527161</ele>
        <time>2021-10-30T14:51:01.105Z</time>
      </trkpt>
      <trkpt lat="47.14851" lon="-1.45106">
        <ele>60.901764</ele>
        <time>2021-10-30T14:51:03.198Z</time>
      </trkpt>
      <trkpt lat="47.14779" lon="-1.45217">
        <ele>65.200254</ele>
        <time>2021-10-30T14:51:57.491Z</time>
      </trkpt>
      <trkpt lat="47.14782" lon="-1.45203">
        <ele>65.630167</ele>
        <time>2021-10-30T14:52:26.280Z</time>
      </trkpt>
      <trkpt lat="47.1479" lon="-1.45176">
        <ele>66.38218</ele>
        <time>2021-10-30T14:52:35.483Z</time>
      </trkpt>
      <trkpt lat="47.14793" lon="-1.45164">
        <ele>66.666386</ele>
        <time>2021-10-30T14:52:44.499Z</time>
      </trkpt>
      <trkpt lat="47.14802" lon="-1.45172">
        <ele>66.998778</ele>
        <time>2021-10-30T14:52:50.237Z</time>
      </trkpt>
      <trkpt lat="47.14814" lon="-1.45177">
        <ele>67.385218</ele>
        <time>2021-10-30T14:53:25.159Z</time>
      </trkpt>
      <trkpt lat="47.14822" lon="-1.45186">
        <ele>67.693981</ele>
        <time>2021-10-30T14:53:31.943Z</time>
      </trkpt>
      <trkpt lat="47.14829" lon="-1.45194">
        <ele>67.995313</ele>
        <time>2021-10-30T14:53:38.055Z</time>
      </trkpt>
      <trkpt lat="47.14837" lon="-1.45202">
        <ele>68.287752</ele>
        <time>2021-10-30T14:53:53.486Z</time>
      </trkpt>
      <trkpt lat="47.14845" lon="-1.45209">
        <ele>68.574775</ele>
        <time>2021-10-30T14:54:03.492Z</time>
      </trkpt>
      <trkpt lat="47.14853" lon="-1.45216">
        <ele>68.855802</ele>
        <time>2021-10-30T14:54:17.860Z</time>
      </trkpt>
      <trkpt lat="47.14872" lon="-1.45232">
        <ele>69.556882</ele>
        <time>2021-10-30T14:55:01.510Z</time>
      </trkpt>
      <trkpt lat="47.14873" lon="-1.45246">
        <ele>69.850807</ele>
        <time>2021-10-30T14:55:21.520Z</time>
      </trkpt>
      <trkpt lat="47.14878" lon="-1.45257">
        <ele>70.13497</ele>
        <time>2021-10-30T14:55:52.479Z</time>
      </trkpt>
      <trkpt lat="47.1488" lon="-1.45271">
        <ele>70.449147</ele>
        <time>2021-10-30T14:55:59.137Z</time>
      </trkpt>
      <trkpt lat="47.14883" lon="-1.45286">
        <ele>70.771574</ele>
        <time>2021-10-30T14:56:03.905Z</time>
      </trkpt>
      <trkpt lat="47.14894" lon="-1.45331">
        <ele>71.779076</ele>
        <time>2021-10-30T14:56:15.094Z</time>
      </trkpt>
      <trkpt lat="47.149" lon="-1.45489">
        <ele>70.861524</ele>
        <time>2021-10-30T14:56:43.496Z</time>
      </trkpt>
      <trkpt lat="47.14898" lon="-1.45503">
        <ele>70.768541</ele>
        <time>2021-10-30T14:56:45.499Z</time>
      </trkpt>
      <trkpt lat="47.14895" lon="-1.45518">
        <ele>70.670862</ele>
        <time>2021-10-30T14:56:47.504Z</time>
      </trkpt>
      <trkpt lat="47.14892" lon="-1.45533">
        <ele>70.568616</ele>
        <time>2021-10-30T14:56:49.498Z</time>
      </trkpt>
      <trkpt lat="47.14889" lon="-1.45549">
        <ele>70.467853</ele>
        <time>2021-10-30T14:56:51.537Z</time>
      </trkpt>
      <trkpt lat="47.14768" lon="-1.45525">
        <ele>68.680634</ele>
        <time>2021-10-30T14:57:28.501Z</time>
      </trkpt>
      <trkpt lat="47.14758" lon="-1.45521">
        <ele>68.504185</ele>
        <time>2021-10-30T14:57:30.483Z</time>
      </trkpt>
      <trkpt lat="47.14748" lon="-1.45517">
        <ele>68.34295</ele>
        <time>2021-10-30T14:57:32.762Z</time>
      </trkpt>
      <trkpt lat="47.14738" lon="-1.4552">
        <ele>68.171342</ele>
        <time>2021-10-30T14:57:35.498Z</time>
      </trkpt>
      <trkpt lat="47.14738" lon="-1.45534">
        <ele>68.01379</ele>
        <time>2021-10-30T14:58:35.274Z</time>
      </trkpt>
      <trkpt lat="47.14733" lon="-1.45637">
        <ele>66.939018</ele>
        <time>2021-10-30T14:59:09.798Z</time>
      </trkpt>
      <trkpt lat="47.14731" lon="-1.45622">
        <ele>66.806936</ele>
        <time>2021-10-30T14:59:21.319Z</time>
      </trkpt>
      <trkpt lat="47.14734" lon="-1.45609">
        <ele>66.696609</ele>
        <time>2021-10-30T14:59:24.112Z</time>
      </trkpt>
      <trkpt lat="47.1474" lon="-1.45558">
        <ele>66.27548</ele>
        <time>2021-10-30T14:59:32.515Z</time>
      </trkpt>
      <trkpt lat="47.14741" lon="-1.45543">
        <ele>66.153982</ele>
        <time>2021-10-30T14:59:34.486Z</time>
      </trkpt>
      <trkpt lat="47.14741" lon="-1.45527">
        <ele>66.015275</ele>
        <time>2021-10-30T14:59:37.304Z</time>
      </trkpt>
      <trkpt lat="47.14733" lon="-1.45515">
        <ele>65.887973</ele>
        <time>2021-10-30T14:59:42.182Z</time>
      </trkpt>
      <trkpt lat="47.14726" lon="-1.45526">
        <ele>65.761816</ele>
        <time>2021-10-30T14:59:45.113Z</time>
      </trkpt>
      <trkpt lat="47.14689" lon="-1.45562">
        <ele>65.228663</ele>
        <time>2021-10-30T15:00:03.506Z</time>
      </trkpt>
      <trkpt lat="47.14681" lon="-1.45571">
        <ele>65.10131</ele>
        <time>2021-10-30T15:00:08.493Z</time>
      </trkpt>
      <trkpt lat="47.14673" lon="-1.45582">
        <ele>65.068457</ele>
        <time>2021-10-30T15:00:14.502Z</time>
      </trkpt>
      <trkpt lat="47.14665" lon="-1.45593">
        <ele>65.218145</ele>
        <time>2021-10-30T15:00:20.494Z</time>
      </trkpt>
      <trkpt lat="47.14658" lon="-1.45604">
        <ele>65.369911</ele>
        <time>2021-10-30T15:00:26.498Z</time>
      </trkpt>
      <trkpt lat="47.14652" lon="-1.45616">
        <ele>65.516191</ele>
        <time>2021-10-30T15:00:32.503Z</time>
      </trkpt>
      <trkpt lat="47.14647" lon="-1.4563">
        <ele>65.673028</ele>
        <time>2021-10-30T15:00:39.484Z</time>
      </trkpt>
      <trkpt lat="47.1464" lon="-1.4566">
        <ele>65.982711</ele>
        <time>2021-10-30T15:00:51.443Z</time>
      </trkpt>
      <trkpt lat="47.14633" lon="-1.45691">
        <ele>66.296555</ele>
        <time>2021-10-30T15:01:04.867Z</time>
      </trkpt>
      <trkpt lat="47.1464" lon="-1.45924">
        <ele>69.942608</ele>
        <time>2021-10-30T15:02:48.936Z</time>
      </trkpt>
      <trkpt lat="47.14686" lon="-1.45931">
        <ele>71.533605</ele>
        <time>2021-10-30T15:03:15.021Z</time>
      </trkpt>
      <trkpt lat="47.1462" lon="-1.45955">
        <ele>73.863356</ele>
        <time>2021-10-30T15:03:58.502Z</time>
      </trkpt>
      <trkpt lat="47.14612" lon="-1.45969">
        <ele>74.151682</ele>
        <time>2021-10-30T15:04:00.864Z</time>
      </trkpt>
      <trkpt lat="47.14608" lon="-1.46093">
        <ele>76.145227</ele>
        <time>2021-10-30T15:04:32.881Z</time>
      </trkpt>
      <trkpt lat="47.14611" lon="-1.46106">
        <ele>76.36354</ele>
        <time>2021-10-30T15:04:36.320Z</time>
      </trkpt>
      <trkpt lat="47.14656" lon="-1.46367">
        <ele>79.461989</ele>
        <time>2021-10-30T15:06:00.096Z</time>
      </trkpt>
      <trkpt lat="47.14658" lon="-1.4638">
        <ele>79.582584</ele>
        <time>2021-10-30T15:06:03.159Z</time>
      </trkpt>
      <trkpt lat="47.14675" lon="-1.46423">
        <ele>80.016394</ele>
        <time>2021-10-30T15:06:13.862Z</time>
      </trkpt>
      <trkpt lat="47.14837" lon="-1.46588">
        <ele>71.396231</ele>
        <time>2021-10-30T15:07:19.405Z</time>
      </trkpt>
      <trkpt lat="47.14842" lon="-1.46601">
        <ele>70.918613</ele>
        <time>2021-10-30T15:07:26.636Z</time>
      </trkpt>
      <trkpt lat="47.14847" lon="-1.46614">
        <ele>70.514203</ele>
        <time>2021-10-30T15:07:33.203Z</time>
      </trkpt>
      <trkpt lat="47.14867" lon="-1.4664">
        <ele>69.454203</ele>
        <time>2021-10-30T15:07:48.359Z</time>
      </trkpt>
      <trkpt lat="47.14874" lon="-1.46649">
        <ele>69.086314</ele>
        <time>2021-10-30T15:07:57.961Z</time>
      </trkpt>
      <trkpt lat="47.14879" lon="-1.4666">
        <ele>68.728783</ele>
        <time>2021-10-30T15:08:07.325Z</time>
      </trkpt>
      <trkpt lat="47.14885" lon="-1.46671">
        <ele>68.340951</ele>
        <time>2021-10-30T15:08:13.137Z</time>
      </trkpt>
      <trkpt lat="47.14904" lon="-1.46691">
        <ele>67.427021</ele>
        <time>2021-10-30T15:08:26.491Z</time>
      </trkpt>
      <trkpt lat="47.14913" lon="-1.46695">
        <ele>67.057312</ele>
        <time>2021-10-30T15:08:42.258Z</time>
      </trkpt>
      <trkpt lat="47.14923" lon="-1.46698">
        <ele>66.627968</ele>
        <time>2021-10-30T15:08:50.143Z</time>
      </trkpt>
      <trkpt lat="47.14958" lon="-1.4671">
        <ele>65.196674</ele>
        <time>2021-10-30T15:09:00.500Z</time>
      </trkpt>
      <trkpt lat="47.14969" lon="-1.46717">
        <ele>64.719734</ele>
        <time>2021-10-30T15:09:02.488Z</time>
      </trkpt>
      <trkpt lat="47.14984" lon="-1.46721">
        <ele>64.118032</ele>
        <time>2021-10-30T15:09:05.491Z</time>
      </trkpt>
      <trkpt lat="47.14998" lon="-1.46717">
        <ele>63.625357</ele>
        <time>2021-10-30T15:09:07.485Z</time>
      </trkpt>
      <trkpt lat="47.15008" lon="-1.46716">
        <ele>63.307128</ele>
        <time>2021-10-30T15:09:09.488Z</time>
      </trkpt>
      <trkpt lat="47.15015" lon="-1.46727">
        <ele>62.995263</ele>
        <time>2021-10-30T15:09:11.495Z</time>
      </trkpt>
      <trkpt lat="47.15017" lon="-1.46743">
        <ele>62.65435</ele>
        <time>2021-10-30T15:09:13.484Z</time>
      </trkpt>
      <trkpt lat="47.15015" lon="-1.46758">
        <ele>62.321212</ele>
        <time>2021-10-30T15:09:15.485Z</time>
      </trkpt>
      <trkpt lat="47.15012" lon="-1.46772">
        <ele>62.008806</ele>
        <time>2021-10-30T15:09:17.502Z</time>
      </trkpt>
      <trkpt lat="47.1501" lon="-1.46791">
        <ele>61.610323</ele>
        <time>2021-10-30T15:09:20.493Z</time>
      </trkpt>
      <trkpt lat="47.15006" lon="-1.46809">
        <ele>61.198263</ele>
        <time>2021-10-30T15:09:23.367Z</time>
      </trkpt>
      <trkpt lat="47.14994" lon="-1.46817">
        <ele>60.798668</ele>
        <time>2021-10-30T15:09:26.762Z</time>
      </trkpt>
      <trkpt lat="47.14985" lon="-1.46857">
        <ele>59.893011</ele>
        <time>2021-10-30T15:09:38.137Z</time>
      </trkpt>
      <trkpt lat="47.15077" lon="-1.46851">
        <ele>54.818225</ele>
        <time>2021-10-30T15:10:04.914Z</time>
      </trkpt>
      <trkpt lat="47.15123" lon="-1.46847">
        <ele>50.874648</ele>
        <time>2021-10-30T15:10:15.498Z</time>
      </trkpt>
      <trkpt lat="47.15133" lon="-1.46848">
        <ele>50.001316</ele>
        <time>2021-10-30T15:10:18.070Z</time>
      </trkpt>
      <trkpt lat="47.15141" lon="-1.46842">
        <ele>49.171043</ele>
        <time>2021-10-30T15:10:30.950Z</time>
      </trkpt>
      <trkpt lat="47.1511" lon="-1.46859">
        <ele>46.306225</ele>
        <time>2021-10-30T15:10:52.368Z</time>
      </trkpt>
      <trkpt lat="47.15113" lon="-1.46872">
        <ele>45.514006</ele>
        <time>2021-10-30T15:11:08.492Z</time>
      </trkpt>
      <trkpt lat="47.15113" lon="-1.46886">
        <ele>44.672148</ele>
        <time>2021-10-30T15:11:23.205Z</time>
      </trkpt>
      <trkpt lat="47.15113" lon="-1.46901">
        <ele>43.831353</ele>
        <time>2021-10-30T15:12:07.484Z</time>
      </trkpt>
      <trkpt lat="47.15118" lon="-1.46918">
        <ele>42.720172</ele>
        <time>2021-10-30T15:12:13.173Z</time>
      </trkpt>
      <trkpt lat="47.15174" lon="-1.47059">
        <ele>42.471627</ele>
        <time>2021-10-30T15:12:38.482Z</time>
      </trkpt>
      <trkpt lat="47.15183" lon="-1.47064">
        <ele>42.451031</ele>
        <time>2021-10-30T15:12:40.482Z</time>
      </trkpt>
      <trkpt lat="47.15193" lon="-1.47065">
        <ele>42.428289</ele>
        <time>2021-10-30T15:12:42.664Z</time>
      </trkpt>
      <trkpt lat="47.15202" lon="-1.47075">
        <ele>42.402393</ele>
        <time>2021-10-30T15:12:45.326Z</time>
      </trkpt>
      <trkpt lat="47.15212" lon="-1.47081">
        <ele>42.377152</ele>
        <time>2021-10-30T15:12:47.517Z</time>
      </trkpt>
      <trkpt lat="47.15224" lon="-1.47086">
        <ele>42.349292</ele>
        <time>2021-10-30T15:12:50.495Z</time>
      </trkpt>
      <trkpt lat="47.15235" lon="-1.4709">
        <ele>42.325454</ele>
        <time>2021-10-30T15:12:52.487Z</time>
      </trkpt>
      <trkpt lat="47.15248" lon="-1.47096">
        <ele>42.460021</ele>
        <time>2021-10-30T15:12:55.520Z</time>
      </trkpt>
      <trkpt lat="47.15256" lon="-1.471">
        <ele>42.596766</ele>
        <time>2021-10-30T15:12:57.344Z</time>
      </trkpt>
      <trkpt lat="47.15266" lon="-1.47105">
        <ele>42.746507</ele>
        <time>2021-10-30T15:12:59.528Z</time>
      </trkpt>
      <trkpt lat="47.15275" lon="-1.47113">
        <ele>42.911263</ele>
        <time>2021-10-30T15:13:01.786Z</time>
      </trkpt>
      <trkpt lat="47.15284" lon="-1.47115">
        <ele>43.050574</ele>
        <time>2021-10-30T15:13:03.601Z</time>
      </trkpt>
      <trkpt lat="47.15296" lon="-1.47118">
        <ele>43.228948</ele>
        <time>2021-10-30T15:13:06.498Z</time>
      </trkpt>
      <trkpt lat="47.15306" lon="-1.47121">
        <ele>43.378195</ele>
        <time>2021-10-30T15:13:08.488Z</time>
      </trkpt>
      <trkpt lat="47.15317" lon="-1.47129">
        <ele>43.562501</ele>
        <time>2021-10-30T15:13:11.269Z</time>
      </trkpt>
      <trkpt lat="47.15327" lon="-1.47132">
        <ele>43.71409</ele>
        <time>2021-10-30T15:13:13.507Z</time>
      </trkpt>
      <trkpt lat="47.1534" lon="-1.47135">
        <ele>43.90556</ele>
        <time>2021-10-30T15:13:16.112Z</time>
      </trkpt>
      <trkpt lat="47.15349" lon="-1.47139">
        <ele>44.044142</ele>
        <time>2021-10-30T15:13:17.955Z</time>
      </trkpt>
      <trkpt lat="47.15359" lon="-1.47144">
        <ele>44.207785</ele>
        <time>2021-10-30T15:13:20.396Z</time>
      </trkpt>
      <trkpt lat="47.15436" lon="-1.47181">
        <ele>45.321809</ele>
        <time>2021-10-30T15:13:39.544Z</time>
      </trkpt>
      <trkpt lat="47.15447" lon="-1.47184">
        <ele>45.456179</ele>
        <time>2021-10-30T15:13:42.170Z</time>
      </trkpt>
      <trkpt lat="47.15458" lon="-1.47186">
        <ele>45.576745</ele>
        <time>2021-10-30T15:13:44.922Z</time>
      </trkpt>
      <trkpt lat="47.15504" lon="-1.47207">
        <ele>46.140189</ele>
        <time>2021-10-30T15:13:57.733Z</time>
      </trkpt>
      <trkpt lat="47.15538" lon="-1.47218">
        <ele>46.549227</ele>
        <time>2021-10-30T15:14:06.816Z</time>
      </trkpt>
      <trkpt lat="47.15956" lon="-1.47475">
        <ele>38.589658</ele>
        <time>2021-10-30T15:16:20.509Z</time>
      </trkpt>
      <trkpt lat="47.15966" lon="-1.47488">
        <ele>38.794215</ele>
        <time>2021-10-30T15:16:23.065Z</time>
      </trkpt>
      <trkpt lat="47.16006" lon="-1.47543">
        <ele>39.622874</ele>
        <time>2021-10-30T15:16:39.500Z</time>
      </trkpt>
      <trkpt lat="47.16014" lon="-1.47555">
        <ele>39.795162</ele>
        <time>2021-10-30T15:16:42.493Z</time>
      </trkpt>
      <trkpt lat="47.16021" lon="-1.47567">
        <ele>39.957872</ele>
        <time>2021-10-30T15:16:45.505Z</time>
      </trkpt>
      <trkpt lat="47.16031" lon="-1.47579">
        <ele>40.145591</ele>
        <time>2021-10-30T15:16:48.476Z</time>
      </trkpt>
      <trkpt lat="47.16098" lon="-1.47717">
        <ele>41.551019</ele>
        <time>2021-10-30T15:17:17.499Z</time>
      </trkpt>
      <trkpt lat="47.16106" lon="-1.47729">
        <ele>41.676683</ele>
        <time>2021-10-30T15:17:20.132Z</time>
      </trkpt>
      <trkpt lat="47.1613" lon="-1.47805">
        <ele>42.30355</ele>
        <time>2021-10-30T15:17:33.505Z</time>
      </trkpt>
      <trkpt lat="47.16295" lon="-1.48145">
        <ele>44.826192</ele>
        <time>2021-10-30T15:18:51.502Z</time>
      </trkpt>
      <trkpt lat="47.16304" lon="-1.48156">
        <ele>44.744615</ele>
        <time>2021-10-30T15:18:54.931Z</time>
      </trkpt>
      <trkpt lat="47.16326" lon="-1.48181">
        <ele>44.53665</ele>
        <time>2021-10-30T15:19:01.271Z</time>
      </trkpt>
      <trkpt lat="47.16378" lon="-1.48198">
        <ele>44.15159</ele>
        <time>2021-10-30T15:19:14.289Z</time>
      </trkpt>
      <trkpt lat="47.16487" lon="-1.48149">
        <ele>44.898346</ele>
        <time>2021-10-30T15:19:52.003Z</time>
      </trkpt>
      <trkpt lat="47.16477" lon="-1.48109">
        <ele>45.122834</ele>
        <time>2021-10-30T15:20:00.145Z</time>
      </trkpt>
      <trkpt lat="47.16485" lon="-1.48096">
        <ele>45.217956</ele>
        <time>2021-10-30T15:20:13.453Z</time>
      </trkpt>
      <trkpt lat="47.16538" lon="-1.47984">
        <ele>44.757629</ele>
        <time>2021-10-30T15:20:41.490Z</time>
      </trkpt>
      <trkpt lat="47.1655" lon="-1.4799">
        <ele>44.60188</ele>
        <time>2021-10-30T15:20:43.491Z</time>
      </trkpt>
      <trkpt lat="47.16561" lon="-1.47991">
        <ele>44.459358</ele>
        <time>2021-10-30T15:20:45.508Z</time>
      </trkpt>
      <trkpt lat="47.16572" lon="-1.47988">
        <ele>44.328278</ele>
        <time>2021-10-30T15:20:47.482Z</time>
      </trkpt>
      <trkpt lat="47.16581" lon="-1.47985">
        <ele>44.210436</ele>
        <time>2021-10-30T15:20:49.506Z</time>
      </trkpt>
      <trkpt lat="47.16591" lon="-1.47981">
        <ele>44.092245</ele>
        <time>2021-10-30T15:20:51.486Z</time>
      </trkpt>
      <trkpt lat="47.166" lon="-1.47978">
        <ele>43.971285</ele>
        <time>2021-10-30T15:20:53.427Z</time>
      </trkpt>
      <trkpt lat="47.16609" lon="-1.47981">
        <ele>43.859618</ele>
        <time>2021-10-30T15:20:55.227Z</time>
      </trkpt>
      <trkpt lat="47.16622" lon="-1.47971">
        <ele>43.678574</ele>
        <time>2021-10-30T15:21:00.490Z</time>
      </trkpt>
      <trkpt lat="47.16628" lon="-1.4796">
        <ele>43.565345</ele>
        <time>2021-10-30T15:21:02.487Z</time>
      </trkpt>
      <trkpt lat="47.16638" lon="-1.47955">
        <ele>43.435756</ele>
        <time>2021-10-30T15:21:05.073Z</time>
      </trkpt>
      <trkpt lat="47.16647" lon="-1.4796">
        <ele>43.312133</ele>
        <time>2021-10-30T15:21:14.591Z</time>
      </trkpt>
      <trkpt lat="47.16658" lon="-1.47964">
        <ele>43.270709</ele>
        <time>2021-10-30T15:21:18.277Z</time>
      </trkpt>
      <trkpt lat="47.1672" lon="-1.47988">
        <ele>43.247395</ele>
        <time>2021-10-30T15:21:32.512Z</time>
      </trkpt>
      <trkpt lat="47.1673" lon="-1.47987">
        <ele>43.243886</ele>
        <time>2021-10-30T15:21:34.486Z</time>
      </trkpt>
      <trkpt lat="47.16741" lon="-1.47986">
        <ele>43.239902</ele>
        <time>2021-10-30T15:21:36.487Z</time>
      </trkpt>
      <trkpt lat="47.16751" lon="-1.47984">
        <ele>43.236166</ele>
        <time>2021-10-30T15:21:38.370Z</time>
      </trkpt>
      <trkpt lat="47.1676" lon="-1.47978">
        <ele>43.23281</ele>
        <time>2021-10-30T15:21:40.336Z</time>
      </trkpt>
      <trkpt lat="47.1678" lon="-1.4796">
        <ele>43.2241</ele>
        <time>2021-10-30T15:21:46.342Z</time>
      </trkpt>
      <trkpt lat="47.16799" lon="-1.47993">
        <ele>43.21372</ele>
        <time>2021-10-30T15:21:56.498Z</time>
      </trkpt>
      <trkpt lat="47.168" lon="-1.48008">
        <ele>43.209831</ele>
        <time>2021-10-30T15:21:58.514Z</time>
      </trkpt>
      <trkpt lat="47.16804" lon="-1.48023">
        <ele>43.174991</ele>
        <time>2021-10-30T15:22:00.497Z</time>
      </trkpt>
      <trkpt lat="47.16809" lon="-1.48036">
        <ele>43.122955</ele>
        <time>2021-10-30T15:22:02.503Z</time>
      </trkpt>
      <trkpt lat="47.16814" lon="-1.48048">
        <ele>43.073542</ele>
        <time>2021-10-30T15:22:04.489Z</time>
      </trkpt>
      <trkpt lat="47.16822" lon="-1.4806">
        <ele>43.017641</ele>
        <time>2021-10-30T15:22:08.210Z</time>
      </trkpt>
      <trkpt lat="47.16864" lon="-1.48105">
        <ele>42.752827</ele>
        <time>2021-10-30T15:22:19.741Z</time>
      </trkpt>
      <trkpt lat="47.1687" lon="-1.4812">
        <ele>42.69558</ele>
        <time>2021-10-30T15:22:22.482Z</time>
      </trkpt>
      <trkpt lat="47.16875" lon="-1.48131">
        <ele>42.648698</ele>
        <time>2021-10-30T15:22:24.488Z</time>
      </trkpt>
      <trkpt lat="47.1688" lon="-1.48142">
        <ele>42.602988</ele>
        <time>2021-10-30T15:22:26.505Z</time>
      </trkpt>
      <trkpt lat="47.16887" lon="-1.48153">
        <ele>42.552707</ele>
        <time>2021-10-30T15:22:28.504Z</time>
      </trkpt>
      <trkpt lat="47.16892" lon="-1.48171">
        <ele>42.485474</ele>
        <time>2021-10-30T15:22:31.483Z</time>
      </trkpt>
      <trkpt lat="47.16898" lon="-1.48182">
        <ele>42.438064</ele>
        <time>2021-10-30T15:22:33.510Z</time>
      </trkpt>
      <trkpt lat="47.16908" lon="-1.48195">
        <ele>42.37007</ele>
        <time>2021-10-30T15:22:36.493Z</time>
      </trkpt>
      <trkpt lat="47.16915" lon="-1.48207">
        <ele>42.317673</ele>
        <time>2021-10-30T15:22:38.474Z</time>
      </trkpt>
      <trkpt lat="47.16922" lon="-1.4822">
        <ele>42.686328</ele>
        <time>2021-10-30T15:22:41.496Z</time>
      </trkpt>
      <trkpt lat="47.16925" lon="-1.48233">
        <ele>43.141473</ele>
        <time>2021-10-30T15:22:43.509Z</time>
      </trkpt>
      <trkpt lat="47.16934" lon="-1.4826">
        <ele>44.114913</ele>
        <time>2021-10-30T15:22:48.496Z</time>
      </trkpt>
      <trkpt lat="47.16938" lon="-1.48274">
        <ele>44.613863</ele>
        <time>2021-10-30T15:22:50.407Z</time>
      </trkpt>
      <trkpt lat="47.16939" lon="-1.48288">
        <ele>45.079584</ele>
        <time>2021-10-30T15:22:52.052Z</time>
      </trkpt>
      <trkpt lat="47.16898" lon="-1.48455">
        <ele>50.861817</ele>
        <time>2021-10-30T15:23:20.510Z</time>
      </trkpt>
      <trkpt lat="47.16895" lon="-1.48471">
        <ele>50.785567</ele>
        <time>2021-10-30T15:23:23.239Z</time>
      </trkpt>
      <trkpt lat="47.16889" lon="-1.48487">
        <ele>50.609396</ele>
        <time>2021-10-30T15:23:26.097Z</time>
      </trkpt>
      <trkpt lat="47.16931" lon="-1.48848">
        <ele>51.266535</ele>
        <time>2021-10-30T15:24:28.529Z</time>
      </trkpt>
      <trkpt lat="47.16931" lon="-1.48865">
        <ele>51.616285</ele>
        <time>2021-10-30T15:24:31.242Z</time>
      </trkpt>
      <trkpt lat="47.16935" lon="-1.48878">
        <ele>51.909759</ele>
        <time>2021-10-30T15:24:33.212Z</time>
      </trkpt>
      <trkpt lat="47.1694" lon="-1.48891">
        <ele>52.222371</ele>
        <time>2021-10-30T15:24:35.522Z</time>
      </trkpt>
      <trkpt lat="47.16943" lon="-1.48907">
        <ele>52.548979</ele>
        <time>2021-10-30T15:24:38.529Z</time>
      </trkpt>
      <trkpt lat="47.16948" lon="-1.48923">
        <ele>52.928657</ele>
        <time>2021-10-30T15:24:41.487Z</time>
      </trkpt>
      <trkpt lat="47.16952" lon="-1.48941">
        <ele>53.321577</ele>
        <time>2021-10-30T15:24:44.504Z</time>
      </trkpt>
      <trkpt lat="47.16956" lon="-1.48954">
        <ele>53.609268</ele>
        <time>2021-10-30T15:24:46.479Z</time>
      </trkpt>
      <trkpt lat="47.16959" lon="-1.48966">
        <ele>53.88156</ele>
        <time>2021-10-30T15:24:48.483Z</time>
      </trkpt>
      <trkpt lat="47.16963" lon="-1.48982">
        <ele>54.173979</ele>
        <time>2021-10-30T15:24:51.493Z</time>
      </trkpt>
      <trkpt lat="47.16968" lon="-1.49">
        <ele>54.512904</ele>
        <time>2021-10-30T15:24:54.491Z</time>
      </trkpt>
      <trkpt lat="47.16971" lon="-1.49013">
        <ele>54.755603</ele>
        <time>2021-10-30T15:24:56.500Z</time>
      </trkpt>
      <trkpt lat="47.16978" lon="-1.4903">
        <ele>55.099501</ele>
        <time>2021-10-30T15:24:59.501Z</time>
      </trkpt>
      <trkpt lat="47.16984" lon="-1.49046">
        <ele>55.411336</ele>
        <time>2021-10-30T15:25:02.495Z</time>
      </trkpt>
      <trkpt lat="47.16992" lon="-1.4906">
        <ele>55.724054</ele>
        <time>2021-10-30T15:25:05.497Z</time>
      </trkpt>
      <trkpt lat="47.17002" lon="-1.49073">
        <ele>56.061566</ele>
        <time>2021-10-30T15:25:08.333Z</time>
      </trkpt>
      <trkpt lat="47.17007" lon="-1.49086">
        <ele>56.31787</ele>
        <time>2021-10-30T15:25:10.351Z</time>
      </trkpt>
      <trkpt lat="47.1701" lon="-1.49101">
        <ele>56.585824</ele>
        <time>2021-10-30T15:25:12.468Z</time>
      </trkpt>
      <trkpt lat="47.17032" lon="-1.49184">
        <ele>58.11142</ele>
        <time>2021-10-30T15:25:27.337Z</time>
      </trkpt>
      <trkpt lat="47.17049" lon="-1.49267">
        <ele>56.01273</ele>
        <time>2021-10-30T15:25:41.523Z</time>
      </trkpt>
      <trkpt lat="47.17051" lon="-1.49281">
        <ele>55.47589</ele>
        <time>2021-10-30T15:25:43.031Z</time>
      </trkpt>
      <trkpt lat="47.17054" lon="-1.49294">
        <ele>54.96118</ele>
        <time>2021-10-30T15:25:45.179Z</time>
      </trkpt>
      <trkpt lat="47.17059" lon="-1.49306">
        <ele>54.421062</ele>
        <time>2021-10-30T15:25:47.010Z</time>
      </trkpt>
      <trkpt lat="47.17071" lon="-1.49342">
        <ele>52.880417</ele>
        <time>2021-10-30T15:25:53.492Z</time>
      </trkpt>
      <trkpt lat="47.17074" lon="-1.49355">
        <ele>52.358244</ele>
        <time>2021-10-30T15:25:55.517Z</time>
      </trkpt>
      <trkpt lat="47.17078" lon="-1.49371">
        <ele>51.737069</ele>
        <time>2021-10-30T15:25:58.493Z</time>
      </trkpt>
      <trkpt lat="47.17081" lon="-1.49386">
        <ele>51.130117</ele>
        <time>2021-10-30T15:26:00.495Z</time>
      </trkpt>
      <trkpt lat="47.17086" lon="-1.49398">
        <ele>50.596168</ele>
        <time>2021-10-30T15:26:02.523Z</time>
      </trkpt>
      <trkpt lat="47.17093" lon="-1.49412">
        <ele>49.93327</ele>
        <time>2021-10-30T15:26:05.104Z</time>
      </trkpt>
      <trkpt lat="47.17096" lon="-1.49424">
        <ele>49.428176</ele>
        <time>2021-10-30T15:26:07.182Z</time>
      </trkpt>
      <trkpt lat="47.17102" lon="-1.49436">
        <ele>48.869796</ele>
        <time>2021-10-30T15:26:09.301Z</time>
      </trkpt>
      <trkpt lat="47.17108" lon="-1.49452">
        <ele>48.283338</ele>
        <time>2021-10-30T15:26:12.932Z</time>
      </trkpt>
      <trkpt lat="47.17115" lon="-1.49474">
        <ele>47.751007</ele>
        <time>2021-10-30T15:26:16.445Z</time>
      </trkpt>
      <trkpt lat="47.17117" lon="-1.49497">
        <ele>47.228696</ele>
        <time>2021-10-30T15:26:19.517Z</time>
      </trkpt>
      <trkpt lat="47.17118" lon="-1.49512">
        <ele>46.911475</ele>
        <time>2021-10-30T15:26:21.502Z</time>
      </trkpt>
      <trkpt lat="47.1712" lon="-1.49525">
        <ele>46.613628</ele>
        <time>2021-10-30T15:26:23.514Z</time>
      </trkpt>
      <trkpt lat="47.17124" lon="-1.49538">
        <ele>46.304279</ele>
        <time>2021-10-30T15:26:25.492Z</time>
      </trkpt>
      <trkpt lat="47.17127" lon="-1.49553">
        <ele>45.966013</ele>
        <time>2021-10-30T15:26:27.440Z</time>
      </trkpt>
      <trkpt lat="47.17132" lon="-1.4957">
        <ele>45.542692</ele>
        <time>2021-10-30T15:26:30.511Z</time>
      </trkpt>
      <trkpt lat="47.17137" lon="-1.49588">
        <ele>45.124142</ele>
        <time>2021-10-30T15:26:33.514Z</time>
      </trkpt>
      <trkpt lat="47.1714" lon="-1.49602">
        <ele>44.799741</ele>
        <time>2021-10-30T15:26:35.338Z</time>
      </trkpt>
      <trkpt lat="47.17144" lon="-1.49616">
        <ele>44.46614</ele>
        <time>2021-10-30T15:26:37.456Z</time>
      </trkpt>
      <trkpt lat="47.17148" lon="-1.49633">
        <ele>44.071878</ele>
        <time>2021-10-30T15:26:40.491Z</time>
      </trkpt>
      <trkpt lat="47.17151" lon="-1.49646">
        <ele>43.78137</ele>
        <time>2021-10-30T15:26:42.486Z</time>
      </trkpt>
      <trkpt lat="47.17154" lon="-1.49659">
        <ele>43.480204</ele>
        <time>2021-10-30T15:26:44.521Z</time>
      </trkpt>
      <trkpt lat="47.17159" lon="-1.49677">
        <ele>43.052331</ele>
        <time>2021-10-30T15:26:47.510Z</time>
      </trkpt>
      <trkpt lat="47.17165" lon="-1.49688">
        <ele>42.739531</ele>
        <time>2021-10-30T15:26:49.506Z</time>
      </trkpt>
      <trkpt lat="47.17171" lon="-1.49706">
        <ele>42.488631</ele>
        <time>2021-10-30T15:26:52.513Z</time>
      </trkpt>
      <trkpt lat="47.17177" lon="-1.49723">
        <ele>42.317076</ele>
        <time>2021-10-30T15:26:55.494Z</time>
      </trkpt>
      <trkpt lat="47.17179" lon="-1.49737">
        <ele>42.190948</ele>
        <time>2021-10-30T15:26:57.498Z</time>
      </trkpt>
      <trkpt lat="47.17183" lon="-1.49756">
        <ele>42.020202</ele>
        <time>2021-10-30T15:27:00.505Z</time>
      </trkpt>
      <trkpt lat="47.17187" lon="-1.49768">
        <ele>41.90339</ele>
        <time>2021-10-30T15:27:02.499Z</time>
      </trkpt>
      <trkpt lat="47.1719" lon="-1.49781">
        <ele>41.780385</ele>
        <time>2021-10-30T15:27:04.551Z</time>
      </trkpt>
      <trkpt lat="47.17196" lon="-1.49799">
        <ele>41.603541</ele>
        <time>2021-10-30T15:27:07.492Z</time>
      </trkpt>
      <trkpt lat="47.172" lon="-1.49812">
        <ele>41.47989</ele>
        <time>2021-10-30T15:27:09.487Z</time>
      </trkpt>
      <trkpt lat="47.17206" lon="-1.49824">
        <ele>41.352931</ele>
        <time>2021-10-30T15:27:11.493Z</time>
      </trkpt>
      <trkpt lat="47.17213" lon="-1.49841">
        <ele>41.179905</ele>
        <time>2021-10-30T15:27:14.514Z</time>
      </trkpt>
      <trkpt lat="47.17217" lon="-1.49853">
        <ele>41.05686</ele>
        <time>2021-10-30T15:27:16.543Z</time>
      </trkpt>
      <trkpt lat="47.17222" lon="-1.49872">
        <ele>40.877669</ele>
        <time>2021-10-30T15:27:19.487Z</time>
      </trkpt>
      <trkpt lat="47.17227" lon="-1.49885">
        <ele>40.749282</ele>
        <time>2021-10-30T15:27:21.493Z</time>
      </trkpt>
      <trkpt lat="47.17231" lon="-1.49898">
        <ele>40.622873</ele>
        <time>2021-10-30T15:27:23.489Z</time>
      </trkpt>
      <trkpt lat="47.17236" lon="-1.4991">
        <ele>40.501116</ele>
        <time>2021-10-30T15:27:25.484Z</time>
      </trkpt>
      <trkpt lat="47.1724" lon="-1.49922">
        <ele>40.38057</ele>
        <time>2021-10-30T15:27:27.551Z</time>
      </trkpt>
      <trkpt lat="47.17245" lon="-1.49938">
        <ele>40.3034</ele>
        <time>2021-10-30T15:27:30.502Z</time>
      </trkpt>
      <trkpt lat="47.1725" lon="-1.49955">
        <ele>40.348333</ele>
        <time>2021-10-30T15:27:33.499Z</time>
      </trkpt>
      <trkpt lat="47.17256" lon="-1.49971">
        <ele>40.391726</ele>
        <time>2021-10-30T15:27:36.494Z</time>
      </trkpt>
      <trkpt lat="47.17262" lon="-1.49986">
        <ele>40.433739</ele>
        <time>2021-10-30T15:27:39.494Z</time>
      </trkpt>
      <trkpt lat="47.17268" lon="-1.50003">
        <ele>40.478371</ele>
        <time>2021-10-30T15:27:42.493Z</time>
      </trkpt>
      <trkpt lat="47.17274" lon="-1.50018">
        <ele>40.520481</ele>
        <time>2021-10-30T15:27:45.495Z</time>
      </trkpt>
      <trkpt lat="47.17282" lon="-1.50032">
        <ele>40.562491</ele>
        <time>2021-10-30T15:27:48.512Z</time>
      </trkpt>
      <trkpt lat="47.17292" lon="-1.50043">
        <ele>40.605089</ele>
        <time>2021-10-30T15:27:51.492Z</time>
      </trkpt>
      <trkpt lat="47.173" lon="-1.50057">
        <ele>40.649855</ele>
        <time>2021-10-30T15:27:54.494Z</time>
      </trkpt>
      <trkpt lat="47.17307" lon="-1.5007">
        <ele>40.690396</ele>
        <time>2021-10-30T15:27:57.495Z</time>
      </trkpt>
      <trkpt lat="47.17312" lon="-1.50082">
        <ele>40.72246</ele>
        <time>2021-10-30T15:27:59.520Z</time>
      </trkpt>
      <trkpt lat="47.17319" lon="-1.50096">
        <ele>40.762991</ele>
        <time>2021-10-30T15:28:02.550Z</time>
      </trkpt>
      <trkpt lat="47.17325" lon="-1.50112">
        <ele>40.80656</ele>
        <time>2021-10-30T15:28:05.498Z</time>
      </trkpt>
      <trkpt lat="47.17333" lon="-1.50128">
        <ele>40.853187</ele>
        <time>2021-10-30T15:28:08.494Z</time>
      </trkpt>
      <trkpt lat="47.1734" lon="-1.50143">
        <ele>40.899042</ele>
        <time>2021-10-30T15:28:11.491Z</time>
      </trkpt>
      <trkpt lat="47.17347" lon="-1.5016">
        <ele>41.042619</ele>
        <time>2021-10-30T15:28:14.502Z</time>
      </trkpt>
      <trkpt lat="47.17353" lon="-1.50175">
        <ele>41.221369</ele>
        <time>2021-10-30T15:28:17.524Z</time>
      </trkpt>
      <trkpt lat="47.1736" lon="-1.50184">
        <ele>41.361303</ele>
        <time>2021-10-30T15:28:20.521Z</time>
      </trkpt>
      <trkpt lat="47.17365" lon="-1.50196">
        <ele>41.498916</ele>
        <time>2021-10-30T15:28:23.505Z</time>
      </trkpt>
      <trkpt lat="47.17371" lon="-1.5021">
        <ele>41.676571</ele>
        <time>2021-10-30T15:28:26.541Z</time>
      </trkpt>
      <trkpt lat="47.17377" lon="-1.50226">
        <ele>41.869472</ele>
        <time>2021-10-30T15:28:29.511Z</time>
      </trkpt>
      <trkpt lat="47.17384" lon="-1.50242">
        <ele>42.06286</ele>
        <time>2021-10-30T15:28:32.505Z</time>
      </trkpt>
      <trkpt lat="47.17389" lon="-1.50254">
        <ele>42.202228</ele>
        <time>2021-10-30T15:28:34.497Z</time>
      </trkpt>
      <trkpt lat="47.17396" lon="-1.5027">
        <ele>42.396232</ele>
        <time>2021-10-30T15:28:37.491Z</time>
      </trkpt>
      <trkpt lat="47.17402" lon="-1.50285">
        <ele>42.579872</ele>
        <time>2021-10-30T15:28:40.496Z</time>
      </trkpt>
      <trkpt lat="47.17409" lon="-1.50302">
        <ele>42.788197</ele>
        <time>2021-10-30T15:28:43.519Z</time>
      </trkpt>
      <trkpt lat="47.17413" lon="-1.50316">
        <ele>42.94159</ele>
        <time>2021-10-30T15:28:45.493Z</time>
      </trkpt>
      <trkpt lat="47.17418" lon="-1.50327">
        <ele>43.080169</ele>
        <time>2021-10-30T15:28:47.499Z</time>
      </trkpt>
      <trkpt lat="47.17425" lon="-1.50345">
        <ele>43.289756</ele>
        <time>2021-10-30T15:28:50.571Z</time>
      </trkpt>
      <trkpt lat="47.17431" lon="-1.50359">
        <ele>43.469987</ele>
        <time>2021-10-30T15:28:53.494Z</time>
      </trkpt>
      <trkpt lat="47.17439" lon="-1.50374">
        <ele>43.652236</ele>
        <time>2021-10-30T15:28:56.498Z</time>
      </trkpt>
      <trkpt lat="47.17447" lon="-1.5039">
        <ele>43.691346</ele>
        <time>2021-10-30T15:28:59.503Z</time>
      </trkpt>
      <trkpt lat="47.17453" lon="-1.50401">
        <ele>43.719299</ele>
        <time>2021-10-30T15:29:01.544Z</time>
      </trkpt>
      <trkpt lat="47.17459" lon="-1.50412">
        <ele>43.74631</ele>
        <time>2021-10-30T15:29:03.510Z</time>
      </trkpt>
      <trkpt lat="47.17466" lon="-1.5042">
        <ele>43.772566</ele>
        <time>2021-10-30T15:29:05.494Z</time>
      </trkpt>
      <trkpt lat="47.17475" lon="-1.50434">
        <ele>43.809675</ele>
        <time>2021-10-30T15:29:08.510Z</time>
      </trkpt>
      <trkpt lat="47.17483" lon="-1.50448">
        <ele>43.846551</ele>
        <time>2021-10-30T15:29:11.539Z</time>
      </trkpt>
      <trkpt lat="47.17489" lon="-1.50459">
        <ele>43.873112</ele>
        <time>2021-10-30T15:29:13.499Z</time>
      </trkpt>
      <trkpt lat="47.17498" lon="-1.50473">
        <ele>43.911094</ele>
        <time>2021-10-30T15:29:16.499Z</time>
      </trkpt>
      <trkpt lat="47.17507" lon="-1.50486">
        <ele>43.947564</ele>
        <time>2021-10-30T15:29:19.496Z</time>
      </trkpt>
      <trkpt lat="47.17514" lon="-1.50499">
        <ele>43.981255</ele>
        <time>2021-10-30T15:29:22.503Z</time>
      </trkpt>
      <trkpt lat="47.17517" lon="-1.50513">
        <ele>44.008945</ele>
        <time>2021-10-30T15:29:25.496Z</time>
      </trkpt>
      <trkpt lat="47.17524" lon="-1.50526">
        <ele>44.041911</ele>
        <time>2021-10-30T15:29:28.492Z</time>
      </trkpt>
      <trkpt lat="47.17532" lon="-1.50538">
        <ele>44.076401</ele>
        <time>2021-10-30T15:29:31.496Z</time>
      </trkpt>
      <trkpt lat="47.1754" lon="-1.50552">
        <ele>44.111926</ele>
        <time>2021-10-30T15:29:34.498Z</time>
      </trkpt>
      <trkpt lat="47.17548" lon="-1.50568">
        <ele>44.150912</ele>
        <time>2021-10-30T15:29:37.503Z</time>
      </trkpt>
      <trkpt lat="47.17558" lon="-1.50582">
        <ele>44.063204</ele>
        <time>2021-10-30T15:29:40.519Z</time>
      </trkpt>
      <trkpt lat="47.17568" lon="-1.50592">
        <ele>43.888235</ele>
        <time>2021-10-30T15:29:43.519Z</time>
      </trkpt>
      <trkpt lat="47.17575" lon="-1.50602">
        <ele>43.743205</ele>
        <time>2021-10-30T15:29:45.492Z</time>
      </trkpt>
      <trkpt lat="47.17582" lon="-1.50616">
        <ele>43.560871</ele>
        <time>2021-10-30T15:29:48.495Z</time>
      </trkpt>
      <trkpt lat="47.17588" lon="-1.50629">
        <ele>43.407326</ele>
        <time>2021-10-30T15:29:51.494Z</time>
      </trkpt>
      <trkpt lat="47.17596" lon="-1.50642">
        <ele>43.228143</ele>
        <time>2021-10-30T15:29:54.500Z</time>
      </trkpt>
      <trkpt lat="47.17606" lon="-1.50653">
        <ele>43.045024</ele>
        <time>2021-10-30T15:29:57.505Z</time>
      </trkpt>
      <trkpt lat="47.17615" lon="-1.50666">
        <ele>42.858172</ele>
        <time>2021-10-30T15:30:00.490Z</time>
      </trkpt>
      <trkpt lat="47.17623" lon="-1.5068">
        <ele>42.672745</ele>
        <time>2021-10-30T15:30:03.513Z</time>
      </trkpt>
      <trkpt lat="47.17631" lon="-1.50695">
        <ele>42.481035</ele>
        <time>2021-10-30T15:30:06.485Z</time>
      </trkpt>
      <trkpt lat="47.17638" lon="-1.50707">
        <ele>42.317657</ele>
        <time>2021-10-30T15:30:09.502Z</time>
      </trkpt>
      <trkpt lat="47.17643" lon="-1.50718">
        <ele>42.178375</ele>
        <time>2021-10-30T15:30:13.041Z</time>
      </trkpt>
      <trkpt lat="47.17645" lon="-1.50734">
        <ele>42.011874</ele>
        <time>2021-10-30T15:30:16.084Z</time>
      </trkpt>
      <trkpt lat="47.17672" lon="-1.50808">
        <ele>41.383857</ele>
        <time>2021-10-30T15:30:45.500Z</time>
      </trkpt>
      <trkpt lat="47.1768" lon="-1.50798">
        <ele>41.335651</ele>
        <time>2021-10-30T15:30:47.493Z</time>
      </trkpt>
      <trkpt lat="47.17687" lon="-1.50791">
        <ele>41.291084</ele>
        <time>2021-10-30T15:30:49.482Z</time>
      </trkpt>
      <trkpt lat="47.17706" lon="-1.50796">
        <ele>41.20085</ele>
        <time>2021-10-30T15:30:54.498Z</time>
      </trkpt>
      <trkpt lat="47.17711" lon="-1.50808">
        <ele>41.155481</ele>
        <time>2021-10-30T15:30:56.936Z</time>
      </trkpt>
      <trkpt lat="47.1772" lon="-1.5082">
        <ele>41.097545</ele>
        <time>2021-10-30T15:30:59.787Z</time>
      </trkpt>
      <trkpt lat="47.17757" lon="-1.50862">
        <ele>40.876321</ele>
        <time>2021-10-30T15:31:11.492Z</time>
      </trkpt>
      <trkpt lat="47.17767" lon="-1.50875">
        <ele>40.812808</ele>
        <time>2021-10-30T15:31:14.497Z</time>
      </trkpt>
      <trkpt lat="47.1778" lon="-1.50884">
        <ele>40.744483</ele>
        <time>2021-10-30T15:31:18.518Z</time>
      </trkpt>
      <trkpt lat="47.17787" lon="-1.50895">
        <ele>40.695944</ele>
        <time>2021-10-30T15:31:20.515Z</time>
      </trkpt>
      <trkpt lat="47.17795" lon="-1.50906">
        <ele>40.645564</ele>
        <time>2021-10-30T15:31:22.489Z</time>
      </trkpt>
      <trkpt lat="47.17804" lon="-1.50914">
        <ele>40.58028</ele>
        <time>2021-10-30T15:31:24.414Z</time>
      </trkpt>
      <trkpt lat="47.17815" lon="-1.50924">
        <ele>40.48795</ele>
        <time>2021-10-30T15:31:27.521Z</time>
      </trkpt>
      <trkpt lat="47.17823" lon="-1.50931">
        <ele>40.425081</ele>
        <time>2021-10-30T15:31:29.525Z</time>
      </trkpt>
      <trkpt lat="47.17831" lon="-1.5094">
        <ele>40.357312</ele>
        <time>2021-10-30T15:31:31.488Z</time>
      </trkpt>
      <trkpt lat="47.17836" lon="-1.50953">
        <ele>40.290328</ele>
        <time>2021-10-30T15:31:34.782Z</time>
      </trkpt>
      <trkpt lat="47.1785" lon="-1.50966">
        <ele>40.181281</ele>
        <time>2021-10-30T15:31:37.501Z</time>
      </trkpt>
      <trkpt lat="47.17858" lon="-1.50975">
        <ele>40.111313</ele>
        <time>2021-10-30T15:31:39.489Z</time>
      </trkpt>
      <trkpt lat="47.17865" lon="-1.50985">
        <ele>40.04183</ele>
        <time>2021-10-30T15:31:41.351Z</time>
      </trkpt>
      <trkpt lat="47.17873" lon="-1.50993">
        <ele>39.979805</ele>
        <time>2021-10-30T15:31:43.550Z</time>
      </trkpt>
      <trkpt lat="47.17882" lon="-1.51005">
        <ele>39.899073</ele>
        <time>2021-10-30T15:31:45.908Z</time>
      </trkpt>
      <trkpt lat="47.17888" lon="-1.51016">
        <ele>39.83092</ele>
        <time>2021-10-30T15:31:48.486Z</time>
      </trkpt>
      <trkpt lat="47.17901" lon="-1.51033">
        <ele>39.718491</ele>
        <time>2021-10-30T15:31:52.488Z</time>
      </trkpt>
      <trkpt lat="47.17908" lon="-1.51044">
        <ele>39.648731</ele>
        <time>2021-10-30T15:31:54.515Z</time>
      </trkpt>
      <trkpt lat="47.17915" lon="-1.51053">
        <ele>39.586366</ele>
        <time>2021-10-30T15:31:56.492Z</time>
      </trkpt>
      <trkpt lat="47.1792" lon="-1.51064">
        <ele>39.521358</ele>
        <time>2021-10-30T15:31:58.487Z</time>
      </trkpt>
      <trkpt lat="47.17927" lon="-1.51074">
        <ele>39.4583</ele>
        <time>2021-10-30T15:32:00.485Z</time>
      </trkpt>
      <trkpt lat="47.17933" lon="-1.51084">
        <ele>39.439348</ele>
        <time>2021-10-30T15:32:02.500Z</time>
      </trkpt>
      <trkpt lat="47.17941" lon="-1.51092">
        <ele>39.504322</ele>
        <time>2021-10-30T15:32:04.434Z</time>
      </trkpt>
      <trkpt lat="47.17949" lon="-1.51102">
        <ele>39.576367</ele>
        <time>2021-10-30T15:32:06.875Z</time>
      </trkpt>
      <trkpt lat="47.17958" lon="-1.51112">
        <ele>39.654974</ele>
        <time>2021-10-30T15:32:09.505Z</time>
      </trkpt>
      <trkpt lat="47.17968" lon="-1.51111">
        <ele>39.725872</ele>
        <time>2021-10-30T15:32:12.207Z</time>
      </trkpt>
      <trkpt lat="47.18009" lon="-1.51151">
        <ele>40.065042</ele>
        <time>2021-10-30T15:32:23.524Z</time>
      </trkpt>
      <trkpt lat="47.18019" lon="-1.51158">
        <ele>40.143242</ele>
        <time>2021-10-30T15:32:25.484Z</time>
      </trkpt>
      <trkpt lat="47.18052" lon="-1.51199">
        <ele>40.443251</ele>
        <time>2021-10-30T15:32:38.515Z</time>
      </trkpt>
      <trkpt lat="47.18051" lon="-1.51213">
        <ele>40.506001</ele>
        <time>2021-10-30T15:32:40.514Z</time>
      </trkpt>
      <trkpt lat="47.18053" lon="-1.51229">
        <ele>40.583681</ele>
        <time>2021-10-30T15:32:43.512Z</time>
      </trkpt>
      <trkpt lat="47.18055" lon="-1.51244">
        <ele>40.657327</ele>
        <time>2021-10-30T15:32:45.515Z</time>
      </trkpt>
      <trkpt lat="47.1805" lon="-1.51258">
        <ele>40.82815</ele>
        <time>2021-10-30T15:32:47.323Z</time>
      </trkpt>
      <trkpt lat="47.18056" lon="-1.51293">
        <ele>41.273844</ele>
        <time>2021-10-30T15:32:52.503Z</time>
      </trkpt>
      <trkpt lat="47.18058" lon="-1.51309">
        <ele>41.464681</ele>
        <time>2021-10-30T15:32:55.014Z</time>
      </trkpt>
      <trkpt lat="47.18062" lon="-1.51322">
        <ele>41.634225</ele>
        <time>2021-10-30T15:32:57.068Z</time>
      </trkpt>
      <trkpt lat="47.18098" lon="-1.51423">
        <ele>43.027503</ele>
        <time>2021-10-30T15:33:15.518Z</time>
      </trkpt>
      <trkpt lat="47.18102" lon="-1.51435">
        <ele>43.19098</ele>
        <time>2021-10-30T15:33:18.115Z</time>
      </trkpt>
      <trkpt lat="47.18105" lon="-1.51447">
        <ele>43.3526</ele>
        <time>2021-10-30T15:33:20.098Z</time>
      </trkpt>
      <trkpt lat="47.1811" lon="-1.51462">
        <ele>43.54551</ele>
        <time>2021-10-30T15:33:22.199Z</time>
      </trkpt>
      <trkpt lat="47.1815" lon="-1.51724">
        <ele>42.16853</ele>
        <time>2021-10-30T15:34:05.511Z</time>
      </trkpt>
      <trkpt lat="47.18147" lon="-1.51739">
        <ele>42.055856</ele>
        <time>2021-10-30T15:34:08.249Z</time>
      </trkpt>
      <trkpt lat="47.18105" lon="-1.51853">
        <ele>42.784272</ele>
        <time>2021-10-30T15:34:30.583Z</time>
      </trkpt>
      <trkpt lat="47.1811" lon="-1.51866">
        <ele>42.875935</ele>
        <time>2021-10-30T15:34:32.967Z</time>
      </trkpt>
      <trkpt lat="47.18176" lon="-1.52232">
        <ele>42.985482</ele>
        <time>2021-10-30T15:35:38.293Z</time>
      </trkpt>
      <trkpt lat="47.18196" lon="-1.52523">
        <ele>42.799527</ele>
        <time>2021-10-30T15:36:36.511Z</time>
      </trkpt>
      <trkpt lat="47.18296" lon="-1.52951">
        <ele>46.124926</ele>
        <time>2021-10-30T15:37:55.504Z</time>
      </trkpt>
      <trkpt lat="47.183" lon="-1.52967">
        <ele>46.344532</ele>
        <time>2021-10-30T15:37:58.515Z</time>
      </trkpt>
      <trkpt lat="47.18305" lon="-1.52981">
        <ele>46.541728</ele>
        <time>2021-10-30T15:38:01.153Z</time>
      </trkpt>
      <trkpt lat="47.18308" lon="-1.52997">
        <ele>46.751575</ele>
        <time>2021-10-30T15:38:03.507Z</time>
      </trkpt>
      <trkpt lat="47.18312" lon="-1.53012">
        <ele>46.918851</ele>
        <time>2021-10-30T15:38:06.048Z</time>
      </trkpt>
      <trkpt lat="47.18325" lon="-1.53109">
        <ele>47.07864</ele>
        <time>2021-10-30T15:38:57.337Z</time>
      </trkpt>
      <trkpt lat="47.18286" lon="-1.53141">
        <ele>47.184337</ele>
        <time>2021-10-30T15:39:07.434Z</time>
      </trkpt>
      <trkpt lat="47.18275" lon="-1.5315">
        <ele>47.214413</ele>
        <time>2021-10-30T15:39:10.493Z</time>
      </trkpt>
      <trkpt lat="47.18267" lon="-1.53157">
        <ele>47.236235</ele>
        <time>2021-10-30T15:39:12.555Z</time>
      </trkpt>
      <trkpt lat="47.18261" lon="-1.53166">
        <ele>47.258657</ele>
        <time>2021-10-30T15:39:13.955Z</time>
      </trkpt>
      <trkpt lat="47.18272" lon="-1.5317">
        <ele>47.286736</ele>
        <time>2021-10-30T15:39:31.508Z</time>
      </trkpt>
      <trkpt lat="47.18282" lon="-1.53165">
        <ele>47.310131</ele>
        <time>2021-10-30T15:39:33.515Z</time>
      </trkpt>
      <trkpt lat="47.18292" lon="-1.53168">
        <ele>47.335579</ele>
        <time>2021-10-30T15:39:35.897Z</time>
      </trkpt>
      <trkpt lat="47.18301" lon="-1.53176">
        <ele>47.251958</ele>
        <time>2021-10-30T15:39:38.403Z</time>
      </trkpt>
      <trkpt lat="47.18307" lon="-1.53186">
        <ele>47.128098</ele>
        <time>2021-10-30T15:39:40.989Z</time>
      </trkpt>
      <trkpt lat="47.18345" lon="-1.53247">
        <ele>46.414888</ele>
        <time>2021-10-30T15:39:55.521Z</time>
      </trkpt>
      <trkpt lat="47.18352" lon="-1.53257">
        <ele>46.283897</ele>
        <time>2021-10-30T15:39:57.504Z</time>
      </trkpt>
      <trkpt lat="47.18359" lon="-1.53267">
        <ele>46.16019</ele>
        <time>2021-10-30T15:39:59.538Z</time>
      </trkpt>
      <trkpt lat="47.18365" lon="-1.53277">
        <ele>46.042327</ele>
        <time>2021-10-30T15:40:01.170Z</time>
      </trkpt>
      <trkpt lat="47.18374" lon="-1.5329">
        <ele>45.883842</ele>
        <time>2021-10-30T15:40:04.073Z</time>
      </trkpt>
      <trkpt lat="47.18383" lon="-1.53299">
        <ele>45.740692</ele>
        <time>2021-10-30T15:40:05.960Z</time>
      </trkpt>
      <trkpt lat="47.18397" lon="-1.53316">
        <ele>45.509752</ele>
        <time>2021-10-30T15:40:10.515Z</time>
      </trkpt>
      <trkpt lat="47.18401" lon="-1.5333">
        <ele>45.378625</ele>
        <time>2021-10-30T15:40:13.166Z</time>
      </trkpt>
      <trkpt lat="47.1841" lon="-1.53336">
        <ele>45.25148</ele>
        <time>2021-10-30T15:40:15.526Z</time>
      </trkpt>
      <trkpt lat="47.18416" lon="-1.53347">
        <ele>45.129562</ele>
        <time>2021-10-30T15:40:17.057Z</time>
      </trkpt>
      <trkpt lat="47.18425" lon="-1.53353">
        <ele>45.032845</ele>
        <time>2021-10-30T15:40:19.518Z</time>
      </trkpt>
      <trkpt lat="47.18434" lon="-1.53367">
        <ele>45.023065</ele>
        <time>2021-10-30T15:40:21.893Z</time>
      </trkpt>
      <trkpt lat="47.18523" lon="-1.53458">
        <ele>44.936724</ele>
        <time>2021-10-30T15:40:49.523Z</time>
      </trkpt>
      <trkpt lat="47.18532" lon="-1.53464">
        <ele>44.929049</ele>
        <time>2021-10-30T15:40:51.497Z</time>
      </trkpt>
      <trkpt lat="47.18541" lon="-1.5347">
        <ele>44.921305</ele>
        <time>2021-10-30T15:40:53.496Z</time>
      </trkpt>
      <trkpt lat="47.18548" lon="-1.5348">
        <ele>44.913842</ele>
        <time>2021-10-30T15:40:55.146Z</time>
      </trkpt>
      <trkpt lat="47.18554" lon="-1.53489">
        <ele>44.906588</ele>
        <time>2021-10-30T15:40:57.532Z</time>
      </trkpt>
      <trkpt lat="47.18561" lon="-1.53498">
        <ele>44.899104</ele>
        <time>2021-10-30T15:40:59.538Z</time>
      </trkpt>
      <trkpt lat="47.18573" lon="-1.53508">
        <ele>44.749424</ele>
        <time>2021-10-30T15:41:02.515Z</time>
      </trkpt>
      <trkpt lat="47.18583" lon="-1.53514">
        <ele>44.491132</ele>
        <time>2021-10-30T15:41:04.513Z</time>
      </trkpt>
      <trkpt lat="47.18591" lon="-1.53521">
        <ele>44.241379</ele>
        <time>2021-10-30T15:41:06.527Z</time>
      </trkpt>
      <trkpt lat="47.186" lon="-1.53527">
        <ele>43.987745</ele>
        <time>2021-10-30T15:41:08.524Z</time>
      </trkpt>
      <trkpt lat="47.18609" lon="-1.53533">
        <ele>43.734834</ele>
        <time>2021-10-30T15:41:10.517Z</time>
      </trkpt>
      <trkpt lat="47.18621" lon="-1.5354">
        <ele>43.402085</ele>
        <time>2021-10-30T15:41:13.519Z</time>
      </trkpt>
      <trkpt lat="47.1863" lon="-1.5355">
        <ele>43.114459</ele>
        <time>2021-10-30T15:41:15.497Z</time>
      </trkpt>
      <trkpt lat="47.18638" lon="-1.53561">
        <ele>42.845005</ele>
        <time>2021-10-30T15:41:17.529Z</time>
      </trkpt>
      <trkpt lat="47.18646" lon="-1.53571">
        <ele>42.582023</ele>
        <time>2021-10-30T15:41:19.532Z</time>
      </trkpt>
      <trkpt lat="47.18654" lon="-1.53579">
        <ele>42.328372</ele>
        <time>2021-10-30T15:41:21.506Z</time>
      </trkpt>
      <trkpt lat="47.18662" lon="-1.53587">
        <ele>42.068867</ele>
        <time>2021-10-30T15:41:23.483Z</time>
      </trkpt>
      <trkpt lat="47.18671" lon="-1.53595">
        <ele>41.817715</ele>
        <time>2021-10-30T15:41:25.505Z</time>
      </trkpt>
      <trkpt lat="47.18679" lon="-1.53603">
        <ele>41.562044</ele>
        <time>2021-10-30T15:41:27.505Z</time>
      </trkpt>
      <trkpt lat="47.18686" lon="-1.53614">
        <ele>41.300109</ele>
        <time>2021-10-30T15:41:29.513Z</time>
      </trkpt>
      <trkpt lat="47.18693" lon="-1.53624">
        <ele>41.037511</ele>
        <time>2021-10-30T15:41:31.499Z</time>
      </trkpt>
      <trkpt lat="47.18702" lon="-1.53634">
        <ele>40.77453</ele>
        <time>2021-10-30T15:41:33.501Z</time>
      </trkpt>
      <trkpt lat="47.1871" lon="-1.53642">
        <ele>40.514368</ele>
        <time>2021-10-30T15:41:35.488Z</time>
      </trkpt>
      <trkpt lat="47.18718" lon="-1.53651">
        <ele>40.307126</ele>
        <time>2021-10-30T15:41:37.498Z</time>
      </trkpt>
      <trkpt lat="47.18726" lon="-1.53667">
        <ele>40.498941</ele>
        <time>2021-10-30T15:41:40.491Z</time>
      </trkpt>
      <trkpt lat="47.18735" lon="-1.53675">
        <ele>40.645552</ele>
        <time>2021-10-30T15:41:42.547Z</time>
      </trkpt>
      <trkpt lat="47.18744" lon="-1.53688">
        <ele>40.830934</ele>
        <time>2021-10-30T15:41:45.487Z</time>
      </trkpt>
      <trkpt lat="47.18753" lon="-1.53698">
        <ele>40.987282</ele>
        <time>2021-10-30T15:41:47.508Z</time>
      </trkpt>
      <trkpt lat="47.1876" lon="-1.53709">
        <ele>41.133502</ele>
        <time>2021-10-30T15:41:49.488Z</time>
      </trkpt>
      <trkpt lat="47.18767" lon="-1.53719">
        <ele>41.273549</ele>
        <time>2021-10-30T15:41:51.508Z</time>
      </trkpt>
      <trkpt lat="47.18775" lon="-1.53727">
        <ele>41.41551</ele>
        <time>2021-10-30T15:41:55.511Z</time>
      </trkpt>
      <trkpt lat="47.18785" lon="-1.53736">
        <ele>41.583087</ele>
        <time>2021-10-30T15:41:57.223Z</time>
      </trkpt>
      <trkpt lat="47.18793" lon="-1.5375">
        <ele>41.759059</ele>
        <time>2021-10-30T15:41:59.516Z</time>
      </trkpt>
      <trkpt lat="47.188" lon="-1.5376">
        <ele>41.902921</ele>
        <time>2021-10-30T15:42:01.514Z</time>
      </trkpt>
      <trkpt lat="47.18807" lon="-1.5377">
        <ele>42.037045</ele>
        <time>2021-10-30T15:42:03.463Z</time>
      </trkpt>
      <trkpt lat="47.18832" lon="-1.53812">
        <ele>42.584644</ele>
        <time>2021-10-30T15:42:12.515Z</time>
      </trkpt>
      <trkpt lat="47.18842" lon="-1.53825">
        <ele>42.780433</ele>
        <time>2021-10-30T15:42:15.545Z</time>
      </trkpt>
      <trkpt lat="47.18849" lon="-1.53836">
        <ele>42.843339</ele>
        <time>2021-10-30T15:42:17.376Z</time>
      </trkpt>
      <trkpt lat="47.18856" lon="-1.53845">
        <ele>42.796984</ele>
        <time>2021-10-30T15:42:19.507Z</time>
      </trkpt>
      <trkpt lat="47.18863" lon="-1.53854">
        <ele>42.751303</ele>
        <time>2021-10-30T15:42:21.524Z</time>
      </trkpt>
      <trkpt lat="47.1887" lon="-1.53864">
        <ele>42.703278</ele>
        <time>2021-10-30T15:42:23.508Z</time>
      </trkpt>
      <trkpt lat="47.18877" lon="-1.53874">
        <ele>42.656897</ele>
        <time>2021-10-30T15:42:25.510Z</time>
      </trkpt>
      <trkpt lat="47.18884" lon="-1.53883">
        <ele>42.610497</ele>
        <time>2021-10-30T15:42:27.493Z</time>
      </trkpt>
      <trkpt lat="47.18891" lon="-1.53892">
        <ele>42.565498</ele>
        <time>2021-10-30T15:42:29.118Z</time>
      </trkpt>
      <trkpt lat="47.18899" lon="-1.53899">
        <ele>42.518452</ele>
        <time>2021-10-30T15:42:31.449Z</time>
      </trkpt>
      <trkpt lat="47.18905" lon="-1.5391">
        <ele>42.46957</ele>
        <time>2021-10-30T15:42:33.523Z</time>
      </trkpt>
      <trkpt lat="47.18916" lon="-1.53909">
        <ele>42.419166</ele>
        <time>2021-10-30T15:42:36.655Z</time>
      </trkpt>
      <trkpt lat="47.18926" lon="-1.53925">
        <ele>42.346669</ele>
        <time>2021-10-30T15:42:39.522Z</time>
      </trkpt>
      <trkpt lat="47.18932" lon="-1.53936">
        <ele>42.297279</ele>
        <time>2021-10-30T15:42:41.511Z</time>
      </trkpt>
      <trkpt lat="47.18941" lon="-1.53945">
        <ele>42.244802</ele>
        <time>2021-10-30T15:42:43.895Z</time>
      </trkpt>
      <trkpt lat="47.18948" lon="-1.53958">
        <ele>42.188633</ele>
        <time>2021-10-30T15:42:45.962Z</time>
      </trkpt>
      <trkpt lat="47.18955" lon="-1.53975">
        <ele>42.121629</ele>
        <time>2021-10-30T15:42:49.520Z</time>
      </trkpt>
      <trkpt lat="47.18963" lon="-1.53984">
        <ele>42.073139</ele>
        <time>2021-10-30T15:42:51.354Z</time>
      </trkpt>
      <trkpt lat="47.18981" lon="-1.54015">
        <ele>42.092476</ele>
        <time>2021-10-30T15:42:58.519Z</time>
      </trkpt>
      <trkpt lat="47.18988" lon="-1.54031">
        <ele>42.265336</ele>
        <time>2021-10-30T15:43:01.519Z</time>
      </trkpt>
      <trkpt lat="47.18995" lon="-1.5404">
        <ele>42.396553</ele>
        <time>2021-10-30T15:43:03.937Z</time>
      </trkpt>
      <trkpt lat="47.19011" lon="-1.54073">
        <ele>42.772868</ele>
        <time>2021-10-30T15:43:09.535Z</time>
      </trkpt>
      <trkpt lat="47.19018" lon="-1.54085">
        <ele>42.925146</ele>
        <time>2021-10-30T15:43:12.730Z</time>
      </trkpt>
      <trkpt lat="47.19029" lon="-1.54094">
        <ele>43.098411</ele>
        <time>2021-10-30T15:43:15.281Z</time>
      </trkpt>
      <trkpt lat="47.19037" lon="-1.54103">
        <ele>43.237664</ele>
        <time>2021-10-30T15:43:17.179Z</time>
      </trkpt>
      <trkpt lat="47.19081" lon="-1.54174">
        <ele>44.134415</ele>
        <time>2021-10-30T15:43:32.502Z</time>
      </trkpt>
      <trkpt lat="47.19088" lon="-1.54187">
        <ele>44.280284</ele>
        <time>2021-10-30T15:43:34.466Z</time>
      </trkpt>
      <trkpt lat="47.19183" lon="-1.54372">
        <ele>45.313595</ele>
        <time>2021-10-30T15:44:13.519Z</time>
      </trkpt>
      <trkpt lat="47.19192" lon="-1.54368">
        <ele>45.370901</ele>
        <time>2021-10-30T15:44:15.521Z</time>
      </trkpt>
      <trkpt lat="47.19201" lon="-1.54361">
        <ele>45.428704</ele>
        <time>2021-10-30T15:44:17.366Z</time>
      </trkpt>
      <trkpt lat="47.19211" lon="-1.54364">
        <ele>45.486754</ele>
        <time>2021-10-30T15:44:19.350Z</time>
      </trkpt>
      <trkpt lat="47.19221" lon="-1.54362">
        <ele>45.527962</ele>
        <time>2021-10-30T15:44:21.286Z</time>
      </trkpt>
      <trkpt lat="47.19237" lon="-1.54365">
        <ele>45.569041</ele>
        <time>2021-10-30T15:44:25.489Z</time>
      </trkpt>
      <trkpt lat="47.19247" lon="-1.54367">
        <ele>45.593408</ele>
        <time>2021-10-30T15:44:28.191Z</time>
      </trkpt>
      <trkpt lat="47.19257" lon="-1.54357">
        <ele>45.621595</ele>
        <time>2021-10-30T15:44:30.279Z</time>
      </trkpt>
      <trkpt lat="47.19264" lon="-1.54346">
        <ele>45.646329</ele>
        <time>2021-10-30T15:44:32.519Z</time>
      </trkpt>
      <trkpt lat="47.19274" lon="-1.54335">
        <ele>45.676667</ele>
        <time>2021-10-30T15:44:35.957Z</time>
      </trkpt>
      <trkpt lat="47.19448" lon="-1.54435">
        <ele>50.741468</ele>
        <time>2021-10-30T15:45:31.888Z</time>
      </trkpt>
      <trkpt lat="47.19454" lon="-1.54445">
        <ele>51.342651</ele>
        <time>2021-10-30T15:45:34.044Z</time>
      </trkpt>
      <trkpt lat="47.19457" lon="-1.54463">
        <ele>52.1731</ele>
        <time>2021-10-30T15:46:07.503Z</time>
      </trkpt>
      <trkpt lat="47.19484" lon="-1.54552">
        <ele>56.495808</ele>
        <time>2021-10-30T15:46:47.513Z</time>
      </trkpt>
      <trkpt lat="47.19487" lon="-1.54567">
        <ele>57.195724</ele>
        <time>2021-10-30T15:46:49.519Z</time>
      </trkpt>
      <trkpt lat="47.1949" lon="-1.54581">
        <ele>57.628008</ele>
        <time>2021-10-30T15:46:51.501Z</time>
      </trkpt>
      <trkpt lat="47.19496" lon="-1.54598">
        <ele>56.860263</ele>
        <time>2021-10-30T15:46:54.512Z</time>
      </trkpt>
      <trkpt lat="47.19506" lon="-1.54609">
        <ele>56.166162</ele>
        <time>2021-10-30T15:46:57.539Z</time>
      </trkpt>
      <trkpt lat="47.19514" lon="-1.54615">
        <ele>55.637644</ele>
        <time>2021-10-30T15:46:59.535Z</time>
      </trkpt>
      <trkpt lat="47.1952" lon="-1.54625">
        <ele>55.104475</ele>
        <time>2021-10-30T15:47:01.405Z</time>
      </trkpt>
      <trkpt lat="47.19529" lon="-1.54635">
        <ele>54.433496</ele>
        <time>2021-10-30T15:47:04.153Z</time>
      </trkpt>
      <trkpt lat="47.19536" lon="-1.54645">
        <ele>53.900898</ele>
        <time>2021-10-30T15:47:05.894Z</time>
      </trkpt>
      <trkpt lat="47.19567" lon="-1.54684">
        <ele>51.531146</ele>
        <time>2021-10-30T15:47:15.502Z</time>
      </trkpt>
      <trkpt lat="47.19575" lon="-1.54697">
        <ele>50.840251</ele>
        <time>2021-10-30T15:47:19.233Z</time>
      </trkpt>
      <trkpt lat="47.1958" lon="-1.54709">
        <ele>50.258139</ele>
        <time>2021-10-30T15:47:20.992Z</time>
      </trkpt>
      <trkpt lat="47.19616" lon="-1.54756">
        <ele>47.474855</ele>
        <time>2021-10-30T15:47:32.508Z</time>
      </trkpt>
      <trkpt lat="47.19623" lon="-1.54767">
        <ele>47.215048</ele>
        <time>2021-10-30T15:47:34.496Z</time>
      </trkpt>
      <trkpt lat="47.1963" lon="-1.54777">
        <ele>47.066162</ele>
        <time>2021-10-30T15:47:36.563Z</time>
      </trkpt>
      <trkpt lat="47.19637" lon="-1.54787">
        <ele>46.922292</ele>
        <time>2021-10-30T15:47:38.499Z</time>
      </trkpt>
      <trkpt lat="47.19644" lon="-1.54797">
        <ele>46.775473</ele>
        <time>2021-10-30T15:47:40.504Z</time>
      </trkpt>
      <trkpt lat="47.19651" lon="-1.54808">
        <ele>46.625495</ele>
        <time>2021-10-30T15:47:42.550Z</time>
      </trkpt>
      <trkpt lat="47.19658" lon="-1.54819">
        <ele>46.470225</ele>
        <time>2021-10-30T15:47:44.519Z</time>
      </trkpt>
      <trkpt lat="47.19664" lon="-1.54831">
        <ele>46.31443</ele>
        <time>2021-10-30T15:47:46.499Z</time>
      </trkpt>
      <trkpt lat="47.1967" lon="-1.54843">
        <ele>46.164758</ele>
        <time>2021-10-30T15:47:48.558Z</time>
      </trkpt>
      <trkpt lat="47.19674" lon="-1.54856">
        <ele>46.016718</ele>
        <time>2021-10-30T15:47:50.511Z</time>
      </trkpt>
      <trkpt lat="47.19677" lon="-1.54869">
        <ele>45.878801</ele>
        <time>2021-10-30T15:47:52.505Z</time>
      </trkpt>
      <trkpt lat="47.1968" lon="-1.54883">
        <ele>45.736185</ele>
        <time>2021-10-30T15:47:54.543Z</time>
      </trkpt>
      <trkpt lat="47.19679" lon="-1.54897">
        <ele>45.593032</ele>
        <time>2021-10-30T15:47:56.486Z</time>
      </trkpt>
      <trkpt lat="47.19675" lon="-1.54909">
        <ele>45.450273</ele>
        <time>2021-10-30T15:47:58.519Z</time>
      </trkpt>
      <trkpt lat="47.19672" lon="-1.54923">
        <ele>45.302682</ele>
        <time>2021-10-30T15:48:00.539Z</time>
      </trkpt>
      <trkpt lat="47.19671" lon="-1.54937">
        <ele>45.156244</ele>
        <time>2021-10-30T15:48:02.510Z</time>
      </trkpt>
      <trkpt lat="47.19674" lon="-1.5495">
        <ele>45.014933</ele>
        <time>2021-10-30T15:48:04.548Z</time>
      </trkpt>
      <trkpt lat="47.19683" lon="-1.54958">
        <ele>44.856744</ele>
        <time>2021-10-30T15:48:06.555Z</time>
      </trkpt>
      <trkpt lat="47.19693" lon="-1.54955">
        <ele>44.706186</ele>
        <time>2021-10-30T15:48:09.512Z</time>
      </trkpt>
      <trkpt lat="47.19704" lon="-1.54958">
        <ele>44.830771</ele>
        <time>2021-10-30T15:48:13.034Z</time>
      </trkpt>
      <trkpt lat="47.19712" lon="-1.54965">
        <ele>45.17825</ele>
        <time>2021-10-30T15:48:15.170Z</time>
      </trkpt>
      <trkpt lat="47.19594" lon="-1.54974">
        <ele>49.607176</ele>
        <time>2021-10-30T15:49:25.501Z</time>
      </trkpt>
      <trkpt lat="47.19604" lon="-1.54975">
        <ele>49.978243</ele>
        <time>2021-10-30T15:49:28.515Z</time>
      </trkpt>
      <trkpt lat="47.19614" lon="-1.54976">
        <ele>50.34994</ele>
        <time>2021-10-30T15:49:31.496Z</time>
      </trkpt>
      <trkpt lat="47.19625" lon="-1.54976">
        <ele>50.766279</ele>
        <time>2021-10-30T15:49:34.051Z</time>
      </trkpt>
      <trkpt lat="47.19667" lon="-1.54975">
        <ele>52.019742</ele>
        <time>2021-10-30T15:49:45.511Z</time>
      </trkpt>
      <trkpt lat="47.19721" lon="-1.54973">
        <ele>53.375943</ele>
        <time>2021-10-30T15:49:59.206Z</time>
      </trkpt>
      <trkpt lat="47.19787" lon="-1.54973">
        <ele>55.011775</ele>
        <time>2021-10-30T15:50:16.569Z</time>
      </trkpt>
      <trkpt lat="47.19796" lon="-1.54972">
        <ele>55.239415</ele>
        <time>2021-10-30T15:50:18.528Z</time>
      </trkpt>
      <trkpt lat="47.19806" lon="-1.54972">
        <ele>55.497068</ele>
        <time>2021-10-30T15:50:20.523Z</time>
      </trkpt>
      <trkpt lat="47.19816" lon="-1.5497">
        <ele>55.754233</ele>
        <time>2021-10-30T15:50:22.526Z</time>
      </trkpt>
      <trkpt lat="47.19831" lon="-1.54971">
        <ele>55.70054</ele>
        <time>2021-10-30T15:50:25.510Z</time>
      </trkpt>
      <trkpt lat="47.19841" lon="-1.54971">
        <ele>55.52823</ele>
        <time>2021-10-30T15:50:27.542Z</time>
      </trkpt>
      <trkpt lat="47.19852" lon="-1.54971">
        <ele>55.365482</ele>
        <time>2021-10-30T15:50:29.519Z</time>
      </trkpt>
      <trkpt lat="47.19862" lon="-1.54971">
        <ele>55.205935</ele>
        <time>2021-10-30T15:50:31.506Z</time>
      </trkpt>
      <trkpt lat="47.19872" lon="-1.5497">
        <ele>55.041174</ele>
        <time>2021-10-30T15:50:33.538Z</time>
      </trkpt>
      <trkpt lat="47.19881" lon="-1.5497">
        <ele>54.889593</ele>
        <time>2021-10-30T15:50:35.528Z</time>
      </trkpt>
      <trkpt lat="47.19892" lon="-1.54972">
        <ele>54.716304</ele>
        <time>2021-10-30T15:50:37.623Z</time>
      </trkpt>
      <trkpt lat="47.19906" lon="-1.54972">
        <ele>54.500919</ele>
        <time>2021-10-30T15:50:40.503Z</time>
      </trkpt>
      <trkpt lat="47.19917" lon="-1.54971">
        <ele>54.328394</ele>
        <time>2021-10-30T15:50:42.515Z</time>
      </trkpt>
      <trkpt lat="47.19927" lon="-1.54971">
        <ele>54.163976</ele>
        <time>2021-10-30T15:50:44.513Z</time>
      </trkpt>
      <trkpt lat="47.19942" lon="-1.5497">
        <ele>53.927693</ele>
        <time>2021-10-30T15:50:47.520Z</time>
      </trkpt>
      <trkpt lat="47.19952" lon="-1.54971">
        <ele>53.761341</ele>
        <time>2021-10-30T15:50:49.500Z</time>
      </trkpt>
      <trkpt lat="47.19962" lon="-1.54972">
        <ele>53.604145</ele>
        <time>2021-10-30T15:50:51.499Z</time>
      </trkpt>
      <trkpt lat="47.19972" lon="-1.54973">
        <ele>53.444569</ele>
        <time>2021-10-30T15:50:53.483Z</time>
      </trkpt>
      <trkpt lat="47.19982" lon="-1.54973">
        <ele>53.27545</ele>
        <time>2021-10-30T15:50:55.517Z</time>
      </trkpt>
      <trkpt lat="47.19993" lon="-1.54972">
        <ele>53.109239</ele>
        <time>2021-10-30T15:50:57.502Z</time>
      </trkpt>
      <trkpt lat="47.20004" lon="-1.5497">
        <ele>53.002914</ele>
        <time>2021-10-30T15:50:59.507Z</time>
      </trkpt>
      <trkpt lat="47.20014" lon="-1.54968">
        <ele>53.045468</ele>
        <time>2021-10-30T15:51:01.566Z</time>
      </trkpt>
      <trkpt lat="47.20026" lon="-1.54965">
        <ele>53.091312</ele>
        <time>2021-10-30T15:51:03.492Z</time>
      </trkpt>
      <trkpt lat="47.20038" lon="-1.54961">
        <ele>53.138307</ele>
        <time>2021-10-30T15:51:05.498Z</time>
      </trkpt>
      <trkpt lat="47.2005" lon="-1.54956">
        <ele>53.186511</ele>
        <time>2021-10-30T15:51:07.496Z</time>
      </trkpt>
      <trkpt lat="47.20061" lon="-1.54949">
        <ele>53.23456</ele>
        <time>2021-10-30T15:51:09.512Z</time>
      </trkpt>
      <trkpt lat="47.20073" lon="-1.54943">
        <ele>53.28206</ele>
        <time>2021-10-30T15:51:11.511Z</time>
      </trkpt>
      <trkpt lat="47.20084" lon="-1.54935">
        <ele>53.330153</ele>
        <time>2021-10-30T15:51:13.513Z</time>
      </trkpt>
      <trkpt lat="47.20095" lon="-1.54927">
        <ele>53.376415</ele>
        <time>2021-10-30T15:51:15.480Z</time>
      </trkpt>
      <trkpt lat="47.20105" lon="-1.54919">
        <ele>53.422677</ele>
        <time>2021-10-30T15:51:17.504Z</time>
      </trkpt>
      <trkpt lat="47.20115" lon="-1.54909">
        <ele>53.46786</ele>
        <time>2021-10-30T15:51:19.521Z</time>
      </trkpt>
      <trkpt lat="47.20124" lon="-1.549">
        <ele>53.510428</ele>
        <time>2021-10-30T15:51:21.532Z</time>
      </trkpt>
      <trkpt lat="47.20133" lon="-1.54893">
        <ele>53.551605</ele>
        <time>2021-10-30T15:51:23.513Z</time>
      </trkpt>
      <trkpt lat="47.20143" lon="-1.54889">
        <ele>53.590705</ele>
        <time>2021-10-30T15:51:25.525Z</time>
      </trkpt>
      <trkpt lat="47.20153" lon="-1.54887">
        <ele>53.628697</ele>
        <time>2021-10-30T15:51:28.514Z</time>
      </trkpt>
      <trkpt lat="47.20167" lon="-1.54893">
        <ele>53.683582</ele>
        <time>2021-10-30T15:51:32.404Z</time>
      </trkpt>
      <trkpt lat="47.20167" lon="-1.54911">
        <ele>53.943294</ele>
        <time>2021-10-30T15:51:36.065Z</time>
      </trkpt>
      <trkpt lat="47.20165" lon="-1.54931">
        <ele>54.240387</ele>
        <time>2021-10-30T15:51:38.498Z</time>
      </trkpt>
      <trkpt lat="47.20165" lon="-1.54947">
        <ele>54.479534</ele>
        <time>2021-10-30T15:51:40.499Z</time>
      </trkpt>
      <trkpt lat="47.20166" lon="-1.54967">
        <ele>54.771524</ele>
        <time>2021-10-30T15:51:43.533Z</time>
      </trkpt>
      <trkpt lat="47.20166" lon="-1.54982">
        <ele>54.986909</ele>
        <time>2021-10-30T15:51:45.506Z</time>
      </trkpt>
      <trkpt lat="47.20166" lon="-1.54996">
        <ele>55.196944</ele>
        <time>2021-10-30T15:51:47.507Z</time>
      </trkpt>
      <trkpt lat="47.20165" lon="-1.5501">
        <ele>55.402106</ele>
        <time>2021-10-30T15:51:49.529Z</time>
      </trkpt>
      <trkpt lat="47.20166" lon="-1.55023">
        <ele>55.604633</ele>
        <time>2021-10-30T15:51:51.508Z</time>
      </trkpt>
      <trkpt lat="47.20173" lon="-1.55033">
        <ele>55.804601</ele>
        <time>2021-10-30T15:51:53.507Z</time>
      </trkpt>
      <trkpt lat="47.20182" lon="-1.55037">
        <ele>56.024278</ele>
        <time>2021-10-30T15:51:55.506Z</time>
      </trkpt>
      <trkpt lat="47.20191" lon="-1.55044">
        <ele>56.240042</ele>
        <time>2021-10-30T15:51:57.501Z</time>
      </trkpt>
      <trkpt lat="47.202" lon="-1.55051">
        <ele>56.466823</ele>
        <time>2021-10-30T15:51:59.528Z</time>
      </trkpt>
      <trkpt lat="47.20208" lon="-1.55061">
        <ele>56.6895</ele>
        <time>2021-10-30T15:52:01.509Z</time>
      </trkpt>
      <trkpt lat="47.20215" lon="-1.55072">
        <ele>56.912538</ele>
        <time>2021-10-30T15:52:03.516Z</time>
      </trkpt>
      <trkpt lat="47.20221" lon="-1.55083">
        <ele>57.12253</ele>
        <time>2021-10-30T15:52:05.506Z</time>
      </trkpt>
      <trkpt lat="47.20227" lon="-1.55093">
        <ele>57.322993</ele>
        <time>2021-10-30T15:52:07.502Z</time>
      </trkpt>
      <trkpt lat="47.20234" lon="-1.55103">
        <ele>57.524589</ele>
        <time>2021-10-30T15:52:09.496Z</time>
      </trkpt>
      <trkpt lat="47.2024" lon="-1.55114">
        <ele>57.286811</ele>
        <time>2021-10-30T15:52:11.494Z</time>
      </trkpt>
      <trkpt lat="47.20247" lon="-1.55124">
        <ele>56.835602</ele>
        <time>2021-10-30T15:52:13.505Z</time>
      </trkpt>
      <trkpt lat="47.20254" lon="-1.55134">
        <ele>56.370889</ele>
        <time>2021-10-30T15:52:15.495Z</time>
      </trkpt>
      <trkpt lat="47.20261" lon="-1.55144">
        <ele>55.89236</ele>
        <time>2021-10-30T15:52:17.522Z</time>
      </trkpt>
      <trkpt lat="47.20268" lon="-1.55154">
        <ele>55.434238</ele>
        <time>2021-10-30T15:52:19.499Z</time>
      </trkpt>
      <trkpt lat="47.20275" lon="-1.55164">
        <ele>54.987582</ele>
        <time>2021-10-30T15:52:21.496Z</time>
      </trkpt>
      <trkpt lat="47.20282" lon="-1.55176">
        <ele>54.45025</ele>
        <time>2021-10-30T15:52:24.530Z</time>
      </trkpt>
      <trkpt lat="47.20291" lon="-1.55191">
        <ele>53.805596</ele>
        <time>2021-10-30T15:52:27.509Z</time>
      </trkpt>
      <trkpt lat="47.20298" lon="-1.55202">
        <ele>53.34878</ele>
        <time>2021-10-30T15:52:29.502Z</time>
      </trkpt>
      <trkpt lat="47.20304" lon="-1.55212">
        <ele>52.901139</ele>
        <time>2021-10-30T15:52:31.505Z</time>
      </trkpt>
      <trkpt lat="47.20304" lon="-1.55226">
        <ele>52.460369</ele>
        <time>2021-10-30T15:52:34.424Z</time>
      </trkpt>
      <trkpt lat="47.20395" lon="-1.55157">
        <ele>49.102275</ele>
        <time>2021-10-30T15:53:11.482Z</time>
      </trkpt>
      <trkpt lat="47.20394" lon="-1.55172">
        <ele>49.107668</ele>
        <time>2021-10-30T15:53:13.523Z</time>
      </trkpt>
      <trkpt lat="47.20399" lon="-1.55187">
        <ele>49.113389</ele>
        <time>2021-10-30T15:53:16.502Z</time>
      </trkpt>
      <trkpt lat="47.20409" lon="-1.55217">
        <ele>49.124915</ele>
        <time>2021-10-30T15:53:21.511Z</time>
      </trkpt>
      <trkpt lat="47.20416" lon="-1.55234">
        <ele>49.131785</ele>
        <time>2021-10-30T15:53:24.528Z</time>
      </trkpt>
      <trkpt lat="47.2042" lon="-1.55249">
        <ele>49.137249</ele>
        <time>2021-10-30T15:53:26.503Z</time>
      </trkpt>
      <trkpt lat="47.20427" lon="-1.55263">
        <ele>49.143095</ele>
        <time>2021-10-30T15:53:28.510Z</time>
      </trkpt>
      <trkpt lat="47.20433" lon="-1.55277">
        <ele>49.148883</ele>
        <time>2021-10-30T15:53:30.504Z</time>
      </trkpt>
      <trkpt lat="47.20439" lon="-1.55292">
        <ele>49.154995</ele>
        <time>2021-10-30T15:53:32.506Z</time>
      </trkpt>
      <trkpt lat="47.20448" lon="-1.55307">
        <ele>49.161547</ele>
        <time>2021-10-30T15:53:34.508Z</time>
      </trkpt>
      <trkpt lat="47.20457" lon="-1.55319">
        <ele>49.167868</ele>
        <time>2021-10-30T15:53:36.498Z</time>
      </trkpt>
      <trkpt lat="47.20464" lon="-1.55332">
        <ele>49.173714</ele>
        <time>2021-10-30T15:53:38.506Z</time>
      </trkpt>
      <trkpt lat="47.20472" lon="-1.55344">
        <ele>49.144789</ele>
        <time>2021-10-30T15:53:40.499Z</time>
      </trkpt>
      <trkpt lat="47.2048" lon="-1.55355">
        <ele>49.001466</ele>
        <time>2021-10-30T15:53:42.507Z</time>
      </trkpt>
      <trkpt lat="47.20486" lon="-1.55367">
        <ele>48.873492</ele>
        <time>2021-10-30T15:53:45.492Z</time>
      </trkpt>
      <trkpt lat="47.20493" lon="-1.55383">
        <ele>48.710965</ele>
        <time>2021-10-30T15:53:48.528Z</time>
      </trkpt>
      <trkpt lat="47.20498" lon="-1.55395">
        <ele>48.583809</ele>
        <time>2021-10-30T15:53:50.531Z</time>
      </trkpt>
      <trkpt lat="47.20504" lon="-1.55405">
        <ele>48.463252</ele>
        <time>2021-10-30T15:53:54.434Z</time>
      </trkpt>
      <trkpt lat="47.20542" lon="-1.55427">
        <ele>47.947962</ele>
        <time>2021-10-30T15:54:04.508Z</time>
      </trkpt>
      <trkpt lat="47.20551" lon="-1.55434">
        <ele>47.817136</ele>
        <time>2021-10-30T15:54:06.500Z</time>
      </trkpt>
      <trkpt lat="47.20557" lon="-1.55446">
        <ele>47.684955</ele>
        <time>2021-10-30T15:54:08.503Z</time>
      </trkpt>
      <trkpt lat="47.20562" lon="-1.55459">
        <ele>47.55965</ele>
        <time>2021-10-30T15:54:10.530Z</time>
      </trkpt>
      <trkpt lat="47.2057" lon="-1.55468">
        <ele>47.427897</ele>
        <time>2021-10-30T15:54:13.002Z</time>
      </trkpt>
      <trkpt lat="47.20599" lon="-1.55476">
        <ele>47.049988</ele>
        <time>2021-10-30T15:54:24.520Z</time>
      </trkpt>
      <trkpt lat="47.20609" lon="-1.55478">
        <ele>46.922391</ele>
        <time>2021-10-30T15:54:26.523Z</time>
      </trkpt>
      <trkpt lat="47.20619" lon="-1.55481">
        <ele>46.927026</ele>
        <time>2021-10-30T15:54:28.501Z</time>
      </trkpt>
      <trkpt lat="47.20629" lon="-1.55483">
        <ele>46.992102</ele>
        <time>2021-10-30T15:54:30.560Z</time>
      </trkpt>
      <trkpt lat="47.2064" lon="-1.5548">
        <ele>47.073975</ele>
        <time>2021-10-30T15:54:33.356Z</time>
      </trkpt>
      <trkpt lat="47.2066" lon="-1.55488">
        <ele>47.214026</ele>
        <time>2021-10-30T15:54:38.514Z</time>
      </trkpt>
      <trkpt lat="47.20671" lon="-1.55493">
        <ele>47.292306</ele>
        <time>2021-10-30T15:54:40.494Z</time>
      </trkpt>
      <trkpt lat="47.2068" lon="-1.55499">
        <ele>47.363547</ele>
        <time>2021-10-30T15:54:42.485Z</time>
      </trkpt>
      <trkpt lat="47.2069" lon="-1.55502">
        <ele>47.43102</ele>
        <time>2021-10-30T15:54:44.537Z</time>
      </trkpt>
      <trkpt lat="47.20699" lon="-1.5551">
        <ele>47.504376</ele>
        <time>2021-10-30T15:54:47.382Z</time>
      </trkpt>
      <trkpt lat="47.20713" lon="-1.55508">
        <ele>47.598803</ele>
        <time>2021-10-30T15:54:49.514Z</time>
      </trkpt>
      <trkpt lat="47.20722" lon="-1.55512">
        <ele>47.663716</ele>
        <time>2021-10-30T15:54:51.438Z</time>
      </trkpt>
      <trkpt lat="47.20732" lon="-1.55539">
        <ele>47.803539</ele>
        <time>2021-10-30T15:54:56.495Z</time>
      </trkpt>
      <trkpt lat="47.20735" lon="-1.55554">
        <ele>47.878896</ele>
        <time>2021-10-30T15:54:58.517Z</time>
      </trkpt>
      <trkpt lat="47.20737" lon="-1.5557">
        <ele>47.952234</ele>
        <time>2021-10-30T15:55:00.497Z</time>
      </trkpt>
      <trkpt lat="47.20739" lon="-1.55585">
        <ele>48.023804</ele>
        <time>2021-10-30T15:55:02.520Z</time>
      </trkpt>
      <trkpt lat="47.20741" lon="-1.55599">
        <ele>48.093134</ele>
        <time>2021-10-30T15:55:04.486Z</time>
      </trkpt>
      <trkpt lat="47.20743" lon="-1.55613">
        <ele>48.07706</ele>
        <time>2021-10-30T15:55:06.513Z</time>
      </trkpt>
      <trkpt lat="47.20745" lon="-1.55626">
        <ele>48.021628</ele>
        <time>2021-10-30T15:55:08.499Z</time>
      </trkpt>
      <trkpt lat="47.20746" lon="-1.55641">
        <ele>47.964423</ele>
        <time>2021-10-30T15:55:10.494Z</time>
      </trkpt>
      <trkpt lat="47.20748" lon="-1.55655">
        <ele>47.906569</ele>
        <time>2021-10-30T15:55:12.506Z</time>
      </trkpt>
      <trkpt lat="47.20749" lon="-1.55669">
        <ele>47.849284</ele>
        <time>2021-10-30T15:55:14.514Z</time>
      </trkpt>
      <trkpt lat="47.2075" lon="-1.55684">
        <ele>47.792285</ele>
        <time>2021-10-30T15:55:16.519Z</time>
      </trkpt>
      <trkpt lat="47.20752" lon="-1.55697">
        <ele>47.736599</ele>
        <time>2021-10-30T15:55:18.503Z</time>
      </trkpt>
      <trkpt lat="47.20755" lon="-1.55711">
        <ele>47.680457</ele>
        <time>2021-10-30T15:55:20.496Z</time>
      </trkpt>
      <trkpt lat="47.20758" lon="-1.55725">
        <ele>47.622449</ele>
        <time>2021-10-30T15:55:22.493Z</time>
      </trkpt>
      <trkpt lat="47.20759" lon="-1.5574">
        <ele>47.563028</ele>
        <time>2021-10-30T15:55:24.517Z</time>
      </trkpt>
      <trkpt lat="47.20761" lon="-1.55754">
        <ele>47.50502</ele>
        <time>2021-10-30T15:55:26.501Z</time>
      </trkpt>
      <trkpt lat="47.20762" lon="-1.55769">
        <ele>47.44717</ele>
        <time>2021-10-30T15:55:28.527Z</time>
      </trkpt>
      <trkpt lat="47.20763" lon="-1.55783">
        <ele>47.391807</ele>
        <time>2021-10-30T15:55:30.513Z</time>
      </trkpt>
      <trkpt lat="47.20766" lon="-1.55796">
        <ele>47.335789</ele>
        <time>2021-10-30T15:55:32.501Z</time>
      </trkpt>
      <trkpt lat="47.20767" lon="-1.5581">
        <ele>47.279681</ele>
        <time>2021-10-30T15:55:34.515Z</time>
      </trkpt>
      <trkpt lat="47.2077" lon="-1.55824">
        <ele>47.223281</ele>
        <time>2021-10-30T15:55:36.496Z</time>
      </trkpt>
      <trkpt lat="47.20772" lon="-1.55837">
        <ele>47.167418</ele>
        <time>2021-10-30T15:55:38.499Z</time>
      </trkpt>
      <trkpt lat="47.20775" lon="-1.55851">
        <ele>47.111657</ele>
        <time>2021-10-30T15:55:40.504Z</time>
      </trkpt>
      <trkpt lat="47.20778" lon="-1.55864">
        <ele>47.070274</ele>
        <time>2021-10-30T15:55:42.499Z</time>
      </trkpt>
      <trkpt lat="47.20781" lon="-1.55879">
        <ele>47.109316</ele>
        <time>2021-10-30T15:55:44.522Z</time>
      </trkpt>
      <trkpt lat="47.20783" lon="-1.55892">
        <ele>47.14764</ele>
        <time>2021-10-30T15:55:46.513Z</time>
      </trkpt>
      <trkpt lat="47.20786" lon="-1.55906">
        <ele>47.185805</ele>
        <time>2021-10-30T15:55:48.494Z</time>
      </trkpt>
      <trkpt lat="47.20789" lon="-1.5592">
        <ele>47.225153</ele>
        <time>2021-10-30T15:55:50.515Z</time>
      </trkpt>
      <trkpt lat="47.20791" lon="-1.55935">
        <ele>47.264869</ele>
        <time>2021-10-30T15:55:52.509Z</time>
      </trkpt>
      <trkpt lat="47.20795" lon="-1.55948">
        <ele>47.303594</ele>
        <time>2021-10-30T15:55:54.488Z</time>
      </trkpt>
      <trkpt lat="47.20797" lon="-1.55962">
        <ele>47.342592</ele>
        <time>2021-10-30T15:55:56.504Z</time>
      </trkpt>
      <trkpt lat="47.208" lon="-1.55976">
        <ele>47.38031</ele>
        <time>2021-10-30T15:55:58.485Z</time>
      </trkpt>
      <trkpt lat="47.20802" lon="-1.55989">
        <ele>47.41802</ele>
        <time>2021-10-30T15:56:00.497Z</time>
      </trkpt>
      <trkpt lat="47.20804" lon="-1.56004">
        <ele>47.457421</ele>
        <time>2021-10-30T15:56:02.508Z</time>
      </trkpt>
      <trkpt lat="47.20805" lon="-1.56018">
        <ele>47.494385</ele>
        <time>2021-10-30T15:56:04.522Z</time>
      </trkpt>
      <trkpt lat="47.20808" lon="-1.56031">
        <ele>47.530441</ele>
        <time>2021-10-30T15:56:06.498Z</time>
      </trkpt>
      <trkpt lat="47.20811" lon="-1.56043">
        <ele>47.566526</ele>
        <time>2021-10-30T15:56:08.502Z</time>
      </trkpt>
      <trkpt lat="47.20814" lon="-1.56056">
        <ele>47.602456</ele>
        <time>2021-10-30T15:56:10.499Z</time>
      </trkpt>
      <trkpt lat="47.20817" lon="-1.56069">
        <ele>47.638386</ele>
        <time>2021-10-30T15:56:12.538Z</time>
      </trkpt>
      <trkpt lat="47.20821" lon="-1.56086">
        <ele>47.688864</ele>
        <time>2021-10-30T15:56:15.522Z</time>
      </trkpt>
      <trkpt lat="47.20824" lon="-1.56105">
        <ele>47.740208</ele>
        <time>2021-10-30T15:56:18.519Z</time>
      </trkpt>
      <trkpt lat="47.20827" lon="-1.56119">
        <ele>47.788044</ele>
        <time>2021-10-30T15:56:20.540Z</time>
      </trkpt>
      <trkpt lat="47.2083" lon="-1.56132">
        <ele>47.89028</ele>
        <time>2021-10-30T15:56:22.523Z</time>
      </trkpt>
      <trkpt lat="47.20841" lon="-1.56144">
        <ele>48.041815</ele>
        <time>2021-10-30T15:56:25.524Z</time>
      </trkpt>
      <trkpt lat="47.20853" lon="-1.5614">
        <ele>48.181143</ele>
        <time>2021-10-30T15:56:28.286Z</time>
      </trkpt>
      <trkpt lat="47.20918" lon="-1.56156">
        <ele>48.901858</ele>
        <time>2021-10-30T15:56:42.945Z</time>
      </trkpt>
      <trkpt lat="47.21004" lon="-1.56234">
        <ele>49.910373</ele>
        <time>2021-10-30T15:57:12.502Z</time>
      </trkpt>
      <trkpt lat="47.21006" lon="-1.56247">
        <ele>49.96901</ele>
        <time>2021-10-30T15:57:14.497Z</time>
      </trkpt>
      <trkpt lat="47.21007" lon="-1.5626">
        <ele>50.026953</ele>
        <time>2021-10-30T15:57:16.530Z</time>
      </trkpt>
      <trkpt lat="47.21008" lon="-1.56276">
        <ele>50.09487</ele>
        <time>2021-10-30T15:57:18.628Z</time>
      </trkpt>
      <trkpt lat="47.21007" lon="-1.56294">
        <ele>50.172894</ele>
        <time>2021-10-30T15:57:21.491Z</time>
      </trkpt>
      <trkpt lat="47.21006" lon="-1.56314">
        <ele>50.258714</ele>
        <time>2021-10-30T15:57:24.505Z</time>
      </trkpt>
      <trkpt lat="47.21004" lon="-1.56327">
        <ele>50.316964</ele>
        <time>2021-10-30T15:57:26.543Z</time>
      </trkpt>
      <trkpt lat="47.21002" lon="-1.5634">
        <ele>50.375156</ele>
        <time>2021-10-30T15:57:28.525Z</time>
      </trkpt>
      <trkpt lat="47.20999" lon="-1.56353">
        <ele>50.432363</ele>
        <time>2021-10-30T15:57:30.413Z</time>
      </trkpt>
      <trkpt lat="47.20995" lon="-1.56369">
        <ele>50.511219</ele>
        <time>2021-10-30T15:57:33.496Z</time>
      </trkpt>
      <trkpt lat="47.20977" lon="-1.56416">
        <ele>50.744057</ele>
        <time>2021-10-30T15:57:41.525Z</time>
      </trkpt>
      <trkpt lat="47.20973" lon="-1.5643">
        <ele>50.811703</ele>
        <time>2021-10-30T15:57:43.446Z</time>
      </trkpt>
      <trkpt lat="47.20969" lon="-1.56447">
        <ele>50.890477</ele>
        <time>2021-10-30T15:57:46.539Z</time>
      </trkpt>
      <trkpt lat="47.20966" lon="-1.56465">
        <ele>51.271868</ele>
        <time>2021-10-30T15:57:49.042Z</time>
      </trkpt>
      <trkpt lat="47.209" lon="-1.56767">
        <ele>57.441522</ele>
        <time>2021-10-30T15:59:05.503Z</time>
      </trkpt>
      <trkpt lat="47.20898" lon="-1.5678">
        <ele>57.356701</ele>
        <time>2021-10-30T15:59:07.316Z</time>
      </trkpt>
      <trkpt lat="47.20912" lon="-1.56814">
        <ele>57.118112</ele>
        <time>2021-10-30T15:59:16.523Z</time>
      </trkpt>
      <trkpt lat="47.20921" lon="-1.56819">
        <ele>57.028903</ele>
        <time>2021-10-30T15:59:18.361Z</time>
      </trkpt>
      <trkpt lat="47.21022" lon="-1.56845">
        <ele>55.820768</ele>
        <time>2021-10-30T15:59:48.891Z</time>
      </trkpt>
      <trkpt lat="47.21199" lon="-1.56955">
        <ele>51.047684</ele>
        <time>2021-10-30T16:00:42.505Z</time>
      </trkpt>
      <trkpt lat="47.21212" lon="-1.56962">
        <ele>51.153885</ele>
        <time>2021-10-30T16:00:45.512Z</time>
      </trkpt>
      <trkpt lat="47.21221" lon="-1.56966">
        <ele>51.230583</ele>
        <time>2021-10-30T16:00:47.555Z</time>
      </trkpt>
      <trkpt lat="47.21231" lon="-1.56971">
        <ele>51.310995</ele>
        <time>2021-10-30T16:00:49.520Z</time>
      </trkpt>
      <trkpt lat="47.21241" lon="-1.56976">
        <ele>51.393803</ele>
        <time>2021-10-30T16:00:51.497Z</time>
      </trkpt>
      <trkpt lat="47.21251" lon="-1.5698">
        <ele>51.477646</ele>
        <time>2021-10-30T16:00:53.503Z</time>
      </trkpt>
      <trkpt lat="47.21261" lon="-1.56985">
        <ele>51.560296</ele>
        <time>2021-10-30T16:00:55.520Z</time>
      </trkpt>
      <trkpt lat="47.2127" lon="-1.56992">
        <ele>51.640465</ele>
        <time>2021-10-30T16:00:57.504Z</time>
      </trkpt>
      <trkpt lat="47.21274" lon="-1.57004">
        <ele>51.711321</ele>
        <time>2021-10-30T16:00:59.516Z</time>
      </trkpt>
      <trkpt lat="47.21272" lon="-1.57019">
        <ele>51.792123</ele>
        <time>2021-10-30T16:01:01.499Z</time>
      </trkpt>
      <trkpt lat="47.21269" lon="-1.57038">
        <ele>51.896571</ele>
        <time>2021-10-30T16:01:03.499Z</time>
      </trkpt>
      <trkpt lat="47.21266" lon="-1.57059">
        <ele>52.009024</ele>
        <time>2021-10-30T16:01:05.499Z</time>
      </trkpt>
      <trkpt lat="47.21264" lon="-1.57081">
        <ele>52.130116</ele>
        <time>2021-10-30T16:01:07.500Z</time>
      </trkpt>
      <trkpt lat="47.21261" lon="-1.57104">
        <ele>52.249234</ele>
        <time>2021-10-30T16:01:09.550Z</time>
      </trkpt>
      <trkpt lat="47.2126" lon="-1.57126">
        <ele>52.249234</ele>
        <time>2021-10-30T16:01:11.515Z</time>
      </trkpt>
      <trkpt lat="47.2126" lon="-1.57141">
        <ele>52.249234</ele>
        <time>2021-10-30T16:01:13.529Z</time>
      </trkpt>
      <trkpt lat="47.21287" lon="-1.57161">
        <ele>52.249234</ele>
        <time>2021-10-30T16:01:20.502Z</time>
      </trkpt>
    </trkseg>
  </trk>
</gpx>